<?xml version='1.0' encoding='UTF-8'?><gpx version="1.1" creator="JPX - https://github.com/jenetics/jpx" xmlns="http://www.topografix.com/GPX/1/1"><trk><trkseg><trkpt lat="43.56473236259182" lon="11.224884818730715"><ele>193.0</ele><time>2026-04-03T09:45:47Z</time></trkpt><trkpt lat="43.56473327924274" lon="11.224992979848981"><ele>193.0</ele><time>2026-04-03T09:45:48Z</time></trkpt><trkpt lat="43.564732543779485" lon="11.225122339123478"><ele>193.0</ele><time>2026-04-03T09:45:49Z</time></trkpt><trkpt lat="43.56472437625623" lon="11.225243701097131"><ele>193.0</ele><time>2026-04-03T09:45:50Z</time></trkpt><trkpt lat="43.56471532518267" lon="11.225390718730592"><ele>193.0</ele><time>2026-04-03T09:45:51Z</time></trkpt><trkpt lat="43.56470136254101" lon="11.225542375846583"><ele>194.75</ele><time>2026-04-03T09:45:52Z</time></trkpt><trkpt lat="43.56468453741576" lon="11.225694784002494"><ele>196.5</ele><time>2026-04-03T09:45:52.999Z</time></trkpt><trkpt lat="43.56465506881694" lon="11.225845834173558"><ele>198.25</ele><time>2026-04-03T09:45:53.999Z</time></trkpt><trkpt lat="43.5646145625777" lon="11.226002476565498"><ele>200.0</ele><time>2026-04-03T09:45:54.999Z</time></trkpt><trkpt lat="43.564571400429855" lon="11.226158310345271"><ele>200.0</ele><time>2026-04-03T09:45:55.999Z</time></trkpt><trkpt lat="43.564539094871144" lon="11.22629223486408"><ele>200.0</ele><time>2026-04-03T09:45:56.999Z</time></trkpt><trkpt lat="43.564511496603316" lon="11.226413265103446"><ele>200.0</ele><time>2026-04-03T09:45:57.999Z</time></trkpt><trkpt lat="43.56446708800385" lon="11.226520549380863"><ele>200.0</ele><time>2026-04-03T09:45:58.999Z</time></trkpt><trkpt lat="43.564388344432864" lon="11.22665137167154"><ele>200.0</ele><time>2026-04-03T09:45:59.999Z</time></trkpt><trkpt lat="43.564308825189904" lon="11.226787587633504"><ele>198.6</ele><time>2026-04-03T09:46:00.999Z</time></trkpt><trkpt lat="43.56423828419752" lon="11.22692591961976"><ele>197.2</ele><time>2026-04-03T09:46:01.999Z</time></trkpt><trkpt lat="43.56417219146855" lon="11.227056651340451"><ele>195.8</ele><time>2026-04-03T09:46:02.999Z</time></trkpt><trkpt lat="43.56410693223369" lon="11.227160178870017"><ele>194.4</ele><time>2026-04-03T09:46:03.999Z</time></trkpt><trkpt lat="43.564012949800684" lon="11.227220411607243"><ele>193.0</ele><time>2026-04-03T09:46:04.999Z</time></trkpt><trkpt lat="43.563896262668685" lon="11.227307382207782"><ele>193.4</ele><time>2026-04-03T09:46:05.999Z</time></trkpt><trkpt lat="43.56378398646088" lon="11.22736941843353"><ele>193.8</ele><time>2026-04-03T09:46:06.999Z</time></trkpt><trkpt lat="43.56368931297359" lon="11.227418250749738"><ele>194.2</ele><time>2026-04-03T09:46:07.999Z</time></trkpt><trkpt lat="43.56361046637439" lon="11.22746403568902"><ele>194.6</ele><time>2026-04-03T09:46:08.999Z</time></trkpt><trkpt lat="43.56354416487342" lon="11.22750791640855"><ele>195.0</ele><time>2026-04-03T09:46:09.999Z</time></trkpt><trkpt lat="43.56347311846134" lon="11.227565255331646"><ele>195.0</ele><time>2026-04-03T09:46:10.999Z</time></trkpt><trkpt lat="43.56338508609554" lon="11.227629470647509"><ele>195.0</ele><time>2026-04-03T09:46:11.999Z</time></trkpt><trkpt lat="43.56328018820012" lon="11.227704964670798"><ele>195.0</ele><time>2026-04-03T09:46:12.999Z</time></trkpt><trkpt lat="43.56317980965471" lon="11.227773706194492"><ele>195.0</ele><time>2026-04-03T09:46:13.999Z</time></trkpt><trkpt lat="43.56310700993066" lon="11.227821958455875"><ele>195.0</ele><time>2026-04-03T09:46:14.999Z</time></trkpt><trkpt lat="43.56300713740769" lon="11.227881736015558"><ele>195.0</ele><time>2026-04-03T09:46:16.999Z</time></trkpt><trkpt lat="43.5630284895127" lon="11.228082607656797"><ele>195.0</ele><time>2026-04-03T09:46:19.999Z</time></trkpt><trkpt lat="43.56311282583262" lon="11.228178964227416"><ele>195.0</ele><time>2026-04-03T09:46:21.999Z</time></trkpt><trkpt lat="43.56319243947199" lon="11.228240732098914"><ele>195.0</ele><time>2026-04-03T09:46:23.999Z</time></trkpt><trkpt lat="43.56323421420597" lon="11.2283120001531"><ele>195.0</ele><time>2026-04-03T09:46:26.999Z</time></trkpt><trkpt lat="43.56320614303531" lon="11.228472240892179"><ele>196.0</ele><time>2026-04-03T09:46:28.999Z</time></trkpt><trkpt lat="43.56324054974998" lon="11.228562499221955"><ele>197.0</ele><time>2026-04-03T09:46:30.999Z</time></trkpt><trkpt lat="43.56325901868794" lon="11.228671645559022"><ele>198.0</ele><time>2026-04-03T09:46:35.999Z</time></trkpt><trkpt lat="43.56329000205202" lon="11.228774246310865"><ele>199.0</ele><time>2026-04-03T09:46:46Z</time></trkpt><trkpt lat="43.56335531805762" lon="11.2288362119207"><ele>200.0</ele><time>2026-04-03T09:46:49Z</time></trkpt><trkpt lat="43.563417213791375" lon="11.22891689156096"><ele>201.0</ele><time>2026-04-03T09:46:51Z</time></trkpt><trkpt lat="43.563453838144234" lon="11.229001838669783"><ele>202.16666666666666</ele><time>2026-04-03T09:46:53Z</time></trkpt><trkpt lat="43.56348868993509" lon="11.229123721310915"><ele>203.33333333333331</ele><time>2026-04-03T09:46:56Z</time></trkpt><trkpt lat="43.563498995578165" lon="11.22924737251685"><ele>204.5</ele><time>2026-04-03T09:46:59Z</time></trkpt><trkpt lat="43.563528500913286" lon="11.229355596419566"><ele>205.66666666666666</ele><time>2026-04-03T09:47:02Z</time></trkpt><trkpt lat="43.563555109216786" lon="11.229472352974888"><ele>206.83333333333331</ele><time>2026-04-03T09:47:07Z</time></trkpt><trkpt lat="43.56355803404729" lon="11.229591863807356"><ele>208.0</ele><time>2026-04-03T09:47:10Z</time></trkpt><trkpt lat="43.56359280203431" lon="11.22967237936786"><ele>207.99999999999997</ele><time>2026-04-03T09:47:12Z</time></trkpt><trkpt lat="43.56366877775865" lon="11.22975064098552"><ele>208.0</ele><time>2026-04-03T09:47:14Z</time></trkpt><trkpt lat="43.563723800720524" lon="11.229819978108347"><ele>208.0</ele><time>2026-04-03T09:47:16Z</time></trkpt><trkpt lat="43.56376742473648" lon="11.229927257948022"><ele>208.0</ele><time>2026-04-03T09:47:18Z</time></trkpt><trkpt lat="43.56378648735409" lon="11.230050543797763"><ele>207.99999999999997</ele><time>2026-04-03T09:47:20Z</time></trkpt><trkpt lat="43.5638054710263" lon="11.230143207822572"><ele>208.0</ele><time>2026-04-03T09:47:22Z</time></trkpt><trkpt lat="43.563834588138775" lon="11.23023221808041"><ele>207.66666666666666</ele><time>2026-04-03T09:47:23Z</time></trkpt><trkpt lat="43.563870182605704" lon="11.230356177940266"><ele>207.33333333333331</ele><time>2026-04-03T09:47:25Z</time></trkpt><trkpt lat="43.563860652407335" lon="11.230456426024658"><ele>207.0</ele><time>2026-04-03T09:47:27Z</time></trkpt><trkpt lat="43.56386987609369" lon="11.230545942319868"><ele>206.66666666666669</ele><time>2026-04-03T09:47:29Z</time></trkpt><trkpt lat="43.56388439048322" lon="11.230659563297213"><ele>206.33333333333334</ele><time>2026-04-03T09:47:32Z</time></trkpt><trkpt lat="43.56391973625533" lon="11.230809290960039"><ele>206.0</ele><time>2026-04-03T09:47:35Z</time></trkpt><trkpt lat="43.56392712453451" lon="11.230945944397636"><ele>207.20000000000002</ele><time>2026-04-03T09:47:37Z</time></trkpt><trkpt lat="43.56394414081115" lon="11.231071541516881"><ele>208.4</ele><time>2026-04-03T09:47:39Z</time></trkpt><trkpt lat="43.563943435503596" lon="11.231191916434828"><ele>209.6</ele><time>2026-04-03T09:47:41Z</time></trkpt><trkpt lat="43.56395662798021" lon="11.231347230663458"><ele>210.8</ele><time>2026-04-03T09:47:44Z</time></trkpt><trkpt lat="43.56396482068999" lon="11.231476956026244"><ele>212.0</ele><time>2026-04-03T09:47:46Z</time></trkpt><trkpt lat="43.56399177378129" lon="11.231601426295882"><ele>214.2</ele><time>2026-04-03T09:47:48Z</time></trkpt><trkpt lat="43.56406298521432" lon="11.231713341521777"><ele>216.39999999999998</ele><time>2026-04-03T09:47:50Z</time></trkpt><trkpt lat="43.56413870212685" lon="11.231799717706151"><ele>218.60000000000002</ele><time>2026-04-03T09:47:52Z</time></trkpt><trkpt lat="43.56419739000026" lon="11.23189117946967"><ele>220.8</ele><time>2026-04-03T09:47:54Z</time></trkpt><trkpt lat="43.564226712173884" lon="11.231983757623471"><ele>223.0</ele><time>2026-04-03T09:47:56Z</time></trkpt><trkpt lat="43.56428213809454" lon="11.232067679000808"><ele>222.99999999999997</ele><time>2026-04-03T09:47:58.999Z</time></trkpt><trkpt lat="43.564366720249424" lon="11.232115569866714"><ele>223.0</ele><time>2026-04-03T09:48:00.999Z</time></trkpt><trkpt lat="43.56439508717572" lon="11.232212937990338"><ele>223.0</ele><time>2026-04-03T09:48:02.999Z</time></trkpt><trkpt lat="43.56434398995721" lon="11.232312837688287"><ele>223.0</ele><time>2026-04-03T09:48:04.999Z</time></trkpt><trkpt lat="43.564300989552265" lon="11.232427935289014"><ele>222.99999999999997</ele><time>2026-04-03T09:48:11.999Z</time></trkpt><trkpt lat="43.5642430125878" lon="11.232520444332069"><ele>223.0</ele><time>2026-04-03T09:48:13.999Z</time></trkpt><trkpt lat="43.56418189812364" lon="11.232584928264108"><ele>225.49999999999997</ele><time>2026-04-03T09:48:15.999Z</time></trkpt><trkpt lat="43.56409471432093" lon="11.232615663457475"><ele>228.0</ele><time>2026-04-03T09:48:23.999Z</time></trkpt><trkpt lat="43.56403404057487" lon="11.23266144032605"><ele>230.5</ele><time>2026-04-03T09:48:27.999Z</time></trkpt><trkpt lat="43.5639702164525" lon="11.232730865618201"><ele>233.0</ele><time>2026-04-03T09:48:29.999Z</time></trkpt><trkpt lat="43.56391388722063" lon="11.232783074955714"><ele>235.49999999999997</ele><time>2026-04-03T09:48:31.999Z</time></trkpt><trkpt lat="43.563871990841335" lon="11.232858000362407"><ele>238.0</ele><time>2026-04-03T09:48:33.999Z</time></trkpt><trkpt lat="43.56385136301385" lon="11.23296039610893"><ele>237.99999999999997</ele><time>2026-04-03T09:48:35.999Z</time></trkpt><trkpt lat="43.56383012971123" lon="11.233100290446782"><ele>238.0</ele><time>2026-04-03T09:48:37.999Z</time></trkpt><trkpt lat="43.5638134195112" lon="11.233212851616413"><ele>238.0</ele><time>2026-04-03T09:48:39.999Z</time></trkpt><trkpt lat="43.563784626163795" lon="11.233300428937824"><ele>238.0</ele><time>2026-04-03T09:48:41.999Z</time></trkpt><trkpt lat="43.563697068463526" lon="11.233389021316817"><ele>237.99999999999997</ele><time>2026-04-03T09:48:43.999Z</time></trkpt><trkpt lat="43.56367560657075" lon="11.23348682789852"><ele>238.0</ele><time>2026-04-03T09:48:45.999Z</time></trkpt><trkpt lat="43.56361709975044" lon="11.233607111576333"><ele>242.99999999999997</ele><time>2026-04-03T09:48:48.999Z</time></trkpt><trkpt lat="43.56355562336595" lon="11.233667764759602"><ele>248.0</ele><time>2026-04-03T09:48:50.999Z</time></trkpt><trkpt lat="43.56349059049942" lon="11.233671441688518"><ele>253.0</ele><time>2026-04-03T09:48:53Z</time></trkpt><trkpt lat="43.56342224924352" lon="11.233617155252299"><ele>258.0</ele><time>2026-04-03T09:48:55Z</time></trkpt><trkpt lat="43.56336952977919" lon="11.233510713526092"><ele>263.0</ele><time>2026-04-03T09:48:57Z</time></trkpt><trkpt lat="43.56328300275928" lon="11.23341300977992"><ele>268.0</ele><time>2026-04-03T09:48:59Z</time></trkpt><trkpt lat="43.563192937718426" lon="11.233371142036198"><ele>268.0</ele><time>2026-04-03T09:49:01Z</time></trkpt><trkpt lat="43.56309146201571" lon="11.233322135412026"><ele>268.0</ele><time>2026-04-03T09:49:03Z</time></trkpt><trkpt lat="43.5630101275204" lon="11.233307997397443"><ele>268.0</ele><time>2026-04-03T09:49:05Z</time></trkpt><trkpt lat="43.562925420677885" lon="11.2333314841368"><ele>268.0</ele><time>2026-04-03T09:49:07Z</time></trkpt><trkpt lat="43.5628606948387" lon="11.233313483637502"><ele>268.0</ele><time>2026-04-03T09:49:16Z</time></trkpt><trkpt lat="43.56278085925349" lon="11.233262908619324"><ele>268.0</ele><time>2026-04-03T09:49:18Z</time></trkpt><trkpt lat="43.56270887121633" lon="11.233225836751062"><ele>271.2</ele><time>2026-04-03T09:49:20Z</time></trkpt><trkpt lat="43.56263133222158" lon="11.233195174882825"><ele>274.4</ele><time>2026-04-03T09:49:22Z</time></trkpt><trkpt lat="43.56256233002437" lon="11.23314747933577"><ele>277.59999999999997</ele><time>2026-04-03T09:49:31Z</time></trkpt><trkpt lat="43.56263853435493" lon="11.233180396466548"><ele>280.8</ele><time>2026-04-03T09:49:39Z</time></trkpt><trkpt lat="43.562766048125624" lon="11.233208125966893"><ele>284.0</ele><time>2026-04-03T09:49:41Z</time></trkpt><trkpt lat="43.562853339372296" lon="11.233277003225552"><ele>284.0</ele><time>2026-04-03T09:49:43Z</time></trkpt><trkpt lat="43.56288024264737" lon="11.233401975838857"><ele>284.0</ele><time>2026-04-03T09:49:46Z</time></trkpt><trkpt lat="43.562865462004176" lon="11.233512138518705"><ele>284.0</ele><time>2026-04-03T09:49:48Z</time></trkpt><trkpt lat="43.56281400447608" lon="11.233591413014677"><ele>284.0</ele><time>2026-04-03T09:49:50Z</time></trkpt><trkpt lat="43.56276975345315" lon="11.233681972152645"><ele>284.0</ele><time>2026-04-03T09:49:52Z</time></trkpt><trkpt lat="43.56273435703055" lon="11.233791843831407"><ele>284.0</ele><time>2026-04-03T09:49:54Z</time></trkpt><trkpt lat="43.56266979678344" lon="11.233886140834535"><ele>284.8</ele><time>2026-04-03T09:50:03.999Z</time></trkpt><trkpt lat="43.56265665061903" lon="11.234019358768203"><ele>285.59999999999997</ele><time>2026-04-03T09:50:09.999Z</time></trkpt><trkpt lat="43.56263257193451" lon="11.234148869369387"><ele>286.4</ele><time>2026-04-03T09:50:12.999Z</time></trkpt><trkpt lat="43.562609301845235" lon="11.2342818143418"><ele>287.2</ele><time>2026-04-03T09:50:14.999Z</time></trkpt><trkpt lat="43.56260128159233" lon="11.234386905919424"><ele>288.0</ele><time>2026-04-03T09:50:16.999Z</time></trkpt><trkpt lat="43.56258491969505" lon="11.23449871658203"><ele>288.0</ele><time>2026-04-03T09:50:19.999Z</time></trkpt><trkpt lat="43.562565449914665" lon="11.23458935729389"><ele>288.0</ele><time>2026-04-03T09:50:28.999Z</time></trkpt><trkpt lat="43.562546891479364" lon="11.234704732588744"><ele>288.0</ele><time>2026-04-03T09:50:30.999Z</time></trkpt><trkpt lat="43.56253352039772" lon="11.23481606554061"><ele>288.0</ele><time>2026-04-03T09:50:32.999Z</time></trkpt><trkpt lat="43.56254507205472" lon="11.2349111109616"><ele>288.0</ele><time>2026-04-03T09:50:35.999Z</time></trkpt><trkpt lat="43.562578187552916" lon="11.235047384710494"><ele>288.0</ele><time>2026-04-03T09:50:37.999Z</time></trkpt><trkpt lat="43.56263470182976" lon="11.2351937200017"><ele>288.1666666666667</ele><time>2026-04-03T09:50:39.999Z</time></trkpt><trkpt lat="43.56266819427227" lon="11.23532962224677"><ele>288.3333333333333</ele><time>2026-04-03T09:50:41.999Z</time></trkpt><trkpt lat="43.56268103956158" lon="11.2354336573692"><ele>288.5</ele><time>2026-04-03T09:50:43.999Z</time></trkpt><trkpt lat="43.56269735773417" lon="11.23552553165565"><ele>288.66666666666663</ele><time>2026-04-03T09:50:45.999Z</time></trkpt><trkpt lat="43.562704751852095" lon="11.235639998000934"><ele>288.8333333333333</ele><time>2026-04-03T09:50:47.999Z</time></trkpt><trkpt lat="43.56270263720872" lon="11.235758121157218"><ele>289.0</ele><time>2026-04-03T09:50:49.999Z</time></trkpt><trkpt lat="43.56265852659877" lon="11.235865286483445"><ele>289.3333333333333</ele><time>2026-04-03T09:50:51.999Z</time></trkpt><trkpt lat="43.56264676558264" lon="11.235974788051603"><ele>289.66666666666663</ele><time>2026-04-03T09:50:53.999Z</time></trkpt><trkpt lat="43.5626875885646" lon="11.236078491368794"><ele>290.0</ele><time>2026-04-03T09:50:55.999Z</time></trkpt><trkpt lat="43.56264837009275" lon="11.236184091531763"><ele>290.3333333333333</ele><time>2026-04-03T09:50:56.999Z</time></trkpt><trkpt lat="43.56269508183198" lon="11.236244438827647"><ele>290.6666666666667</ele><time>2026-04-03T09:51:02Z</time></trkpt><trkpt lat="43.562780137657924" lon="11.236360787362932"><ele>291.0</ele><time>2026-04-03T09:51:04Z</time></trkpt><trkpt lat="43.56287518052599" lon="11.236512563973129"><ele>291.0</ele><time>2026-04-03T09:51:06Z</time></trkpt><trkpt lat="43.56291719279326" lon="11.23661324223341"><ele>291.0</ele><time>2026-04-03T09:51:07Z</time></trkpt><trkpt lat="43.562933550451284" lon="11.2367286619989"><ele>291.0</ele><time>2026-04-03T09:51:08Z</time></trkpt><trkpt lat="43.562957709318404" lon="11.236827872545344"><ele>291.0</ele><time>2026-04-03T09:51:09Z</time></trkpt><trkpt lat="43.562996134933" lon="11.236924373139129"><ele>291.0</ele><time>2026-04-03T09:51:10Z</time></trkpt><trkpt lat="43.56300305413657" lon="11.237018081654517"><ele>291.0</ele><time>2026-04-03T09:51:11Z</time></trkpt><trkpt lat="43.563021682060274" lon="11.237112351694844"><ele>291.0</ele><time>2026-04-03T09:51:12Z</time></trkpt><trkpt lat="43.56305807306846" lon="11.237276717603956"><ele>291.0</ele><time>2026-04-03T09:51:14Z</time></trkpt><trkpt lat="43.563096414432415" lon="11.237359935742779"><ele>291.0</ele><time>2026-04-03T09:51:15Z</time></trkpt><trkpt lat="43.563147407976764" lon="11.237469337410737"><ele>291.0</ele><time>2026-04-03T09:51:16Z</time></trkpt><trkpt lat="43.56322395140886" lon="11.237558713102885"><ele>291.0</ele><time>2026-04-03T09:51:17Z</time></trkpt><trkpt lat="43.56328012124726" lon="11.2376535807835"><ele>293.5</ele><time>2026-04-03T09:51:18Z</time></trkpt><trkpt lat="43.56333096009942" lon="11.237739623444634"><ele>296.0</ele><time>2026-04-03T09:51:19Z</time></trkpt><trkpt lat="43.563386265155245" lon="11.237828529613845"><ele>298.5</ele><time>2026-04-03T09:51:20Z</time></trkpt><trkpt lat="43.5634251675482" lon="11.237928287348252"><ele>301.0</ele><time>2026-04-03T09:51:21Z</time></trkpt><trkpt lat="43.563452906364425" lon="11.23803896386049"><ele>303.5</ele><time>2026-04-03T09:51:22Z</time></trkpt><trkpt lat="43.56350166784249" lon="11.238165413695135"><ele>306.0</ele><time>2026-04-03T09:51:24Z</time></trkpt><trkpt lat="43.56357742640542" lon="11.2382295466443"><ele>307.8333333333333</ele><time>2026-04-03T09:51:26Z</time></trkpt><trkpt lat="43.563634926198304" lon="11.23828295720352"><ele>309.6666666666667</ele><time>2026-04-03T09:51:28Z</time></trkpt><trkpt lat="43.563731106771975" lon="11.238385288072848"><ele>311.5</ele><time>2026-04-03T09:51:30Z</time></trkpt><trkpt lat="43.56380506419231" lon="11.238422234298183"><ele>313.33333333333337</ele><time>2026-04-03T09:51:31Z</time></trkpt><trkpt lat="43.56385231205338" lon="11.238487606989926"><ele>315.1666666666667</ele><time>2026-04-03T09:51:32Z</time></trkpt><trkpt lat="43.563920649513925" lon="11.238602121527627"><ele>317.0</ele><time>2026-04-03T09:51:34Z</time></trkpt><trkpt lat="43.56387799421919" lon="11.238683798161293"><ele>317.33333333333337</ele><time>2026-04-03T09:51:35Z</time></trkpt><trkpt lat="43.563851384494015" lon="11.23876431768971"><ele>317.6666666666667</ele><time>2026-04-03T09:51:36Z</time></trkpt><trkpt lat="43.563830879366606" lon="11.238864809744873"><ele>318.0</ele><time>2026-04-03T09:51:37Z</time></trkpt><trkpt lat="43.563802567318035" lon="11.238963086891463"><ele>318.3333333333333</ele><time>2026-04-03T09:51:38Z</time></trkpt><trkpt lat="43.56380058374979" lon="11.239050550752186"><ele>318.66666666666663</ele><time>2026-04-03T09:51:39Z</time></trkpt><trkpt lat="43.56384241269434" lon="11.239178448179453"><ele>319.0</ele><time>2026-04-03T09:51:41Z</time></trkpt><trkpt lat="43.56394248012848" lon="11.239288726121764"><ele>320.0</ele><time>2026-04-03T09:51:43Z</time></trkpt><trkpt lat="43.56400306053904" lon="11.239354544658353"><ele>321.0</ele><time>2026-04-03T09:51:44Z</time></trkpt><trkpt lat="43.564087362509795" lon="11.239481481307775"><ele>322.0</ele><time>2026-04-03T09:51:46Z</time></trkpt><trkpt lat="43.56411137830995" lon="11.239568024967573"><ele>323.0</ele><time>2026-04-03T09:51:47Z</time></trkpt><trkpt lat="43.56412105654876" lon="11.23967644833834"><ele>324.0</ele><time>2026-04-03T09:51:48Z</time></trkpt><trkpt lat="43.564113866900136" lon="11.239798464147672"><ele>325.0</ele><time>2026-04-03T09:51:49Z</time></trkpt><trkpt lat="43.564099275582954" lon="11.239899956637686"><ele>325.0</ele><time>2026-04-03T09:51:50Z</time></trkpt><trkpt lat="43.56404061194847" lon="11.240017573092944"><ele>325.0</ele><time>2026-04-03T09:51:52Z</time></trkpt><trkpt lat="43.56399271064044" lon="11.240101516937393"><ele>325.0</ele><time>2026-04-03T09:51:53Z</time></trkpt><trkpt lat="43.56393007230073" lon="11.240207856427803"><ele>325.0</ele><time>2026-04-03T09:51:54Z</time></trkpt><trkpt lat="43.56386667327952" lon="11.240320375839712"><ele>325.0</ele><time>2026-04-03T09:51:55Z</time></trkpt><trkpt lat="43.56379205018864" lon="11.240430156542953"><ele>325.0</ele><time>2026-04-03T09:51:56Z</time></trkpt><trkpt lat="43.56370654860678" lon="11.240512481058062"><ele>325.0</ele><time>2026-04-03T09:51:57Z</time></trkpt><trkpt lat="43.56362254467291" lon="11.24059450070981"><ele>325.0</ele><time>2026-04-03T09:51:58Z</time></trkpt><trkpt lat="43.563546199946316" lon="11.240695088491504"><ele>325.0</ele><time>2026-04-03T09:51:59Z</time></trkpt><trkpt lat="43.56347336237606" lon="11.240773412070865"><ele>325.0</ele><time>2026-04-03T09:52:00Z</time></trkpt><trkpt lat="43.563417599460685" lon="11.240862271776694"><ele>326.0</ele><time>2026-04-03T09:52:01Z</time></trkpt><trkpt lat="43.56335919895871" lon="11.240967233083703"><ele>327.0</ele><time>2026-04-03T09:52:02Z</time></trkpt><trkpt lat="43.56330603415846" lon="11.241083261252133"><ele>328.0</ele><time>2026-04-03T09:52:03Z</time></trkpt><trkpt lat="43.563263564383575" lon="11.241207309085246"><ele>329.0</ele><time>2026-04-03T09:52:04Z</time></trkpt><trkpt lat="43.56323998039154" lon="11.241318598266153"><ele>330.0</ele><time>2026-04-03T09:52:05Z</time></trkpt><trkpt lat="43.56323911371123" lon="11.24141302465505"><ele>331.0</ele><time>2026-04-03T09:52:06Z</time></trkpt><trkpt lat="43.56325110709957" lon="11.241525788916727"><ele>332.4</ele><time>2026-04-03T09:52:07Z</time></trkpt><trkpt lat="43.563291649558906" lon="11.241643345159735"><ele>333.8</ele><time>2026-04-03T09:52:08Z</time></trkpt><trkpt lat="43.563317621535816" lon="11.241786002614615"><ele>335.2</ele><time>2026-04-03T09:52:09Z</time></trkpt><trkpt lat="43.56334152327507" lon="11.241923437503697"><ele>336.59999999999997</ele><time>2026-04-03T09:52:10Z</time></trkpt><trkpt lat="43.563372376799215" lon="11.242073444402083"><ele>338.0</ele><time>2026-04-03T09:52:11Z</time></trkpt><trkpt lat="43.56340132016767" lon="11.242215882987441"><ele>339.59999999999997</ele><time>2026-04-03T09:52:11.999Z</time></trkpt><trkpt lat="43.563437828715436" lon="11.242363230223829"><ele>341.2</ele><time>2026-04-03T09:52:12.999Z</time></trkpt><trkpt lat="43.563490442385266" lon="11.242504039364539"><ele>342.8</ele><time>2026-04-03T09:52:13.999Z</time></trkpt><trkpt lat="43.563524934483866" lon="11.24264835944183"><ele>344.4</ele><time>2026-04-03T09:52:14.999Z</time></trkpt><trkpt lat="43.56356293845243" lon="11.242787308612442"><ele>346.0</ele><time>2026-04-03T09:52:15.999Z</time></trkpt><trkpt lat="43.56360823795581" lon="11.242908124904815"><ele>346.0</ele><time>2026-04-03T09:52:16.999Z</time></trkpt><trkpt lat="43.563626371000154" lon="11.243057321861434"><ele>346.0</ele><time>2026-04-03T09:52:17.999Z</time></trkpt><trkpt lat="43.56365150706137" lon="11.243216641989786"><ele>346.0</ele><time>2026-04-03T09:52:18.999Z</time></trkpt><trkpt lat="43.56364044982272" lon="11.243358294372223"><ele>346.0</ele><time>2026-04-03T09:52:19.999Z</time></trkpt><trkpt lat="43.5636224526405" lon="11.243493071748711"><ele>346.0</ele><time>2026-04-03T09:52:21.999Z</time></trkpt><trkpt lat="43.56381435239847" lon="11.243669046369511"><ele>346.20000000000005</ele><time>2026-04-03T09:52:23.999Z</time></trkpt><trkpt lat="43.56387472828574" lon="11.243770472753058"><ele>346.40000000000003</ele><time>2026-04-03T09:52:24.999Z</time></trkpt><trkpt lat="43.563939740887356" lon="11.243884351016309"><ele>346.6</ele><time>2026-04-03T09:52:25.999Z</time></trkpt><trkpt lat="43.563993895949245" lon="11.244002652638423"><ele>346.8</ele><time>2026-04-03T09:52:26.999Z</time></trkpt><trkpt lat="43.56403268986699" lon="11.24411700205995"><ele>347.0</ele><time>2026-04-03T09:52:27.999Z</time></trkpt><trkpt lat="43.56406448242788" lon="11.244212309618641"><ele>348.40000000000003</ele><time>2026-04-03T09:52:28.999Z</time></trkpt><trkpt lat="43.56409429016356" lon="11.24431670139339"><ele>349.8</ele><time>2026-04-03T09:52:29.999Z</time></trkpt><trkpt lat="43.56411354228112" lon="11.244434784626439"><ele>351.2</ele><time>2026-04-03T09:52:30.999Z</time></trkpt><trkpt lat="43.56412918894612" lon="11.24457990124619"><ele>352.6</ele><time>2026-04-03T09:52:31.999Z</time></trkpt><trkpt lat="43.56413873073991" lon="11.244719828763422"><ele>354.0</ele><time>2026-04-03T09:52:32.999Z</time></trkpt><trkpt lat="43.56415214089836" lon="11.2448593724148"><ele>356.0</ele><time>2026-04-03T09:52:33.999Z</time></trkpt><trkpt lat="43.56417530790365" lon="11.244996007846085"><ele>358.0</ele><time>2026-04-03T09:52:34.999Z</time></trkpt><trkpt lat="43.564206013124945" lon="11.24513200856799"><ele>360.0</ele><time>2026-04-03T09:52:35.999Z</time></trkpt><trkpt lat="43.56423080266717" lon="11.245241280986413"><ele>362.0</ele><time>2026-04-03T09:52:36.999Z</time></trkpt><trkpt lat="43.56425442124786" lon="11.245331141754313"><ele>364.0</ele><time>2026-04-03T09:52:37.999Z</time></trkpt><trkpt lat="43.56414083141351" lon="11.245474325381085"><ele>364.0</ele><time>2026-04-03T09:52:38.999Z</time></trkpt><trkpt lat="43.564160768743214" lon="11.245583370471213"><ele>364.0</ele><time>2026-04-03T09:52:39.999Z</time></trkpt><trkpt lat="43.564165335426495" lon="11.245684748141391"><ele>364.0</ele><time>2026-04-03T09:52:41.999Z</time></trkpt><trkpt lat="43.564153063872894" lon="11.24580068553177"><ele>364.0</ele><time>2026-04-03T09:52:44.999Z</time></trkpt><trkpt lat="43.564145293380435" lon="11.245902299758693"><ele>364.0</ele><time>2026-04-03T09:52:45.999Z</time></trkpt><trkpt lat="43.564137919114664" lon="11.24599873260577"><ele>364.0</ele><time>2026-04-03T09:52:46.999Z</time></trkpt><trkpt lat="43.564131672857684" lon="11.246165156402109"><ele>365.75</ele><time>2026-04-03T09:52:48.999Z</time></trkpt><trkpt lat="43.56441113454793" lon="11.246270230011696"><ele>367.5</ele><time>2026-04-03T09:52:49.999Z</time></trkpt><trkpt lat="43.56444506959703" lon="11.24636500317072"><ele>369.25</ele><time>2026-04-03T09:52:50.999Z</time></trkpt><trkpt lat="43.56447216314796" lon="11.246457919666181"><ele>371.0</ele><time>2026-04-03T09:52:51.999Z</time></trkpt><trkpt lat="43.56450137089152" lon="11.246553565046604"><ele>371.33333333333337</ele><time>2026-04-03T09:52:52.999Z</time></trkpt><trkpt lat="43.564522590236415" lon="11.24665612014025"><ele>371.6666666666667</ele><time>2026-04-03T09:52:53.999Z</time></trkpt><trkpt lat="43.56452993043298" lon="11.246754795770803"><ele>372.0</ele><time>2026-04-03T09:52:54.999Z</time></trkpt><trkpt lat="43.56452858293684" lon="11.246853250033471"><ele>372.3333333333333</ele><time>2026-04-03T09:52:55.999Z</time></trkpt><trkpt lat="43.56450799863937" lon="11.247029613501315"><ele>372.66666666666663</ele><time>2026-04-03T09:52:57.999Z</time></trkpt><trkpt lat="43.56448026396766" lon="11.247109027716204"><ele>373.0</ele><time>2026-04-03T09:52:58.999Z</time></trkpt><trkpt lat="43.56444871206061" lon="11.247236475222604"><ele>375.0</ele><time>2026-04-03T09:53:00.999Z</time></trkpt><trkpt lat="43.56444204153049" lon="11.247373196566313"><ele>377.0</ele><time>2026-04-03T09:53:04Z</time></trkpt><trkpt lat="43.5644455329116" lon="11.247464858449305"><ele>379.0</ele><time>2026-04-03T09:53:05Z</time></trkpt><trkpt lat="43.56444530035596" lon="11.24756227964687"><ele>381.0</ele><time>2026-04-03T09:53:06Z</time></trkpt><trkpt lat="43.564469593294255" lon="11.247732474207458"><ele>383.00000000000006</ele><time>2026-04-03T09:53:12Z</time></trkpt><trkpt lat="43.56448099055928" lon="11.247828590224664"><ele>385.0</ele><time>2026-04-03T09:53:13Z</time></trkpt><trkpt lat="43.56445812270816" lon="11.247993763061725"><ele>385.00000000000006</ele><time>2026-04-03T09:53:15Z</time></trkpt><trkpt lat="43.56441288615439" lon="11.24810200693731"><ele>385.0</ele><time>2026-04-03T09:53:16Z</time></trkpt><trkpt lat="43.564378471264845" lon="11.248195717329995"><ele>385.0</ele><time>2026-04-03T09:53:17Z</time></trkpt><trkpt lat="43.56432935354633" lon="11.248316343659976"><ele>385.0</ele><time>2026-04-03T09:53:18Z</time></trkpt><trkpt lat="43.56429269104566" lon="11.248419327445188"><ele>385.00000000000006</ele><time>2026-04-03T09:53:19Z</time></trkpt><trkpt lat="43.564257448029245" lon="11.248534786830035"><ele>385.0</ele><time>2026-04-03T09:53:20Z</time></trkpt><trkpt lat="43.56422808824684" lon="11.248646524797742"><ele>385.50000000000006</ele><time>2026-04-03T09:53:21Z</time></trkpt><trkpt lat="43.56420710923016" lon="11.248758123914563"><ele>386.0</ele><time>2026-04-03T09:53:22Z</time></trkpt><trkpt lat="43.564184707065586" lon="11.248870583618737"><ele>386.5</ele><time>2026-04-03T09:53:23Z</time></trkpt><trkpt lat="43.56416108273586" lon="11.248971208341741"><ele>387.0</ele><time>2026-04-03T09:53:24Z</time></trkpt><trkpt lat="43.56413806528064" lon="11.24905942875305"><ele>387.50000000000006</ele><time>2026-04-03T09:53:25Z</time></trkpt><trkpt lat="43.56411259652969" lon="11.249149320882939"><ele>388.0</ele><time>2026-04-03T09:53:26Z</time></trkpt><trkpt lat="43.56407023763186" lon="11.249227508064704"><ele>388.6666666666667</ele><time>2026-04-03T09:53:27Z</time></trkpt><trkpt lat="43.564015606667965" lon="11.2493190177272"><ele>389.33333333333337</ele><time>2026-04-03T09:53:28Z</time></trkpt><trkpt lat="43.56395253185542" lon="11.249408322004545"><ele>390.0</ele><time>2026-04-03T09:53:29Z</time></trkpt><trkpt lat="43.5638851273971" lon="11.249485593574933"><ele>390.66666666666663</ele><time>2026-04-03T09:53:30Z</time></trkpt><trkpt lat="43.563833742252854" lon="11.24956322833585"><ele>391.3333333333333</ele><time>2026-04-03T09:53:31Z</time></trkpt><trkpt lat="43.56378441534226" lon="11.249659942334077"><ele>392.0</ele><time>2026-04-03T09:53:32Z</time></trkpt><trkpt lat="43.56374613238602" lon="11.249757842091629"><ele>392.6</ele><time>2026-04-03T09:53:33Z</time></trkpt><trkpt lat="43.5637098091002" lon="11.249851222324871"><ele>393.20000000000005</ele><time>2026-04-03T09:53:34Z</time></trkpt><trkpt lat="43.56364047223822" lon="11.249986536394546"><ele>393.8</ele><time>2026-04-03T09:53:36Z</time></trkpt><trkpt lat="43.56362011530036" lon="11.250077149929878"><ele>394.4</ele><time>2026-04-03T09:53:37Z</time></trkpt><trkpt lat="43.56360402704985" lon="11.2502628441621"><ele>395.0</ele><time>2026-04-03T09:53:39Z</time></trkpt><trkpt lat="43.56359343717688" lon="11.250353964562278"><ele>392.8</ele><time>2026-04-03T09:53:40Z</time></trkpt><trkpt lat="43.56358046276068" lon="11.25049073948645"><ele>390.6</ele><time>2026-04-03T09:53:42Z</time></trkpt><trkpt lat="43.5635742544165" lon="11.25061238249516"><ele>388.4</ele><time>2026-04-03T09:53:44Z</time></trkpt><trkpt lat="43.56362122860777" lon="11.250765820822812"><ele>386.2</ele><time>2026-04-03T09:53:46Z</time></trkpt><trkpt lat="43.56366260852516" lon="11.250901026125716"><ele>384.0</ele><time>2026-04-03T09:53:48Z</time></trkpt><trkpt lat="43.56363746815635" lon="11.251033064609539"><ele>382.6</ele><time>2026-04-03T09:53:50Z</time></trkpt><trkpt lat="43.563572059810106" lon="11.251188903731384"><ele>381.2</ele><time>2026-04-03T09:53:52Z</time></trkpt><trkpt lat="43.563521895794004" lon="11.251256201553057"><ele>379.8</ele><time>2026-04-03T09:53:53Z</time></trkpt><trkpt lat="43.56346901403413" lon="11.25130637910435"><ele>378.40000000000003</ele><time>2026-04-03T09:53:54Z</time></trkpt><trkpt lat="43.56339958596578" lon="11.251387837104414"><ele>377.0</ele><time>2026-04-03T09:53:56Z</time></trkpt><trkpt lat="43.56341501461376" lon="11.251547356543258"><ele>376.20000000000005</ele><time>2026-04-03T09:53:58Z</time></trkpt><trkpt lat="43.56344085096188" lon="11.25162923811447"><ele>375.4</ele><time>2026-04-03T09:53:59Z</time></trkpt><trkpt lat="43.56345277308437" lon="11.251800049272438"><ele>374.6</ele><time>2026-04-03T09:54:01Z</time></trkpt><trkpt lat="43.563434035262034" lon="11.251891676399632"><ele>373.79999999999995</ele><time>2026-04-03T09:54:02Z</time></trkpt><trkpt lat="43.563399545302495" lon="11.252027362644597"><ele>373.0</ele><time>2026-04-03T09:54:04Z</time></trkpt><trkpt lat="43.56333623289857" lon="11.252115485471398"><ele>373.0</ele><time>2026-04-03T09:54:06Z</time></trkpt><trkpt lat="43.563276406714316" lon="11.252161936378684"><ele>373.0</ele><time>2026-04-03T09:54:07Z</time></trkpt><trkpt lat="43.56319405391348" lon="11.252196542893403"><ele>373.0</ele><time>2026-04-03T09:54:08Z</time></trkpt><trkpt lat="43.56311208286786" lon="11.252211236241275"><ele>373.0</ele><time>2026-04-03T09:54:09Z</time></trkpt><trkpt lat="43.56303375872034" lon="11.25221093024421"><ele>373.0</ele><time>2026-04-03T09:54:10Z</time></trkpt><trkpt lat="43.56296563971658" lon="11.252221698111338"><ele>373.0</ele><time>2026-04-03T09:54:11Z</time></trkpt><trkpt lat="43.562897876223154" lon="11.252258513716246"><ele>372.5</ele><time>2026-04-03T09:54:12Z</time></trkpt><trkpt lat="43.562826777867194" lon="11.25231123130617"><ele>372.0</ele><time>2026-04-03T09:54:13Z</time></trkpt><trkpt lat="43.56275414575095" lon="11.252364758301304"><ele>371.5</ele><time>2026-04-03T09:54:14Z</time></trkpt><trkpt lat="43.562690750622465" lon="11.252407469469205"><ele>371.0</ele><time>2026-04-03T09:54:15Z</time></trkpt><trkpt lat="43.56262394389374" lon="11.252462075790735"><ele>370.5</ele><time>2026-04-03T09:54:15.999Z</time></trkpt><trkpt lat="43.56256870524657" lon="11.252515812599961"><ele>370.0</ele><time>2026-04-03T09:54:16.999Z</time></trkpt><trkpt lat="43.56249059329793" lon="11.25259532304388"><ele>370.0</ele><time>2026-04-03T09:54:18.999Z</time></trkpt><trkpt lat="43.56242360115753" lon="11.252667988860491"><ele>370.0</ele><time>2026-04-03T09:54:21.999Z</time></trkpt><trkpt lat="43.562291828939166" lon="11.252724986988584"><ele>370.0</ele><time>2026-04-03T09:54:23.999Z</time></trkpt><trkpt lat="43.562208991040166" lon="11.252775340760719"><ele>370.0</ele><time>2026-04-03T09:54:24.999Z</time></trkpt><trkpt lat="43.56212076827082" lon="11.252822105680723"><ele>370.0</ele><time>2026-04-03T09:54:25.999Z</time></trkpt><trkpt lat="43.56203240018519" lon="11.252875248260104"><ele>368.0</ele><time>2026-04-03T09:54:26.999Z</time></trkpt><trkpt lat="43.561941762089624" lon="11.252922768715916"><ele>366.0</ele><time>2026-04-03T09:54:27.999Z</time></trkpt><trkpt lat="43.56185089121709" lon="11.25296526792445"><ele>364.0</ele><time>2026-04-03T09:54:28.999Z</time></trkpt><trkpt lat="43.56175949032086" lon="11.253007104829498"><ele>362.0</ele><time>2026-04-03T09:54:29.999Z</time></trkpt><trkpt lat="43.56167483668077" lon="11.253042726813717"><ele>360.0</ele><time>2026-04-03T09:54:30.999Z</time></trkpt><trkpt lat="43.561590265504975" lon="11.253101707981171"><ele>362.0</ele><time>2026-04-03T09:54:31.999Z</time></trkpt><trkpt lat="43.56150508792469" lon="11.253162532152482"><ele>364.0</ele><time>2026-04-03T09:54:32.999Z</time></trkpt><trkpt lat="43.5614114476205" lon="11.253193679541628"><ele>366.0</ele><time>2026-04-03T09:54:33.999Z</time></trkpt><trkpt lat="43.561328418494924" lon="11.253262392811589"><ele>368.0</ele><time>2026-04-03T09:54:34.999Z</time></trkpt><trkpt lat="43.56124227885133" lon="11.253308440293619"><ele>370.0</ele><time>2026-04-03T09:54:35.999Z</time></trkpt><trkpt lat="43.56116930984466" lon="11.253347823965507"><ele>371.0</ele><time>2026-04-03T09:54:36.999Z</time></trkpt><trkpt lat="43.561101006684915" lon="11.253384502399074"><ele>372.0</ele><time>2026-04-03T09:54:37.999Z</time></trkpt><trkpt lat="43.561031084677886" lon="11.253395632758336"><ele>373.0</ele><time>2026-04-03T09:54:38.999Z</time></trkpt><trkpt lat="43.560937408087106" lon="11.25344312660318"><ele>374.0</ele><time>2026-04-03T09:54:40.999Z</time></trkpt><trkpt lat="43.56097878678412" lon="11.253619216269225"><ele>375.0</ele><time>2026-04-03T09:54:43.999Z</time></trkpt><trkpt lat="43.56103944690582" lon="11.253767043971022"><ele>375.0</ele><time>2026-04-03T09:54:45.999Z</time></trkpt><trkpt lat="43.561058548662764" lon="11.253857894762987"><ele>375.0</ele><time>2026-04-03T09:54:46.999Z</time></trkpt><trkpt lat="43.56108444023286" lon="11.253954996973523"><ele>375.0</ele><time>2026-04-03T09:54:47.999Z</time></trkpt><trkpt lat="43.56110927482764" lon="11.254054769603536"><ele>375.0</ele><time>2026-04-03T09:54:48.999Z</time></trkpt><trkpt lat="43.56113117652333" lon="11.25415455226331"><ele>375.0</ele><time>2026-04-03T09:54:49.999Z</time></trkpt><trkpt lat="43.561154107963254" lon="11.25426870093446"><ele>375.0</ele><time>2026-04-03T09:54:50.999Z</time></trkpt><trkpt lat="43.56116391717037" lon="11.254375489781173"><ele>375.3333333333333</ele><time>2026-04-03T09:54:51.999Z</time></trkpt><trkpt lat="43.56115483554137" lon="11.254473758854484"><ele>375.6666666666667</ele><time>2026-04-03T09:54:52.999Z</time></trkpt><trkpt lat="43.56120084156905" lon="11.254605921083952"><ele>376.0</ele><time>2026-04-03T09:54:54.999Z</time></trkpt><trkpt lat="43.5612595873299" lon="11.254656215117803"><ele>376.33333333333337</ele><time>2026-04-03T09:54:55.999Z</time></trkpt><trkpt lat="43.56133995641818" lon="11.25470505613708"><ele>376.6666666666667</ele><time>2026-04-03T09:54:56.999Z</time></trkpt><trkpt lat="43.56141683373323" lon="11.254727750207792"><ele>377.0</ele><time>2026-04-03T09:54:57.999Z</time></trkpt><trkpt lat="43.56149252382103" lon="11.254720097217117"><ele>377.5</ele><time>2026-04-03T09:54:58.999Z</time></trkpt><trkpt lat="43.561563659898944" lon="11.25471926362499"><ele>378.0</ele><time>2026-04-03T09:54:59.999Z</time></trkpt><trkpt lat="43.5616294548001" lon="11.254717923640053"><ele>378.5</ele><time>2026-04-03T09:55:00.999Z</time></trkpt><trkpt lat="43.56169893453028" lon="11.25470859951898"><ele>379.0</ele><time>2026-04-03T09:55:01.999Z</time></trkpt><trkpt lat="43.561808030202485" lon="11.254724005323798"><ele>379.5</ele><time>2026-04-03T09:55:03.999Z</time></trkpt><trkpt lat="43.561899467853074" lon="11.254742678675134"><ele>380.0</ele><time>2026-04-03T09:55:05.999Z</time></trkpt><trkpt lat="43.561967744834284" lon="11.25474734939238"><ele>379.6666666666667</ele><time>2026-04-03T09:55:12Z</time></trkpt><trkpt lat="43.56203052319493" lon="11.254811308572297"><ele>379.3333333333333</ele><time>2026-04-03T09:55:15Z</time></trkpt><trkpt lat="43.56211041426637" lon="11.254879598117158"><ele>379.0</ele><time>2026-04-03T09:55:17Z</time></trkpt><trkpt lat="43.56235077127291" lon="11.254570782542794"><ele>380.5</ele><time>2026-04-03T09:55:20Z</time></trkpt><trkpt lat="43.562429357895304" lon="11.254564011583359"><ele>382.0</ele><time>2026-04-03T09:55:22Z</time></trkpt><trkpt lat="43.562515190153" lon="11.254563091131587"><ele>383.5</ele><time>2026-04-03T09:55:25Z</time></trkpt><trkpt lat="43.562592460825954" lon="11.25456454346631"><ele>385.0</ele><time>2026-04-03T09:55:27Z</time></trkpt><trkpt lat="43.5626829803575" lon="11.254551053305795"><ele>386.50000000000006</ele><time>2026-04-03T09:55:29Z</time></trkpt><trkpt lat="43.56277101583747" lon="11.25456388019296"><ele>388.0</ele><time>2026-04-03T09:55:31Z</time></trkpt><trkpt lat="43.5628500593748" lon="11.25459945325901"><ele>390.00000000000006</ele><time>2026-04-03T09:55:33Z</time></trkpt><trkpt lat="43.562929486374586" lon="11.254637281759939"><ele>392.0</ele><time>2026-04-03T09:55:35Z</time></trkpt><trkpt lat="43.56302286715195" lon="11.254644207868093"><ele>394.0</ele><time>2026-04-03T09:55:37Z</time></trkpt><trkpt lat="43.563109122607145" lon="11.254631969483286"><ele>396.0</ele><time>2026-04-03T09:55:39Z</time></trkpt><trkpt lat="43.56319451988784" lon="11.254656600606905"><ele>398.00000000000006</ele><time>2026-04-03T09:55:41Z</time></trkpt><trkpt lat="43.56325874077741" lon="11.254694077899805"><ele>400.0</ele><time>2026-04-03T09:55:43Z</time></trkpt><trkpt lat="43.56333071111346" lon="11.254787961673145"><ele>400.8</ele><time>2026-04-03T09:55:45Z</time></trkpt><trkpt lat="43.56338613508258" lon="11.25487709946319"><ele>401.6</ele><time>2026-04-03T09:55:47Z</time></trkpt><trkpt lat="43.56347682085079" lon="11.254928658614535"><ele>402.4</ele><time>2026-04-03T09:55:49Z</time></trkpt><trkpt lat="43.56358174459732" lon="11.254950201962545"><ele>403.2</ele><time>2026-04-03T09:55:51Z</time></trkpt><trkpt lat="43.56367515531229" lon="11.254971511530591"><ele>404.0</ele><time>2026-04-03T09:55:53Z</time></trkpt><trkpt lat="43.56374348240577" lon="11.254991056715523"><ele>406.79999999999995</ele><time>2026-04-03T09:55:55Z</time></trkpt><trkpt lat="43.563837999625186" lon="11.255023645999117"><ele>409.59999999999997</ele><time>2026-04-03T09:55:57Z</time></trkpt><trkpt lat="43.56390560399025" lon="11.255076193429275"><ele>412.4</ele><time>2026-04-03T09:55:59Z</time></trkpt><trkpt lat="43.56397760323314" lon="11.255185487223542"><ele>415.2</ele><time>2026-04-03T09:56:01Z</time></trkpt><trkpt lat="43.564047176205" lon="11.255315814292135"><ele>418.0</ele><time>2026-04-03T09:56:03Z</time></trkpt><trkpt lat="43.56413282722114" lon="11.255415571591195"><ele>418.00000000000006</ele><time>2026-04-03T09:56:05Z</time></trkpt><trkpt lat="43.56420484180587" lon="11.255488384025833"><ele>418.0</ele><time>2026-04-03T09:56:07Z</time></trkpt><trkpt lat="43.56427385144543" lon="11.255491891196645"><ele>418.0</ele><time>2026-04-03T09:56:09Z</time></trkpt><trkpt lat="43.56432663118705" lon="11.255412240469356"><ele>418.0</ele><time>2026-04-03T09:56:11Z</time></trkpt><trkpt lat="43.56439616468606" lon="11.25530989869668"><ele>418.00000000000006</ele><time>2026-04-03T09:56:13Z</time></trkpt><trkpt lat="43.564436260833084" lon="11.255222642143458"><ele>418.0</ele><time>2026-04-03T09:56:15Z</time></trkpt><trkpt lat="43.56448969177241" lon="11.255141623631303"><ele>418.83333333333337</ele><time>2026-04-03T09:56:17Z</time></trkpt><trkpt lat="43.564572641724816" lon="11.25512226160638"><ele>419.6666666666667</ele><time>2026-04-03T09:56:19Z</time></trkpt><trkpt lat="43.564684532839095" lon="11.25513017244978"><ele>420.5</ele><time>2026-04-03T09:56:20.999Z</time></trkpt><trkpt lat="43.564778522289544" lon="11.255076076260607"><ele>421.33333333333337</ele><time>2026-04-03T09:56:22.999Z</time></trkpt><trkpt lat="43.564838704532264" lon="11.255032186001353"><ele>422.1666666666667</ele><time>2026-04-03T09:56:23.999Z</time></trkpt><trkpt lat="43.56490077967628" lon="11.25498822169375"><ele>423.0</ele><time>2026-04-03T09:56:24.999Z</time></trkpt><trkpt lat="43.56499800827062" lon="11.254939548101103"><ele>423.0</ele><time>2026-04-03T09:56:26.999Z</time></trkpt><trkpt lat="43.56511571750764" lon="11.254880787725503"><ele>423.0</ele><time>2026-04-03T09:56:28.999Z</time></trkpt><trkpt lat="43.56518539088247" lon="11.25485794019559"><ele>423.0</ele><time>2026-04-03T09:56:29.999Z</time></trkpt><trkpt lat="43.5652472920583" lon="11.254838604084249"><ele>423.0</ele><time>2026-04-03T09:56:30.999Z</time></trkpt><trkpt lat="43.56531352684004" lon="11.254815075202677"><ele>423.0</ele><time>2026-04-03T09:56:31.999Z</time></trkpt><trkpt lat="43.565386209824" lon="11.254782007389478"><ele>423.0</ele><time>2026-04-03T09:56:32.999Z</time></trkpt><trkpt lat="43.56545279183427" lon="11.254753749564035"><ele>423.4285714285714</ele><time>2026-04-03T09:56:33.999Z</time></trkpt><trkpt lat="43.56551658633225" lon="11.254724983715763"><ele>423.8571428571429</ele><time>2026-04-03T09:56:34.999Z</time></trkpt><trkpt lat="43.56558271744167" lon="11.254699248359824"><ele>424.2857142857143</ele><time>2026-04-03T09:56:35.999Z</time></trkpt><trkpt lat="43.56564628384927" lon="11.254665702264125"><ele>424.71428571428567</ele><time>2026-04-03T09:56:36.999Z</time></trkpt><trkpt lat="43.56571802805825" lon="11.25462290730147"><ele>425.1428571428571</ele><time>2026-04-03T09:56:37.999Z</time></trkpt><trkpt lat="43.56579253912794" lon="11.254594781417174"><ele>425.57142857142856</ele><time>2026-04-03T09:56:38.999Z</time></trkpt><trkpt lat="43.56586737465191" lon="11.254570889058606"><ele>426.0</ele><time>2026-04-03T09:56:39.999Z</time></trkpt><trkpt lat="43.565953475502525" lon="11.254539173181149"><ele>426.0</ele><time>2026-04-03T09:56:40.999Z</time></trkpt><trkpt lat="43.566033721082476" lon="11.254498919212303"><ele>426.0</ele><time>2026-04-03T09:56:41.999Z</time></trkpt><trkpt lat="43.5661024445236" lon="11.254468876685392"><ele>426.0</ele><time>2026-04-03T09:56:42.999Z</time></trkpt><trkpt lat="43.56618196601226" lon="11.25443624523146"><ele>426.0</ele><time>2026-04-03T09:56:43.999Z</time></trkpt><trkpt lat="43.56626248910339" lon="11.254392033081812"><ele>426.0</ele><time>2026-04-03T09:56:44.999Z</time></trkpt><trkpt lat="43.5663401766639" lon="11.254364725052627"><ele>426.0</ele><time>2026-04-03T09:56:45.999Z</time></trkpt><trkpt lat="43.56640343391771" lon="11.254337120493938"><ele>429.4</ele><time>2026-04-03T09:56:46.999Z</time></trkpt><trkpt lat="43.56651821772517" lon="11.254293129127731"><ele>432.8</ele><time>2026-04-03T09:56:48.999Z</time></trkpt><trkpt lat="43.56663124408368" lon="11.254243475820088"><ele>436.19999999999993</ele><time>2026-04-03T09:56:50.999Z</time></trkpt><trkpt lat="43.56670201199048" lon="11.254221418007734"><ele>439.59999999999997</ele><time>2026-04-03T09:56:51.999Z</time></trkpt><trkpt lat="43.56677132276124" lon="11.254198545765378"><ele>443.0</ele><time>2026-04-03T09:56:52.999Z</time></trkpt><trkpt lat="43.5668769990704" lon="11.254128983815137"><ele>443.0</ele><time>2026-04-03T09:56:54.999Z</time></trkpt><trkpt lat="43.566993359411676" lon="11.254087541420276"><ele>442.99999999999994</ele><time>2026-04-03T09:56:56.999Z</time></trkpt><trkpt lat="43.56711563008836" lon="11.254062978031437"><ele>442.99999999999994</ele><time>2026-04-03T09:56:58.999Z</time></trkpt><trkpt lat="43.56716749523249" lon="11.253981375529898"><ele>443.0</ele><time>2026-04-03T09:56:59.999Z</time></trkpt><trkpt lat="43.56728356493014" lon="11.253968474025971"><ele>443.0</ele><time>2026-04-03T09:57:01.999Z</time></trkpt><trkpt lat="43.567390855210704" lon="11.253928711858514"><ele>443.16666666666663</ele><time>2026-04-03T09:57:03.999Z</time></trkpt><trkpt lat="43.56751906650947" lon="11.25390494639991"><ele>443.3333333333333</ele><time>2026-04-03T09:57:05.999Z</time></trkpt><trkpt lat="43.5675948894877" lon="11.25389274405831"><ele>443.5</ele><time>2026-04-03T09:57:06.999Z</time></trkpt><trkpt lat="43.56766294975673" lon="11.253884510955746"><ele>443.66666666666663</ele><time>2026-04-03T09:57:07.999Z</time></trkpt><trkpt lat="43.56774572908096" lon="11.253881071244631"><ele>443.8333333333333</ele><time>2026-04-03T09:57:09.999Z</time></trkpt><trkpt lat="43.56781737324695" lon="11.253885213072577"><ele>444.0</ele><time>2026-04-03T09:57:11.999Z</time></trkpt><trkpt lat="43.56788212019993" lon="11.25391968909585"><ele>445.0</ele><time>2026-04-03T09:57:50Z</time></trkpt><trkpt lat="43.56792181456264" lon="11.25399621615838"><ele>446.0</ele><time>2026-04-03T09:57:55Z</time></trkpt><trkpt lat="43.56796566433564" lon="11.254070754759566"><ele>447.0</ele><time>2026-04-03T09:58:01Z</time></trkpt><trkpt lat="43.56801213947501" lon="11.254136380663274"><ele>448.0</ele><time>2026-04-03T09:58:03Z</time></trkpt><trkpt lat="43.568033585863986" lon="11.254218916606744"><ele>449.0</ele><time>2026-04-03T09:58:05Z</time></trkpt><trkpt lat="43.5680565665946" lon="11.254305956677843"><ele>450.0</ele><time>2026-04-03T09:58:07Z</time></trkpt><trkpt lat="43.56820179580208" lon="11.254732683970804"><ele>450.0</ele><time>2026-04-03T09:58:09Z</time></trkpt><trkpt lat="43.568301733694234" lon="11.254833013871089"><ele>450.0</ele><time>2026-04-03T09:58:10Z</time></trkpt><trkpt lat="43.568556463219316" lon="11.25484232861521"><ele>450.0</ele><time>2026-04-03T09:58:11Z</time></trkpt><trkpt lat="43.568490309386576" lon="11.254876027394225"><ele>450.0</ele><time>2026-04-03T09:58:13Z</time></trkpt><trkpt lat="43.5684908578018" lon="11.254975801006779"><ele>450.0</ele><time>2026-04-03T09:58:33.999Z</time></trkpt><trkpt lat="43.568508033749275" lon="11.255071549411163"><ele>450.0</ele><time>2026-04-03T09:58:34.999Z</time></trkpt><trkpt lat="43.56854420593901" lon="11.255226440559708"><ele>450.0</ele><time>2026-04-03T09:58:36.999Z</time></trkpt><trkpt lat="43.568668713934095" lon="11.255270793423968"><ele>450.0</ele><time>2026-04-03T09:58:37.999Z</time></trkpt><trkpt lat="43.5686092236848" lon="11.25531263787962"><ele>450.0</ele><time>2026-04-03T09:58:39.999Z</time></trkpt><trkpt lat="43.56857739721334" lon="11.255406473745612"><ele>450.0</ele><time>2026-04-03T09:58:50.999Z</time></trkpt><trkpt lat="43.568603203624285" lon="11.255580363616016"><ele>450.0</ele><time>2026-04-03T09:58:52.999Z</time></trkpt><trkpt lat="43.56864848154015" lon="11.255689761149611"><ele>450.0</ele><time>2026-04-03T09:58:53.999Z</time></trkpt><trkpt lat="43.5686725035052" lon="11.255785829202582"><ele>450.0</ele><time>2026-04-03T09:58:54.999Z</time></trkpt><trkpt lat="43.56870136075283" lon="11.255886741895084"><ele>450.0</ele><time>2026-04-03T09:58:55.999Z</time></trkpt><trkpt lat="43.56873305828959" lon="11.25599431041214"><ele>447.0</ele><time>2026-04-03T09:58:56.999Z</time></trkpt><trkpt lat="43.56876688325012" lon="11.256094508200835"><ele>444.0</ele><time>2026-04-03T09:58:57.999Z</time></trkpt><trkpt lat="43.56879972046196" lon="11.256192559886676"><ele>441.0</ele><time>2026-04-03T09:58:58.999Z</time></trkpt><trkpt lat="43.56883901538381" lon="11.2562986587807"><ele>438.0</ele><time>2026-04-03T09:58:59.999Z</time></trkpt><trkpt lat="43.56886792126758" lon="11.25638918499225"><ele>435.0</ele><time>2026-04-03T09:59:00.999Z</time></trkpt><trkpt lat="43.56889745432547" lon="11.256479206681838"><ele>432.0</ele><time>2026-04-03T09:59:01.999Z</time></trkpt><trkpt lat="43.568923019765734" lon="11.256560062597975"><ele>432.0</ele><time>2026-04-03T09:59:02.999Z</time></trkpt><trkpt lat="43.56898647690447" lon="11.256674155525078"><ele>432.00000000000006</ele><time>2026-04-03T09:59:04.999Z</time></trkpt><trkpt lat="43.56905026650167" lon="11.256818845862458"><ele>432.00000000000006</ele><time>2026-04-03T09:59:07.999Z</time></trkpt><trkpt lat="43.569090769322216" lon="11.256910705967227"><ele>432.0</ele><time>2026-04-03T09:59:08.999Z</time></trkpt><trkpt lat="43.56913599003846" lon="11.257026111257264"><ele>432.0</ele><time>2026-04-03T09:59:09.999Z</time></trkpt><trkpt lat="43.56918665036486" lon="11.257133870852869"><ele>432.0</ele><time>2026-04-03T09:59:10.999Z</time></trkpt><trkpt lat="43.56921482322481" lon="11.25727240330417"><ele>432.00000000000006</ele><time>2026-04-03T09:59:11.999Z</time></trkpt><trkpt lat="43.569240990294475" lon="11.257391621154794"><ele>432.00000000000006</ele><time>2026-04-03T09:59:12.999Z</time></trkpt><trkpt lat="43.569245616647116" lon="11.257489134160968"><ele>432.0</ele><time>2026-04-03T09:59:13.999Z</time></trkpt><trkpt lat="43.569276705640696" lon="11.257648233847661"><ele>432.0</ele><time>2026-04-03T09:59:15.999Z</time></trkpt><trkpt lat="43.56931383246785" lon="11.25779887770053"><ele>431.1666666666667</ele><time>2026-04-03T09:59:17.999Z</time></trkpt><trkpt lat="43.56933785873207" lon="11.257894963421325"><ele>430.33333333333337</ele><time>2026-04-03T09:59:18.999Z</time></trkpt><trkpt lat="43.56936565837199" lon="11.258006927238311"><ele>429.5</ele><time>2026-04-03T09:59:20Z</time></trkpt><trkpt lat="43.56939762577341" lon="11.258125234116806"><ele>428.6666666666667</ele><time>2026-04-03T09:59:21Z</time></trkpt><trkpt lat="43.56942376390478" lon="11.258221909286798"><ele>427.83333333333337</ele><time>2026-04-03T09:59:22Z</time></trkpt><trkpt lat="43.56946103712008" lon="11.258301072328672"><ele>427.0</ele><time>2026-04-03T09:59:23Z</time></trkpt><trkpt lat="43.56950411256821" lon="11.25840034991371"><ele>424.6666666666667</ele><time>2026-04-03T09:59:24Z</time></trkpt><trkpt lat="43.56952266003869" lon="11.25850853898424"><ele>422.33333333333337</ele><time>2026-04-03T09:59:25Z</time></trkpt><trkpt lat="43.56955719749134" lon="11.258615912634795"><ele>420.0</ele><time>2026-04-03T09:59:26Z</time></trkpt><trkpt lat="43.569583035838825" lon="11.258703553058533"><ele>417.66666666666663</ele><time>2026-04-03T09:59:27Z</time></trkpt><trkpt lat="43.569629170855066" lon="11.258852692853681"><ele>415.3333333333333</ele><time>2026-04-03T09:59:29Z</time></trkpt><trkpt lat="43.56962382240109" lon="11.258971548373575"><ele>413.0</ele><time>2026-04-03T09:59:31Z</time></trkpt><trkpt lat="43.56957626120092" lon="11.259060808341156"><ele>410.8333333333333</ele><time>2026-04-03T09:59:33Z</time></trkpt><trkpt lat="43.56946891064886" lon="11.259098733037156"><ele>408.66666666666663</ele><time>2026-04-03T09:59:36Z</time></trkpt><trkpt lat="43.56940599282625" lon="11.259119688969538"><ele>406.5</ele><time>2026-04-03T09:59:37Z</time></trkpt><trkpt lat="43.56932869544501" lon="11.259108066228137"><ele>404.33333333333337</ele><time>2026-04-03T09:59:38Z</time></trkpt><trkpt lat="43.569233208653166" lon="11.259101545534845"><ele>402.1666666666667</ele><time>2026-04-03T09:59:39Z</time></trkpt><trkpt lat="43.56915368624665" lon="11.259103600007867"><ele>400.0</ele><time>2026-04-03T09:59:40Z</time></trkpt><trkpt lat="43.56907873532181" lon="11.259097904411409"><ele>400.00000000000006</ele><time>2026-04-03T09:59:41Z</time></trkpt><trkpt lat="43.56901329506584" lon="11.259061010677836"><ele>400.0</ele><time>2026-04-03T09:59:42Z</time></trkpt><trkpt lat="43.56895961900681" lon="11.259015056688874"><ele>400.0</ele><time>2026-04-03T09:59:43Z</time></trkpt><trkpt lat="43.568866607359745" lon="11.25894827527038"><ele>400.0</ele><time>2026-04-03T09:59:45Z</time></trkpt><trkpt lat="43.56876370207885" lon="11.258968829699162"><ele>400.00000000000006</ele><time>2026-04-03T09:59:47Z</time></trkpt><trkpt lat="43.56873155355987" lon="11.259043829966227"><ele>400.0</ele><time>2026-04-03T09:59:48Z</time></trkpt><trkpt lat="43.56872699616868" lon="11.259142195396214"><ele>400.00000000000006</ele><time>2026-04-03T09:59:49Z</time></trkpt><trkpt lat="43.56876505796184" lon="11.259231642497666"><ele>400.0</ele><time>2026-04-03T09:59:50Z</time></trkpt><trkpt lat="43.56882276592158" lon="11.259376204545445"><ele>400.0</ele><time>2026-04-03T09:59:52Z</time></trkpt><trkpt lat="43.568864026296296" lon="11.259461436364997"><ele>400.0</ele><time>2026-04-03T09:59:53Z</time></trkpt><trkpt lat="43.5688836686095" lon="11.259550862859818"><ele>400.00000000000006</ele><time>2026-04-03T09:59:54Z</time></trkpt><trkpt lat="43.568938687726664" lon="11.259630905945002"><ele>400.0</ele><time>2026-04-03T09:59:55Z</time></trkpt><trkpt lat="43.56897989028761" lon="11.259724231247553"><ele>396.2</ele><time>2026-04-03T09:59:56Z</time></trkpt><trkpt lat="43.569027691284724" lon="11.259795324470339"><ele>392.4</ele><time>2026-04-03T09:59:57Z</time></trkpt><trkpt lat="43.56906538820065" lon="11.259866689776192"><ele>388.6</ele><time>2026-04-03T09:59:58Z</time></trkpt><trkpt lat="43.569143800638905" lon="11.25997243409807"><ele>384.8</ele><time>2026-04-03T10:00:00Z</time></trkpt><trkpt lat="43.569262613622676" lon="11.260008671328293"><ele>381.0</ele><time>2026-04-03T10:00:02Z</time></trkpt><trkpt lat="43.56941710172777" lon="11.2600551032825"><ele>381.0</ele><time>2026-04-03T10:00:03Z</time></trkpt><trkpt lat="43.569516611029" lon="11.260091283342682"><ele>381.0</ele><time>2026-04-03T10:00:04Z</time></trkpt><trkpt lat="43.56961756851661" lon="11.260113934418253"><ele>381.0</ele><time>2026-04-03T10:00:05Z</time></trkpt><trkpt lat="43.56970554335215" lon="11.260152477261618"><ele>381.0</ele><time>2026-04-03T10:00:06Z</time></trkpt><trkpt lat="43.5698167740848" lon="11.260162413511496"><ele>381.0</ele><time>2026-04-03T10:00:07Z</time></trkpt><trkpt lat="43.56992792671896" lon="11.260165995332269"><ele>381.6666666666667</ele><time>2026-04-03T10:00:08Z</time></trkpt><trkpt lat="43.57002299043659" lon="11.260147417459645"><ele>382.33333333333337</ele><time>2026-04-03T10:00:09Z</time></trkpt><trkpt lat="43.57009931258265" lon="11.260151712323168"><ele>383.0</ele><time>2026-04-03T10:00:10Z</time></trkpt><trkpt lat="43.570158109940024" lon="11.260187604629243"><ele>383.6666666666667</ele><time>2026-04-03T10:00:11Z</time></trkpt><trkpt lat="43.57022263532707" lon="11.260244529052931"><ele>384.33333333333337</ele><time>2026-04-03T10:00:12Z</time></trkpt><trkpt lat="43.57027972895229" lon="11.260326384445609"><ele>385.0</ele><time>2026-04-03T10:00:13Z</time></trkpt><trkpt lat="43.570323791570615" lon="11.260413214104592"><ele>385.0</ele><time>2026-04-03T10:00:14Z</time></trkpt><trkpt lat="43.570344324984625" lon="11.260498021928319"><ele>385.0</ele><time>2026-04-03T10:00:15Z</time></trkpt><trkpt lat="43.57035341215516" lon="11.260706465294247"><ele>385.0</ele><time>2026-04-03T10:00:17Z</time></trkpt><trkpt lat="43.57034582710166" lon="11.260836737228733"><ele>385.0</ele><time>2026-04-03T10:00:18Z</time></trkpt><trkpt lat="43.57034695572434" lon="11.260958589333812"><ele>385.0</ele><time>2026-04-03T10:00:19Z</time></trkpt><trkpt lat="43.57034814267631" lon="11.261059620361005"><ele>384.6</ele><time>2026-04-03T10:00:20Z</time></trkpt><trkpt lat="43.570344544369604" lon="11.261240631447905"><ele>384.2</ele><time>2026-04-03T10:00:22Z</time></trkpt><trkpt lat="43.5703642780989" lon="11.261373093428134"><ele>383.79999999999995</ele><time>2026-04-03T10:00:23Z</time></trkpt><trkpt lat="43.57038618691352" lon="11.261515119135634"><ele>383.4</ele><time>2026-04-03T10:00:24Z</time></trkpt><trkpt lat="43.57040288238698" lon="11.261661790840693"><ele>383.0</ele><time>2026-04-03T10:00:25Z</time></trkpt><trkpt lat="43.57042857751703" lon="11.261823793852573"><ele>383.0</ele><time>2026-04-03T10:00:26Z</time></trkpt><trkpt lat="43.570454569565605" lon="11.26198500790831"><ele>383.0</ele><time>2026-04-03T10:00:27Z</time></trkpt><trkpt lat="43.57049435627534" lon="11.2621408292194"><ele>383.0</ele><time>2026-04-03T10:00:28Z</time></trkpt><trkpt lat="43.57052786013658" lon="11.262287310172045"><ele>383.0</ele><time>2026-04-03T10:00:29Z</time></trkpt><trkpt lat="43.570573363760175" lon="11.262433226954906"><ele>383.2</ele><time>2026-04-03T10:00:30Z</time></trkpt><trkpt lat="43.57061914304204" lon="11.262565645811637"><ele>383.4</ele><time>2026-04-03T10:00:31Z</time></trkpt><trkpt lat="43.57065517899596" lon="11.26268108804047"><ele>383.59999999999997</ele><time>2026-04-03T10:00:31.999Z</time></trkpt><trkpt lat="43.57067615001245" lon="11.262777030079887"><ele>383.79999999999995</ele><time>2026-04-03T10:00:32.999Z</time></trkpt><trkpt lat="43.570683179000675" lon="11.262867329892751"><ele>384.0</ele><time>2026-04-03T10:00:33.999Z</time></trkpt><trkpt lat="43.57064194624992" lon="11.263024429184748"><ele>384.0</ele><time>2026-04-03T10:00:35.999Z</time></trkpt><trkpt lat="43.57056937355974" lon="11.263084359559299"><ele>384.0</ele><time>2026-04-03T10:00:36.999Z</time></trkpt><trkpt lat="43.57046243551215" lon="11.26304619558828"><ele>384.0</ele><time>2026-04-03T10:00:37.999Z</time></trkpt><trkpt lat="43.570342051185236" lon="11.263057778522397"><ele>384.0</ele><time>2026-04-03T10:00:38.999Z</time></trkpt><trkpt lat="43.5702212524607" lon="11.26303472615048"><ele>384.0</ele><time>2026-04-03T10:00:39.999Z</time></trkpt><trkpt lat="43.57013628616247" lon="11.263034274897935"><ele>382.3333333333333</ele><time>2026-04-03T10:00:40.999Z</time></trkpt><trkpt lat="43.57006434288503" lon="11.263048182933352"><ele>380.6666666666667</ele><time>2026-04-03T10:00:41.999Z</time></trkpt><trkpt lat="43.56996804867622" lon="11.26316254604423"><ele>379.0</ele><time>2026-04-03T10:00:43.999Z</time></trkpt><trkpt lat="43.56994866927233" lon="11.263274797261872"><ele>377.33333333333337</ele><time>2026-04-03T10:00:44.999Z</time></trkpt><trkpt lat="43.56995138566213" lon="11.263391688143582"><ele>375.6666666666667</ele><time>2026-04-03T10:00:45.999Z</time></trkpt><trkpt lat="43.569943997076535" lon="11.263496389804622"><ele>374.0</ele><time>2026-04-03T10:00:46.999Z</time></trkpt><trkpt lat="43.569928463470575" lon="11.263584611243546"><ele>374.0</ele><time>2026-04-03T10:00:47.999Z</time></trkpt><trkpt lat="43.569889745597436" lon="11.263663919853755"><ele>374.0</ele><time>2026-04-03T10:00:48.999Z</time></trkpt><trkpt lat="43.569819695263185" lon="11.263719320591537"><ele>374.0</ele><time>2026-04-03T10:00:49.999Z</time></trkpt><trkpt lat="43.56973808380454" lon="11.263750897020337"><ele>374.0</ele><time>2026-04-03T10:00:50.999Z</time></trkpt><trkpt lat="43.56965503529372" lon="11.263792166121243"><ele>374.0</ele><time>2026-04-03T10:00:51.999Z</time></trkpt><trkpt lat="43.56957006135721" lon="11.263844831574412"><ele>374.0</ele><time>2026-04-03T10:00:52.999Z</time></trkpt><trkpt lat="43.56949541249489" lon="11.263917948009343"><ele>373.4</ele><time>2026-04-03T10:00:53.999Z</time></trkpt><trkpt lat="43.569438556627276" lon="11.2640287919498"><ele>372.79999999999995</ele><time>2026-04-03T10:00:54.999Z</time></trkpt><trkpt lat="43.569406546477154" lon="11.2641622010212"><ele>372.20000000000005</ele><time>2026-04-03T10:00:55.999Z</time></trkpt><trkpt lat="43.569364177788245" lon="11.264287393722514"><ele>371.6</ele><time>2026-04-03T10:00:56.999Z</time></trkpt><trkpt lat="43.56930566010991" lon="11.264376861999022"><ele>371.0</ele><time>2026-04-03T10:00:57.999Z</time></trkpt><trkpt lat="43.56921432605069" lon="11.264470008611864"><ele>371.0</ele><time>2026-04-03T10:00:58.999Z</time></trkpt><trkpt lat="43.56911826152182" lon="11.264529876117978"><ele>371.0</ele><time>2026-04-03T10:00:59.999Z</time></trkpt><trkpt lat="43.56903061790439" lon="11.264571885996611"><ele>371.0</ele><time>2026-04-03T10:01:00.999Z</time></trkpt><trkpt lat="43.56893950845153" lon="11.264531676355917"><ele>371.0</ele><time>2026-04-03T10:01:01.999Z</time></trkpt><trkpt lat="43.568838841860746" lon="11.264479161634325"><ele>371.0</ele><time>2026-04-03T10:01:02.999Z</time></trkpt><trkpt lat="43.56872525615067" lon="11.264450019750596"><ele>370.0</ele><time>2026-04-03T10:01:03.999Z</time></trkpt><trkpt lat="43.568641249905156" lon="11.264431526975633"><ele>369.0</ele><time>2026-04-03T10:01:04.999Z</time></trkpt><trkpt lat="43.56857115389008" lon="11.264454455214363"><ele>368.0</ele><time>2026-04-03T10:01:05.999Z</time></trkpt><trkpt lat="43.568515143494245" lon="11.264513082219896"><ele>367.0</ele><time>2026-04-03T10:01:06.999Z</time></trkpt><trkpt lat="43.5684375649659" lon="11.264610564128185"><ele>366.0</ele><time>2026-04-03T10:01:07.999Z</time></trkpt><trkpt lat="43.56834263561896" lon="11.264732854620462"><ele>368.0</ele><time>2026-04-03T10:01:08.999Z</time></trkpt><trkpt lat="43.56824238947638" lon="11.264838883811352"><ele>370.0</ele><time>2026-04-03T10:01:09.999Z</time></trkpt><trkpt lat="43.56815416504933" lon="11.264921461393262"><ele>372.0</ele><time>2026-04-03T10:01:10.999Z</time></trkpt><trkpt lat="43.56809016052076" lon="11.26499799865978"><ele>374.0</ele><time>2026-04-03T10:01:11.999Z</time></trkpt><trkpt lat="43.56804267907129" lon="11.265056475036651"><ele>376.0</ele><time>2026-04-03T10:01:12.999Z</time></trkpt><trkpt lat="43.56798636374382" lon="11.265178683229294"><ele>376.0</ele><time>2026-04-03T10:01:13.999Z</time></trkpt><trkpt lat="43.56794212446799" lon="11.265329707745417"><ele>376.0</ele><time>2026-04-03T10:01:14.999Z</time></trkpt><trkpt lat="43.567876536969486" lon="11.26546484924234"><ele>376.0</ele><time>2026-04-03T10:01:15.999Z</time></trkpt><trkpt lat="43.56780005436692" lon="11.265609899075365"><ele>376.0</ele><time>2026-04-03T10:01:16.999Z</time></trkpt><trkpt lat="43.56773701711485" lon="11.265737571008572"><ele>374.0</ele><time>2026-04-03T10:01:17.999Z</time></trkpt><trkpt lat="43.5676877401916" lon="11.26585931241985"><ele>372.0</ele><time>2026-04-03T10:01:18.999Z</time></trkpt><trkpt lat="43.56765008378638" lon="11.265984603807846"><ele>370.0</ele><time>2026-04-03T10:01:19.999Z</time></trkpt><trkpt lat="43.56761860069226" lon="11.266115306514214"><ele>368.0</ele><time>2026-04-03T10:01:20.999Z</time></trkpt><trkpt lat="43.56760164402012" lon="11.266226343834136"><ele>366.0</ele><time>2026-04-03T10:01:21.999Z</time></trkpt><trkpt lat="43.567594491766265" lon="11.266330800023258"><ele>366.20000000000005</ele><time>2026-04-03T10:01:22.999Z</time></trkpt><trkpt lat="43.56760733358809" lon="11.266444976724731"><ele>366.40000000000003</ele><time>2026-04-03T10:01:23.999Z</time></trkpt><trkpt lat="43.56761969782032" lon="11.266550674116694"><ele>366.6</ele><time>2026-04-03T10:01:24.999Z</time></trkpt><trkpt lat="43.56764156829704" lon="11.266679318865307"><ele>366.8</ele><time>2026-04-03T10:01:26Z</time></trkpt><trkpt lat="43.567689071744994" lon="11.266820060418302"><ele>367.0</ele><time>2026-04-03T10:01:27Z</time></trkpt><trkpt lat="43.56775371159566" lon="11.266962212297683"><ele>367.0</ele><time>2026-04-03T10:01:28Z</time></trkpt><trkpt lat="43.5678401058689" lon="11.267097935783589"><ele>367.0</ele><time>2026-04-03T10:01:29Z</time></trkpt><trkpt lat="43.56792979325151" lon="11.267218533002143"><ele>367.0</ele><time>2026-04-03T10:01:30Z</time></trkpt><trkpt lat="43.56800681274507" lon="11.267315451748589"><ele>367.0</ele><time>2026-04-03T10:01:31Z</time></trkpt><trkpt lat="43.56807805179093" lon="11.267383801143197"><ele>367.0</ele><time>2026-04-03T10:01:32Z</time></trkpt><trkpt lat="43.568131996530305" lon="11.267439898690839"><ele>367.8</ele><time>2026-04-03T10:01:33Z</time></trkpt><trkpt lat="43.56814667454533" lon="11.26755096096548"><ele>368.6</ele><time>2026-04-03T10:01:35Z</time></trkpt><trkpt lat="43.56804645489402" lon="11.267613800482115"><ele>369.40000000000003</ele><time>2026-04-03T10:01:37Z</time></trkpt><trkpt lat="43.56796986856909" lon="11.267600554065329"><ele>370.20000000000005</ele><time>2026-04-03T10:01:38Z</time></trkpt><trkpt lat="43.567866756123884" lon="11.267574281123549"><ele>371.0</ele><time>2026-04-03T10:01:39Z</time></trkpt><trkpt lat="43.56775783391596" lon="11.267585947711297"><ele>371.0</ele><time>2026-04-03T10:01:40Z</time></trkpt><trkpt lat="43.56765698149422" lon="11.267632305745812"><ele>371.0</ele><time>2026-04-03T10:01:41Z</time></trkpt><trkpt lat="43.56757130852834" lon="11.267674490541864"><ele>371.0</ele><time>2026-04-03T10:01:42Z</time></trkpt><trkpt lat="43.567503198540024" lon="11.267704704861982"><ele>371.0</ele><time>2026-04-03T10:01:43Z</time></trkpt><trkpt lat="43.567397269628486" lon="11.267748194280308"><ele>371.0</ele><time>2026-04-03T10:01:45Z</time></trkpt><trkpt lat="43.567329383140056" lon="11.267778892424513"><ele>371.0</ele><time>2026-04-03T10:01:46Z</time></trkpt><trkpt lat="43.56725644903665" lon="11.267834402980752"><ele>371.0</ele><time>2026-04-03T10:01:47Z</time></trkpt><trkpt lat="43.56717092817985" lon="11.267906358042142"><ele>371.0</ele><time>2026-04-03T10:01:48Z</time></trkpt><trkpt lat="43.56707663649686" lon="11.267984563137643"><ele>371.0</ele><time>2026-04-03T10:01:49Z</time></trkpt><trkpt lat="43.56698172077816" lon="11.268055668979825"><ele>371.0</ele><time>2026-04-03T10:01:50Z</time></trkpt><trkpt lat="43.5668933878064" lon="11.268126430058143"><ele>372.20000000000005</ele><time>2026-04-03T10:01:51Z</time></trkpt><trkpt lat="43.56680526316954" lon="11.26818110964704"><ele>373.40000000000003</ele><time>2026-04-03T10:01:52Z</time></trkpt><trkpt lat="43.56672301033983" lon="11.268200895175159"><ele>374.6</ele><time>2026-04-03T10:01:53Z</time></trkpt><trkpt lat="43.56664037820841" lon="11.2682168700452"><ele>375.8</ele><time>2026-04-03T10:01:54Z</time></trkpt><trkpt lat="43.56654351945987" lon="11.268242569041906"><ele>377.0</ele><time>2026-04-03T10:01:55Z</time></trkpt><trkpt lat="43.56644778283361" lon="11.2682751359329"><ele>377.0</ele><time>2026-04-03T10:01:56Z</time></trkpt><trkpt lat="43.56634971723625" lon="11.268306919940983"><ele>377.0</ele><time>2026-04-03T10:01:57Z</time></trkpt><trkpt lat="43.56625549395102" lon="11.268338395600928"><ele>377.0</ele><time>2026-04-03T10:01:58Z</time></trkpt><trkpt lat="43.56616610306267" lon="11.268370405232641"><ele>377.0</ele><time>2026-04-03T10:01:59Z</time></trkpt><trkpt lat="43.56607930579821" lon="11.26837853569793"><ele>377.0</ele><time>2026-04-03T10:02:00Z</time></trkpt><trkpt lat="43.56599834550859" lon="11.268432268160947"><ele>376.83333333333337</ele><time>2026-04-03T10:02:01Z</time></trkpt><trkpt lat="43.565908654230626" lon="11.268484815009865"><ele>376.6666666666667</ele><time>2026-04-03T10:02:02Z</time></trkpt><trkpt lat="43.56583178629451" lon="11.268553147623948"><ele>376.5</ele><time>2026-04-03T10:02:03Z</time></trkpt><trkpt lat="43.565761814334415" lon="11.26862122478498"><ele>376.3333333333333</ele><time>2026-04-03T10:02:04Z</time></trkpt><trkpt lat="43.56569497141605" lon="11.268679611572919"><ele>376.16666666666663</ele><time>2026-04-03T10:02:05Z</time></trkpt><trkpt lat="43.56562785949662" lon="11.268727501873897"><ele>376.0</ele><time>2026-04-03T10:02:06Z</time></trkpt><trkpt lat="43.5655647365942" lon="11.268760688188934"><ele>376.0</ele><time>2026-04-03T10:02:07Z</time></trkpt><trkpt lat="43.565500231439806" lon="11.268795239417143"><ele>376.0</ele><time>2026-04-03T10:02:09Z</time></trkpt><trkpt lat="43.56547979023228" lon="11.268949269590774"><ele>376.0</ele><time>2026-04-03T10:02:13Z</time></trkpt><trkpt lat="43.56546042708409" lon="11.269044843135502"><ele>376.0</ele><time>2026-04-03T10:02:15Z</time></trkpt><trkpt lat="43.5654111542554" lon="11.269154946991648"><ele>376.0</ele><time>2026-04-03T10:02:18Z</time></trkpt><trkpt lat="43.56533415306206" lon="11.269265700591989"><ele>378.0</ele><time>2026-04-03T10:02:20Z</time></trkpt><trkpt lat="43.5652741643433" lon="11.269392204010702"><ele>380.0</ele><time>2026-04-03T10:02:22Z</time></trkpt><trkpt lat="43.56521801389918" lon="11.269488415532896"><ele>382.0</ele><time>2026-04-03T10:02:24Z</time></trkpt><trkpt lat="43.565146077271734" lon="11.269576408674547"><ele>384.0</ele><time>2026-04-03T10:02:26Z</time></trkpt><trkpt lat="43.56507021285273" lon="11.269639870864646"><ele>386.0</ele><time>2026-04-03T10:02:28Z</time></trkpt><trkpt lat="43.56500562458597" lon="11.269732333733844"><ele>383.16666666666663</ele><time>2026-04-03T10:02:30Z</time></trkpt><trkpt lat="43.5649446822128" lon="11.269836454055746"><ele>380.3333333333333</ele><time>2026-04-03T10:02:32Z</time></trkpt><trkpt lat="43.56484668015048" lon="11.269948991763847"><ele>377.5</ele><time>2026-04-03T10:02:34Z</time></trkpt><trkpt lat="43.56478409741991" lon="11.270004894789073"><ele>374.66666666666663</ele><time>2026-04-03T10:02:35Z</time></trkpt><trkpt lat="43.56472735752106" lon="11.270053093678806"><ele>371.8333333333333</ele><time>2026-04-03T10:02:36Z</time></trkpt><trkpt lat="43.56467099108246" lon="11.270093769969225"><ele>369.0</ele><time>2026-04-03T10:02:37Z</time></trkpt><trkpt lat="43.56457292658158" lon="11.270157917316393"><ele>370.79999999999995</ele><time>2026-04-03T10:02:38.999Z</time></trkpt><trkpt lat="43.56449076037093" lon="11.270207248638847"><ele>372.59999999999997</ele><time>2026-04-03T10:02:40.999Z</time></trkpt><trkpt lat="43.56439187735336" lon="11.270267815347538"><ele>374.4</ele><time>2026-04-03T10:02:42.999Z</time></trkpt><trkpt lat="43.56428523517573" lon="11.270293332191693"><ele>376.2</ele><time>2026-04-03T10:02:44.999Z</time></trkpt><trkpt lat="43.564179899440504" lon="11.27033850704264"><ele>378.0</ele><time>2026-04-03T10:02:46.999Z</time></trkpt><trkpt lat="43.56409928826537" lon="11.270422522550824"><ele>378.0</ele><time>2026-04-03T10:02:48.999Z</time></trkpt><trkpt lat="43.563995273129635" lon="11.270470280973376"><ele>378.0</ele><time>2026-04-03T10:02:50.999Z</time></trkpt><trkpt lat="43.56387955828639" lon="11.270458123701703"><ele>378.0</ele><time>2026-04-03T10:02:52.999Z</time></trkpt><trkpt lat="43.56377224525768" lon="11.270453583910975"><ele>378.0</ele><time>2026-04-03T10:02:54.999Z</time></trkpt><trkpt lat="43.563658020662125" lon="11.270516639547946"><ele>377.8333333333333</ele><time>2026-04-03T10:02:56.999Z</time></trkpt><trkpt lat="43.56358290020616" lon="11.27058987413317"><ele>377.6666666666667</ele><time>2026-04-03T10:02:58.999Z</time></trkpt><trkpt lat="43.563506664770536" lon="11.27064791207913"><ele>377.5</ele><time>2026-04-03T10:03:00.999Z</time></trkpt><trkpt lat="43.563447008276974" lon="11.270683514612301"><ele>377.33333333333337</ele><time>2026-04-03T10:03:07.999Z</time></trkpt><trkpt lat="43.56337831420863" lon="11.270731477183684"><ele>377.1666666666667</ele><time>2026-04-03T10:03:09.999Z</time></trkpt><trkpt lat="43.56333966743148" lon="11.27086743435212"><ele>377.0</ele><time>2026-04-03T10:03:12.999Z</time></trkpt><trkpt lat="43.563331472505524" lon="11.270988214324106"><ele>374.33333333333337</ele><time>2026-04-03T10:03:14.999Z</time></trkpt><trkpt lat="43.563349603161015" lon="11.27107691137597"><ele>371.6666666666667</ele><time>2026-04-03T10:03:16.999Z</time></trkpt><trkpt lat="43.56338807937051" lon="11.271173716951367"><ele>369.0</ele><time>2026-04-03T10:03:18.999Z</time></trkpt><trkpt lat="43.56340582441131" lon="11.271277984994628"><ele>366.3333333333333</ele><time>2026-04-03T10:03:20.999Z</time></trkpt><trkpt lat="43.56341857902782" lon="11.2713871580197"><ele>363.66666666666663</ele><time>2026-04-03T10:03:22.999Z</time></trkpt><trkpt lat="43.56337976938107" lon="11.271477379447333"><ele>361.0</ele><time>2026-04-03T10:03:24.999Z</time></trkpt><trkpt lat="43.56329100280001" lon="11.271535040239796"><ele>358.8333333333333</ele><time>2026-04-03T10:03:26.999Z</time></trkpt><trkpt lat="43.5631929347044" lon="11.271543409758767"><ele>356.66666666666663</ele><time>2026-04-03T10:03:28.999Z</time></trkpt><trkpt lat="43.563126933883126" lon="11.271573516453602"><ele>354.5</ele><time>2026-04-03T10:03:30.999Z</time></trkpt><trkpt lat="43.5630606992801" lon="11.271579397616785"><ele>352.3333333333333</ele><time>2026-04-03T10:03:33Z</time></trkpt><trkpt lat="43.56293773799046" lon="11.271570835235442"><ele>350.1666666666667</ele><time>2026-04-03T10:03:36Z</time></trkpt><trkpt lat="43.56287010950225" lon="11.271567786146798"><ele>348.0</ele><time>2026-04-03T10:03:37Z</time></trkpt><trkpt lat="43.56276652094098" lon="11.271595113822238"><ele>347.79999999999995</ele><time>2026-04-03T10:03:39Z</time></trkpt><trkpt lat="43.56269169438985" lon="11.271662566915053"><ele>347.6</ele><time>2026-04-03T10:03:46Z</time></trkpt><trkpt lat="43.562629640980155" lon="11.271715704888829"><ele>347.4</ele><time>2026-04-03T10:03:51Z</time></trkpt><trkpt lat="43.562531125511754" lon="11.271737792479799"><ele>347.20000000000005</ele><time>2026-04-03T10:03:55Z</time></trkpt><trkpt lat="43.56242320485367" lon="11.271767750617828"><ele>347.0</ele><time>2026-04-03T10:03:57Z</time></trkpt><trkpt lat="43.56231993817269" lon="11.271783828756359"><ele>347.0</ele><time>2026-04-03T10:03:59Z</time></trkpt><trkpt lat="43.56223941563197" lon="11.271774907592294"><ele>347.0</ele><time>2026-04-03T10:04:01Z</time></trkpt><trkpt lat="43.56215624409569" lon="11.271762461706587"><ele>347.0</ele><time>2026-04-03T10:04:03Z</time></trkpt><trkpt lat="43.56208038056679" lon="11.271740130365142"><ele>347.0</ele><time>2026-04-03T10:04:05Z</time></trkpt><trkpt lat="43.56200224076422" lon="11.27168049362361"><ele>347.0</ele><time>2026-04-03T10:04:07Z</time></trkpt><trkpt lat="43.5619322254159" lon="11.271574679998915"><ele>347.0</ele><time>2026-04-03T10:04:09Z</time></trkpt><trkpt lat="43.56185973878242" lon="11.271477180331948"><ele>348.5</ele><time>2026-04-03T10:04:11Z</time></trkpt><trkpt lat="43.56176752174772" lon="11.271388668219526"><ele>350.0</ele><time>2026-04-03T10:04:13Z</time></trkpt><trkpt lat="43.56166833106092" lon="11.271386243416128"><ele>351.5</ele><time>2026-04-03T10:04:16Z</time></trkpt><trkpt lat="43.56159773322976" lon="11.271385405050916"><ele>353.0</ele><time>2026-04-03T10:04:17Z</time></trkpt><trkpt lat="43.561519820551716" lon="11.271410256827881"><ele>354.5</ele><time>2026-04-03T10:04:18Z</time></trkpt><trkpt lat="43.5614512795306" lon="11.271419285437727"><ele>356.0</ele><time>2026-04-03T10:04:19Z</time></trkpt><trkpt lat="43.56134100545989" lon="11.271429082303731"><ele>354.1666666666667</ele><time>2026-04-03T10:04:21Z</time></trkpt><trkpt lat="43.56126233721038" lon="11.271485869474423"><ele>352.33333333333337</ele><time>2026-04-03T10:04:24Z</time></trkpt><trkpt lat="43.56118146481157" lon="11.271470271641284"><ele>350.5</ele><time>2026-04-03T10:04:26Z</time></trkpt><trkpt lat="43.56110661449569" lon="11.271408939746514"><ele>348.6666666666667</ele><time>2026-04-03T10:04:28Z</time></trkpt><trkpt lat="43.56103104898441" lon="11.27137093793517"><ele>346.8333333333333</ele><time>2026-04-03T10:04:30Z</time></trkpt><trkpt lat="43.560932767085035" lon="11.271413787911095"><ele>345.0</ele><time>2026-04-03T10:04:32Z</time></trkpt><trkpt lat="43.56082061741496" lon="11.271451844968428"><ele>342.1666666666667</ele><time>2026-04-03T10:04:34Z</time></trkpt><trkpt lat="43.56074551463964" lon="11.271493896541825"><ele>339.3333333333333</ele><time>2026-04-03T10:04:36Z</time></trkpt><trkpt lat="43.56066711440006" lon="11.271599076155352"><ele>336.5</ele><time>2026-04-03T10:04:38Z</time></trkpt><trkpt lat="43.560591671976475" lon="11.27162535922848"><ele>333.66666666666663</ele><time>2026-04-03T10:04:41Z</time></trkpt><trkpt lat="43.56051119935574" lon="11.271653968487216"><ele>330.8333333333333</ele><time>2026-04-03T10:04:43Z</time></trkpt><trkpt lat="43.56042658308279" lon="11.271671877158303"><ele>328.0</ele><time>2026-04-03T10:04:45Z</time></trkpt><trkpt lat="43.56033919770217" lon="11.271662891817027"><ele>325.79999999999995</ele><time>2026-04-03T10:04:47Z</time></trkpt><trkpt lat="43.560228430685974" lon="11.271662552277254"><ele>323.59999999999997</ele><time>2026-04-03T10:04:48.999Z</time></trkpt><trkpt lat="43.56011410448931" lon="11.271659275601106"><ele>321.4</ele><time>2026-04-03T10:04:50.999Z</time></trkpt><trkpt lat="43.56002937419995" lon="11.271658607331617"><ele>319.2</ele><time>2026-04-03T10:04:52.999Z</time></trkpt><trkpt lat="43.55993490724176" lon="11.271673145875807"><ele>317.0</ele><time>2026-04-03T10:04:54.999Z</time></trkpt><trkpt lat="43.55985792677322" lon="11.271695103378857"><ele>317.0</ele><time>2026-04-03T10:04:56.999Z</time></trkpt><trkpt lat="43.55978277147032" lon="11.271720915721312"><ele>317.0</ele><time>2026-04-03T10:04:58.999Z</time></trkpt><trkpt lat="43.559693480424876" lon="11.271758058338616"><ele>317.0</ele><time>2026-04-03T10:05:00.999Z</time></trkpt><trkpt lat="43.55961594405821" lon="11.271765999696694"><ele>317.0</ele><time>2026-04-03T10:05:02.999Z</time></trkpt><trkpt lat="43.559541331410784" lon="11.271777031525803"><ele>317.0</ele><time>2026-04-03T10:05:04.999Z</time></trkpt><trkpt lat="43.559457449449184" lon="11.271790599153082"><ele>317.0</ele><time>2026-04-03T10:05:06.999Z</time></trkpt><trkpt lat="43.55935401531896" lon="11.27183361702922"><ele>314.33333333333337</ele><time>2026-04-03T10:05:09.999Z</time></trkpt><trkpt lat="43.55929023900447" lon="11.271828434253695"><ele>311.6666666666667</ele><time>2026-04-03T10:05:11.999Z</time></trkpt><trkpt lat="43.55921725900598" lon="11.271852727848316"><ele>309.0</ele><time>2026-04-03T10:05:14.999Z</time></trkpt><trkpt lat="43.559146754718576" lon="11.271868813907293"><ele>306.3333333333333</ele><time>2026-04-03T10:05:17.999Z</time></trkpt><trkpt lat="43.55904688514172" lon="11.271899541670425"><ele>303.66666666666663</ele><time>2026-04-03T10:05:20.999Z</time></trkpt><trkpt lat="43.558971342483176" lon="11.271957546911052"><ele>301.0</ele><time>2026-04-03T10:05:22.999Z</time></trkpt><trkpt lat="43.5589093003696" lon="11.271996437843988"><ele>301.0</ele><time>2026-04-03T10:05:24.999Z</time></trkpt><trkpt lat="43.55884637687754" lon="11.271984412982606"><ele>301.0</ele><time>2026-04-03T10:05:26.999Z</time></trkpt><trkpt lat="43.55877040026967" lon="11.271997924728621"><ele>301.0</ele><time>2026-04-03T10:05:28.999Z</time></trkpt><trkpt lat="43.55871522756657" lon="11.272095175113785"><ele>301.0</ele><time>2026-04-03T10:05:31.999Z</time></trkpt><trkpt lat="43.55869775606989" lon="11.272212901222385"><ele>301.0</ele><time>2026-04-03T10:05:33.999Z</time></trkpt><trkpt lat="43.558726820248005" lon="11.2723276725161"><ele>301.0</ele><time>2026-04-03T10:05:36.999Z</time></trkpt><trkpt lat="43.55879425074631" lon="11.272360603810963"><ele>298.2</ele><time>2026-04-03T10:05:39Z</time></trkpt><trkpt lat="43.55886529163439" lon="11.272408471105704"><ele>295.40000000000003</ele><time>2026-04-03T10:05:41Z</time></trkpt><trkpt lat="43.55895666588693" lon="11.272470892684687"><ele>292.6</ele><time>2026-04-03T10:05:43Z</time></trkpt><trkpt lat="43.559045814333714" lon="11.27252012098123"><ele>289.8</ele><time>2026-04-03T10:05:45Z</time></trkpt><trkpt lat="43.5591279533583" lon="11.27254815562752"><ele>287.0</ele><time>2026-04-03T10:05:47Z</time></trkpt><trkpt lat="43.55922427967801" lon="11.27257482864949"><ele>287.0</ele><time>2026-04-03T10:05:49Z</time></trkpt><trkpt lat="43.55928490699273" lon="11.272643159284227"><ele>287.0</ele><time>2026-04-03T10:05:51Z</time></trkpt><trkpt lat="43.55935996169549" lon="11.272772868431227"><ele>287.0</ele><time>2026-04-03T10:05:53Z</time></trkpt><trkpt lat="43.55941036121868" lon="11.272875370431931"><ele>287.0</ele><time>2026-04-03T10:05:55Z</time></trkpt><trkpt lat="43.55944852498363" lon="11.272953306686063"><ele>287.0</ele><time>2026-04-03T10:06:03Z</time></trkpt><trkpt lat="43.55950530222766" lon="11.27303817393441"><ele>287.0</ele><time>2026-04-03T10:06:07Z</time></trkpt><trkpt lat="43.55958898931598" lon="11.273080461182685"><ele>287.5</ele><time>2026-04-03T10:06:10Z</time></trkpt><trkpt lat="43.55966359111513" lon="11.273128186685135"><ele>288.0</ele><time>2026-04-03T10:06:13Z</time></trkpt><trkpt lat="43.55973832885044" lon="11.273158736203547"><ele>288.5</ele><time>2026-04-03T10:06:16Z</time></trkpt><trkpt lat="43.55981767889173" lon="11.273188818706748"><ele>289.0</ele><time>2026-04-03T10:06:19Z</time></trkpt><trkpt lat="43.55989854333351" lon="11.273229308132466"><ele>289.5</ele><time>2026-04-03T10:06:22Z</time></trkpt><trkpt lat="43.55999074981645" lon="11.27325025539924"><ele>290.0</ele><time>2026-04-03T10:06:25Z</time></trkpt><trkpt lat="43.56007746694985" lon="11.273259159017444"><ele>290.0</ele><time>2026-04-03T10:06:27Z</time></trkpt><trkpt lat="43.560148495251596" lon="11.273293103765674"><ele>290.0</ele><time>2026-04-03T10:06:29Z</time></trkpt><trkpt lat="43.56021204326616" lon="11.273343052913917"><ele>290.0</ele><time>2026-04-03T10:06:31Z</time></trkpt><trkpt lat="43.560263480167556" lon="11.273397531293199"><ele>290.0</ele><time>2026-04-03T10:06:33Z</time></trkpt><trkpt lat="43.56033417151677" lon="11.273425695600974"><ele>290.0</ele><time>2026-04-03T10:06:36Z</time></trkpt><trkpt lat="43.56040743820483" lon="11.273454466886212"><ele>290.0</ele><time>2026-04-03T10:06:38Z</time></trkpt><trkpt lat="43.560484128446475" lon="11.27346819506569"><ele>290.0</ele><time>2026-04-03T10:06:40Z</time></trkpt><trkpt lat="43.56055420481919" lon="11.273482818166308"><ele>291.1666666666667</ele><time>2026-04-03T10:06:42Z</time></trkpt><trkpt lat="43.56063054219086" lon="11.273503664703904"><ele>292.33333333333337</ele><time>2026-04-03T10:06:45Z</time></trkpt><trkpt lat="43.5607247167337" lon="11.273514784484258"><ele>293.5</ele><time>2026-04-03T10:06:48Z</time></trkpt><trkpt lat="43.5608007200339" lon="11.273559292198197"><ele>294.6666666666667</ele><time>2026-04-03T10:06:51Z</time></trkpt><trkpt lat="43.5608636876768" lon="11.273610526215352"><ele>295.8333333333333</ele><time>2026-04-03T10:06:54Z</time></trkpt><trkpt lat="43.56087503804992" lon="11.273699116351906"><ele>297.0</ele><time>2026-04-03T10:06:55.999Z</time></trkpt><trkpt lat="43.560866111712876" lon="11.273809007564022"><ele>297.0</ele><time>2026-04-03T10:06:58.999Z</time></trkpt><trkpt lat="43.56084606956398" lon="11.273906905333394"><ele>297.0</ele><time>2026-04-03T10:07:01.999Z</time></trkpt><trkpt lat="43.56081048091143" lon="11.274020894182474"><ele>297.0</ele><time>2026-04-03T10:07:04.999Z</time></trkpt><trkpt lat="43.56079408253527" lon="11.274112980773014"><ele>297.0</ele><time>2026-04-03T10:07:06.999Z</time></trkpt><trkpt lat="43.56080965043641" lon="11.274254994552429"><ele>297.0</ele><time>2026-04-03T10:07:09.999Z</time></trkpt><trkpt lat="43.56082659863928" lon="11.27435012020025"><ele>297.0</ele><time>2026-04-03T10:07:11.999Z</time></trkpt><trkpt lat="43.56083414055672" lon="11.274437123375629"><ele>299.1666666666667</ele><time>2026-04-03T10:07:13.999Z</time></trkpt><trkpt lat="43.560849766870945" lon="11.27455691260774"><ele>301.3333333333333</ele><time>2026-04-03T10:07:16.999Z</time></trkpt><trkpt lat="43.56087795924196" lon="11.274662628188159"><ele>303.5</ele><time>2026-04-03T10:07:19.999Z</time></trkpt><trkpt lat="43.56092244365336" lon="11.274742172009775"><ele>305.66666666666663</ele><time>2026-04-03T10:07:21.999Z</time></trkpt><trkpt lat="43.56096786549165" lon="11.27482931692783"><ele>307.8333333333333</ele><time>2026-04-03T10:07:23.999Z</time></trkpt><trkpt lat="43.56099913258298" lon="11.274940511045136"><ele>310.0</ele><time>2026-04-03T10:07:25.999Z</time></trkpt><trkpt lat="43.56103642644648" lon="11.275048193378797"><ele>310.8333333333333</ele><time>2026-04-03T10:07:27.999Z</time></trkpt><trkpt lat="43.56107336326992" lon="11.275140102332703"><ele>311.66666666666663</ele><time>2026-04-03T10:07:29.999Z</time></trkpt><trkpt lat="43.5611109023267" lon="11.275240288569135"><ele>312.5</ele><time>2026-04-03T10:07:31.999Z</time></trkpt><trkpt lat="43.56114894874687" lon="11.27533306457444"><ele>313.3333333333333</ele><time>2026-04-03T10:07:33.999Z</time></trkpt><trkpt lat="43.56118678283279" lon="11.275455337470229"><ele>314.1666666666667</ele><time>2026-04-03T10:07:35.999Z</time></trkpt><trkpt lat="43.56124078715529" lon="11.275555033863931"><ele>315.0</ele><time>2026-04-03T10:07:37.999Z</time></trkpt><trkpt lat="43.56129572742245" lon="11.275621411029116"><ele>318.6666666666667</ele><time>2026-04-03T10:07:39.999Z</time></trkpt><trkpt lat="43.56134036214599" lon="11.27568895421084"><ele>322.3333333333333</ele><time>2026-04-03T10:07:41.999Z</time></trkpt><trkpt lat="43.56138155108613" lon="11.275800639127453"><ele>326.0</ele><time>2026-04-03T10:07:44Z</time></trkpt><trkpt lat="43.56143453232981" lon="11.27589841028764"><ele>329.66666666666663</ele><time>2026-04-03T10:07:46Z</time></trkpt><trkpt lat="43.5614692166972" lon="11.275995412388093"><ele>333.3333333333333</ele><time>2026-04-03T10:07:49Z</time></trkpt><trkpt lat="43.561508420012636" lon="11.27612013318397"><ele>337.0</ele><time>2026-04-03T10:07:51Z</time></trkpt><trkpt lat="43.56152751022323" lon="11.276223600729177"><ele>337.0</ele><time>2026-04-03T10:07:53Z</time></trkpt><trkpt lat="43.5615597541995" lon="11.27632780544227"><ele>337.0</ele><time>2026-04-03T10:07:55Z</time></trkpt><trkpt lat="43.56159832307229" lon="11.276427704949608"><ele>337.0</ele><time>2026-04-03T10:07:57Z</time></trkpt><trkpt lat="43.561629510708286" lon="11.276540101536556"><ele>337.0</ele><time>2026-04-03T10:07:59Z</time></trkpt><trkpt lat="43.56165989518216" lon="11.276642173856386"><ele>337.0</ele><time>2026-04-03T10:08:01Z</time></trkpt><trkpt lat="43.56167494757025" lon="11.276748844341864"><ele>337.0</ele><time>2026-04-03T10:08:03Z</time></trkpt><trkpt lat="43.56169396055241" lon="11.27685925540594"><ele>337.16666666666663</ele><time>2026-04-03T10:08:05Z</time></trkpt><trkpt lat="43.561714688862956" lon="11.276948982511461"><ele>337.3333333333333</ele><time>2026-04-03T10:08:07Z</time></trkpt><trkpt lat="43.561744882914866" lon="11.277058656979827"><ele>337.5</ele><time>2026-04-03T10:08:11Z</time></trkpt><trkpt lat="43.561779197574744" lon="11.277157747802484"><ele>337.6666666666667</ele><time>2026-04-03T10:08:13Z</time></trkpt><trkpt lat="43.56182036212341" lon="11.277244045673575"><ele>337.83333333333337</ele><time>2026-04-03T10:08:15Z</time></trkpt><trkpt lat="43.56186555039157" lon="11.277336727624697"><ele>338.0</ele><time>2026-04-03T10:08:17Z</time></trkpt><trkpt lat="43.56192277359592" lon="11.277447355262838"><ele>338.0</ele><time>2026-04-03T10:08:19Z</time></trkpt><trkpt lat="43.561975666316854" lon="11.277545186988593"><ele>338.0</ele><time>2026-04-03T10:08:21Z</time></trkpt><trkpt lat="43.56202885939416" lon="11.277650267334813"><ele>338.0</ele><time>2026-04-03T10:08:23Z</time></trkpt><trkpt lat="43.562088965626" lon="11.277772399636811"><ele>338.0</ele><time>2026-04-03T10:08:25Z</time></trkpt><trkpt lat="43.562150570138236" lon="11.27787979803919"><ele>338.0</ele><time>2026-04-03T10:08:27Z</time></trkpt><trkpt lat="43.56222802962171" lon="11.278003384527802"><ele>342.2</ele><time>2026-04-03T10:08:29Z</time></trkpt><trkpt lat="43.56228841356953" lon="11.278117434156004"><ele>346.4</ele><time>2026-04-03T10:08:31Z</time></trkpt><trkpt lat="43.5623523567997" lon="11.278232531324647"><ele>350.59999999999997</ele><time>2026-04-03T10:08:33Z</time></trkpt><trkpt lat="43.5624269187716" lon="11.278363378069004"><ele>354.79999999999995</ele><time>2026-04-03T10:08:35Z</time></trkpt><trkpt lat="43.56246437950539" lon="11.278463539339688"><ele>359.0</ele><time>2026-04-03T10:08:37Z</time></trkpt><trkpt lat="43.56249891032107" lon="11.278555610452464"><ele>359.0</ele><time>2026-04-03T10:08:39Z</time></trkpt><trkpt lat="43.56256111645288" lon="11.278631513318945"><ele>359.0</ele><time>2026-04-03T10:08:41Z</time></trkpt><trkpt lat="43.562618246773106" lon="11.278710506030587"><ele>359.0</ele><time>2026-04-03T10:08:43Z</time></trkpt><trkpt lat="43.56268161267087" lon="11.278795120513818"><ele>359.0</ele><time>2026-04-03T10:08:45Z</time></trkpt><trkpt lat="43.56273572036168" lon="11.278845797917919"><ele>359.0</ele><time>2026-04-03T10:08:47Z</time></trkpt><trkpt lat="43.56280889017635" lon="11.278879217340728"><ele>359.0</ele><time>2026-04-03T10:08:49Z</time></trkpt><trkpt lat="43.562896903048234" lon="11.27893812104769"><ele>361.2</ele><time>2026-04-03T10:08:51Z</time></trkpt><trkpt lat="43.56300684204926" lon="11.278947479993418"><ele>363.4</ele><time>2026-04-03T10:08:53Z</time></trkpt><trkpt lat="43.56311982934728" lon="11.278939089241238"><ele>365.6</ele><time>2026-04-03T10:08:55Z</time></trkpt><trkpt lat="43.56323207968764" lon="11.278943893591244"><ele>367.8</ele><time>2026-04-03T10:08:57Z</time></trkpt><trkpt lat="43.563328818333304" lon="11.278941528739145"><ele>370.0</ele><time>2026-04-03T10:08:59Z</time></trkpt><trkpt lat="43.56339721344399" lon="11.279001677297641"><ele>370.0</ele><time>2026-04-03T10:09:01Z</time></trkpt><trkpt lat="43.563436856523836" lon="11.279157815644144"><ele>370.0</ele><time>2026-04-03T10:09:03Z</time></trkpt><trkpt lat="43.563460415347464" lon="11.279260063924651"><ele>370.0</ele><time>2026-04-03T10:09:04Z</time></trkpt><trkpt lat="43.56348312942068" lon="11.279346989545989"><ele>370.0</ele><time>2026-04-03T10:09:05Z</time></trkpt><trkpt lat="43.56353334609167" lon="11.279460805372361"><ele>370.0</ele><time>2026-04-03T10:09:07Z</time></trkpt><trkpt lat="43.56360278694938" lon="11.279570466769847"><ele>370.0</ele><time>2026-04-03T10:09:09Z</time></trkpt><trkpt lat="43.56368808148006" lon="11.27964841251881"><ele>370.0</ele><time>2026-04-03T10:09:10.999Z</time></trkpt><trkpt lat="43.56378450908576" lon="11.279716113292922"><ele>370.0</ele><time>2026-04-03T10:09:12.999Z</time></trkpt><trkpt lat="43.56387895803724" lon="11.279794386891353"><ele>370.0</ele><time>2026-04-03T10:09:14.999Z</time></trkpt><trkpt lat="43.56394044549001" lon="11.279827612825635"><ele>370.0</ele><time>2026-04-03T10:09:15.999Z</time></trkpt><trkpt lat="43.563999535436686" lon="11.279871072488845"><ele>371.66666666666663</ele><time>2026-04-03T10:09:16.999Z</time></trkpt><trkpt lat="43.564060871840894" lon="11.279935993590083"><ele>373.3333333333333</ele><time>2026-04-03T10:09:17.999Z</time></trkpt><trkpt lat="43.564130174404795" lon="11.28000531621567"><ele>375.0</ele><time>2026-04-03T10:09:18.999Z</time></trkpt><trkpt lat="43.56419889110044" lon="11.280084569617879"><ele>376.6666666666667</ele><time>2026-04-03T10:09:19.999Z</time></trkpt><trkpt lat="43.56425774287403" lon="11.28015702646793"><ele>378.33333333333337</ele><time>2026-04-03T10:09:20.999Z</time></trkpt><trkpt lat="43.56429576218601" lon="11.28024676755118"><ele>380.0</ele><time>2026-04-03T10:09:21.999Z</time></trkpt><trkpt lat="43.564333534328384" lon="11.280345933741115"><ele>380.0</ele><time>2026-04-03T10:09:22.999Z</time></trkpt><trkpt lat="43.56437501884547" lon="11.280435710692624"><ele>380.0</ele><time>2026-04-03T10:09:23.999Z</time></trkpt><trkpt lat="43.564377416845964" lon="11.28056792790057"><ele>380.0</ele><time>2026-04-03T10:09:25.999Z</time></trkpt><trkpt lat="43.564287680918596" lon="11.280672226497487"><ele>380.0</ele><time>2026-04-03T10:09:27.999Z</time></trkpt><trkpt lat="43.56421719379423" lon="11.280748294026022"><ele>380.0</ele><time>2026-04-03T10:09:28.999Z</time></trkpt><trkpt lat="43.56415365201443" lon="11.280830961392796"><ele>381.2</ele><time>2026-04-03T10:09:29.999Z</time></trkpt><trkpt lat="43.56410104022592" lon="11.280907480566862"><ele>382.4</ele><time>2026-04-03T10:09:30.999Z</time></trkpt><trkpt lat="43.564040868644454" lon="11.28098135337016"><ele>383.6</ele><time>2026-04-03T10:09:31.999Z</time></trkpt><trkpt lat="43.56398442149695" lon="11.281055027401734"><ele>384.8</ele><time>2026-04-03T10:09:32.999Z</time></trkpt><trkpt lat="43.563883879634744" lon="11.281165278681954"><ele>386.0</ele><time>2026-04-03T10:09:34.998Z</time></trkpt><trkpt lat="43.56381128676709" lon="11.281250160716883"><ele>385.99999999999994</ele><time>2026-04-03T10:09:36.998Z</time></trkpt><trkpt lat="43.56380432141358" lon="11.28136629593278"><ele>386.0</ele><time>2026-04-03T10:09:38.998Z</time></trkpt><trkpt lat="43.56385750047272" lon="11.281505967068115"><ele>386.0</ele><time>2026-04-03T10:09:40.998Z</time></trkpt><trkpt lat="43.56388775116453" lon="11.281585716950481"><ele>386.0</ele><time>2026-04-03T10:09:41.998Z</time></trkpt><trkpt lat="43.56391754318139" lon="11.281670783387131"><ele>385.99999999999994</ele><time>2026-04-03T10:09:42.998Z</time></trkpt><trkpt lat="43.5639614186632" lon="11.28174775163134"><ele>386.0</ele><time>2026-04-03T10:09:43.998Z</time></trkpt><trkpt lat="43.56399054181032" lon="11.281838732035801"><ele>387.99999999999994</ele><time>2026-04-03T10:09:44.998Z</time></trkpt><trkpt lat="43.56402805364427" lon="11.281922810005799"><ele>390.0</ele><time>2026-04-03T10:09:45.998Z</time></trkpt><trkpt lat="43.56406652696362" lon="11.282012689505667"><ele>392.0</ele><time>2026-04-03T10:09:46.998Z</time></trkpt><trkpt lat="43.56410487827669" lon="11.282094980487006"><ele>394.0</ele><time>2026-04-03T10:09:47.998Z</time></trkpt><trkpt lat="43.564138844700906" lon="11.282187556321633"><ele>395.99999999999994</ele><time>2026-04-03T10:09:48.998Z</time></trkpt><trkpt lat="43.564174886006384" lon="11.282285587114762"><ele>398.0</ele><time>2026-04-03T10:09:49.999Z</time></trkpt><trkpt lat="43.56418798945335" lon="11.282395576905321"><ele>399.66666666666663</ele><time>2026-04-03T10:09:50.999Z</time></trkpt><trkpt lat="43.564213265769034" lon="11.282497349488345"><ele>401.3333333333333</ele><time>2026-04-03T10:09:51.999Z</time></trkpt><trkpt lat="43.56423246015651" lon="11.282596257441792"><ele>403.0</ele><time>2026-04-03T10:09:52.999Z</time></trkpt><trkpt lat="43.56424399661039" lon="11.282716287422822"><ele>404.66666666666663</ele><time>2026-04-03T10:09:53.999Z</time></trkpt><trkpt lat="43.56425596539356" lon="11.282837499659847"><ele>406.3333333333333</ele><time>2026-04-03T10:09:54.999Z</time></trkpt><trkpt lat="43.564276700198285" lon="11.282944650572412"><ele>408.0</ele><time>2026-04-03T10:09:55.999Z</time></trkpt><trkpt lat="43.564303159005206" lon="11.283041166150278"><ele>408.8333333333333</ele><time>2026-04-03T10:09:56.999Z</time></trkpt><trkpt lat="43.56435030296138" lon="11.283148587697497"><ele>409.66666666666663</ele><time>2026-04-03T10:09:57.999Z</time></trkpt><trkpt lat="43.564393313545054" lon="11.283263087087116"><ele>410.5</ele><time>2026-04-03T10:09:58.999Z</time></trkpt><trkpt lat="43.56443385205108" lon="11.283363887872238"><ele>411.3333333333333</ele><time>2026-04-03T10:09:59.999Z</time></trkpt><trkpt lat="43.564467589522614" lon="11.283452835110076"><ele>412.16666666666663</ele><time>2026-04-03T10:10:00.999Z</time></trkpt><trkpt lat="43.5644976252285" lon="11.283554143376755"><ele>413.0</ele><time>2026-04-03T10:10:01.999Z</time></trkpt><trkpt lat="43.564513614137596" lon="11.283680363137654"><ele>413.0</ele><time>2026-04-03T10:10:03.999Z</time></trkpt><trkpt lat="43.56451042109614" lon="11.283860271139824"><ele>413.0</ele><time>2026-04-03T10:10:05.999Z</time></trkpt><trkpt lat="43.56453763293241" lon="11.283970767268691"><ele>413.0</ele><time>2026-04-03T10:10:06.999Z</time></trkpt><trkpt lat="43.56455512584472" lon="11.284068924212791"><ele>413.0</ele><time>2026-04-03T10:10:07.999Z</time></trkpt><trkpt lat="43.56455882392981" lon="11.284178820056827"><ele>413.0</ele><time>2026-04-03T10:10:08.999Z</time></trkpt><trkpt lat="43.5645950558456" lon="11.284283926772517"><ele>415.49999999999994</ele><time>2026-04-03T10:10:09.999Z</time></trkpt><trkpt lat="43.56460762829353" lon="11.28440006501977"><ele>418.0</ele><time>2026-04-03T10:10:10.999Z</time></trkpt><trkpt lat="43.56463436204295" lon="11.284501356988585"><ele>420.5</ele><time>2026-04-03T10:10:11.999Z</time></trkpt><trkpt lat="43.56465693646487" lon="11.284608011332143"><ele>423.0</ele><time>2026-04-03T10:10:12.999Z</time></trkpt><trkpt lat="43.56468971205258" lon="11.284715031508073"><ele>425.49999999999994</ele><time>2026-04-03T10:10:13.999Z</time></trkpt><trkpt lat="43.56470935969787" lon="11.28482507479816"><ele>428.0</ele><time>2026-04-03T10:10:14.999Z</time></trkpt><trkpt lat="43.564731636273486" lon="11.284934295652015"><ele>429.16666666666663</ele><time>2026-04-03T10:10:15.999Z</time></trkpt><trkpt lat="43.56475223068946" lon="11.285041980856311"><ele>430.3333333333333</ele><time>2026-04-03T10:10:16.999Z</time></trkpt><trkpt lat="43.56475303154207" lon="11.285159059711422"><ele>431.5</ele><time>2026-04-03T10:10:17.999Z</time></trkpt><trkpt lat="43.564762909413" lon="11.285272332157861"><ele>432.66666666666663</ele><time>2026-04-03T10:10:18.999Z</time></trkpt><trkpt lat="43.56475882640001" lon="11.285377046013927"><ele>433.8333333333333</ele><time>2026-04-03T10:10:19.999Z</time></trkpt><trkpt lat="43.56475227888479" lon="11.285484088418754"><ele>435.0</ele><time>2026-04-03T10:10:20.999Z</time></trkpt><trkpt lat="43.56475346794487" lon="11.285584807028465"><ele>436.0</ele><time>2026-04-03T10:10:21.999Z</time></trkpt><trkpt lat="43.56477427652987" lon="11.285700956185407"><ele>437.0</ele><time>2026-04-03T10:10:22.999Z</time></trkpt><trkpt lat="43.56478750716201" lon="11.285809980278998"><ele>438.0</ele><time>2026-04-03T10:10:23.999Z</time></trkpt><trkpt lat="43.564785206172346" lon="11.28593572154864"><ele>439.0</ele><time>2026-04-03T10:10:24.999Z</time></trkpt><trkpt lat="43.56476430997344" lon="11.286053649801422"><ele>440.0</ele><time>2026-04-03T10:10:25.999Z</time></trkpt><trkpt lat="43.56473915031942" lon="11.28618069485504"><ele>441.0</ele><time>2026-04-03T10:10:26.999Z</time></trkpt><trkpt lat="43.56473476033306" lon="11.286298955619639"><ele>441.0</ele><time>2026-04-03T10:10:27.999Z</time></trkpt><trkpt lat="43.56469782171265" lon="11.286425829047843"><ele>441.0</ele><time>2026-04-03T10:10:28.999Z</time></trkpt><trkpt lat="43.564674792905485" lon="11.28655950593967"><ele>441.0</ele><time>2026-04-03T10:10:29.999Z</time></trkpt><trkpt lat="43.56465337160812" lon="11.286698520294355"><ele>441.0</ele><time>2026-04-03T10:10:30.999Z</time></trkpt><trkpt lat="43.56465942243496" lon="11.286845200212273"><ele>441.0</ele><time>2026-04-03T10:10:31.999Z</time></trkpt><trkpt lat="43.564658378012666" lon="11.286989334417678"><ele>441.0</ele><time>2026-04-03T10:10:32.999Z</time></trkpt><trkpt lat="43.56466697582116" lon="11.287129625968076"><ele>441.0</ele><time>2026-04-03T10:10:33.999Z</time></trkpt><trkpt lat="43.564676592215186" lon="11.287273433313821"><ele>441.0</ele><time>2026-04-03T10:10:34.999Z</time></trkpt><trkpt lat="43.56465355900556" lon="11.287393419204939"><ele>441.0</ele><time>2026-04-03T10:10:35.999Z</time></trkpt><trkpt lat="43.564622135793314" lon="11.287496880060262"><ele>441.0</ele><time>2026-04-03T10:10:36.999Z</time></trkpt><trkpt lat="43.5645805967812" lon="11.287633393158009"><ele>441.1666666666667</ele><time>2026-04-03T10:10:37.999Z</time></trkpt><trkpt lat="43.564537157922764" lon="11.287765641766079"><ele>441.33333333333337</ele><time>2026-04-03T10:10:38.999Z</time></trkpt><trkpt lat="43.564514585023616" lon="11.28788081238436"><ele>441.5</ele><time>2026-04-03T10:10:39.999Z</time></trkpt><trkpt lat="43.56447836672735" lon="11.287986031062259"><ele>441.6666666666667</ele><time>2026-04-03T10:10:40.999Z</time></trkpt><trkpt lat="43.56443802115963" lon="11.288094448525877"><ele>441.83333333333337</ele><time>2026-04-03T10:10:41.999Z</time></trkpt><trkpt lat="43.56438734235507" lon="11.28818323042405"><ele>442.0</ele><time>2026-04-03T10:10:42.999Z</time></trkpt><trkpt lat="43.56435568556352" lon="11.288265052433877"><ele>443.40000000000003</ele><time>2026-04-03T10:10:44.999Z</time></trkpt><trkpt lat="43.56444743100008" lon="11.28843001299349"><ele>444.80000000000007</ele><time>2026-04-03T10:10:47.999Z</time></trkpt><trkpt lat="43.56449239728406" lon="11.288540404733414"><ele>446.2</ele><time>2026-04-03T10:10:48.999Z</time></trkpt><trkpt lat="43.564549779843595" lon="11.28860970170846"><ele>447.6</ele><time>2026-04-03T10:10:49.999Z</time></trkpt><trkpt lat="43.56455658931394" lon="11.288755719412336"><ele>449.0</ele><time>2026-04-03T10:10:51.999Z</time></trkpt><trkpt lat="43.564606474040765" lon="11.288917773212015"><ele>450.49999999999994</ele><time>2026-04-03T10:10:53.999Z</time></trkpt><trkpt lat="43.56463582666377" lon="11.289005716714044"><ele>452.0</ele><time>2026-04-03T10:10:54.999Z</time></trkpt><trkpt lat="43.564680763169136" lon="11.289090059087567"><ele>453.5</ele><time>2026-04-03T10:10:55.999Z</time></trkpt><trkpt lat="43.56470333428538" lon="11.289200741566077"><ele>455.0</ele><time>2026-04-03T10:10:56.999Z</time></trkpt><trkpt lat="43.56474419178609" lon="11.289317103242908"><ele>456.49999999999994</ele><time>2026-04-03T10:10:57.999Z</time></trkpt><trkpt lat="43.56478552590211" lon="11.289434822329556"><ele>458.0</ele><time>2026-04-03T10:10:58.999Z</time></trkpt><trkpt lat="43.56482621189508" lon="11.28955069549947"><ele>457.99999999999994</ele><time>2026-04-03T10:10:59.999Z</time></trkpt><trkpt lat="43.56486289151471" lon="11.289655158726426"><ele>458.0</ele><time>2026-04-03T10:11:00.999Z</time></trkpt><trkpt lat="43.564900146948375" lon="11.289763080816702"><ele>458.0</ele><time>2026-04-03T10:11:01.999Z</time></trkpt><trkpt lat="43.564940846434034" lon="11.289882715597905"><ele>458.0</ele><time>2026-04-03T10:11:02.999Z</time></trkpt><trkpt lat="43.56498339749282" lon="11.289979391705208"><ele>457.99999999999994</ele><time>2026-04-03T10:11:03.999Z</time></trkpt><trkpt lat="43.56501365727263" lon="11.290073479292742"><ele>458.0</ele><time>2026-04-03T10:11:04.999Z</time></trkpt><trkpt lat="43.56504788533433" lon="11.290154170469966"><ele>457.79999999999995</ele><time>2026-04-03T10:11:05.999Z</time></trkpt><trkpt lat="43.565091878454055" lon="11.290266340656974"><ele>457.59999999999997</ele><time>2026-04-03T10:11:07.999Z</time></trkpt><trkpt lat="43.56509426401578" lon="11.290355702254386"><ele>457.40000000000003</ele><time>2026-04-03T10:11:09.999Z</time></trkpt><trkpt lat="43.56498736695456" lon="11.290491346140108"><ele>457.20000000000005</ele><time>2026-04-03T10:11:11.999Z</time></trkpt><trkpt lat="43.564898373318556" lon="11.290569316725355"><ele>457.0</ele><time>2026-04-03T10:11:12.999Z</time></trkpt><trkpt lat="43.564820051753955" lon="11.290651257466061"><ele>456.8</ele><time>2026-04-03T10:11:13.999Z</time></trkpt><trkpt lat="43.56473673162534" lon="11.29072178828219"><ele>456.6</ele><time>2026-04-03T10:11:14.999Z</time></trkpt><trkpt lat="43.564646128763975" lon="11.290795192697235"><ele>456.40000000000003</ele><time>2026-04-03T10:11:15.998Z</time></trkpt><trkpt lat="43.56455161363357" lon="11.290868271734288"><ele>456.20000000000005</ele><time>2026-04-03T10:11:16.998Z</time></trkpt><trkpt lat="43.56445573197156" lon="11.290943488254843"><ele>456.0</ele><time>2026-04-03T10:11:17.998Z</time></trkpt><trkpt lat="43.56435907914556" lon="11.291026233333207"><ele>456.0</ele><time>2026-04-03T10:11:18.998Z</time></trkpt><trkpt lat="43.56427154525245" lon="11.291117204848822"><ele>456.0</ele><time>2026-04-03T10:11:19.998Z</time></trkpt><trkpt lat="43.56420581745307" lon="11.291201442227063"><ele>456.0</ele><time>2026-04-03T10:11:20.998Z</time></trkpt><trkpt lat="43.56422161724503" lon="11.29134262469813"><ele>456.0</ele><time>2026-04-03T10:11:21.998Z</time></trkpt><trkpt lat="43.56425594384943" lon="11.29146971393487"><ele>456.0</ele><time>2026-04-03T10:11:22.998Z</time></trkpt><trkpt lat="43.56430632414352" lon="11.291607541593725"><ele>457.4</ele><time>2026-04-03T10:11:23.998Z</time></trkpt><trkpt lat="43.564315714036034" lon="11.29174937502385"><ele>458.8</ele><time>2026-04-03T10:11:24.998Z</time></trkpt><trkpt lat="43.56425149780707" lon="11.2918667332983"><ele>460.19999999999993</ele><time>2026-04-03T10:11:25.998Z</time></trkpt><trkpt lat="43.56417731190632" lon="11.291926805586884"><ele>461.59999999999997</ele><time>2026-04-03T10:11:26.998Z</time></trkpt><trkpt lat="43.56407575070346" lon="11.291939368230311"><ele>463.0</ele><time>2026-04-03T10:11:27.998Z</time></trkpt><trkpt lat="43.5639489988369" lon="11.291957741228593"><ele>463.0</ele><time>2026-04-03T10:11:28.998Z</time></trkpt><trkpt lat="43.56380944709434" lon="11.292024446349203"><ele>463.0</ele><time>2026-04-03T10:11:29.998Z</time></trkpt><trkpt lat="43.56367218946359" lon="11.292092712476393"><ele>463.0</ele><time>2026-04-03T10:11:30.998Z</time></trkpt><trkpt lat="43.56352430776648" lon="11.292185736785155"><ele>467.33333333333337</ele><time>2026-04-03T10:11:31.998Z</time></trkpt><trkpt lat="43.56337663227536" lon="11.292289340269624"><ele>471.66666666666663</ele><time>2026-04-03T10:11:32.998Z</time></trkpt><trkpt lat="43.563247604403955" lon="11.292409177708528"><ele>476.0</ele><time>2026-04-03T10:11:33.998Z</time></trkpt><trkpt lat="43.56312501434791" lon="11.292560970959496"><ele>476.0</ele><time>2026-04-03T10:11:34.998Z</time></trkpt><trkpt lat="43.563017208390285" lon="11.29273385627301"><ele>476.0</ele><time>2026-04-03T10:11:35.998Z</time></trkpt><trkpt lat="43.562894383985835" lon="11.292907437530939"><ele>476.0</ele><time>2026-04-03T10:11:36.998Z</time></trkpt><trkpt lat="43.562809798903324" lon="11.293101642545835"><ele>479.0</ele><time>2026-04-03T10:11:37.998Z</time></trkpt><trkpt lat="43.562737451041926" lon="11.29325502936214"><ele>482.0</ele><time>2026-04-03T10:11:38.998Z</time></trkpt><trkpt lat="43.56267870694674" lon="11.293412702804487"><ele>485.0</ele><time>2026-04-03T10:11:39.998Z</time></trkpt><trkpt lat="43.562601233600205" lon="11.293577352325451"><ele>488.0</ele><time>2026-04-03T10:11:40.998Z</time></trkpt><trkpt lat="43.5625399707227" lon="11.293754365846612"><ele>489.0</ele><time>2026-04-03T10:11:41.998Z</time></trkpt><trkpt lat="43.562483340758384" lon="11.293933209800207"><ele>490.0</ele><time>2026-04-03T10:11:42.998Z</time></trkpt><trkpt lat="43.562446678134734" lon="11.294117149149212"><ele>491.0</ele><time>2026-04-03T10:11:43.998Z</time></trkpt><trkpt lat="43.56240057080281" lon="11.294292325897572"><ele>492.0</ele><time>2026-04-03T10:11:44.998Z</time></trkpt><trkpt lat="43.562356514772134" lon="11.294489163959728"><ele>492.0</ele><time>2026-04-03T10:11:45.998Z</time></trkpt><trkpt lat="43.56231597613255" lon="11.294693440196852"><ele>492.0</ele><time>2026-04-03T10:11:46.998Z</time></trkpt><trkpt lat="43.56228864489037" lon="11.294883037510676"><ele>492.0</ele><time>2026-04-03T10:11:47.998Z</time></trkpt><trkpt lat="43.56226762096401" lon="11.295076754253373"><ele>492.0</ele><time>2026-04-03T10:11:48.998Z</time></trkpt><trkpt lat="43.562258760625454" lon="11.295235904206065"><ele>492.5</ele><time>2026-04-03T10:11:49.998Z</time></trkpt><trkpt lat="43.5622265706396" lon="11.295348950710515"><ele>493.0</ele><time>2026-04-03T10:11:50.998Z</time></trkpt><trkpt lat="43.56218206698641" lon="11.295442742642537"><ele>493.5</ele><time>2026-04-03T10:11:51.998Z</time></trkpt><trkpt lat="43.56210537667886" lon="11.295485379542946"><ele>494.0</ele><time>2026-04-03T10:11:52.998Z</time></trkpt><trkpt lat="43.562012785912955" lon="11.295512977491716"><ele>494.5</ele><time>2026-04-03T10:11:53.998Z</time></trkpt><trkpt lat="43.5619113919664" lon="11.295535561367108"><ele>495.0</ele><time>2026-04-03T10:11:54.998Z</time></trkpt><trkpt lat="43.561804094671075" lon="11.295586014731093"><ele>498.5</ele><time>2026-04-03T10:11:55.999Z</time></trkpt><trkpt lat="43.561698047539736" lon="11.295631370009476"><ele>502.0</ele><time>2026-04-03T10:11:56.999Z</time></trkpt><trkpt lat="43.56158111327679" lon="11.295703771690748"><ele>505.5</ele><time>2026-04-03T10:11:57.999Z</time></trkpt><trkpt lat="43.56146187059254" lon="11.295801934441757"><ele>509.0</ele><time>2026-04-03T10:11:58.999Z</time></trkpt><trkpt lat="43.56135132835993" lon="11.295920540277603"><ele>509.0</ele><time>2026-04-03T10:11:59.999Z</time></trkpt><trkpt lat="43.5612221560733" lon="11.296022340587394"><ele>509.0</ele><time>2026-04-03T10:12:00.999Z</time></trkpt><trkpt lat="43.56109884159853" lon="11.296119776655733"><ele>509.0</ele><time>2026-04-03T10:12:01.999Z</time></trkpt><trkpt lat="43.56097004232383" lon="11.29620433405675"><ele>509.0</ele><time>2026-04-03T10:12:02.999Z</time></trkpt><trkpt lat="43.56084127738757" lon="11.296282597306583"><ele>508.0</ele><time>2026-04-03T10:12:03.999Z</time></trkpt><trkpt lat="43.56071430571402" lon="11.296351714235785"><ele>507.0</ele><time>2026-04-03T10:12:04.999Z</time></trkpt><trkpt lat="43.5605859749682" lon="11.296424144281456"><ele>506.0</ele><time>2026-04-03T10:12:05.999Z</time></trkpt><trkpt lat="43.560456345138576" lon="11.296514735950836"><ele>505.0</ele><time>2026-04-03T10:12:06.999Z</time></trkpt><trkpt lat="43.56031739212263" lon="11.296564666450164"><ele>504.0</ele><time>2026-04-03T10:12:07.999Z</time></trkpt><trkpt lat="43.56018359904022" lon="11.296631946640703"><ele>503.0</ele><time>2026-04-03T10:12:08.999Z</time></trkpt><trkpt lat="43.56005405860761" lon="11.296676944503806"><ele>502.0</ele><time>2026-04-03T10:12:09.999Z</time></trkpt><trkpt lat="43.55992435315211" lon="11.296689964410923"><ele>501.0</ele><time>2026-04-03T10:12:10.999Z</time></trkpt><trkpt lat="43.55978700607294" lon="11.296686844021066"><ele>501.0</ele><time>2026-04-03T10:12:11.999Z</time></trkpt><trkpt lat="43.559650698989785" lon="11.296682741334019"><ele>501.0</ele><time>2026-04-03T10:12:12.999Z</time></trkpt><trkpt lat="43.55950766378491" lon="11.296680332868755"><ele>501.0</ele><time>2026-04-03T10:12:13.999Z</time></trkpt><trkpt lat="43.559360670084445" lon="11.296693414534651"><ele>501.0</ele><time>2026-04-03T10:12:14.999Z</time></trkpt><trkpt lat="43.559214521210336" lon="11.296759825242127"><ele>501.25</ele><time>2026-04-03T10:12:15.999Z</time></trkpt><trkpt lat="43.559070969512156" lon="11.296802133467967"><ele>501.5</ele><time>2026-04-03T10:12:16.999Z</time></trkpt><trkpt lat="43.5589275734053" lon="11.296869137202892"><ele>501.75</ele><time>2026-04-03T10:12:17.999Z</time></trkpt><trkpt lat="43.55878771216643" lon="11.296926352780616"><ele>502.0</ele><time>2026-04-03T10:12:18.999Z</time></trkpt><trkpt lat="43.55864758357849" lon="11.296953698908114"><ele>502.0</ele><time>2026-04-03T10:12:19.999Z</time></trkpt><trkpt lat="43.55850335742913" lon="11.296978298375087"><ele>502.0</ele><time>2026-04-03T10:12:20.999Z</time></trkpt><trkpt lat="43.55836235019056" lon="11.297017765559398"><ele>502.0</ele><time>2026-04-03T10:12:21.999Z</time></trkpt><trkpt lat="43.55823084457714" lon="11.297103511818479"><ele>502.0</ele><time>2026-04-03T10:12:22.999Z</time></trkpt><trkpt lat="43.55809537191109" lon="11.29716128243314"><ele>502.0</ele><time>2026-04-03T10:12:23.999Z</time></trkpt><trkpt lat="43.55797254926891" lon="11.29723827862144"><ele>502.0</ele><time>2026-04-03T10:12:24.999Z</time></trkpt><trkpt lat="43.5578611480949" lon="11.297317411953271"><ele>502.0</ele><time>2026-04-03T10:12:25.999Z</time></trkpt><trkpt lat="43.55775987121599" lon="11.29738462294641"><ele>502.0</ele><time>2026-04-03T10:12:26.999Z</time></trkpt><trkpt lat="43.55765778867021" lon="11.297429519262046"><ele>501.25</ele><time>2026-04-03T10:12:27.999Z</time></trkpt><trkpt lat="43.557553101274856" lon="11.297419414731204"><ele>500.5</ele><time>2026-04-03T10:12:28.999Z</time></trkpt><trkpt lat="43.5574289709898" lon="11.297388034831382"><ele>499.75</ele><time>2026-04-03T10:12:29.999Z</time></trkpt><trkpt lat="43.5572956245559" lon="11.297366472209756"><ele>499.0</ele><time>2026-04-03T10:12:30.999Z</time></trkpt><trkpt lat="43.55716984379894" lon="11.297386338787454"><ele>499.0</ele><time>2026-04-03T10:12:31.999Z</time></trkpt><trkpt lat="43.557060702535075" lon="11.297420514923914"><ele>499.0</ele><time>2026-04-03T10:12:32.999Z</time></trkpt><trkpt lat="43.556970572706604" lon="11.297425419383814"><ele>499.0</ele><time>2026-04-03T10:12:33.999Z</time></trkpt><trkpt lat="43.55689963361567" lon="11.297451800181559"><ele>499.0</ele><time>2026-04-03T10:12:34.999Z</time></trkpt><trkpt lat="43.55681339633862" lon="11.297503918955414"><ele>499.0</ele><time>2026-04-03T10:12:36.999Z</time></trkpt><trkpt lat="43.55655022219108" lon="11.297525872071152"><ele>499.0</ele><time>2026-04-03T10:12:42.999Z</time></trkpt><trkpt lat="43.556565965330925" lon="11.29732123113578"><ele>499.0</ele><time>2026-04-03T10:12:43.999Z</time></trkpt><trkpt lat="43.55661577971733" lon="11.297179077487135"><ele>499.0</ele><time>2026-04-03T10:12:44.999Z</time></trkpt><trkpt lat="43.55714595500187" lon="11.297425750025043"><ele>499.00000000000006</ele><time>2026-04-03T10:12:45.999Z</time></trkpt><trkpt lat="43.55725465800276" lon="11.297409829170636"><ele>499.0</ele><time>2026-04-03T10:12:46.999Z</time></trkpt><trkpt lat="43.5573391754146" lon="11.297410964917386"><ele>499.0</ele><time>2026-04-03T10:12:47.999Z</time></trkpt><trkpt lat="43.557402817113235" lon="11.297424754686233"><ele>499.0</ele><time>2026-04-03T10:12:48.999Z</time></trkpt><trkpt lat="43.55749108160252" lon="11.297442103721822"><ele>499.00000000000006</ele><time>2026-04-03T10:12:51.999Z</time></trkpt><trkpt lat="43.557563156787744" lon="11.29745739685751"><ele>499.0</ele><time>2026-04-03T10:12:52.999Z</time></trkpt><trkpt lat="43.55763493379416" lon="11.297452107088382"><ele>499.0</ele><time>2026-04-03T10:12:54.999Z</time></trkpt><trkpt lat="43.55755918206851" lon="11.297398206218825"><ele>499.0</ele><time>2026-04-03T10:12:57.999Z</time></trkpt><trkpt lat="43.557455276595235" lon="11.297399353944423"><ele>499.0</ele><time>2026-04-03T10:13:00.999Z</time></trkpt><trkpt lat="43.55735433613814" lon="11.297369917819246"><ele>499.0</ele><time>2026-04-03T10:13:02.999Z</time></trkpt><trkpt lat="43.5572911762293" lon="11.29736657115469"><ele>499.0</ele><time>2026-04-03T10:13:05.999Z</time></trkpt><trkpt lat="43.55718479893675" lon="11.297386553284273"><ele>499.0</ele><time>2026-04-03T10:13:07.999Z</time></trkpt><trkpt lat="43.55711830856348" lon="11.297395245658173"><ele>499.0</ele><time>2026-04-03T10:13:08.999Z</time></trkpt><trkpt lat="43.557053262627655" lon="11.297413969339551"><ele>499.0</ele><time>2026-04-03T10:13:09.999Z</time></trkpt><trkpt lat="43.55694701622231" lon="11.29743385484879"><ele>499.0</ele><time>2026-04-03T10:13:11.999Z</time></trkpt><trkpt lat="43.55683049947445" lon="11.297479130546423"><ele>499.0</ele><time>2026-04-03T10:13:13.999Z</time></trkpt><trkpt lat="43.556744353204586" lon="11.297513186261876"><ele>497.79999999999995</ele><time>2026-04-03T10:13:14.999Z</time></trkpt><trkpt lat="43.55665019018939" lon="11.29755041111987"><ele>496.59999999999997</ele><time>2026-04-03T10:13:15.999Z</time></trkpt><trkpt lat="43.55654915545792" lon="11.297579015196195"><ele>495.4</ele><time>2026-04-03T10:13:16.999Z</time></trkpt><trkpt lat="43.55644689859" lon="11.29759926640714"><ele>494.2</ele><time>2026-04-03T10:13:17.999Z</time></trkpt><trkpt lat="43.556348329181915" lon="11.29761019429417"><ele>493.0</ele><time>2026-04-03T10:13:18.999Z</time></trkpt><trkpt lat="43.55625014806267" lon="11.29762434439805"><ele>491.79999999999995</ele><time>2026-04-03T10:13:19.999Z</time></trkpt><trkpt lat="43.55614945354176" lon="11.297640975558243"><ele>490.59999999999997</ele><time>2026-04-03T10:13:20.999Z</time></trkpt><trkpt lat="43.55604392728217" lon="11.297663478865994"><ele>489.40000000000003</ele><time>2026-04-03T10:13:21.999Z</time></trkpt><trkpt lat="43.55594231970545" lon="11.297711263749544"><ele>488.20000000000005</ele><time>2026-04-03T10:13:22.999Z</time></trkpt><trkpt lat="43.55583698893928" lon="11.297721432150096"><ele>487.0</ele><time>2026-04-03T10:13:23.999Z</time></trkpt><trkpt lat="43.555736152935545" lon="11.297751276347691"><ele>487.0</ele><time>2026-04-03T10:13:24.999Z</time></trkpt><trkpt lat="43.55562941498085" lon="11.297782495731273"><ele>487.00000000000006</ele><time>2026-04-03T10:13:25.999Z</time></trkpt><trkpt lat="43.55552250989572" lon="11.297813764019024"><ele>487.00000000000006</ele><time>2026-04-03T10:13:26.999Z</time></trkpt><trkpt lat="43.555416878112766" lon="11.297844659883145"><ele>487.0</ele><time>2026-04-03T10:13:27.999Z</time></trkpt><trkpt lat="43.55532035739804" lon="11.297874823445445"><ele>487.0</ele><time>2026-04-03T10:13:28.999Z</time></trkpt><trkpt lat="43.55522504178057" lon="11.297906405124108"><ele>486.0</ele><time>2026-04-03T10:13:29.998Z</time></trkpt><trkpt lat="43.5551286719968" lon="11.297945474844154"><ele>485.00000000000006</ele><time>2026-04-03T10:13:30.998Z</time></trkpt><trkpt lat="43.55503369314657" lon="11.297988469302961"><ele>484.00000000000006</ele><time>2026-04-03T10:13:31.998Z</time></trkpt><trkpt lat="43.5549401306266" lon="11.298044304540083"><ele>483.0</ele><time>2026-04-03T10:13:32.998Z</time></trkpt><trkpt lat="43.554848092239084" lon="11.298105830022422"><ele>482.0</ele><time>2026-04-03T10:13:33.998Z</time></trkpt><trkpt lat="43.554760021293355" lon="11.298170673306293"><ele>482.0</ele><time>2026-04-03T10:13:34.998Z</time></trkpt><trkpt lat="43.554666720478295" lon="11.298250062198836"><ele>482.00000000000006</ele><time>2026-04-03T10:13:35.998Z</time></trkpt><trkpt lat="43.554585953215934" lon="11.298336881003273"><ele>482.00000000000006</ele><time>2026-04-03T10:13:36.998Z</time></trkpt><trkpt lat="43.55451241717262" lon="11.29842635230937"><ele>482.0</ele><time>2026-04-03T10:13:37.998Z</time></trkpt><trkpt lat="43.55443803611849" lon="11.298522315869553"><ele>482.0</ele><time>2026-04-03T10:13:38.998Z</time></trkpt><trkpt lat="43.55436421976787" lon="11.298618485525651"><ele>482.0</ele><time>2026-04-03T10:13:39.998Z</time></trkpt><trkpt lat="43.55428314955653" lon="11.29869540517134"><ele>482.00000000000006</ele><time>2026-04-03T10:13:40.998Z</time></trkpt><trkpt lat="43.55418781235717" lon="11.298764241538517"><ele>482.00000000000006</ele><time>2026-04-03T10:13:41.998Z</time></trkpt><trkpt lat="43.55408366459039" lon="11.298806414311603"><ele>482.0</ele><time>2026-04-03T10:13:42.998Z</time></trkpt><trkpt lat="43.55397030976975" lon="11.298828162205437"><ele>482.0</ele><time>2026-04-03T10:13:43.998Z</time></trkpt><trkpt lat="43.55385042219879" lon="11.298820628557484"><ele>482.0</ele><time>2026-04-03T10:13:44.998Z</time></trkpt><trkpt lat="43.55373333565053" lon="11.298813101658537"><ele>482.00000000000006</ele><time>2026-04-03T10:13:45.998Z</time></trkpt><trkpt lat="43.55361944478963" lon="11.298832167393675"><ele>482.00000000000006</ele><time>2026-04-03T10:13:46.998Z</time></trkpt><trkpt lat="43.553512703882504" lon="11.298823155896207"><ele>482.0</ele><time>2026-04-03T10:13:47.998Z</time></trkpt><trkpt lat="43.5534109208321" lon="11.29885260854138"><ele>482.0</ele><time>2026-04-03T10:13:48.998Z</time></trkpt><trkpt lat="43.55330948397359" lon="11.298895196895085"><ele>485.5</ele><time>2026-04-03T10:13:49.998Z</time></trkpt><trkpt lat="43.55321025327348" lon="11.298968561961951"><ele>489.0</ele><time>2026-04-03T10:13:50.998Z</time></trkpt><trkpt lat="43.55311991609339" lon="11.299071138500157"><ele>492.5</ele><time>2026-04-03T10:13:51.998Z</time></trkpt><trkpt lat="43.5530588004518" lon="11.299211906593506"><ele>496.0</ele><time>2026-04-03T10:13:52.998Z</time></trkpt><trkpt lat="43.55300410076876" lon="11.29936081654199"><ele>496.0</ele><time>2026-04-03T10:13:53.998Z</time></trkpt><trkpt lat="43.55293396695354" lon="11.2995039349016"><ele>496.0</ele><time>2026-04-03T10:13:54.998Z</time></trkpt><trkpt lat="43.55287501713812" lon="11.29966670225353"><ele>496.0</ele><time>2026-04-03T10:13:55.998Z</time></trkpt><trkpt lat="43.55281230547909" lon="11.299833817691468"><ele>496.0</ele><time>2026-04-03T10:13:56.998Z</time></trkpt><trkpt lat="43.55274710406278" lon="11.299982275495653"><ele>497.25</ele><time>2026-04-03T10:13:57.998Z</time></trkpt><trkpt lat="43.55267823469134" lon="11.300131695068616"><ele>498.5</ele><time>2026-04-03T10:13:58.998Z</time></trkpt><trkpt lat="43.552604362056044" lon="11.300286159339024"><ele>499.75</ele><time>2026-04-03T10:13:59.998Z</time></trkpt><trkpt lat="43.552523078503086" lon="11.300462586009173"><ele>501.0</ele><time>2026-04-03T10:14:00.998Z</time></trkpt><trkpt lat="43.552457145230136" lon="11.300657181340984"><ele>501.0</ele><time>2026-04-03T10:14:01.999Z</time></trkpt><trkpt lat="43.552384146902014" lon="11.300830493209796"><ele>501.0</ele><time>2026-04-03T10:14:02.999Z</time></trkpt><trkpt lat="43.55231949627233" lon="11.300990829482297"><ele>501.0</ele><time>2026-04-03T10:14:03.999Z</time></trkpt><trkpt lat="43.5522601657939" lon="11.301150238008379"><ele>501.0</ele><time>2026-04-03T10:14:04.999Z</time></trkpt><trkpt lat="43.552204749978145" lon="11.301322448302706"><ele>500.0</ele><time>2026-04-03T10:14:05.999Z</time></trkpt><trkpt lat="43.552160511905726" lon="11.301501737022862"><ele>499.0</ele><time>2026-04-03T10:14:06.999Z</time></trkpt><trkpt lat="43.55211704763939" lon="11.301692536360248"><ele>498.0</ele><time>2026-04-03T10:14:07.999Z</time></trkpt><trkpt lat="43.552065207842894" lon="11.301861191181187"><ele>497.0</ele><time>2026-04-03T10:14:08.999Z</time></trkpt><trkpt lat="43.55200053157334" lon="11.302030081390308"><ele>496.0</ele><time>2026-04-03T10:14:09.999Z</time></trkpt><trkpt lat="43.55194003793168" lon="11.302189660755644"><ele>495.0</ele><time>2026-04-03T10:14:10.999Z</time></trkpt><trkpt lat="43.551861864068655" lon="11.302334708531601"><ele>494.0</ele><time>2026-04-03T10:14:11.999Z</time></trkpt><trkpt lat="43.55181425844674" lon="11.302492577428579"><ele>493.0</ele><time>2026-04-03T10:14:12.999Z</time></trkpt><trkpt lat="43.55173620646371" lon="11.30261562471245"><ele>495.0</ele><time>2026-04-03T10:14:13.999Z</time></trkpt><trkpt lat="43.55166164845724" lon="11.302741794911135"><ele>497.0</ele><time>2026-04-03T10:14:14.999Z</time></trkpt><trkpt lat="43.55157589271704" lon="11.302847650745628"><ele>499.0</ele><time>2026-04-03T10:14:15.999Z</time></trkpt><trkpt lat="43.551473572762966" lon="11.302948428311499"><ele>501.0</ele><time>2026-04-03T10:14:16.999Z</time></trkpt><trkpt lat="43.55136019074872" lon="11.303044284467342"><ele>501.5</ele><time>2026-04-03T10:14:17.999Z</time></trkpt><trkpt lat="43.551253668185005" lon="11.303131012813575"><ele>502.0</ele><time>2026-04-03T10:14:18.999Z</time></trkpt><trkpt lat="43.55116026574589" lon="11.303237540564483"><ele>502.5</ele><time>2026-04-03T10:14:19.999Z</time></trkpt><trkpt lat="43.551057256558856" lon="11.303335625592153"><ele>503.0</ele><time>2026-04-03T10:14:20.999Z</time></trkpt><trkpt lat="43.550945529274856" lon="11.30344271023155"><ele>501.5</ele><time>2026-04-03T10:14:21.999Z</time></trkpt><trkpt lat="43.550838615878455" lon="11.303573684853351"><ele>500.0</ele><time>2026-04-03T10:14:22.999Z</time></trkpt><trkpt lat="43.55072770170707" lon="11.303712695236277"><ele>498.5</ele><time>2026-04-03T10:14:23.999Z</time></trkpt><trkpt lat="43.5506113010303" lon="11.303826736806672"><ele>497.0</ele><time>2026-04-03T10:14:24.999Z</time></trkpt><trkpt lat="43.550499159976226" lon="11.303962825877854"><ele>495.5</ele><time>2026-04-03T10:14:25.999Z</time></trkpt><trkpt lat="43.55039829992623" lon="11.304083641081569"><ele>494.0</ele><time>2026-04-03T10:14:26.999Z</time></trkpt><trkpt lat="43.55029185529733" lon="11.30420427227188"><ele>492.5</ele><time>2026-04-03T10:14:27.999Z</time></trkpt><trkpt lat="43.55018751611921" lon="11.304317245750951"><ele>491.0</ele><time>2026-04-03T10:14:28.999Z</time></trkpt><trkpt lat="43.55008691653934" lon="11.304417999241046"><ele>491.0</ele><time>2026-04-03T10:14:29.999Z</time></trkpt><trkpt lat="43.5499851465897" lon="11.304515671550895"><ele>491.0</ele><time>2026-04-03T10:14:30.999Z</time></trkpt><trkpt lat="43.549885751250436" lon="11.304615492576433"><ele>491.0</ele><time>2026-04-03T10:14:31.999Z</time></trkpt><trkpt lat="43.54978941226779" lon="11.30471548284737"><ele>491.0</ele><time>2026-04-03T10:14:32.999Z</time></trkpt><trkpt lat="43.54969546404751" lon="11.304814827751008"><ele>488.25</ele><time>2026-04-03T10:14:33.999Z</time></trkpt><trkpt lat="43.549602824540614" lon="11.304927723075904"><ele>485.5</ele><time>2026-04-03T10:14:34.999Z</time></trkpt><trkpt lat="43.54950992997667" lon="11.305045815769201"><ele>482.75</ele><time>2026-04-03T10:14:35.999Z</time></trkpt><trkpt lat="43.54940782205892" lon="11.305171014002413"><ele>480.0</ele><time>2026-04-03T10:14:36.999Z</time></trkpt><trkpt lat="43.54930078520442" lon="11.305301057650734"><ele>480.0</ele><time>2026-04-03T10:14:37.999Z</time></trkpt><trkpt lat="43.54919223987602" lon="11.305446928911177"><ele>480.0</ele><time>2026-04-03T10:14:38.999Z</time></trkpt><trkpt lat="43.54909038877941" lon="11.305591796728157"><ele>480.0</ele><time>2026-04-03T10:14:39.999Z</time></trkpt><trkpt lat="43.54899021630076" lon="11.305731991888047"><ele>480.0</ele><time>2026-04-03T10:14:40.999Z</time></trkpt><trkpt lat="43.54889193344353" lon="11.305865356860753"><ele>478.2</ele><time>2026-04-03T10:14:41.999Z</time></trkpt><trkpt lat="43.5487994441155" lon="11.305992836800781"><ele>476.4</ele><time>2026-04-03T10:14:42.999Z</time></trkpt><trkpt lat="43.548720318110725" lon="11.306095602402223"><ele>474.6</ele><time>2026-04-03T10:14:43.999Z</time></trkpt><trkpt lat="43.548673104186065" lon="11.306185620549966"><ele>472.8</ele><time>2026-04-03T10:14:44.999Z</time></trkpt><trkpt lat="43.54860732206474" lon="11.306253314532503"><ele>471.0</ele><time>2026-04-03T10:14:46.999Z</time></trkpt><trkpt lat="43.54854486861108" lon="11.306153836691061"><ele>471.0</ele><time>2026-04-03T10:14:50.999Z</time></trkpt><trkpt lat="43.54850866338672" lon="11.306041538945635"><ele>471.0</ele><time>2026-04-03T10:14:52.999Z</time></trkpt><trkpt lat="43.54847437023279" lon="11.305917038725752"><ele>471.0</ele><time>2026-04-03T10:14:54.999Z</time></trkpt><trkpt lat="43.54845236436184" lon="11.30583424218073"><ele>471.0</ele><time>2026-04-03T10:14:56.999Z</time></trkpt><trkpt lat="43.54848495942526" lon="11.30590890603252"><ele>471.0</ele><time>2026-04-03T10:15:04.999Z</time></trkpt><trkpt lat="43.54851608647748" lon="11.30603409083973"><ele>471.0</ele><time>2026-04-03T10:15:05.999Z</time></trkpt><trkpt lat="43.54853501415761" lon="11.306159502240929"><ele>471.0</ele><time>2026-04-03T10:15:06.999Z</time></trkpt><trkpt lat="43.5485436605626" lon="11.30630628851799"><ele>471.0</ele><time>2026-04-03T10:15:08.999Z</time></trkpt><trkpt lat="43.54851643077727" lon="11.306387553319368"><ele>471.0</ele><time>2026-04-03T10:15:09.999Z</time></trkpt><trkpt lat="43.54845249594124" lon="11.306475030575095"><ele>471.0</ele><time>2026-04-03T10:15:10.999Z</time></trkpt><trkpt lat="43.54836204105961" lon="11.306535609050597"><ele>471.0</ele><time>2026-04-03T10:15:11.999Z</time></trkpt><trkpt lat="43.548277364744855" lon="11.306596934350345"><ele>471.6</ele><time>2026-04-03T10:15:12.999Z</time></trkpt><trkpt lat="43.548201144009866" lon="11.306594314208748"><ele>472.20000000000005</ele><time>2026-04-03T10:15:13.999Z</time></trkpt><trkpt lat="43.5481108014666" lon="11.306569057658136"><ele>472.79999999999995</ele><time>2026-04-03T10:15:14.999Z</time></trkpt><trkpt lat="43.54801724611377" lon="11.306486411900234"><ele>473.4</ele><time>2026-04-03T10:15:15.999Z</time></trkpt><trkpt lat="43.54792232595426" lon="11.306415982467506"><ele>474.0</ele><time>2026-04-03T10:15:16.999Z</time></trkpt><trkpt lat="43.5478341392445" lon="11.306370189823717"><ele>472.6</ele><time>2026-04-03T10:15:17.999Z</time></trkpt><trkpt lat="43.547735857187334" lon="11.306361898749177"><ele>471.2</ele><time>2026-04-03T10:15:18.999Z</time></trkpt><trkpt lat="43.547631962023374" lon="11.30638339670889"><ele>469.80000000000007</ele><time>2026-04-03T10:15:19.999Z</time></trkpt><trkpt lat="43.5475255790493" lon="11.306420009277888"><ele>468.40000000000003</ele><time>2026-04-03T10:15:20.999Z</time></trkpt><trkpt lat="43.54741861441802" lon="11.306468690880964"><ele>467.0</ele><time>2026-04-03T10:15:21.999Z</time></trkpt><trkpt lat="43.547313476443534" lon="11.30652845000467"><ele>467.0</ele><time>2026-04-03T10:15:22.999Z</time></trkpt><trkpt lat="43.5472164937358" lon="11.306599789988061"><ele>467.00000000000006</ele><time>2026-04-03T10:15:23.999Z</time></trkpt><trkpt lat="43.54713163395497" lon="11.306658378653408"><ele>467.00000000000006</ele><time>2026-04-03T10:15:24.999Z</time></trkpt><trkpt lat="43.54705011366877" lon="11.306714321196658"><ele>467.0</ele><time>2026-04-03T10:15:25.999Z</time></trkpt><trkpt lat="43.54695325226755" lon="11.306752780356588"><ele>467.0</ele><time>2026-04-03T10:15:26.999Z</time></trkpt><trkpt lat="43.546867574722484" lon="11.306813501984557"><ele>464.8</ele><time>2026-04-03T10:15:27.999Z</time></trkpt><trkpt lat="43.5467977806349" lon="11.306887082557335"><ele>462.6</ele><time>2026-04-03T10:15:28.999Z</time></trkpt><trkpt lat="43.546766058076535" lon="11.307022138505944"><ele>460.40000000000003</ele><time>2026-04-03T10:15:29.999Z</time></trkpt><trkpt lat="43.546730304555425" lon="11.30717648059421"><ele>458.20000000000005</ele><time>2026-04-03T10:15:30.999Z</time></trkpt><trkpt lat="43.54667271691943" lon="11.307337565872428"><ele>456.0</ele><time>2026-04-03T10:15:31.999Z</time></trkpt><trkpt lat="43.54662679052252" lon="11.307511566882189"><ele>456.0</ele><time>2026-04-03T10:15:32.999Z</time></trkpt><trkpt lat="43.54657478340993" lon="11.307664447167454"><ele>456.0</ele><time>2026-04-03T10:15:33.999Z</time></trkpt><trkpt lat="43.54649958169962" lon="11.30779263696646"><ele>456.0</ele><time>2026-04-03T10:15:34.999Z</time></trkpt><trkpt lat="43.54639722811362" lon="11.307883810736536"><ele>456.0</ele><time>2026-04-03T10:15:35.999Z</time></trkpt><trkpt lat="43.546310085046876" lon="11.307996722441622"><ele>457.25</ele><time>2026-04-03T10:15:36.999Z</time></trkpt><trkpt lat="43.5462448111823" lon="11.30813722136236"><ele>458.5</ele><time>2026-04-03T10:15:37.999Z</time></trkpt><trkpt lat="43.546173584813815" lon="11.308264844707573"><ele>459.75</ele><time>2026-04-03T10:15:38.999Z</time></trkpt><trkpt lat="43.546081148355974" lon="11.308360343538904"><ele>461.0</ele><time>2026-04-03T10:15:39.999Z</time></trkpt><trkpt lat="43.54599289455893" lon="11.308465173362375"><ele>459.25</ele><time>2026-04-03T10:15:40.999Z</time></trkpt><trkpt lat="43.545904033371315" lon="11.3085767000382"><ele>457.5</ele><time>2026-04-03T10:15:41.999Z</time></trkpt><trkpt lat="43.54585129507518" lon="11.30872654819559"><ele>455.75</ele><time>2026-04-03T10:15:42.999Z</time></trkpt><trkpt lat="43.54577942493542" lon="11.308856899807887"><ele>454.0</ele><time>2026-04-03T10:15:43.998Z</time></trkpt><trkpt lat="43.54571741720863" lon="11.308996065022002"><ele>454.0</ele><time>2026-04-03T10:15:44.998Z</time></trkpt><trkpt lat="43.545651733714486" lon="11.30913164154791"><ele>454.0</ele><time>2026-04-03T10:15:45.998Z</time></trkpt><trkpt lat="43.5455851292776" lon="11.309270172400302"><ele>454.0</ele><time>2026-04-03T10:15:46.998Z</time></trkpt><trkpt lat="43.54552063935425" lon="11.30939816171118"><ele>454.0</ele><time>2026-04-03T10:15:47.998Z</time></trkpt><trkpt lat="43.54546101223389" lon="11.309519993132968"><ele>454.0</ele><time>2026-04-03T10:15:48.998Z</time></trkpt><trkpt lat="43.545416170593626" lon="11.30966209651778"><ele>454.0</ele><time>2026-04-03T10:15:49.998Z</time></trkpt><trkpt lat="43.54538589876731" lon="11.309807293505836"><ele>454.0</ele><time>2026-04-03T10:15:50.998Z</time></trkpt><trkpt lat="43.54538847058465" lon="11.309972943477502"><ele>454.0</ele><time>2026-04-03T10:15:51.998Z</time></trkpt><trkpt lat="43.5453835326231" lon="11.310120228080743"><ele>454.0</ele><time>2026-04-03T10:15:52.998Z</time></trkpt><trkpt lat="43.54537505728667" lon="11.310242482482538"><ele>452.79999999999995</ele><time>2026-04-03T10:15:53.998Z</time></trkpt><trkpt lat="43.54533827613689" lon="11.310354094447689"><ele>451.59999999999997</ele><time>2026-04-03T10:15:54.998Z</time></trkpt><trkpt lat="43.54529152329707" lon="11.310472846227732"><ele>450.4</ele><time>2026-04-03T10:15:55.998Z</time></trkpt><trkpt lat="43.54524918501907" lon="11.310609917866445"><ele>449.2</ele><time>2026-04-03T10:15:56.998Z</time></trkpt><trkpt lat="43.54522383019572" lon="11.31076890331188"><ele>448.0</ele><time>2026-04-03T10:15:57.998Z</time></trkpt><trkpt lat="43.545198514321605" lon="11.310931419999365"><ele>448.0</ele><time>2026-04-03T10:15:58.998Z</time></trkpt><trkpt lat="43.545164506445055" lon="11.311095506431336"><ele>448.0</ele><time>2026-04-03T10:15:59.998Z</time></trkpt><trkpt lat="43.54513479526422" lon="11.311255906323995"><ele>448.0</ele><time>2026-04-03T10:16:00.998Z</time></trkpt><trkpt lat="43.545105527400146" lon="11.311414921983957"><ele>448.0</ele><time>2026-04-03T10:16:01.998Z</time></trkpt><trkpt lat="43.54506217146457" lon="11.311565281694067"><ele>448.5</ele><time>2026-04-03T10:16:02.998Z</time></trkpt><trkpt lat="43.54499744674422" lon="11.31170894596444"><ele>449.0</ele><time>2026-04-03T10:16:03.998Z</time></trkpt><trkpt lat="43.54491236422778" lon="11.31183831711512"><ele>449.5</ele><time>2026-04-03T10:16:04.998Z</time></trkpt><trkpt lat="43.54481107469042" lon="11.311926127708253"><ele>450.0</ele><time>2026-04-03T10:16:05.998Z</time></trkpt><trkpt lat="43.54473208231878" lon="11.312028129520977"><ele>450.0</ele><time>2026-04-03T10:16:06.998Z</time></trkpt><trkpt lat="43.54464276555448" lon="11.312114029216486"><ele>450.0</ele><time>2026-04-03T10:16:07.999Z</time></trkpt><trkpt lat="43.54454668091198" lon="11.312199370766306"><ele>450.0</ele><time>2026-04-03T10:16:08.999Z</time></trkpt><trkpt lat="43.54445029818033" lon="11.312301562631507"><ele>450.0</ele><time>2026-04-03T10:16:09.999Z</time></trkpt><trkpt lat="43.544344894281494" lon="11.312412071779745"><ele>449.5</ele><time>2026-04-03T10:16:10.999Z</time></trkpt><trkpt lat="43.54421889240929" lon="11.312515584300613"><ele>449.0</ele><time>2026-04-03T10:16:11.999Z</time></trkpt><trkpt lat="43.54410938312448" lon="11.312623965174184"><ele>448.5</ele><time>2026-04-03T10:16:12.999Z</time></trkpt><trkpt lat="43.54400606686296" lon="11.31272457257464"><ele>448.0</ele><time>2026-04-03T10:16:13.999Z</time></trkpt><trkpt lat="43.543907847485414" lon="11.312822840809252"><ele>448.0</ele><time>2026-04-03T10:16:14.999Z</time></trkpt><trkpt lat="43.54382349409171" lon="11.312923103748306"><ele>447.99999999999994</ele><time>2026-04-03T10:16:15.999Z</time></trkpt><trkpt lat="43.54376857956241" lon="11.313038750576629"><ele>447.99999999999994</ele><time>2026-04-03T10:16:16.999Z</time></trkpt><trkpt lat="43.54375035705184" lon="11.313157570567734"><ele>448.0</ele><time>2026-04-03T10:16:18Z</time></trkpt><trkpt lat="43.54375567826625" lon="11.313270196806743"><ele>448.0</ele><time>2026-04-03T10:16:18.999Z</time></trkpt><trkpt lat="43.54379803053412" lon="11.313395716603157"><ele>449.25</ele><time>2026-04-03T10:16:20Z</time></trkpt><trkpt lat="43.543848825267126" lon="11.313540648699401"><ele>450.5</ele><time>2026-04-03T10:16:21Z</time></trkpt><trkpt lat="43.543898326354444" lon="11.313707012773518"><ele>451.75</ele><time>2026-04-03T10:16:22Z</time></trkpt><trkpt lat="43.543942475792576" lon="11.313885643132425"><ele>453.0</ele><time>2026-04-03T10:16:22.999Z</time></trkpt><trkpt lat="43.54397080408602" lon="11.314046434118453"><ele>453.4</ele><time>2026-04-03T10:16:23.999Z</time></trkpt><trkpt lat="43.54397136586284" lon="11.314192068311838"><ele>453.79999999999995</ele><time>2026-04-03T10:16:24.999Z</time></trkpt><trkpt lat="43.54393115683331" lon="11.314320080274971"><ele>454.2</ele><time>2026-04-03T10:16:25.999Z</time></trkpt><trkpt lat="43.543890427536745" lon="11.314440670603382"><ele>454.6</ele><time>2026-04-03T10:16:26.999Z</time></trkpt><trkpt lat="43.543846027329685" lon="11.314577213310095"><ele>455.0</ele><time>2026-04-03T10:16:27.999Z</time></trkpt><trkpt lat="43.54374983086699" lon="11.314674942957291"><ele>453.5</ele><time>2026-04-03T10:16:28.999Z</time></trkpt><trkpt lat="43.54364562205176" lon="11.314777303264323"><ele>452.0</ele><time>2026-04-03T10:16:29.999Z</time></trkpt><trkpt lat="43.54353452637721" lon="11.314896247378229"><ele>450.5</ele><time>2026-04-03T10:16:30.999Z</time></trkpt><trkpt lat="43.54341711409685" lon="11.315007360449753"><ele>449.0</ele><time>2026-04-03T10:16:31.999Z</time></trkpt><trkpt lat="43.543302330647116" lon="11.315109969784055"><ele>449.0</ele><time>2026-04-03T10:16:32.999Z</time></trkpt><trkpt lat="43.543169659427406" lon="11.315179065931323"><ele>449.0</ele><time>2026-04-03T10:16:33.999Z</time></trkpt><trkpt lat="43.54302687582948" lon="11.315243523121834"><ele>449.0</ele><time>2026-04-03T10:16:34.999Z</time></trkpt><trkpt lat="43.542871842956096" lon="11.315317942047967"><ele>444.3333333333333</ele><time>2026-04-03T10:16:35.999Z</time></trkpt><trkpt lat="43.54271433497091" lon="11.315391994669461"><ele>439.66666666666663</ele><time>2026-04-03T10:16:36.999Z</time></trkpt><trkpt lat="43.54256265769576" lon="11.315484244103892"><ele>435.0</ele><time>2026-04-03T10:16:37.999Z</time></trkpt><trkpt lat="43.54241638907547" lon="11.315550199370444"><ele>436.0</ele><time>2026-04-03T10:16:38.999Z</time></trkpt><trkpt lat="43.54227567933211" lon="11.31561477317969"><ele>437.0</ele><time>2026-04-03T10:16:39.999Z</time></trkpt><trkpt lat="43.54214653822803" lon="11.31567429563357"><ele>438.0</ele><time>2026-04-03T10:16:40.999Z</time></trkpt><trkpt lat="43.54201690604018" lon="11.315729753073084"><ele>439.0</ele><time>2026-04-03T10:16:41.999Z</time></trkpt><trkpt lat="43.5418872511827" lon="11.315777259016365"><ele>439.0</ele><time>2026-04-03T10:16:42.999Z</time></trkpt><trkpt lat="43.541753682639104" lon="11.315803514595473"><ele>439.0</ele><time>2026-04-03T10:16:43.999Z</time></trkpt><trkpt lat="43.54161629034727" lon="11.315771676524665"><ele>439.0</ele><time>2026-04-03T10:16:44.999Z</time></trkpt><trkpt lat="43.54148514556056" lon="11.315729022574134"><ele>439.0</ele><time>2026-04-03T10:16:45.999Z</time></trkpt><trkpt lat="43.541344057351324" lon="11.315704642564977"><ele>438.75</ele><time>2026-04-03T10:16:46.999Z</time></trkpt><trkpt lat="43.541208598661235" lon="11.315666123475935"><ele>438.5</ele><time>2026-04-03T10:16:47.999Z</time></trkpt><trkpt lat="43.541080733710295" lon="11.315664019179598"><ele>438.25</ele><time>2026-04-03T10:16:48.999Z</time></trkpt><trkpt lat="43.540957152849636" lon="11.315693020148771"><ele>438.0</ele><time>2026-04-03T10:16:49.999Z</time></trkpt><trkpt lat="43.54083128185887" lon="11.31574714547921"><ele>438.0</ele><time>2026-04-03T10:16:50.999Z</time></trkpt><trkpt lat="43.54070801843235" lon="11.315796256505795"><ele>438.0</ele><time>2026-04-03T10:16:51.999Z</time></trkpt><trkpt lat="43.54060411136569" lon="11.315906729295854"><ele>438.0</ele><time>2026-04-03T10:16:52.999Z</time></trkpt><trkpt lat="43.5405129352679" lon="11.31600773053862"><ele>438.0</ele><time>2026-04-03T10:16:53.999Z</time></trkpt><trkpt lat="43.54042056550072" lon="11.316101630724894"><ele>437.4</ele><time>2026-04-03T10:16:54.999Z</time></trkpt><trkpt lat="43.54035589426696" lon="11.316251216898147"><ele>436.79999999999995</ele><time>2026-04-03T10:16:55.999Z</time></trkpt><trkpt lat="43.540295434235794" lon="11.316376207240852"><ele>436.2</ele><time>2026-04-03T10:16:56.999Z</time></trkpt><trkpt lat="43.54023275237825" lon="11.316456688227179"><ele>435.6</ele><time>2026-04-03T10:16:57.999Z</time></trkpt><trkpt lat="43.540174449614995" lon="11.31653966279886"><ele>435.0</ele><time>2026-04-03T10:16:58.999Z</time></trkpt><trkpt lat="43.540096247774756" lon="11.316614047673319"><ele>437.2</ele><time>2026-04-03T10:16:59.999Z</time></trkpt><trkpt lat="43.54000884378344" lon="11.316697513762213"><ele>439.4</ele><time>2026-04-03T10:17:00.999Z</time></trkpt><trkpt lat="43.53990165720881" lon="11.316719310695428"><ele>441.6</ele><time>2026-04-03T10:17:01.999Z</time></trkpt><trkpt lat="43.53979453926787" lon="11.316747475419042"><ele>443.8</ele><time>2026-04-03T10:17:02.999Z</time></trkpt><trkpt lat="43.53970054667477" lon="11.316772773220412"><ele>446.0</ele><time>2026-04-03T10:17:03.999Z</time></trkpt><trkpt lat="43.53963708590059" lon="11.316817645051405"><ele>445.4</ele><time>2026-04-03T10:17:04.999Z</time></trkpt><trkpt lat="43.53951315351566" lon="11.316866122519896"><ele>444.8</ele><time>2026-04-03T10:17:06.999Z</time></trkpt><trkpt lat="43.53943980951132" lon="11.316893674392658"><ele>444.19999999999993</ele><time>2026-04-03T10:17:07.999Z</time></trkpt><trkpt lat="43.53936786541858" lon="11.316921719717344"><ele>443.59999999999997</ele><time>2026-04-03T10:17:09.999Z</time></trkpt><trkpt lat="43.539276196093695" lon="11.317001526759377"><ele>443.0</ele><time>2026-04-03T10:17:11.999Z</time></trkpt><trkpt lat="43.539250586087554" lon="11.317090100977037"><ele>446.0</ele><time>2026-04-03T10:17:13.999Z</time></trkpt><trkpt lat="43.539362363927154" lon="11.31726485591961"><ele>448.99999999999994</ele><time>2026-04-03T10:17:16.999Z</time></trkpt><trkpt lat="43.53944806496385" lon="11.317298529351477"><ele>451.99999999999994</ele><time>2026-04-03T10:17:17.999Z</time></trkpt><trkpt lat="43.539528886465064" lon="11.317322346869007"><ele>455.0</ele><time>2026-04-03T10:17:18.999Z</time></trkpt><trkpt lat="43.539610221420205" lon="11.317350891736732"><ele>458.0</ele><time>2026-04-03T10:17:19.999Z</time></trkpt><trkpt lat="43.539700564330545" lon="11.31738179809702"><ele>458.4</ele><time>2026-04-03T10:17:20.999Z</time></trkpt><trkpt lat="43.53980457103626" lon="11.317397418720036"><ele>458.79999999999995</ele><time>2026-04-03T10:17:21.999Z</time></trkpt><trkpt lat="43.539921260179426" lon="11.317395647681511"><ele>459.2</ele><time>2026-04-03T10:17:22.999Z</time></trkpt><trkpt lat="43.54001708846567" lon="11.317413193151063"><ele>459.6</ele><time>2026-04-03T10:17:23.999Z</time></trkpt><trkpt lat="43.54013283772038" lon="11.317460807992777"><ele>460.0</ele><time>2026-04-03T10:17:24.999Z</time></trkpt><trkpt lat="43.54025917602589" lon="11.317487605722965"><ele>460.0</ele><time>2026-04-03T10:17:25.999Z</time></trkpt><trkpt lat="43.54036794261594" lon="11.317600427568518"><ele>460.0</ele><time>2026-04-03T10:17:26.999Z</time></trkpt><trkpt lat="43.54050643505581" lon="11.31763645923644"><ele>460.0</ele><time>2026-04-03T10:17:27.999Z</time></trkpt><trkpt lat="43.54066916966549" lon="11.31765156332845"><ele>460.0</ele><time>2026-04-03T10:17:28.999Z</time></trkpt><trkpt lat="43.54086060163603" lon="11.317660354084909"><ele>462.25</ele><time>2026-04-03T10:17:29.999Z</time></trkpt><trkpt lat="43.54103956701337" lon="11.317677848556986"><ele>464.5</ele><time>2026-04-03T10:17:30.999Z</time></trkpt><trkpt lat="43.541184323604064" lon="11.317690045844104"><ele>466.75</ele><time>2026-04-03T10:17:31.999Z</time></trkpt><trkpt lat="43.54130723547202" lon="11.317707158319356"><ele>469.0</ele><time>2026-04-03T10:17:32.999Z</time></trkpt><trkpt lat="43.54141894193255" lon="11.317724977969908"><ele>470.25</ele><time>2026-04-03T10:17:33.999Z</time></trkpt><trkpt lat="43.54153264754774" lon="11.317756769908904"><ele>471.5</ele><time>2026-04-03T10:17:34.999Z</time></trkpt><trkpt lat="43.54165037365844" lon="11.317854849953559"><ele>472.75</ele><time>2026-04-03T10:17:35.999Z</time></trkpt><trkpt lat="43.541799613196055" lon="11.317960254704134"><ele>474.0</ele><time>2026-04-03T10:17:36.999Z</time></trkpt><trkpt lat="43.541932441529276" lon="11.318036283890132"><ele>475.2</ele><time>2026-04-03T10:17:37.999Z</time></trkpt><trkpt lat="43.54203870677043" lon="11.318111570338514"><ele>476.4</ele><time>2026-04-03T10:17:38.999Z</time></trkpt><trkpt lat="43.54214485245289" lon="11.318159378635755"><ele>477.6</ele><time>2026-04-03T10:17:39.999Z</time></trkpt><trkpt lat="43.542249863775375" lon="11.318169682281805"><ele>478.8</ele><time>2026-04-03T10:17:40.999Z</time></trkpt><trkpt lat="43.54235813780244" lon="11.318146078336223"><ele>480.0</ele><time>2026-04-03T10:17:41.999Z</time></trkpt><trkpt lat="43.54247644758633" lon="11.318057608628953"><ele>480.0</ele><time>2026-04-03T10:17:42.999Z</time></trkpt><trkpt lat="43.54259430141713" lon="11.31793566987984"><ele>480.0</ele><time>2026-04-03T10:17:43.999Z</time></trkpt><trkpt lat="43.54271186757083" lon="11.317797945224745"><ele>480.0</ele><time>2026-04-03T10:17:44.999Z</time></trkpt><trkpt lat="43.542794254256435" lon="11.317695275178606"><ele>480.0</ele><time>2026-04-03T10:17:45.999Z</time></trkpt><trkpt lat="43.54287889324879" lon="11.317653436687802"><ele>482.0</ele><time>2026-04-03T10:17:46.999Z</time></trkpt><trkpt lat="43.542983107632644" lon="11.317705595295305"><ele>484.0</ele><time>2026-04-03T10:17:47.999Z</time></trkpt><trkpt lat="43.54310808773851" lon="11.31773089619785"><ele>486.0</ele><time>2026-04-03T10:17:48.999Z</time></trkpt><trkpt lat="43.543194446248144" lon="11.317789977228784"><ele>488.0</ele><time>2026-04-03T10:17:49.999Z</time></trkpt><trkpt lat="43.54323608421326" lon="11.317857676051783"><ele>490.0</ele><time>2026-04-03T10:17:51.999Z</time></trkpt><trkpt lat="43.54319442040442" lon="11.317952893894072"><ele>489.6</ele><time>2026-04-03T10:17:57.999Z</time></trkpt><trkpt lat="43.543140857515986" lon="11.318108305546058"><ele>489.2</ele><time>2026-04-03T10:17:59.998Z</time></trkpt><trkpt lat="43.543081018184125" lon="11.318192984579273"><ele>488.79999999999995</ele><time>2026-04-03T10:18:00.998Z</time></trkpt><trkpt lat="43.54300691867794" lon="11.318305341145514"><ele>488.4</ele><time>2026-04-03T10:18:01.998Z</time></trkpt><trkpt lat="43.54292687524202" lon="11.31841718903381"><ele>488.0</ele><time>2026-04-03T10:18:02.998Z</time></trkpt><trkpt lat="43.542841315208975" lon="11.318514678780405"><ele>488.0</ele><time>2026-04-03T10:18:03.998Z</time></trkpt><trkpt lat="43.542743443634535" lon="11.318615897533778"><ele>488.0</ele><time>2026-04-03T10:18:04.998Z</time></trkpt><trkpt lat="43.54264295094146" lon="11.31872909778945"><ele>488.0</ele><time>2026-04-03T10:18:05.998Z</time></trkpt><trkpt lat="43.54253771204671" lon="11.318845924083218"><ele>488.0</ele><time>2026-04-03T10:18:06.998Z</time></trkpt><trkpt lat="43.54242254560911" lon="11.31894337129587"><ele>488.5</ele><time>2026-04-03T10:18:07.998Z</time></trkpt><trkpt lat="43.54231050881328" lon="11.319060165997191"><ele>489.0</ele><time>2026-04-03T10:18:08.998Z</time></trkpt><trkpt lat="43.54221252010485" lon="11.319162315591132"><ele>489.5</ele><time>2026-04-03T10:18:09.998Z</time></trkpt><trkpt lat="43.5421260114398" lon="11.319252497971423"><ele>490.0</ele><time>2026-04-03T10:18:10.998Z</time></trkpt><trkpt lat="43.542033808393015" lon="11.319348616681507"><ele>490.75</ele><time>2026-04-03T10:18:11.998Z</time></trkpt><trkpt lat="43.541931130609534" lon="11.319455652267628"><ele>491.5</ele><time>2026-04-03T10:18:12.998Z</time></trkpt><trkpt lat="43.54182207728271" lon="11.319572596681363"><ele>492.25</ele><time>2026-04-03T10:18:14Z</time></trkpt><trkpt lat="43.541702364253574" lon="11.319693600378413"><ele>493.0</ele><time>2026-04-03T10:18:15Z</time></trkpt><trkpt lat="43.54157769596331" lon="11.319818237300769"><ele>493.5</ele><time>2026-04-03T10:18:16Z</time></trkpt><trkpt lat="43.541446655099975" lon="11.319948594527977"><ele>494.0</ele><time>2026-04-03T10:18:17Z</time></trkpt><trkpt lat="43.541328381922625" lon="11.320068391614875"><ele>494.5</ele><time>2026-04-03T10:18:18Z</time></trkpt><trkpt lat="43.54122735588891" lon="11.320177450754908"><ele>495.0</ele><time>2026-04-03T10:18:19Z</time></trkpt><trkpt lat="43.541124738814425" lon="11.320293657509778"><ele>496.25</ele><time>2026-04-03T10:18:20Z</time></trkpt><trkpt lat="43.541031748552214" lon="11.320402760256776"><ele>497.5</ele><time>2026-04-03T10:18:21Z</time></trkpt><trkpt lat="43.54094956958031" lon="11.320530757371674"><ele>498.75</ele><time>2026-04-03T10:18:22Z</time></trkpt><trkpt lat="43.5408771131671" lon="11.32068674970198"><ele>500.0</ele><time>2026-04-03T10:18:23Z</time></trkpt><trkpt lat="43.54080828322732" lon="11.320846126453764"><ele>500.5</ele><time>2026-04-03T10:18:24Z</time></trkpt><trkpt lat="43.54073792688376" lon="11.321017609210987"><ele>501.0</ele><time>2026-04-03T10:18:25Z</time></trkpt><trkpt lat="43.54066406341034" lon="11.321196360939188"><ele>501.5</ele><time>2026-04-03T10:18:26Z</time></trkpt><trkpt lat="43.54059175211039" lon="11.321370415145969"><ele>502.0</ele><time>2026-04-03T10:18:27Z</time></trkpt><trkpt lat="43.5405060210317" lon="11.321556677055195"><ele>502.0</ele><time>2026-04-03T10:18:28Z</time></trkpt><trkpt lat="43.54042978112222" lon="11.321717230385257"><ele>502.0</ele><time>2026-04-03T10:18:29Z</time></trkpt><trkpt lat="43.54034851200532" lon="11.3218821122273"><ele>502.0</ele><time>2026-04-03T10:18:30Z</time></trkpt><trkpt lat="43.540276566934985" lon="11.32205910825398"><ele>502.0</ele><time>2026-04-03T10:18:31Z</time></trkpt><trkpt lat="43.54022727926172" lon="11.322228481420314"><ele>504.40000000000003</ele><time>2026-04-03T10:18:32Z</time></trkpt><trkpt lat="43.54021344566351" lon="11.322384575479996"><ele>506.80000000000007</ele><time>2026-04-03T10:18:33Z</time></trkpt><trkpt lat="43.540182935235" lon="11.322513180447052"><ele>509.2</ele><time>2026-04-03T10:18:34Z</time></trkpt><trkpt lat="43.54013959423133" lon="11.322621351683491"><ele>511.6</ele><time>2026-04-03T10:18:35Z</time></trkpt><trkpt lat="43.540074452008916" lon="11.322727013677593"><ele>514.0</ele><time>2026-04-03T10:18:35.999Z</time></trkpt><trkpt lat="43.53997662934684" lon="11.322759257763913"><ele>514.0</ele><time>2026-04-03T10:18:36.999Z</time></trkpt><trkpt lat="43.53989851696873" lon="11.322840499633688"><ele>514.0</ele><time>2026-04-03T10:18:37.999Z</time></trkpt><trkpt lat="43.53982256678909" lon="11.32294735167502"><ele>514.0</ele><time>2026-04-03T10:18:38.999Z</time></trkpt><trkpt lat="43.539740427096454" lon="11.323058507263655"><ele>514.0</ele><time>2026-04-03T10:18:39.999Z</time></trkpt><trkpt lat="43.539637110195436" lon="11.323190031360404"><ele>510.33333333333337</ele><time>2026-04-03T10:18:40.999Z</time></trkpt><trkpt lat="43.53956163073086" lon="11.323394465539444"><ele>506.66666666666663</ele><time>2026-04-03T10:18:41.999Z</time></trkpt><trkpt lat="43.539461762459375" lon="11.323562441372248"><ele>503.0</ele><time>2026-04-03T10:18:42.999Z</time></trkpt><trkpt lat="43.539396065057524" lon="11.323748015978476"><ele>503.5</ele><time>2026-04-03T10:18:43.999Z</time></trkpt><trkpt lat="43.539315319693145" lon="11.323908275023337"><ele>504.0</ele><time>2026-04-03T10:18:44.999Z</time></trkpt><trkpt lat="43.5392376903128" lon="11.324071202227342"><ele>504.5</ele><time>2026-04-03T10:18:45.999Z</time></trkpt><trkpt lat="43.53914901541275" lon="11.324206795752794"><ele>505.0</ele><time>2026-04-03T10:18:46.999Z</time></trkpt><trkpt lat="43.53908383025087" lon="11.324354343967167"><ele>505.0</ele><time>2026-04-03T10:18:47.999Z</time></trkpt><trkpt lat="43.53903561164643" lon="11.324495814339093"><ele>505.0</ele><time>2026-04-03T10:18:48.999Z</time></trkpt><trkpt lat="43.53901696987141" lon="11.324639703099772"><ele>505.0</ele><time>2026-04-03T10:18:49.999Z</time></trkpt><trkpt lat="43.53897641490552" lon="11.3247793519708"><ele>505.0</ele><time>2026-04-03T10:18:50.999Z</time></trkpt><trkpt lat="43.53892842233693" lon="11.324912578521682"><ele>505.0</ele><time>2026-04-03T10:18:51.999Z</time></trkpt><trkpt lat="43.53888509861362" lon="11.325034231090738"><ele>504.6</ele><time>2026-04-03T10:18:52.999Z</time></trkpt><trkpt lat="43.53884137486615" lon="11.325151023152499"><ele>504.2</ele><time>2026-04-03T10:18:53.999Z</time></trkpt><trkpt lat="43.53878822669498" lon="11.325253396128508"><ele>503.79999999999995</ele><time>2026-04-03T10:18:54.999Z</time></trkpt><trkpt lat="43.53874898112718" lon="11.325368736113008"><ele>503.4</ele><time>2026-04-03T10:18:55.999Z</time></trkpt><trkpt lat="43.53871100992808" lon="11.325490351201152"><ele>503.0</ele><time>2026-04-03T10:18:56.999Z</time></trkpt><trkpt lat="43.538677801542505" lon="11.325610106626533"><ele>502.99999999999994</ele><time>2026-04-03T10:18:57.999Z</time></trkpt><trkpt lat="43.5386503000631" lon="11.325743714723705"><ele>503.0</ele><time>2026-04-03T10:18:58.999Z</time></trkpt><trkpt lat="43.5386303878337" lon="11.32586515619505"><ele>503.0</ele><time>2026-04-03T10:18:59.999Z</time></trkpt><trkpt lat="43.53862190361192" lon="11.32598395641418"><ele>503.0</ele><time>2026-04-03T10:19:00.999Z</time></trkpt><trkpt lat="43.538627352089655" lon="11.326096804031403"><ele>502.99999999999994</ele><time>2026-04-03T10:19:01.999Z</time></trkpt><trkpt lat="43.538644807896546" lon="11.326214282141034"><ele>503.0</ele><time>2026-04-03T10:19:02.999Z</time></trkpt><trkpt lat="43.538664604030146" lon="11.326330983663137"><ele>503.3333333333333</ele><time>2026-04-03T10:19:03.999Z</time></trkpt><trkpt lat="43.538683023760925" lon="11.326439571134873"><ele>503.66666666666663</ele><time>2026-04-03T10:19:04.999Z</time></trkpt><trkpt lat="43.538702824287924" lon="11.326550284088722"><ele>504.0</ele><time>2026-04-03T10:19:05.999Z</time></trkpt><trkpt lat="43.53872838450637" lon="11.32666011102739"><ele>504.33333333333337</ele><time>2026-04-03T10:19:06.999Z</time></trkpt><trkpt lat="43.538758314731204" lon="11.326759062184758"><ele>504.6666666666667</ele><time>2026-04-03T10:19:07.999Z</time></trkpt><trkpt lat="43.538774364024825" lon="11.326869121354378"><ele>505.0</ele><time>2026-04-03T10:19:08.999Z</time></trkpt><trkpt lat="43.538784102012436" lon="11.326990876887837"><ele>506.2</ele><time>2026-04-03T10:19:09.999Z</time></trkpt><trkpt lat="43.53876841392655" lon="11.327110695938597"><ele>507.4</ele><time>2026-04-03T10:19:10.999Z</time></trkpt><trkpt lat="43.538740395398456" lon="11.32723772674936"><ele>508.6</ele><time>2026-04-03T10:19:11.999Z</time></trkpt><trkpt lat="43.53870402811266" lon="11.327369643207343"><ele>509.8</ele><time>2026-04-03T10:19:12.999Z</time></trkpt><trkpt lat="43.53865812219033" lon="11.327507163011713"><ele>511.0</ele><time>2026-04-03T10:19:13.999Z</time></trkpt><trkpt lat="43.53859020226409" lon="11.32763192981463"><ele>511.0</ele><time>2026-04-03T10:19:14.999Z</time></trkpt><trkpt lat="43.53851099830908" lon="11.327775595692225"><ele>511.0</ele><time>2026-04-03T10:19:15.999Z</time></trkpt><trkpt lat="43.5384184472849" lon="11.32792157344288"><ele>511.0</ele><time>2026-04-03T10:19:16.999Z</time></trkpt><trkpt lat="43.53831559643712" lon="11.328078713260668"><ele>511.0</ele><time>2026-04-03T10:19:17.999Z</time></trkpt><trkpt lat="43.53824348106439" lon="11.328194022870647"><ele>513.2</ele><time>2026-04-03T10:19:18.999Z</time></trkpt><trkpt lat="43.53817262121312" lon="11.328304736802108"><ele>515.4000000000001</ele><time>2026-04-03T10:19:19.999Z</time></trkpt><trkpt lat="43.538101165044225" lon="11.328427311008577"><ele>517.6</ele><time>2026-04-03T10:19:20.999Z</time></trkpt><trkpt lat="43.538047425032914" lon="11.328529591522285"><ele>519.8000000000001</ele><time>2026-04-03T10:19:21.999Z</time></trkpt><trkpt lat="43.5380348768534" lon="11.328654525164483"><ele>522.0</ele><time>2026-04-03T10:19:22.999Z</time></trkpt><trkpt lat="43.53801078783245" lon="11.328806694156759"><ele>523.2</ele><time>2026-04-03T10:19:23.999Z</time></trkpt><trkpt lat="43.53797621342104" lon="11.32897184377807"><ele>524.4000000000001</ele><time>2026-04-03T10:19:24.999Z</time></trkpt><trkpt lat="43.53796506543996" lon="11.32913922289995"><ele>525.5999999999999</ele><time>2026-04-03T10:19:25.999Z</time></trkpt><trkpt lat="43.53796935758627" lon="11.329270606648093"><ele>526.8</ele><time>2026-04-03T10:19:26.999Z</time></trkpt><trkpt lat="43.53797274719065" lon="11.329377548081208"><ele>528.0</ele><time>2026-04-03T10:19:27.999Z</time></trkpt><trkpt lat="43.53798055422619" lon="11.329492388897808"><ele>528.0</ele><time>2026-04-03T10:19:28.999Z</time></trkpt><trkpt lat="43.537991408019224" lon="11.32962796134641"><ele>528.0</ele><time>2026-04-03T10:19:29.999Z</time></trkpt><trkpt lat="43.53800694714506" lon="11.329773901012228"><ele>528.0</ele><time>2026-04-03T10:19:30.999Z</time></trkpt><trkpt lat="43.53800670952358" lon="11.329928860204813"><ele>528.0</ele><time>2026-04-03T10:19:31.999Z</time></trkpt><trkpt lat="43.538040821835054" lon="11.330089434563142"><ele>528.0</ele><time>2026-04-03T10:19:32.999Z</time></trkpt><trkpt lat="43.53805302099264" lon="11.330255513286609"><ele>527.25</ele><time>2026-04-03T10:19:33.999Z</time></trkpt><trkpt lat="43.53806498184869" lon="11.330426234155613"><ele>526.5</ele><time>2026-04-03T10:19:34.999Z</time></trkpt><trkpt lat="43.538077845308116" lon="11.330597615685246"><ele>525.75</ele><time>2026-04-03T10:19:35.999Z</time></trkpt><trkpt lat="43.538075343231384" lon="11.330768985442315"><ele>525.0</ele><time>2026-04-03T10:19:36.999Z</time></trkpt><trkpt lat="43.53810478380468" lon="11.330927800471404"><ele>523.6</ele><time>2026-04-03T10:19:37.999Z</time></trkpt><trkpt lat="43.53811658816274" lon="11.331087774884884"><ele>522.2</ele><time>2026-04-03T10:19:38.999Z</time></trkpt><trkpt lat="43.53812481403788" lon="11.331234746118978"><ele>520.8</ele><time>2026-04-03T10:19:39.999Z</time></trkpt><trkpt lat="43.53812184396174" lon="11.33137282950735"><ele>519.4</ele><time>2026-04-03T10:19:40.999Z</time></trkpt><trkpt lat="43.5381003759808" lon="11.331501360427394"><ele>518.0</ele><time>2026-04-03T10:19:41.999Z</time></trkpt><trkpt lat="43.53804650401231" lon="11.331616101993596"><ele>517.1999999999999</ele><time>2026-04-03T10:19:42.999Z</time></trkpt><trkpt lat="43.53800378331709" lon="11.331742261973934"><ele>516.4</ele><time>2026-04-03T10:19:43.999Z</time></trkpt><trkpt lat="43.53794370037286" lon="11.331860590830567"><ele>515.5999999999999</ele><time>2026-04-03T10:19:44.999Z</time></trkpt><trkpt lat="43.537875521231335" lon="11.331974346672103"><ele>514.8</ele><time>2026-04-03T10:19:45.999Z</time></trkpt><trkpt lat="43.53779023651163" lon="11.332091034712072"><ele>514.0</ele><time>2026-04-03T10:19:46.999Z</time></trkpt><trkpt lat="43.53771511133588" lon="11.33220016710136"><ele>513.0</ele><time>2026-04-03T10:19:47.999Z</time></trkpt><trkpt lat="43.53765885448622" lon="11.332327556417727"><ele>512.0</ele><time>2026-04-03T10:19:48.999Z</time></trkpt><trkpt lat="43.53760537881507" lon="11.33245784260748"><ele>511.0</ele><time>2026-04-03T10:19:49.999Z</time></trkpt><trkpt lat="43.53756250106575" lon="11.332593083246387"><ele>510.0</ele><time>2026-04-03T10:19:50.999Z</time></trkpt><trkpt lat="43.537505591124756" lon="11.332730576105662"><ele>509.0</ele><time>2026-04-03T10:19:51.999Z</time></trkpt><trkpt lat="43.53745847084454" lon="11.332881655053464"><ele>509.0</ele><time>2026-04-03T10:19:52.999Z</time></trkpt><trkpt lat="43.53741932959544" lon="11.333027589711303"><ele>509.0</ele><time>2026-04-03T10:19:53.999Z</time></trkpt><trkpt lat="43.53738310080212" lon="11.333176037024016"><ele>509.0</ele><time>2026-04-03T10:19:54.999Z</time></trkpt><trkpt lat="43.53735828584887" lon="11.333287975614805"><ele>509.0</ele><time>2026-04-03T10:19:55.999Z</time></trkpt><trkpt lat="43.53733967823053" lon="11.333402218265698"><ele>509.0</ele><time>2026-04-03T10:19:56.999Z</time></trkpt><trkpt lat="43.53734405206422" lon="11.333533141807461"><ele>508.79999999999995</ele><time>2026-04-03T10:19:57.999Z</time></trkpt><trkpt lat="43.53738980342693" lon="11.33365747508968"><ele>508.59999999999997</ele><time>2026-04-03T10:19:58.999Z</time></trkpt><trkpt lat="43.537409646186276" lon="11.333775700170515"><ele>508.4</ele><time>2026-04-03T10:19:59.999Z</time></trkpt><trkpt lat="43.537420621192084" lon="11.333909264506714"><ele>508.2</ele><time>2026-04-03T10:20:00.999Z</time></trkpt><trkpt lat="43.53741767734731" lon="11.334059044427923"><ele>508.0</ele><time>2026-04-03T10:20:01.999Z</time></trkpt><trkpt lat="43.537378445386764" lon="11.33419894466094"><ele>508.33333333333337</ele><time>2026-04-03T10:20:02.999Z</time></trkpt><trkpt lat="43.537365213879774" lon="11.334325121728192"><ele>508.6666666666667</ele><time>2026-04-03T10:20:03.999Z</time></trkpt><trkpt lat="43.53735088347968" lon="11.33443896356295"><ele>509.0</ele><time>2026-04-03T10:20:04.999Z</time></trkpt><trkpt lat="43.53733356443482" lon="11.334548603708837"><ele>509.33333333333337</ele><time>2026-04-03T10:20:05.999Z</time></trkpt><trkpt lat="43.5373142322134" lon="11.334644987248016"><ele>509.6666666666667</ele><time>2026-04-03T10:20:06.999Z</time></trkpt><trkpt lat="43.53729601561714" lon="11.334729584721407"><ele>510.0</ele><time>2026-04-03T10:20:07.999Z</time></trkpt><trkpt lat="43.53727724534001" lon="11.33481675451541"><ele>511.5</ele><time>2026-04-03T10:20:08.999Z</time></trkpt><trkpt lat="43.53735427130861" lon="11.334953352748803"><ele>513.0</ele><time>2026-04-03T10:20:09.998Z</time></trkpt><trkpt lat="43.53737203374886" lon="11.335098704490303"><ele>514.5</ele><time>2026-04-03T10:20:10.998Z</time></trkpt><trkpt lat="43.53736512224568" lon="11.335282073926887"><ele>516.0</ele><time>2026-04-03T10:20:11.998Z</time></trkpt><trkpt lat="43.53736663947511" lon="11.335465661450982"><ele>517.2857142857142</ele><time>2026-04-03T10:20:12.998Z</time></trkpt><trkpt lat="43.53737072333428" lon="11.335592052167913"><ele>518.5714285714286</ele><time>2026-04-03T10:20:13.998Z</time></trkpt><trkpt lat="43.53737823232528" lon="11.335685258513799"><ele>519.8571428571429</ele><time>2026-04-03T10:20:14.998Z</time></trkpt><trkpt lat="43.5374027563867" lon="11.335768270433453"><ele>521.1428571428571</ele><time>2026-04-03T10:20:15.998Z</time></trkpt><trkpt lat="43.53745699255714" lon="11.335828618121532"><ele>522.4285714285714</ele><time>2026-04-03T10:20:16.998Z</time></trkpt><trkpt lat="43.537519680432574" lon="11.335876360141144"><ele>523.7142857142857</ele><time>2026-04-03T10:20:17.998Z</time></trkpt><trkpt lat="43.537575641425036" lon="11.33593639066979"><ele>525.0</ele><time>2026-04-03T10:20:19Z</time></trkpt><trkpt lat="43.53763056115186" lon="11.336007528933205"><ele>525.0</ele><time>2026-04-03T10:20:20Z</time></trkpt><trkpt lat="43.537679798258004" lon="11.336106516823792"><ele>525.0</ele><time>2026-04-03T10:20:21Z</time></trkpt><trkpt lat="43.537713396620596" lon="11.336225619319473"><ele>525.0</ele><time>2026-04-03T10:20:22Z</time></trkpt><trkpt lat="43.5377782354393" lon="11.336327634473326"><ele>525.0</ele><time>2026-04-03T10:20:23Z</time></trkpt><trkpt lat="43.53784422813775" lon="11.336392250521087"><ele>525.0</ele><time>2026-04-03T10:20:24Z</time></trkpt><trkpt lat="43.53789920282989" lon="11.336444517869783"><ele>525.0</ele><time>2026-04-03T10:20:25Z</time></trkpt><trkpt lat="43.537960237276586" lon="11.336499656073201"><ele>526.3333333333334</ele><time>2026-04-03T10:20:26Z</time></trkpt><trkpt lat="43.5380311658296" lon="11.336541132393538"><ele>527.6666666666666</ele><time>2026-04-03T10:20:27Z</time></trkpt><trkpt lat="43.538087474564556" lon="11.336601257754475"><ele>529.0</ele><time>2026-04-03T10:20:28Z</time></trkpt><trkpt lat="43.53815987614208" lon="11.336658078710672"><ele>530.3333333333333</ele><time>2026-04-03T10:20:29Z</time></trkpt><trkpt lat="43.53821136138781" lon="11.336708309457245"><ele>531.6666666666666</ele><time>2026-04-03T10:20:30Z</time></trkpt><trkpt lat="43.538257584669886" lon="11.336779393278855"><ele>533.0</ele><time>2026-04-03T10:20:31Z</time></trkpt><trkpt lat="43.538304476806445" lon="11.336894314104159"><ele>533.0</ele><time>2026-04-03T10:20:32Z</time></trkpt><trkpt lat="43.53836659375057" lon="11.337005481774087"><ele>533.0</ele><time>2026-04-03T10:20:33Z</time></trkpt><trkpt lat="43.53841101637213" lon="11.337116551179626"><ele>533.0</ele><time>2026-04-03T10:20:34Z</time></trkpt><trkpt lat="43.53845536534454" lon="11.337202443922298"><ele>533.0</ele><time>2026-04-03T10:20:35Z</time></trkpt><trkpt lat="43.5384615875664" lon="11.337301449472617"><ele>533.0</ele><time>2026-04-03T10:20:36Z</time></trkpt><trkpt lat="43.53846206150874" lon="11.337398906850156"><ele>533.0</ele><time>2026-04-03T10:20:37Z</time></trkpt><trkpt lat="43.53847589988612" lon="11.337502521068673"><ele>535.0</ele><time>2026-04-03T10:20:38Z</time></trkpt><trkpt lat="43.53847295682332" lon="11.337592042757887"><ele>537.0</ele><time>2026-04-03T10:20:39Z</time></trkpt><trkpt lat="43.538504045525585" lon="11.337672263313564"><ele>539.0</ele><time>2026-04-03T10:20:40Z</time></trkpt><trkpt lat="43.5386196762169" lon="11.337820554403965"><ele>541.0</ele><time>2026-04-03T10:20:42Z</time></trkpt><trkpt lat="43.53870958626493" lon="11.337877943540132"><ele>543.0</ele><time>2026-04-03T10:20:43Z</time></trkpt><trkpt lat="43.5387990352387" lon="11.3378992604675"><ele>541.8333333333334</ele><time>2026-04-03T10:20:43.999Z</time></trkpt><trkpt lat="43.538849187665114" lon="11.337955851522993"><ele>540.6666666666666</ele><time>2026-04-03T10:20:44.999Z</time></trkpt><trkpt lat="43.538902150823596" lon="11.338033921914805"><ele>539.5</ele><time>2026-04-03T10:20:45.999Z</time></trkpt><trkpt lat="43.53892320332937" lon="11.338137904591196"><ele>538.3333333333333</ele><time>2026-04-03T10:20:46.999Z</time></trkpt><trkpt lat="43.538957711906534" lon="11.3382162819134"><ele>537.1666666666666</ele><time>2026-04-03T10:20:47.999Z</time></trkpt><trkpt lat="43.538970562210764" lon="11.338341478048793"><ele>536.0</ele><time>2026-04-03T10:20:48.999Z</time></trkpt><trkpt lat="43.53894978045828" lon="11.338459953320505"><ele>536.0</ele><time>2026-04-03T10:20:49.999Z</time></trkpt><trkpt lat="43.53891953914321" lon="11.338564414380446"><ele>536.0</ele><time>2026-04-03T10:20:50.999Z</time></trkpt><trkpt lat="43.538896644922005" lon="11.338675000617977"><ele>536.0</ele><time>2026-04-03T10:20:51.999Z</time></trkpt><trkpt lat="43.53889648723141" lon="11.338779311813555"><ele>536.0</ele><time>2026-04-03T10:20:52.999Z</time></trkpt><trkpt lat="43.538889950254706" lon="11.338900237813585"><ele>536.0</ele><time>2026-04-03T10:20:53.999Z</time></trkpt><trkpt lat="43.53890425358484" lon="11.339012336193829"><ele>536.0</ele><time>2026-04-03T10:20:54.999Z</time></trkpt><trkpt lat="43.53890719535506" lon="11.339131949968095"><ele>538.3333333333333</ele><time>2026-04-03T10:20:55.999Z</time></trkpt><trkpt lat="43.53891690327511" lon="11.339249628548774"><ele>540.6666666666666</ele><time>2026-04-03T10:20:56.999Z</time></trkpt><trkpt lat="43.53892790224064" lon="11.339342407193833"><ele>543.0</ele><time>2026-04-03T10:20:57.999Z</time></trkpt><trkpt lat="43.53892958939432" lon="11.339449724649517"><ele>545.3333333333334</ele><time>2026-04-03T10:20:58.999Z</time></trkpt><trkpt lat="43.53895211631419" lon="11.339582213638908"><ele>547.6666666666667</ele><time>2026-04-03T10:20:59.999Z</time></trkpt><trkpt lat="43.538986062271874" lon="11.339690393524997"><ele>550.0</ele><time>2026-04-03T10:21:00.999Z</time></trkpt><trkpt lat="43.539021198564306" lon="11.339774441124783"><ele>552.1666666666667</ele><time>2026-04-03T10:21:01.999Z</time></trkpt><trkpt lat="43.53907946467705" lon="11.339846072715794"><ele>554.3333333333334</ele><time>2026-04-03T10:21:02.999Z</time></trkpt><trkpt lat="43.53915267139898" lon="11.339913596801575"><ele>556.5</ele><time>2026-04-03T10:21:03.999Z</time></trkpt><trkpt lat="43.539228561970035" lon="11.33997401249609"><ele>558.6666666666666</ele><time>2026-04-03T10:21:04.999Z</time></trkpt><trkpt lat="43.539303166103394" lon="11.340025838798908"><ele>560.8333333333333</ele><time>2026-04-03T10:21:05.999Z</time></trkpt><trkpt lat="43.53936866435265" lon="11.340072704985689"><ele>563.0</ele><time>2026-04-03T10:21:06.999Z</time></trkpt><trkpt lat="43.53942669383122" lon="11.340114634750686"><ele>563.0</ele><time>2026-04-03T10:21:07.999Z</time></trkpt><trkpt lat="43.53949159487454" lon="11.340151123768138"><ele>563.0</ele><time>2026-04-03T10:21:08.999Z</time></trkpt><trkpt lat="43.53955649611603" lon="11.340164677996388"><ele>563.0</ele><time>2026-04-03T10:21:09.999Z</time></trkpt><trkpt lat="43.539647733315974" lon="11.340140692267912"><ele>563.0</ele><time>2026-04-03T10:21:10.999Z</time></trkpt><trkpt lat="43.53972107507526" lon="11.340159019401682"><ele>563.0</ele><time>2026-04-03T10:21:11.999Z</time></trkpt><trkpt lat="43.53977324343349" lon="11.340239980044595"><ele>563.0</ele><time>2026-04-03T10:21:12.999Z</time></trkpt><trkpt lat="43.539842714190506" lon="11.340296562349346"><ele>562.3333333333333</ele><time>2026-04-03T10:21:13.999Z</time></trkpt><trkpt lat="43.53991185829691" lon="11.340356493344984"><ele>561.6666666666666</ele><time>2026-04-03T10:21:14.999Z</time></trkpt><trkpt lat="43.539984625397274" lon="11.340425577543499"><ele>561.0</ele><time>2026-04-03T10:21:15.999Z</time></trkpt><trkpt lat="43.540058983962226" lon="11.340496144617926"><ele>560.3333333333334</ele><time>2026-04-03T10:21:16.999Z</time></trkpt><trkpt lat="43.54014215526369" lon="11.340547444310964"><ele>559.6666666666667</ele><time>2026-04-03T10:21:17.999Z</time></trkpt><trkpt lat="43.5402071939723" lon="11.34062023442679"><ele>559.0</ele><time>2026-04-03T10:21:18.999Z</time></trkpt><trkpt lat="43.54023904191535" lon="11.340726575575149"><ele>561.0</ele><time>2026-04-03T10:21:19.999Z</time></trkpt><trkpt lat="43.540286245959834" lon="11.34079538404127"><ele>563.0</ele><time>2026-04-03T10:21:20.999Z</time></trkpt><trkpt lat="43.540339809047516" lon="11.34085773171679"><ele>565.0</ele><time>2026-04-03T10:21:21.999Z</time></trkpt><trkpt lat="43.54041386995585" lon="11.340923426024862"><ele>567.0</ele><time>2026-04-03T10:21:23.999Z</time></trkpt><trkpt lat="43.54048151643268" lon="11.341009910511167"><ele>569.0</ele><time>2026-04-03T10:21:26.999Z</time></trkpt><trkpt lat="43.5405343015926" lon="11.341101287508492"><ele>571.0</ele><time>2026-04-03T10:21:28.999Z</time></trkpt><trkpt lat="43.54060553959681" lon="11.341220447630862"><ele>571.0</ele><time>2026-04-03T10:21:30.999Z</time></trkpt><trkpt lat="43.540667416753365" lon="11.3413506575287"><ele>571.0</ele><time>2026-04-03T10:21:32.999Z</time></trkpt><trkpt lat="43.540760254379855" lon="11.341434182384008"><ele>571.0</ele><time>2026-04-03T10:21:34.999Z</time></trkpt><trkpt lat="43.54067174368267" lon="11.34134711739943"><ele>571.0</ele><time>2026-04-03T10:21:41.999Z</time></trkpt><trkpt lat="43.54062807125516" lon="11.341249946479723"><ele>571.0</ele><time>2026-04-03T10:21:42.999Z</time></trkpt><trkpt lat="43.54058726056601" lon="11.341174203105286"><ele>571.0</ele><time>2026-04-03T10:21:43.999Z</time></trkpt><trkpt lat="43.54054296953851" lon="11.341085993782213"><ele>571.0</ele><time>2026-04-03T10:21:44.999Z</time></trkpt><trkpt lat="43.540487311781575" lon="11.340956340341359"><ele>571.0</ele><time>2026-04-03T10:21:46.999Z</time></trkpt><trkpt lat="43.540483699327424" lon="11.341145177347396"><ele>571.0</ele><time>2026-04-03T10:21:52.999Z</time></trkpt><trkpt lat="43.540494826149434" lon="11.3412643251039"><ele>571.0</ele><time>2026-04-03T10:21:55.999Z</time></trkpt><trkpt lat="43.540499461560266" lon="11.34139199222568"><ele>573.4</ele><time>2026-04-03T10:21:57.999Z</time></trkpt><trkpt lat="43.54049598331922" lon="11.34151483521518"><ele>575.8</ele><time>2026-04-03T10:21:59.999Z</time></trkpt><trkpt lat="43.5405089309688" lon="11.341646372640948"><ele>578.1999999999999</ele><time>2026-04-03T10:22:01.999Z</time></trkpt><trkpt lat="43.54056749337121" lon="11.34177894482884"><ele>580.6</ele><time>2026-04-03T10:22:03.999Z</time></trkpt><trkpt lat="43.54061713084419" lon="11.341910739859985"><ele>583.0</ele><time>2026-04-03T10:22:05.999Z</time></trkpt><trkpt lat="43.54066591144808" lon="11.342061065808736"><ele>583.0</ele><time>2026-04-03T10:22:07.999Z</time></trkpt><trkpt lat="43.54068593533573" lon="11.342209623451549"><ele>583.0</ele><time>2026-04-03T10:22:09.999Z</time></trkpt><trkpt lat="43.5406766490019" lon="11.34236618980849"><ele>583.0</ele><time>2026-04-03T10:22:11.999Z</time></trkpt><trkpt lat="43.54064938591425" lon="11.342523949318235"><ele>583.0</ele><time>2026-04-03T10:22:13.999Z</time></trkpt><trkpt lat="43.54060866569119" lon="11.342594962428649"><ele>583.0</ele><time>2026-04-03T10:22:14.999Z</time></trkpt><trkpt lat="43.540556815905816" lon="11.342671528388415"><ele>583.6666666666667</ele><time>2026-04-03T10:22:15.999Z</time></trkpt><trkpt lat="43.54050942988164" lon="11.342758247098017"><ele>584.3333333333334</ele><time>2026-04-03T10:22:17.998Z</time></trkpt><trkpt lat="43.54045293614357" lon="11.342857324310597"><ele>585.0</ele><time>2026-04-03T10:22:21.998Z</time></trkpt><trkpt lat="43.54039867443393" lon="11.342932191815809"><ele>585.6666666666666</ele><time>2026-04-03T10:22:22.998Z</time></trkpt><trkpt lat="43.540342938229124" lon="11.343002822626383"><ele>586.3333333333333</ele><time>2026-04-03T10:22:24Z</time></trkpt><trkpt lat="43.540257781516274" lon="11.343108516335073"><ele>587.0</ele><time>2026-04-03T10:22:26Z</time></trkpt><trkpt lat="43.54017761992798" lon="11.343231435311202"><ele>588.2</ele><time>2026-04-03T10:22:28Z</time></trkpt><trkpt lat="43.54010836930395" lon="11.343375016690134"><ele>589.4000000000001</ele><time>2026-04-03T10:22:30Z</time></trkpt><trkpt lat="43.54005983719847" lon="11.343482327224647"><ele>590.5999999999999</ele><time>2026-04-03T10:22:32Z</time></trkpt><trkpt lat="43.54000724451893" lon="11.343601516544423"><ele>591.8</ele><time>2026-04-03T10:22:34Z</time></trkpt><trkpt lat="43.53996189370662" lon="11.343662467546899"><ele>593.0</ele><time>2026-04-03T10:22:35Z</time></trkpt><trkpt lat="43.539890768668506" lon="11.34376404237824"><ele>593.0</ele><time>2026-04-03T10:22:37Z</time></trkpt><trkpt lat="43.53983815946491" lon="11.343822427015006"><ele>593.0</ele><time>2026-04-03T10:22:39Z</time></trkpt><trkpt lat="43.53975179106027" lon="11.343889773218857"><ele>593.0</ele><time>2026-04-03T10:22:41Z</time></trkpt><trkpt lat="43.53966518838633" lon="11.343955173887956"><ele>593.0</ele><time>2026-04-03T10:22:43Z</time></trkpt><trkpt lat="43.53960058053801" lon="11.344065927133157"><ele>593.0</ele><time>2026-04-03T10:22:45Z</time></trkpt><trkpt lat="43.53955633520969" lon="11.344208496796448"><ele>593.6</ele><time>2026-04-03T10:22:47Z</time></trkpt><trkpt lat="43.539483174384394" lon="11.344349085351022"><ele>594.1999999999999</ele><time>2026-04-03T10:22:49Z</time></trkpt><trkpt lat="43.53940024727022" lon="11.34445983562527"><ele>594.8</ele><time>2026-04-03T10:22:51Z</time></trkpt><trkpt lat="43.53930631423602" lon="11.344531585146225"><ele>595.4</ele><time>2026-04-03T10:22:52.999Z</time></trkpt><trkpt lat="43.5392347104408" lon="11.344605675892772"><ele>596.0</ele><time>2026-04-03T10:22:54.999Z</time></trkpt><trkpt lat="43.539191472449694" lon="11.344693359431318"><ele>591.2</ele><time>2026-04-03T10:22:56.999Z</time></trkpt><trkpt lat="43.53915459206162" lon="11.344805940818402"><ele>586.4000000000001</ele><time>2026-04-03T10:22:58.999Z</time></trkpt><trkpt lat="43.53913051329653" lon="11.344896200006158"><ele>581.6</ele><time>2026-04-03T10:23:01.999Z</time></trkpt><trkpt lat="43.539123430857295" lon="11.345017602595565"><ele>576.8000000000001</ele><time>2026-04-03T10:23:07.999Z</time></trkpt><trkpt lat="43.53915556576822" lon="11.345180645390037"><ele>572.0</ele><time>2026-04-03T10:23:09.999Z</time></trkpt><trkpt lat="43.53916672814444" lon="11.345307671834131"><ele>572.0</ele><time>2026-04-03T10:23:11.999Z</time></trkpt><trkpt lat="43.53910301051639" lon="11.345423986738844"><ele>572.0</ele><time>2026-04-03T10:23:13.999Z</time></trkpt><trkpt lat="43.53899737835936" lon="11.34550083726842"><ele>572.0</ele><time>2026-04-03T10:23:15.999Z</time></trkpt><trkpt lat="43.5389126274283" lon="11.345539125668049"><ele>572.0</ele><time>2026-04-03T10:23:17.999Z</time></trkpt><trkpt lat="43.53882309941055" lon="11.3455316832467"><ele>572.0</ele><time>2026-04-03T10:23:19.999Z</time></trkpt><trkpt lat="43.53874140596215" lon="11.3454623431081"><ele>573.6</ele><time>2026-04-03T10:23:21.999Z</time></trkpt><trkpt lat="43.5386264022513" lon="11.345462576969561"><ele>575.2</ele><time>2026-04-03T10:23:23.999Z</time></trkpt><trkpt lat="43.538551941034704" lon="11.345501229908425"><ele>576.8</ele><time>2026-04-03T10:23:25.999Z</time></trkpt><trkpt lat="43.53850418648208" lon="11.345588204902025"><ele>578.4</ele><time>2026-04-03T10:23:28.999Z</time></trkpt><trkpt lat="43.53849427254674" lon="11.345726073216683"><ele>580.0</ele><time>2026-04-03T10:23:30.999Z</time></trkpt><trkpt lat="43.538499383958595" lon="11.345877206704989"><ele>580.0</ele><time>2026-04-03T10:23:32.999Z</time></trkpt><trkpt lat="43.538457634190934" lon="11.346027139883715"><ele>580.0</ele><time>2026-04-03T10:23:34.999Z</time></trkpt><trkpt lat="43.53838199297199" lon="11.346147938534159"><ele>580.0</ele><time>2026-04-03T10:23:36.999Z</time></trkpt><trkpt lat="43.53829480316478" lon="11.34625171356065"><ele>580.0</ele><time>2026-04-03T10:23:38.999Z</time></trkpt><trkpt lat="43.538253119801624" lon="11.346336867767054"><ele>580.0</ele><time>2026-04-03T10:23:40.999Z</time></trkpt><trkpt lat="43.53825486331484" lon="11.346455346568687"><ele>577.3333333333334</ele><time>2026-04-03T10:23:42.999Z</time></trkpt><trkpt lat="43.53826455216332" lon="11.346548193399178"><ele>574.6666666666667</ele><time>2026-04-03T10:23:43.999Z</time></trkpt><trkpt lat="43.53825840750503" lon="11.34664071164369"><ele>572.0</ele><time>2026-04-03T10:23:44.999Z</time></trkpt><trkpt lat="43.53823812582403" lon="11.346731669467122"><ele>569.3333333333334</ele><time>2026-04-03T10:23:45.999Z</time></trkpt><trkpt lat="43.53817786755308" lon="11.346866957410326"><ele>566.6666666666666</ele><time>2026-04-03T10:23:47.999Z</time></trkpt><trkpt lat="43.538129806337004" lon="11.346929208539711"><ele>564.0</ele><time>2026-04-03T10:23:48.999Z</time></trkpt><trkpt lat="43.53802217866696" lon="11.347058064878086"><ele>564.0</ele><time>2026-04-03T10:23:50.999Z</time></trkpt><trkpt lat="43.53797502944581" lon="11.34711625701756"><ele>564.0</ele><time>2026-04-03T10:23:51.999Z</time></trkpt><trkpt lat="43.53789631474425" lon="11.347153827377943"><ele>564.0</ele><time>2026-04-03T10:23:54.999Z</time></trkpt><trkpt lat="43.5378633866434" lon="11.347242257605926"><ele>564.0</ele><time>2026-04-03T10:23:58.999Z</time></trkpt><trkpt lat="43.53791649146221" lon="11.347350615828713"><ele>564.0</ele><time>2026-04-03T10:24:01.999Z</time></trkpt><trkpt lat="43.537965698301214" lon="11.347410234451353"><ele>564.0</ele><time>2026-04-03T10:24:03.999Z</time></trkpt><trkpt lat="43.538067399756144" lon="11.347487082123621"><ele>563.0</ele><time>2026-04-03T10:24:05.999Z</time></trkpt><trkpt lat="43.538149057267745" lon="11.34757411447865"><ele>562.0</ele><time>2026-04-03T10:24:07.999Z</time></trkpt><trkpt lat="43.538214570897324" lon="11.347697422521273"><ele>561.0</ele><time>2026-04-03T10:24:09.999Z</time></trkpt><trkpt lat="43.538253773279706" lon="11.34781852765756"><ele>560.0</ele><time>2026-04-03T10:24:11.999Z</time></trkpt><trkpt lat="43.538301716754034" lon="11.347902880444154"><ele>559.0</ele><time>2026-04-03T10:24:13.999Z</time></trkpt><trkpt lat="43.53835233585528" lon="11.347996470646615"><ele>560.6</ele><time>2026-04-03T10:24:15.999Z</time></trkpt><trkpt lat="43.53839103655082" lon="11.348106018881628"><ele>562.2</ele><time>2026-04-03T10:24:17.999Z</time></trkpt><trkpt lat="43.538450217789425" lon="11.348220677096904"><ele>563.8000000000001</ele><time>2026-04-03T10:24:19.999Z</time></trkpt><trkpt lat="43.53847517263896" lon="11.348313350318437"><ele>565.4</ele><time>2026-04-03T10:24:20.999Z</time></trkpt><trkpt lat="43.5384945317263" lon="11.348464722019314"><ele>567.0</ele><time>2026-04-03T10:24:22.999Z</time></trkpt><trkpt lat="43.538504030430936" lon="11.348595294263266"><ele>567.0</ele><time>2026-04-03T10:24:24.999Z</time></trkpt><trkpt lat="43.53848765950609" lon="11.34869151997626"><ele>567.0</ele><time>2026-04-03T10:24:26.998Z</time></trkpt><trkpt lat="43.53844982879576" lon="11.348819262140694"><ele>567.0</ele><time>2026-04-03T10:24:29Z</time></trkpt><trkpt lat="43.53841831538297" lon="11.348917585271519"><ele>567.0</ele><time>2026-04-03T10:24:31Z</time></trkpt><trkpt lat="43.53838122457606" lon="11.34900323652997"><ele>567.0</ele><time>2026-04-03T10:24:33Z</time></trkpt><trkpt lat="43.53833088038518" lon="11.349125268091347"><ele>567.0</ele><time>2026-04-03T10:24:35Z</time></trkpt><trkpt lat="43.53827724325379" lon="11.349188574425245"><ele>564.4</ele><time>2026-04-03T10:24:37Z</time></trkpt><trkpt lat="43.53820920753324" lon="11.349251710002124"><ele>561.8000000000001</ele><time>2026-04-03T10:24:40Z</time></trkpt><trkpt lat="43.538146624066165" lon="11.349354296827087"><ele>559.2</ele><time>2026-04-03T10:24:43Z</time></trkpt><trkpt lat="43.538155166947156" lon="11.34954763817923"><ele>556.6</ele><time>2026-04-03T10:24:44.999Z</time></trkpt><trkpt lat="43.538118598718036" lon="11.349678076842048"><ele>554.0</ele><time>2026-04-03T10:24:46.999Z</time></trkpt><trkpt lat="43.53807963987222" lon="11.349770305890218"><ele>552.0</ele><time>2026-04-03T10:24:48.999Z</time></trkpt><trkpt lat="43.538062669265635" lon="11.349854557294536"><ele>550.0</ele><time>2026-04-03T10:24:50.999Z</time></trkpt><trkpt lat="43.53811042646548" lon="11.349943568054563"><ele>548.0</ele><time>2026-04-03T10:24:52.998Z</time></trkpt><trkpt lat="43.538194652208745" lon="11.350067233803426"><ele>546.0</ele><time>2026-04-03T10:24:54.998Z</time></trkpt><trkpt lat="43.53825255439149" lon="11.350210184895182"><ele>544.0</ele><time>2026-04-03T10:24:56.998Z</time></trkpt><trkpt lat="43.53830993987103" lon="11.350357643410621"><ele>544.0</ele><time>2026-04-03T10:24:58.998Z</time></trkpt><trkpt lat="43.53838306947671" lon="11.350479520890115"><ele>544.0</ele><time>2026-04-03T10:25:00.998Z</time></trkpt><trkpt lat="43.538445878865375" lon="11.350568104318338"><ele>544.0</ele><time>2026-04-03T10:25:02.998Z</time></trkpt><trkpt lat="43.53851286613103" lon="11.350659976635075"><ele>544.0</ele><time>2026-04-03T10:25:04.998Z</time></trkpt><trkpt lat="43.5385810620987" lon="11.350774410610555"><ele>544.0</ele><time>2026-04-03T10:25:06.997Z</time></trkpt><trkpt lat="43.53861676544611" lon="11.350875384232664"><ele>543.6666666666667</ele><time>2026-04-03T10:25:08.997Z</time></trkpt><trkpt lat="43.53862824143141" lon="11.35098039166801"><ele>543.3333333333334</ele><time>2026-04-03T10:25:11.997Z</time></trkpt><trkpt lat="43.53862305114901" lon="11.351069972999236"><ele>543.0</ele><time>2026-04-03T10:25:13.997Z</time></trkpt><trkpt lat="43.5385951003714" lon="11.351162996897195"><ele>542.6666666666666</ele><time>2026-04-03T10:25:15.997Z</time></trkpt><trkpt lat="43.53856256391236" lon="11.351258078893277"><ele>542.3333333333333</ele><time>2026-04-03T10:25:17.997Z</time></trkpt><trkpt lat="43.53859400611654" lon="11.351371692328183"><ele>542.0</ele><time>2026-04-03T10:25:19.997Z</time></trkpt><trkpt lat="43.538577064720464" lon="11.351496355186988"><ele>542.0</ele><time>2026-04-03T10:25:21.997Z</time></trkpt><trkpt lat="43.53853055409958" lon="11.351624180285837"><ele>542.0</ele><time>2026-04-03T10:25:23.997Z</time></trkpt><trkpt lat="43.53847659960476" lon="11.351749020109951"><ele>542.0</ele><time>2026-04-03T10:25:25.997Z</time></trkpt><trkpt lat="43.53841326650225" lon="11.35186347709373"><ele>542.0</ele><time>2026-04-03T10:25:27.997Z</time></trkpt><trkpt lat="43.53834569588448" lon="11.35195718146719"><ele>542.0</ele><time>2026-04-03T10:25:29.997Z</time></trkpt><trkpt lat="43.53825395045249" lon="11.352032067671527"><ele>542.0</ele><time>2026-04-03T10:25:31.997Z</time></trkpt><trkpt lat="43.53817375721454" lon="11.35206206270174"><ele>542.0</ele><time>2026-04-03T10:25:34.997Z</time></trkpt><trkpt lat="43.5381715633391" lon="11.35214958675898"><ele>542.0</ele><time>2026-04-03T10:25:37.997Z</time></trkpt><trkpt lat="43.53819679929957" lon="11.352246564138717"><ele>542.0</ele><time>2026-04-03T10:25:40.997Z</time></trkpt><trkpt lat="43.538228213204874" lon="11.352354566024752"><ele>542.0</ele><time>2026-04-03T10:25:43.997Z</time></trkpt><trkpt lat="43.538263129304845" lon="11.352472374062645"><ele>542.0</ele><time>2026-04-03T10:25:45.997Z</time></trkpt><trkpt lat="43.5382868201567" lon="11.352608070986866"><ele>540.6666666666666</ele><time>2026-04-03T10:25:47.997Z</time></trkpt><trkpt lat="43.53830615068886" lon="11.352694788698543"><ele>539.3333333333333</ele><time>2026-04-03T10:25:49.996Z</time></trkpt><trkpt lat="43.53833388269842" lon="11.352812004188632"><ele>538.0</ele><time>2026-04-03T10:25:51.996Z</time></trkpt><trkpt lat="43.538347577000565" lon="11.352950346346644"><ele>536.6666666666666</ele><time>2026-04-03T10:25:53.996Z</time></trkpt><trkpt lat="43.53838924396249" lon="11.353050453338316"><ele>535.3333333333334</ele><time>2026-04-03T10:25:56.996Z</time></trkpt><trkpt lat="43.538451777472005" lon="11.353157194805284"><ele>534.0</ele><time>2026-04-03T10:25:58.996Z</time></trkpt><trkpt lat="43.53848549714835" lon="11.35325921004219"><ele>534.0</ele><time>2026-04-03T10:26:00.996Z</time></trkpt><trkpt lat="43.53850719740668" lon="11.353364486897979"><ele>534.0</ele><time>2026-04-03T10:26:02.996Z</time></trkpt><trkpt lat="43.53853328696507" lon="11.353465859559199"><ele>534.0</ele><time>2026-04-03T10:26:04.996Z</time></trkpt><trkpt lat="43.53855354638639" lon="11.353623827977499"><ele>534.0</ele><time>2026-04-03T10:26:06.996Z</time></trkpt><trkpt lat="43.538576522718806" lon="11.353746666070917"><ele>534.0</ele><time>2026-04-03T10:26:08.996Z</time></trkpt><trkpt lat="43.53859828313253" lon="11.353887630115002"><ele>534.1666666666666</ele><time>2026-04-03T10:26:10.996Z</time></trkpt><trkpt lat="43.53860147957491" lon="11.353976997642576"><ele>534.3333333333334</ele><time>2026-04-03T10:26:12.996Z</time></trkpt><trkpt lat="43.53857177698331" lon="11.35409549731466"><ele>534.5</ele><time>2026-04-03T10:26:15.996Z</time></trkpt><trkpt lat="43.53853719061414" lon="11.35417294962529"><ele>534.6666666666667</ele><time>2026-04-03T10:26:17.996Z</time></trkpt><trkpt lat="43.53850666327102" lon="11.354262547348478"><ele>534.8333333333334</ele><time>2026-04-03T10:26:20.996Z</time></trkpt><trkpt lat="43.53847970191272" lon="11.354371976436255"><ele>535.0</ele><time>2026-04-03T10:26:22.996Z</time></trkpt><trkpt lat="43.538430982655605" lon="11.354458178987398"><ele>535.0</ele><time>2026-04-03T10:26:24.996Z</time></trkpt><trkpt lat="43.53839856882292" lon="11.35453543990372"><ele>535.0</ele><time>2026-04-03T10:26:26.996Z</time></trkpt><trkpt lat="43.5383563042009" lon="11.354633526907335"><ele>535.0</ele><time>2026-04-03T10:26:29.996Z</time></trkpt><trkpt lat="43.53831478878934" lon="11.354741803745432"><ele>535.0</ele><time>2026-04-03T10:26:31.996Z</time></trkpt><trkpt lat="43.53825912841612" lon="11.354848765579497"><ele>535.0</ele><time>2026-04-03T10:26:33.996Z</time></trkpt><trkpt lat="43.53821442410363" lon="11.354952408193023"><ele>535.0</ele><time>2026-04-03T10:26:35.997Z</time></trkpt><trkpt lat="43.53815196632415" lon="11.355063654498936"><ele>534.0</ele><time>2026-04-03T10:26:37.998Z</time></trkpt><trkpt lat="43.538101805729994" lon="11.355137914509688"><ele>533.0</ele><time>2026-04-03T10:26:39.998Z</time></trkpt><trkpt lat="43.538058197478605" lon="11.355216020380432"><ele>532.0</ele><time>2026-04-03T10:26:41.998Z</time></trkpt><trkpt lat="43.53800689960347" lon="11.355311996295477"><ele>531.0</ele><time>2026-04-03T10:26:43.998Z</time></trkpt><trkpt lat="43.53795622190518" lon="11.355399563307447"><ele>530.0</ele><time>2026-04-03T10:26:45.999Z</time></trkpt><trkpt lat="43.53788556054231" lon="11.355456275003636"><ele>529.0</ele><time>2026-04-03T10:26:47.999Z</time></trkpt><trkpt lat="43.53779263723812" lon="11.355519257847961"><ele>529.5</ele><time>2026-04-03T10:26:49.999Z</time></trkpt><trkpt lat="43.537700628455525" lon="11.3555497462162"><ele>530.0</ele><time>2026-04-03T10:26:51.999Z</time></trkpt><trkpt lat="43.53766082340175" lon="11.35565225440598"><ele>530.5</ele><time>2026-04-03T10:26:55.999Z</time></trkpt><trkpt lat="43.53770818827296" lon="11.355729947883084"><ele>531.0</ele><time>2026-04-03T10:27:00.999Z</time></trkpt><trkpt lat="43.537786772220564" lon="11.355702808626717"><ele>531.5</ele><time>2026-04-03T10:27:03.999Z</time></trkpt><trkpt lat="43.537859424053636" lon="11.35568707305357"><ele>532.0</ele><time>2026-04-03T10:27:08.999Z</time></trkpt><trkpt lat="43.53793689265888" lon="11.355700076739486"><ele>532.0</ele><time>2026-04-03T10:27:12.999Z</time></trkpt><trkpt lat="43.53800548508224" lon="11.355668769612752"><ele>532.0</ele><time>2026-04-03T10:27:15.999Z</time></trkpt><trkpt lat="43.53808136191648" lon="11.355644005136002"><ele>532.0</ele><time>2026-04-03T10:27:18.999Z</time></trkpt><trkpt lat="43.5381412683181" lon="11.355676735901408"><ele>532.0</ele><time>2026-04-03T10:27:28.999Z</time></trkpt><trkpt lat="43.538209082579144" lon="11.355663202502308"><ele>532.0</ele><time>2026-04-03T10:28:13.999Z</time></trkpt><trkpt lat="43.538308240573166" lon="11.35562327411826"><ele>532.0</ele><time>2026-04-03T10:29:05Z</time></trkpt><trkpt lat="43.538352731715435" lon="11.355716968029283"><ele>532.0</ele><time>2026-04-03T10:29:07Z</time></trkpt><trkpt lat="43.538421497814724" lon="11.355833632790855"><ele>532.0</ele><time>2026-04-03T10:29:09Z</time></trkpt><trkpt lat="43.538468949435305" lon="11.355910161094505"><ele>532.0</ele><time>2026-04-03T10:29:10Z</time></trkpt><trkpt lat="43.53852297660564" lon="11.355992019380775"><ele>532.0</ele><time>2026-04-03T10:29:11Z</time></trkpt><trkpt lat="43.53856762435414" lon="11.356054657344822"><ele>532.0</ele><time>2026-04-03T10:29:12Z</time></trkpt><trkpt lat="43.538624966046186" lon="11.356138531333439"><ele>532.0</ele><time>2026-04-03T10:29:13Z</time></trkpt><trkpt lat="43.53867600726745" lon="11.356212029091868"><ele>531.8333333333334</ele><time>2026-04-03T10:29:14Z</time></trkpt><trkpt lat="43.538722092100635" lon="11.356271539417007"><ele>531.6666666666667</ele><time>2026-04-03T10:29:15Z</time></trkpt><trkpt lat="43.53884076309916" lon="11.35634636064694"><ele>531.5</ele><time>2026-04-03T10:29:17Z</time></trkpt><trkpt lat="43.53891061399623" lon="11.356365501875526"><ele>531.3333333333334</ele><time>2026-04-03T10:29:19Z</time></trkpt><trkpt lat="43.53885470034454" lon="11.356456065471814"><ele>531.1666666666666</ele><time>2026-04-03T10:29:28.999Z</time></trkpt><trkpt lat="43.538778694579285" lon="11.35647811013317"><ele>531.0</ele><time>2026-04-03T10:29:29.999Z</time></trkpt><trkpt lat="43.53867736605774" lon="11.356481149021835"><ele>531.1666666666666</ele><time>2026-04-03T10:29:30.999Z</time></trkpt><trkpt lat="43.53858986736294" lon="11.356484035046112"><ele>531.3333333333334</ele><time>2026-04-03T10:29:31.999Z</time></trkpt><trkpt lat="43.53851095849914" lon="11.35648013771024"><ele>531.5</ele><time>2026-04-03T10:29:32.999Z</time></trkpt><trkpt lat="43.538424800223396" lon="11.35645303744932"><ele>531.6666666666667</ele><time>2026-04-03T10:29:34.999Z</time></trkpt><trkpt lat="43.5383438020084" lon="11.35641640182047"><ele>531.8333333333334</ele><time>2026-04-03T10:29:36.999Z</time></trkpt><trkpt lat="43.53827549610465" lon="11.356385348634626"><ele>532.0</ele><time>2026-04-03T10:29:37.999Z</time></trkpt><trkpt lat="43.538199963368456" lon="11.35633749677047"><ele>532.0</ele><time>2026-04-03T10:29:38.999Z</time></trkpt><trkpt lat="43.53813525530651" lon="11.356273440111138"><ele>532.0</ele><time>2026-04-03T10:29:39.999Z</time></trkpt><trkpt lat="43.53808470693269" lon="11.356208700207043"><ele>532.0</ele><time>2026-04-03T10:29:40.999Z</time></trkpt><trkpt lat="43.53802692235066" lon="11.35614890571671"><ele>532.0</ele><time>2026-04-03T10:29:41.999Z</time></trkpt><trkpt lat="43.53796389092495" lon="11.356124375449152"><ele>532.0</ele><time>2026-04-03T10:29:42.999Z</time></trkpt><trkpt lat="43.53789710132573" lon="11.356119750357285"><ele>532.0</ele><time>2026-04-03T10:29:43.999Z</time></trkpt><trkpt lat="43.537820871030995" lon="11.356138333455611"><ele>532.0</ele><time>2026-04-03T10:29:44.999Z</time></trkpt><trkpt lat="43.53774758853945" lon="11.356163144714436"><ele>533.8333333333334</ele><time>2026-04-03T10:29:45.999Z</time></trkpt><trkpt lat="43.53766679247866" lon="11.356180973025877"><ele>535.6666666666667</ele><time>2026-04-03T10:29:46.999Z</time></trkpt><trkpt lat="43.5375822764182" lon="11.356183264057869"><ele>537.5</ele><time>2026-04-03T10:29:47.999Z</time></trkpt><trkpt lat="43.53750086252558" lon="11.35617852273176"><ele>539.3333333333334</ele><time>2026-04-03T10:29:48.999Z</time></trkpt><trkpt lat="43.53742466408895" lon="11.356182634354411"><ele>541.1666666666666</ele><time>2026-04-03T10:29:49.999Z</time></trkpt><trkpt lat="43.537320318922205" lon="11.356242217227647"><ele>543.0</ele><time>2026-04-03T10:29:51.999Z</time></trkpt><trkpt lat="43.53724212142778" lon="11.356287133820205"><ele>544.0</ele><time>2026-04-03T10:29:53.999Z</time></trkpt><trkpt lat="43.53723692644082" lon="11.356397482794282"><ele>545.0</ele><time>2026-04-03T10:29:56.999Z</time></trkpt><trkpt lat="43.53722326245477" lon="11.356523035747728"><ele>546.0</ele><time>2026-04-03T10:29:58.999Z</time></trkpt><trkpt lat="43.537219693811046" lon="11.356612856588818"><ele>547.0</ele><time>2026-04-03T10:29:59.999Z</time></trkpt><trkpt lat="43.537201734534264" lon="11.356774504421475"><ele>548.0</ele><time>2026-04-03T10:30:01.999Z</time></trkpt><trkpt lat="43.53716870704237" lon="11.356872332674696"><ele>549.0</ele><time>2026-04-03T10:30:03.999Z</time></trkpt><trkpt lat="43.53720487446227" lon="11.356784260174695"><ele>549.0</ele><time>2026-04-03T10:30:20.999Z</time></trkpt><trkpt lat="43.53721793364917" lon="11.356658996580583"><ele>549.0</ele><time>2026-04-03T10:30:22.999Z</time></trkpt><trkpt lat="43.537231223280386" lon="11.356483611204311"><ele>549.0</ele><time>2026-04-03T10:30:24.999Z</time></trkpt><trkpt lat="43.537238255341656" lon="11.356391397168244"><ele>549.0</ele><time>2026-04-03T10:30:25.999Z</time></trkpt><trkpt lat="43.53726502583218" lon="11.35627779723377"><ele>549.0</ele><time>2026-04-03T10:30:28.999Z</time></trkpt><trkpt lat="43.537350279069855" lon="11.356218462184554"><ele>548.0</ele><time>2026-04-03T10:30:30.999Z</time></trkpt><trkpt lat="43.53741503530568" lon="11.356199184110558"><ele>547.0</ele><time>2026-04-03T10:30:31.999Z</time></trkpt><trkpt lat="43.537478246375954" lon="11.356175090704271"><ele>546.0</ele><time>2026-04-03T10:30:32.999Z</time></trkpt><trkpt lat="43.53760899847022" lon="11.356180887057521"><ele>545.0</ele><time>2026-04-03T10:30:34.999Z</time></trkpt><trkpt lat="43.5376844696813" lon="11.356183376524758"><ele>544.0</ele><time>2026-04-03T10:30:35.999Z</time></trkpt><trkpt lat="43.53775535732413" lon="11.356176334610293"><ele>543.0</ele><time>2026-04-03T10:30:36.999Z</time></trkpt><trkpt lat="43.537833276251135" lon="11.356160977918616"><ele>543.4285714285714</ele><time>2026-04-03T10:30:37.999Z</time></trkpt><trkpt lat="43.53789944610978" lon="11.356143893101791"><ele>543.8571428571429</ele><time>2026-04-03T10:30:38.999Z</time></trkpt><trkpt lat="43.53796307556982" lon="11.356135373716661"><ele>544.2857142857142</ele><time>2026-04-03T10:30:39.999Z</time></trkpt><trkpt lat="43.53803105805992" lon="11.356150401854944"><ele>544.7142857142858</ele><time>2026-04-03T10:30:40.999Z</time></trkpt><trkpt lat="43.53809520783806" lon="11.356190987328281"><ele>545.1428571428571</ele><time>2026-04-03T10:30:41.999Z</time></trkpt><trkpt lat="43.53814469985623" lon="11.356257837497415"><ele>545.5714285714286</ele><time>2026-04-03T10:30:42.999Z</time></trkpt><trkpt lat="43.53821117597219" lon="11.356344717969934"><ele>546.0</ele><time>2026-04-03T10:30:43.999Z</time></trkpt><trkpt lat="43.53827715867029" lon="11.356409164648909"><ele>546.0</ele><time>2026-04-03T10:30:44.998Z</time></trkpt><trkpt lat="43.53835296480518" lon="11.356442078665777"><ele>546.0</ele><time>2026-04-03T10:30:45.998Z</time></trkpt><trkpt lat="43.53843835112906" lon="11.356469910590743"><ele>546.0</ele><time>2026-04-03T10:30:47Z</time></trkpt><trkpt lat="43.538538650249336" lon="11.356480126866707"><ele>546.0</ele><time>2026-04-03T10:30:49Z</time></trkpt><trkpt lat="43.538684553783746" lon="11.356487866052722"><ele>546.0</ele><time>2026-04-03T10:30:51Z</time></trkpt><trkpt lat="43.53878036290101" lon="11.356473712745979"><ele>546.2</ele><time>2026-04-03T10:30:52Z</time></trkpt><trkpt lat="43.53887996774164" lon="11.356450064813847"><ele>546.4000000000001</ele><time>2026-04-03T10:30:53Z</time></trkpt><trkpt lat="43.538961541819795" lon="11.356420034158907"><ele>546.6</ele><time>2026-04-03T10:30:54Z</time></trkpt><trkpt lat="43.53904235775326" lon="11.35636515442139"><ele>546.8000000000001</ele><time>2026-04-03T10:30:55Z</time></trkpt><trkpt lat="43.539126459806745" lon="11.356326074495648"><ele>547.0</ele><time>2026-04-03T10:30:56Z</time></trkpt><trkpt lat="43.53923736611684" lon="11.356291954255447"><ele>544.6</ele><time>2026-04-03T10:30:57Z</time></trkpt><trkpt lat="43.53934679300211" lon="11.356251921318785"><ele>542.2</ele><time>2026-04-03T10:30:58Z</time></trkpt><trkpt lat="43.539455263885564" lon="11.356200276202154"><ele>539.8</ele><time>2026-04-03T10:30:59Z</time></trkpt><trkpt lat="43.53956132924081" lon="11.356158807208818"><ele>537.4</ele><time>2026-04-03T10:31:00Z</time></trkpt><trkpt lat="43.539667356838756" lon="11.35613463040621"><ele>535.0</ele><time>2026-04-03T10:31:01Z</time></trkpt><trkpt lat="43.539773252523894" lon="11.356116583884708"><ele>535.0</ele><time>2026-04-03T10:31:02Z</time></trkpt><trkpt lat="43.539879137463295" lon="11.356091627542074"><ele>535.0</ele><time>2026-04-03T10:31:03Z</time></trkpt><trkpt lat="43.53997670364938" lon="11.356070641965495"><ele>535.0</ele><time>2026-04-03T10:31:04Z</time></trkpt><trkpt lat="43.540045017591545" lon="11.356060807213673"><ele>535.0</ele><time>2026-04-03T10:31:05Z</time></trkpt><trkpt lat="43.54010827310041" lon="11.35606501967375"><ele>535.0</ele><time>2026-04-03T10:31:06Z</time></trkpt><trkpt lat="43.54017263996633" lon="11.356093950012461"><ele>535.0</ele><time>2026-04-03T10:31:07Z</time></trkpt><trkpt lat="43.54022433293408" lon="11.356154011727082"><ele>535.0</ele><time>2026-04-03T10:31:08Z</time></trkpt><trkpt lat="43.54027816529655" lon="11.356239992036882"><ele>535.0</ele><time>2026-04-03T10:31:09Z</time></trkpt><trkpt lat="43.54033675119212" lon="11.35634698815568"><ele>535.0</ele><time>2026-04-03T10:31:10Z</time></trkpt><trkpt lat="43.54039418529832" lon="11.356455867542557"><ele>535.0</ele><time>2026-04-03T10:31:11Z</time></trkpt><trkpt lat="43.54046823779961" lon="11.356541130890962"><ele>535.0</ele><time>2026-04-03T10:31:12Z</time></trkpt><trkpt lat="43.54055198721695" lon="11.356607866339909"><ele>537.2</ele><time>2026-04-03T10:31:13Z</time></trkpt><trkpt lat="43.54064656204675" lon="11.356674111733296"><ele>539.4</ele><time>2026-04-03T10:31:14Z</time></trkpt><trkpt lat="43.54075180097768" lon="11.356731685285139"><ele>541.6</ele><time>2026-04-03T10:31:15Z</time></trkpt><trkpt lat="43.54086169905637" lon="11.356787751379713"><ele>543.8</ele><time>2026-04-03T10:31:16Z</time></trkpt><trkpt lat="43.54093576664329" lon="11.356852220882665"><ele>546.0</ele><time>2026-04-03T10:31:17Z</time></trkpt><trkpt lat="43.540984996631025" lon="11.356915886340637"><ele>546.0</ele><time>2026-04-03T10:31:18Z</time></trkpt><trkpt lat="43.5410939686963" lon="11.35702863527886"><ele>546.0</ele><time>2026-04-03T10:31:20Z</time></trkpt><trkpt lat="43.541160077098105" lon="11.357088787119414"><ele>546.0</ele><time>2026-04-03T10:31:20.999Z</time></trkpt><trkpt lat="43.541220611303764" lon="11.357135088800815"><ele>546.0</ele><time>2026-04-03T10:31:21.999Z</time></trkpt><trkpt lat="43.541257017303344" lon="11.357211631340265"><ele>546.0</ele><time>2026-04-03T10:31:27.999Z</time></trkpt><trkpt lat="43.5411868231397" lon="11.357255063740578"><ele>546.0</ele><time>2026-04-03T10:31:29.999Z</time></trkpt><trkpt lat="43.54110289040262" lon="11.357277995373792"><ele>548.6666666666666</ele><time>2026-04-03T10:31:30.999Z</time></trkpt><trkpt lat="43.54103853452577" lon="11.357306070199384"><ele>551.3333333333334</ele><time>2026-04-03T10:31:31.999Z</time></trkpt><trkpt lat="43.54097351192428" lon="11.357349152106053"><ele>554.0</ele><time>2026-04-03T10:31:32.999Z</time></trkpt><trkpt lat="43.540882372288166" lon="11.357320361217255"><ele>556.6666666666667</ele><time>2026-04-03T10:31:33.999Z</time></trkpt><trkpt lat="43.54078842087323" lon="11.357325598161706"><ele>559.3333333333334</ele><time>2026-04-03T10:31:34.999Z</time></trkpt><trkpt lat="43.54067578918087" lon="11.357330431305414"><ele>562.0</ele><time>2026-04-03T10:31:35.999Z</time></trkpt><trkpt lat="43.54055776904578" lon="11.357348025582095"><ele>562.0</ele><time>2026-04-03T10:31:36.999Z</time></trkpt><trkpt lat="43.540433491173346" lon="11.357377158750417"><ele>562.0</ele><time>2026-04-03T10:31:37.999Z</time></trkpt><trkpt lat="43.54030863914577" lon="11.35741474513776"><ele>562.0</ele><time>2026-04-03T10:31:38.999Z</time></trkpt><trkpt lat="43.54019352298988" lon="11.357448678525783"><ele>562.0</ele><time>2026-04-03T10:31:39.999Z</time></trkpt><trkpt lat="43.540081427990714" lon="11.357476954572972"><ele>562.4</ele><time>2026-04-03T10:31:40.999Z</time></trkpt><trkpt lat="43.539968499733234" lon="11.357497448134712"><ele>562.8000000000001</ele><time>2026-04-03T10:31:41.999Z</time></trkpt><trkpt lat="43.539861016644466" lon="11.357511404480178"><ele>563.2</ele><time>2026-04-03T10:31:42.999Z</time></trkpt><trkpt lat="43.53977619989051" lon="11.357533736725507"><ele>563.6</ele><time>2026-04-03T10:31:43.999Z</time></trkpt><trkpt lat="43.53970793195798" lon="11.357565722966175"><ele>564.0</ele><time>2026-04-03T10:31:44.999Z</time></trkpt><trkpt lat="43.53963513230031" lon="11.357612292366344"><ele>564.0</ele><time>2026-04-03T10:31:45.999Z</time></trkpt><trkpt lat="43.53956311560507" lon="11.357671058838976"><ele>564.0</ele><time>2026-04-03T10:31:46.999Z</time></trkpt><trkpt lat="43.53949084621401" lon="11.357749881467853"><ele>564.0</ele><time>2026-04-03T10:31:47.999Z</time></trkpt><trkpt lat="43.53941969860693" lon="11.357825075735418"><ele>564.0</ele><time>2026-04-03T10:31:48.999Z</time></trkpt><trkpt lat="43.53934496831846" lon="11.357894412778428"><ele>564.0</ele><time>2026-04-03T10:31:49.999Z</time></trkpt><trkpt lat="43.53926639049706" lon="11.357946161492846"><ele>564.0</ele><time>2026-04-03T10:31:50.999Z</time></trkpt><trkpt lat="43.53919647672083" lon="11.358015933249554"><ele>567.5</ele><time>2026-04-03T10:31:51.999Z</time></trkpt><trkpt lat="43.53913799439975" lon="11.358096282217964"><ele>571.0</ele><time>2026-04-03T10:31:52.999Z</time></trkpt><trkpt lat="43.53906620547938" lon="11.358151005388038"><ele>574.5</ele><time>2026-04-03T10:31:53.999Z</time></trkpt><trkpt lat="43.53898353399783" lon="11.358180900938526"><ele>578.0</ele><time>2026-04-03T10:31:54.999Z</time></trkpt><trkpt lat="43.53888886571941" lon="11.35821624126459"><ele>581.5</ele><time>2026-04-03T10:31:55.999Z</time></trkpt><trkpt lat="43.53880204417277" lon="11.358278850128086"><ele>585.0</ele><time>2026-04-03T10:31:56.999Z</time></trkpt><trkpt lat="43.5387489667495" lon="11.358373675027877"><ele>583.8</ele><time>2026-04-03T10:31:58.999Z</time></trkpt><trkpt lat="43.538674847516184" lon="11.358459997194828"><ele>582.6</ele><time>2026-04-03T10:32:00.999Z</time></trkpt><trkpt lat="43.53856913224088" lon="11.358539643407857"><ele>581.4</ele><time>2026-04-03T10:32:02.999Z</time></trkpt><trkpt lat="43.53849603606432" lon="11.358586240191189"><ele>580.2</ele><time>2026-04-03T10:32:03.999Z</time></trkpt><trkpt lat="43.538395426293825" lon="11.358645269927202"><ele>579.0</ele><time>2026-04-03T10:32:04.999Z</time></trkpt><trkpt lat="43.538289571083574" lon="11.358694002671834"><ele>579.0</ele><time>2026-04-03T10:32:05.999Z</time></trkpt><trkpt lat="43.53817646089625" lon="11.358734064537538"><ele>579.0</ele><time>2026-04-03T10:32:06.999Z</time></trkpt><trkpt lat="43.53805136955753" lon="11.358773294338578"><ele>579.0</ele><time>2026-04-03T10:32:07.999Z</time></trkpt><trkpt lat="43.53792573886813" lon="11.358825034230177"><ele>579.0</ele><time>2026-04-03T10:32:08.999Z</time></trkpt><trkpt lat="43.537802259570846" lon="11.358877103261118"><ele>583.75</ele><time>2026-04-03T10:32:09.999Z</time></trkpt><trkpt lat="43.53768491149625" lon="11.358914921179773"><ele>588.5</ele><time>2026-04-03T10:32:10.999Z</time></trkpt><trkpt lat="43.53756594686046" lon="11.358929200674151"><ele>593.25</ele><time>2026-04-03T10:32:11.999Z</time></trkpt><trkpt lat="43.53742962159929" lon="11.358923473346973"><ele>598.0</ele><time>2026-04-03T10:32:12.999Z</time></trkpt><trkpt lat="43.53728832902479" lon="11.35891101917367"><ele>598.0</ele><time>2026-04-03T10:32:13.999Z</time></trkpt><trkpt lat="43.537146005364434" lon="11.358895906836127"><ele>598.0</ele><time>2026-04-03T10:32:14.999Z</time></trkpt><trkpt lat="43.53700581339937" lon="11.358884951685475"><ele>598.0</ele><time>2026-04-03T10:32:15.999Z</time></trkpt><trkpt lat="43.536868778069426" lon="11.358877334123175"><ele>598.0</ele><time>2026-04-03T10:32:16.999Z</time></trkpt><trkpt lat="43.53674370091686" lon="11.358870870809627"><ele>594.5</ele><time>2026-04-03T10:32:17.999Z</time></trkpt><trkpt lat="43.53663057022938" lon="11.358855108516533"><ele>591.0</ele><time>2026-04-03T10:32:18.999Z</time></trkpt><trkpt lat="43.53651728200075" lon="11.358813484201924"><ele>587.5</ele><time>2026-04-03T10:32:19.999Z</time></trkpt><trkpt lat="43.53640095856727" lon="11.358768991820025"><ele>584.0</ele><time>2026-04-03T10:32:20.999Z</time></trkpt><trkpt lat="43.53628950660643" lon="11.358751651528632"><ele>584.8</ele><time>2026-04-03T10:32:21.999Z</time></trkpt><trkpt lat="43.536190219759504" lon="11.358711000237756"><ele>585.5999999999999</ele><time>2026-04-03T10:32:22.999Z</time></trkpt><trkpt lat="43.536092786205096" lon="11.358650213776157"><ele>586.4</ele><time>2026-04-03T10:32:23.999Z</time></trkpt><trkpt lat="43.53599735985073" lon="11.358601154352824"><ele>587.1999999999999</ele><time>2026-04-03T10:32:24.999Z</time></trkpt><trkpt lat="43.53590671291704" lon="11.358545467545973"><ele>588.0</ele><time>2026-04-03T10:32:25.999Z</time></trkpt><trkpt lat="43.53582170653391" lon="11.358492656270244"><ele>588.0</ele><time>2026-04-03T10:32:26.999Z</time></trkpt><trkpt lat="43.535744812497704" lon="11.3584541583669"><ele>588.0</ele><time>2026-04-03T10:32:27.999Z</time></trkpt><trkpt lat="43.5356503560477" lon="11.358444643439631"><ele>588.0</ele><time>2026-04-03T10:32:28.999Z</time></trkpt><trkpt lat="43.53554006590253" lon="11.358475469936398"><ele>588.0</ele><time>2026-04-03T10:32:29.999Z</time></trkpt><trkpt lat="43.53543073976189" lon="11.358518113036501"><ele>588.0</ele><time>2026-04-03T10:32:30.999Z</time></trkpt><trkpt lat="43.53533598280375" lon="11.358563006539326"><ele>587.5</ele><time>2026-04-03T10:32:31.999Z</time></trkpt><trkpt lat="43.53525929024921" lon="11.358601010980681"><ele>587.0</ele><time>2026-04-03T10:32:32.999Z</time></trkpt><trkpt lat="43.535196434407204" lon="11.358645929212857"><ele>586.5</ele><time>2026-04-03T10:32:33.999Z</time></trkpt><trkpt lat="43.53514836397841" lon="11.358724315326423"><ele>586.0</ele><time>2026-04-03T10:32:34.999Z</time></trkpt><trkpt lat="43.535107203734775" lon="11.358818475049622"><ele>585.5</ele><time>2026-04-03T10:32:35.999Z</time></trkpt><trkpt lat="43.53507387441312" lon="11.358935376712967"><ele>585.0</ele><time>2026-04-03T10:32:36.999Z</time></trkpt><trkpt lat="43.5350746446903" lon="11.359073536183944"><ele>586.2</ele><time>2026-04-03T10:32:37.999Z</time></trkpt><trkpt lat="43.53506958206426" lon="11.359192967337444"><ele>587.4</ele><time>2026-04-03T10:32:38.999Z</time></trkpt><trkpt lat="43.53507977850738" lon="11.3592927883121"><ele>588.6</ele><time>2026-04-03T10:32:39.999Z</time></trkpt><trkpt lat="43.53506002220015" lon="11.359431367092341"><ele>589.8</ele><time>2026-04-03T10:32:41.999Z</time></trkpt><trkpt lat="43.534931771032056" lon="11.359468995294748"><ele>591.0</ele><time>2026-04-03T10:32:43.999Z</time></trkpt><trkpt lat="43.5348494118254" lon="11.359446348111538"><ele>591.0</ele><time>2026-04-03T10:32:44.999Z</time></trkpt><trkpt lat="43.53476127537476" lon="11.359413944580503"><ele>591.0</ele><time>2026-04-03T10:32:45.999Z</time></trkpt><trkpt lat="43.53465941851588" lon="11.359385812063776"><ele>591.0</ele><time>2026-04-03T10:32:46.999Z</time></trkpt><trkpt lat="43.53455732786929" lon="11.359370291512608"><ele>591.0</ele><time>2026-04-03T10:32:47.999Z</time></trkpt><trkpt lat="43.534459935664465" lon="11.35936720556275"><ele>591.0</ele><time>2026-04-03T10:32:48.998Z</time></trkpt><trkpt lat="43.534357399871894" lon="11.359349250976509"><ele>593.0</ele><time>2026-04-03T10:32:49.998Z</time></trkpt><trkpt lat="43.534260994739256" lon="11.359394557621973"><ele>595.0</ele><time>2026-04-03T10:32:50.998Z</time></trkpt><trkpt lat="43.53416803041491" lon="11.3594240490076"><ele>597.0</ele><time>2026-04-03T10:32:51.998Z</time></trkpt><trkpt lat="43.53407730809316" lon="11.359434861929172"><ele>599.0</ele><time>2026-04-03T10:32:53Z</time></trkpt><trkpt lat="43.53398320539755" lon="11.359466391110548"><ele>601.0</ele><time>2026-04-03T10:32:54Z</time></trkpt><trkpt lat="43.533896055487276" lon="11.359513910550397"><ele>601.0</ele><time>2026-04-03T10:32:55Z</time></trkpt><trkpt lat="43.53379332481764" lon="11.359507749531408"><ele>601.0</ele><time>2026-04-03T10:32:56Z</time></trkpt><trkpt lat="43.53369813956327" lon="11.3594611953847"><ele>601.0</ele><time>2026-04-03T10:32:57Z</time></trkpt><trkpt lat="43.53361036815769" lon="11.359458300017595"><ele>601.0</ele><time>2026-04-03T10:32:58Z</time></trkpt><trkpt lat="43.533516210969" lon="11.359450035811301"><ele>601.0</ele><time>2026-04-03T10:32:59Z</time></trkpt><trkpt lat="43.53341612649269" lon="11.35944966545568"><ele>601.8</ele><time>2026-04-03T10:33:00Z</time></trkpt><trkpt lat="43.533310659361305" lon="11.359456579262229"><ele>602.6</ele><time>2026-04-03T10:33:01Z</time></trkpt><trkpt lat="43.53319872161938" lon="11.359445039890366"><ele>603.4</ele><time>2026-04-03T10:33:02Z</time></trkpt><trkpt lat="43.53309466797928" lon="11.359458282694156"><ele>604.2</ele><time>2026-04-03T10:33:03Z</time></trkpt><trkpt lat="43.533020802823586" lon="11.359489141588682"><ele>605.0</ele><time>2026-04-03T10:33:04Z</time></trkpt><trkpt lat="43.5329359496879" lon="11.35952329074054"><ele>605.5</ele><time>2026-04-03T10:33:07Z</time></trkpt><trkpt lat="43.53283514278595" lon="11.359523246101723"><ele>606.0</ele><time>2026-04-03T10:33:09Z</time></trkpt><trkpt lat="43.532740317042425" lon="11.359530318205993"><ele>606.5</ele><time>2026-04-03T10:33:11Z</time></trkpt><trkpt lat="43.532668710462495" lon="11.359524411701123"><ele>607.0</ele><time>2026-04-03T10:33:13Z</time></trkpt><trkpt lat="43.532586773921025" lon="11.359489859249528"><ele>607.5</ele><time>2026-04-03T10:33:15Z</time></trkpt><trkpt lat="43.532527868405666" lon="11.359454200413879"><ele>608.0</ele><time>2026-04-03T10:33:17Z</time></trkpt><trkpt lat="43.532314126316294" lon="11.359405561951599"><ele>608.0</ele><time>2026-04-03T10:37:49.999Z</time></trkpt><trkpt lat="43.53225157696966" lon="11.359382914892002"><ele>608.0</ele><time>2026-04-03T10:37:51.999Z</time></trkpt><trkpt lat="43.53232325710674" lon="11.359387322736714"><ele>608.0</ele><time>2026-04-03T10:38:13.999Z</time></trkpt><trkpt lat="43.53239513583894" lon="11.359401585291153"><ele>608.0</ele><time>2026-04-03T10:38:31.999Z</time></trkpt><trkpt lat="43.53249171036543" lon="11.35945028738454"><ele>608.0</ele><time>2026-04-03T10:38:34.999Z</time></trkpt><trkpt lat="43.532545547791266" lon="11.359502461770088"><ele>608.0</ele><time>2026-04-03T10:38:36.999Z</time></trkpt><trkpt lat="43.53261578768897" lon="11.359554229512984"><ele>608.0</ele><time>2026-04-03T10:38:40.999Z</time></trkpt><trkpt lat="43.53268418497198" lon="11.35957030602847"><ele>608.0</ele><time>2026-04-03T10:38:41.999Z</time></trkpt><trkpt lat="43.53277250931492" lon="11.359568890689525"><ele>608.0</ele><time>2026-04-03T10:38:42.999Z</time></trkpt><trkpt lat="43.53286917948282" lon="11.359555917530333"><ele>608.0</ele><time>2026-04-03T10:38:43.999Z</time></trkpt><trkpt lat="43.532977657643194" lon="11.359533896181688"><ele>608.0</ele><time>2026-04-03T10:38:44.999Z</time></trkpt><trkpt lat="43.533066094513416" lon="11.359515173729209"><ele>608.1999999999999</ele><time>2026-04-03T10:38:45.999Z</time></trkpt><trkpt lat="43.5331322601467" lon="11.359506463868307"><ele>608.4</ele><time>2026-04-03T10:38:46.999Z</time></trkpt><trkpt lat="43.53320417932753" lon="11.359509257745811"><ele>608.5999999999999</ele><time>2026-04-03T10:38:48.999Z</time></trkpt><trkpt lat="43.53312296160044" lon="11.359532348093966"><ele>608.8</ele><time>2026-04-03T10:39:07.998Z</time></trkpt><trkpt lat="43.533091530295216" lon="11.359767090427676"><ele>609.0</ele><time>2026-04-03T10:39:08.998Z</time></trkpt><trkpt lat="43.53303626407477" lon="11.359868719620126"><ele>609.0</ele><time>2026-04-03T10:39:11Z</time></trkpt><trkpt lat="43.532990098331396" lon="11.359956325314787"><ele>609.0</ele><time>2026-04-03T10:39:13Z</time></trkpt><trkpt lat="43.53293877060834" lon="11.360023338424426"><ele>609.0</ele><time>2026-04-03T10:39:15Z</time></trkpt><trkpt lat="43.532865701493684" lon="11.360082021160105"><ele>609.0</ele><time>2026-04-03T10:39:17Z</time></trkpt><trkpt lat="43.53278948026519" lon="11.360086067610387"><ele>609.0</ele><time>2026-04-03T10:39:19Z</time></trkpt><trkpt lat="43.53269405821334" lon="11.36004641076137"><ele>609.0</ele><time>2026-04-03T10:39:22Z</time></trkpt><trkpt lat="43.53263279103005" lon="11.360000949840638"><ele>609.8</ele><time>2026-04-03T10:39:24Z</time></trkpt><trkpt lat="43.53253009820069" lon="11.359969409276777"><ele>610.5999999999999</ele><time>2026-04-03T10:39:26Z</time></trkpt><trkpt lat="43.53243219620786" lon="11.359953050841174"><ele>611.4</ele><time>2026-04-03T10:39:28Z</time></trkpt><trkpt lat="43.53233921674934" lon="11.359975652429009"><ele>612.1999999999999</ele><time>2026-04-03T10:39:30Z</time></trkpt><trkpt lat="43.53225804933977" lon="11.360026807130726"><ele>613.0</ele><time>2026-04-03T10:39:32Z</time></trkpt><trkpt lat="43.53216763379603" lon="11.360100014703052"><ele>613.0</ele><time>2026-04-03T10:39:34Z</time></trkpt><trkpt lat="43.53207000304237" lon="11.360170487750668"><ele>613.0</ele><time>2026-04-03T10:39:36Z</time></trkpt><trkpt lat="43.531962418492085" lon="11.360198932764218"><ele>613.0</ele><time>2026-04-03T10:39:38Z</time></trkpt><trkpt lat="43.531860366298474" lon="11.36022297112498"><ele>613.0</ele><time>2026-04-03T10:39:40Z</time></trkpt><trkpt lat="43.53175298584565" lon="11.360263081496143"><ele>613.0</ele><time>2026-04-03T10:39:42Z</time></trkpt><trkpt lat="43.531654189300056" lon="11.36029658124356"><ele>614.0</ele><time>2026-04-03T10:39:44Z</time></trkpt><trkpt lat="43.53155858212737" lon="11.360306828600272"><ele>615.0</ele><time>2026-04-03T10:39:46Z</time></trkpt><trkpt lat="43.53144195815999" lon="11.360342127950927"><ele>616.0</ele><time>2026-04-03T10:39:48Z</time></trkpt><trkpt lat="43.531350164969446" lon="11.360365251872727"><ele>617.0</ele><time>2026-04-03T10:39:50Z</time></trkpt><trkpt lat="43.531294447471055" lon="11.360407294946416"><ele>618.0</ele><time>2026-04-03T10:39:51.999Z</time></trkpt><trkpt lat="43.53125919077908" lon="11.360498261131873"><ele>619.0</ele><time>2026-04-03T10:39:53.999Z</time></trkpt><trkpt lat="43.531188438508956" lon="11.360566041937492"><ele>619.0</ele><time>2026-04-03T10:39:55.999Z</time></trkpt><trkpt lat="43.53111930596739" lon="11.360542007181072"><ele>619.0</ele><time>2026-04-03T10:39:57.999Z</time></trkpt><trkpt lat="43.53104367251424" lon="11.360525657073444"><ele>619.0</ele><time>2026-04-03T10:39:59.999Z</time></trkpt><trkpt lat="43.53097399097537" lon="11.360540770356689"><ele>619.0</ele><time>2026-04-03T10:40:02.999Z</time></trkpt><trkpt lat="43.53091929152833" lon="11.360610155215797"><ele>619.0</ele><time>2026-04-03T10:40:05.999Z</time></trkpt><trkpt lat="43.53089532211705" lon="11.360706055639573"><ele>619.0</ele><time>2026-04-03T10:41:30Z</time></trkpt><trkpt lat="43.53091280278039" lon="11.36082479609279"><ele>622.5</ele><time>2026-04-03T10:41:33Z</time></trkpt><trkpt lat="43.53096051541169" lon="11.36090734603302"><ele>626.0</ele><time>2026-04-03T10:41:36Z</time></trkpt><trkpt lat="43.53102433949315" lon="11.360997555356313"><ele>629.5</ele><time>2026-04-03T10:41:39Z</time></trkpt><trkpt lat="43.531081655075376" lon="11.36110436929119"><ele>633.0</ele><time>2026-04-03T10:41:41Z</time></trkpt><trkpt lat="43.53111612142926" lon="11.361211074541563"><ele>636.5</ele><time>2026-04-03T10:41:43Z</time></trkpt><trkpt lat="43.531147840414235" lon="11.361330149551264"><ele>640.0</ele><time>2026-04-03T10:41:46Z</time></trkpt><trkpt lat="43.531170357213696" lon="11.36142104986135"><ele>642.5</ele><time>2026-04-03T10:41:48Z</time></trkpt><trkpt lat="43.53117060737363" lon="11.361510182617007"><ele>645.0</ele><time>2026-04-03T10:41:50Z</time></trkpt><trkpt lat="43.53118417891543" lon="11.361611487784804"><ele>647.5</ele><time>2026-04-03T10:41:52Z</time></trkpt><trkpt lat="43.531246803624235" lon="11.361704045759904"><ele>650.0</ele><time>2026-04-03T10:41:54Z</time></trkpt><trkpt lat="43.53131187791295" lon="11.361752757237488"><ele>652.5</ele><time>2026-04-03T10:41:56Z</time></trkpt><trkpt lat="43.53135919654268" lon="11.361815344946361"><ele>655.0</ele><time>2026-04-03T10:41:58Z</time></trkpt><trkpt lat="43.53142887354933" lon="11.361889968997815"><ele>655.0</ele><time>2026-04-03T10:41:59.999Z</time></trkpt><trkpt lat="43.53151384058686" lon="11.361987000721887"><ele>655.0</ele><time>2026-04-03T10:42:01.999Z</time></trkpt><trkpt lat="43.531613301509" lon="11.362113305675349"><ele>655.0</ele><time>2026-04-03T10:42:03.999Z</time></trkpt><trkpt lat="43.53168254546627" lon="11.362205393665878"><ele>655.0</ele><time>2026-04-03T10:42:05.999Z</time></trkpt><trkpt lat="43.5317496163797" lon="11.362277377654534"><ele>655.0</ele><time>2026-04-03T10:42:07.999Z</time></trkpt><trkpt lat="43.53180303051931" lon="11.362359013248609"><ele>656.8</ele><time>2026-04-03T10:42:09.999Z</time></trkpt><trkpt lat="43.531895732885964" lon="11.3624519555396"><ele>658.6</ele><time>2026-04-03T10:42:11.999Z</time></trkpt><trkpt lat="43.531974327479276" lon="11.362552881672949"><ele>660.4000000000001</ele><time>2026-04-03T10:42:13.999Z</time></trkpt><trkpt lat="43.532084066138836" lon="11.362634188381746"><ele>662.2</ele><time>2026-04-03T10:42:15.999Z</time></trkpt><trkpt lat="43.53215116472819" lon="11.362662872228961"><ele>664.0</ele><time>2026-04-03T10:42:16.999Z</time></trkpt><trkpt lat="43.53220783235395" lon="11.362706677580128"><ele>664.0</ele><time>2026-04-03T10:42:18.999Z</time></trkpt><trkpt lat="43.532192356842536" lon="11.362799268757573"><ele>664.0</ele><time>2026-04-03T10:42:21.999Z</time></trkpt><trkpt lat="43.532135702155834" lon="11.362852855936513"><ele>664.0</ele><time>2026-04-03T10:42:23.999Z</time></trkpt><trkpt lat="43.53208500077749" lon="11.362916231251559"><ele>664.0</ele><time>2026-04-03T10:42:25.999Z</time></trkpt><trkpt lat="43.5320230866917" lon="11.362959778547026"><ele>664.0</ele><time>2026-04-03T10:42:27.999Z</time></trkpt><trkpt lat="43.53194726915489" lon="11.363005746004623"><ele>664.0</ele><time>2026-04-03T10:42:29.999Z</time></trkpt><trkpt lat="43.53184890640742" lon="11.363016743168577"><ele>668.0</ele><time>2026-04-03T10:42:31.999Z</time></trkpt><trkpt lat="43.53175489296357" lon="11.363054520881883"><ele>672.0</ele><time>2026-04-03T10:42:33.999Z</time></trkpt><trkpt lat="43.53169176568081" lon="11.363118319802588"><ele>676.0</ele><time>2026-04-03T10:42:35.999Z</time></trkpt><trkpt lat="43.531687905222" lon="11.36321085754503"><ele>680.0</ele><time>2026-04-03T10:42:37.999Z</time></trkpt><trkpt lat="43.53173876812539" lon="11.363299194918719"><ele>684.0</ele><time>2026-04-03T10:42:39.999Z</time></trkpt><trkpt lat="43.53179303147071" lon="11.3633695076081"><ele>688.0</ele><time>2026-04-03T10:42:42.999Z</time></trkpt><trkpt lat="43.53184974470593" lon="11.363468472575953"><ele>688.0</ele><time>2026-04-03T10:42:43.999Z</time></trkpt><trkpt lat="43.531922631970104" lon="11.3635654457147"><ele>688.0</ele><time>2026-04-03T10:42:45.999Z</time></trkpt><trkpt lat="43.53199111300978" lon="11.363677817227268"><ele>688.0</ele><time>2026-04-03T10:42:47.999Z</time></trkpt><trkpt lat="43.53205372480258" lon="11.363794867376528"><ele>688.0</ele><time>2026-04-03T10:42:49.999Z</time></trkpt><trkpt lat="43.53212760127592" lon="11.363921653014"><ele>688.0</ele><time>2026-04-03T10:42:51.999Z</time></trkpt><trkpt lat="43.53215396145524" lon="11.364001751917286"><ele>690.5999999999999</ele><time>2026-04-03T10:42:52.999Z</time></trkpt><trkpt lat="43.532172148077336" lon="11.36416433817852"><ele>693.1999999999999</ele><time>2026-04-03T10:42:59.999Z</time></trkpt><trkpt lat="43.532181460190984" lon="11.364280095853152"><ele>695.8</ele><time>2026-04-03T10:43:01.999Z</time></trkpt><trkpt lat="43.532221935528774" lon="11.364399778920015"><ele>698.4</ele><time>2026-04-03T10:43:03.999Z</time></trkpt><trkpt lat="43.532313647848866" lon="11.364501567892543"><ele>701.0</ele><time>2026-04-03T10:43:05.999Z</time></trkpt><trkpt lat="43.53242106990486" lon="11.364582901539594"><ele>701.0</ele><time>2026-04-03T10:43:07.999Z</time></trkpt><trkpt lat="43.532486659520174" lon="11.364667318079055"><ele>701.0</ele><time>2026-04-03T10:43:09.999Z</time></trkpt><trkpt lat="43.532542013018045" lon="11.364745866405956"><ele>701.0</ele><time>2026-04-03T10:43:11.999Z</time></trkpt><trkpt lat="43.53261019657729" lon="11.36480475996557"><ele>701.0</ele><time>2026-04-03T10:43:13.999Z</time></trkpt><trkpt lat="43.53265667053076" lon="11.364890415480867"><ele>701.0</ele><time>2026-04-03T10:43:15.999Z</time></trkpt><trkpt lat="43.532701281565764" lon="11.364974143188068"><ele>701.0</ele><time>2026-04-03T10:43:17.999Z</time></trkpt><trkpt lat="43.53276373534301" lon="11.365056049368548"><ele>701.8333333333333</ele><time>2026-04-03T10:43:19.999Z</time></trkpt><trkpt lat="43.53282085320518" lon="11.365131611006605"><ele>702.6666666666666</ele><time>2026-04-03T10:43:21.999Z</time></trkpt><trkpt lat="43.532889980976506" lon="11.36520150469465"><ele>703.5</ele><time>2026-04-03T10:43:24Z</time></trkpt><trkpt lat="43.53296696443681" lon="11.365274528260883"><ele>704.3333333333334</ele><time>2026-04-03T10:43:26Z</time></trkpt><trkpt lat="43.53302797829676" lon="11.365375131952714"><ele>705.1666666666667</ele><time>2026-04-03T10:43:28Z</time></trkpt><trkpt lat="43.533093202829804" lon="11.365451127894067"><ele>706.0</ele><time>2026-04-03T10:43:30Z</time></trkpt><trkpt lat="43.533171672019485" lon="11.365518055436464"><ele>708.1999999999999</ele><time>2026-04-03T10:43:32Z</time></trkpt><trkpt lat="43.533250742255504" lon="11.36558322204938"><ele>710.4</ele><time>2026-04-03T10:43:34Z</time></trkpt><trkpt lat="43.53332710462474" lon="11.365610123429724"><ele>712.6</ele><time>2026-04-03T10:43:36Z</time></trkpt><trkpt lat="43.53341677693258" lon="11.365666983292225"><ele>714.8</ele><time>2026-04-03T10:43:38Z</time></trkpt><trkpt lat="43.53351165100027" lon="11.365758523554197"><ele>717.0</ele><time>2026-04-03T10:43:40Z</time></trkpt><trkpt lat="43.53356759587448" lon="11.3658278624956"><ele>717.0</ele><time>2026-04-03T10:43:42Z</time></trkpt><trkpt lat="43.533662790664884" lon="11.365913657034312"><ele>717.0</ele><time>2026-04-03T10:43:44Z</time></trkpt><trkpt lat="43.53377488658748" lon="11.365981376691328"><ele>717.0</ele><time>2026-04-03T10:43:46Z</time></trkpt><trkpt lat="43.533859484889696" lon="11.366052087563208"><ele>717.0</ele><time>2026-04-03T10:43:48Z</time></trkpt><trkpt lat="43.533955546439955" lon="11.366145430809244"><ele>718.0</ele><time>2026-04-03T10:43:50Z</time></trkpt><trkpt lat="43.53406581914008" lon="11.366208778542436"><ele>719.0</ele><time>2026-04-03T10:43:52Z</time></trkpt><trkpt lat="43.53412684930395" lon="11.366235850840143"><ele>720.0</ele><time>2026-04-03T10:43:53Z</time></trkpt><trkpt lat="43.53421545023381" lon="11.366294256539982"><ele>721.0</ele><time>2026-04-03T10:43:55Z</time></trkpt><trkpt lat="43.53431789960053" lon="11.366338150828001"><ele>722.0</ele><time>2026-04-03T10:43:57Z</time></trkpt><trkpt lat="43.53441365659089" lon="11.366386571285128"><ele>722.0</ele><time>2026-04-03T10:43:59Z</time></trkpt><trkpt lat="43.534490688130276" lon="11.366469913640339"><ele>722.0</ele><time>2026-04-03T10:44:00.999Z</time></trkpt><trkpt lat="43.53460720111816" lon="11.366533055093118"><ele>722.0</ele><time>2026-04-03T10:44:02.999Z</time></trkpt><trkpt lat="43.53467504344552" lon="11.36655995994714"><ele>722.0</ele><time>2026-04-03T10:44:03.999Z</time></trkpt><trkpt lat="43.53473948904003" lon="11.366586502377586"><ele>722.0</ele><time>2026-04-03T10:44:04.999Z</time></trkpt><trkpt lat="43.53480433977735" lon="11.366606071736921"><ele>722.0</ele><time>2026-04-03T10:44:05.999Z</time></trkpt><trkpt lat="43.534866361163395" lon="11.366635353811006"><ele>724.6666666666666</ele><time>2026-04-03T10:44:06.999Z</time></trkpt><trkpt lat="43.53498981002236" lon="11.366711195051769"><ele>727.3333333333333</ele><time>2026-04-03T10:44:08.999Z</time></trkpt><trkpt lat="43.53505784607313" lon="11.36675648962997"><ele>730.0</ele><time>2026-04-03T10:44:09.999Z</time></trkpt><trkpt lat="43.53512484577478" lon="11.366796276428486"><ele>732.6666666666666</ele><time>2026-04-03T10:44:10.999Z</time></trkpt><trkpt lat="43.53518747093319" lon="11.366839693378788"><ele>735.3333333333334</ele><time>2026-04-03T10:44:11.999Z</time></trkpt><trkpt lat="43.53524613492897" lon="11.36688207250689"><ele>738.0</ele><time>2026-04-03T10:44:12.999Z</time></trkpt><trkpt lat="43.53534588094948" lon="11.36694754247087"><ele>739.8</ele><time>2026-04-03T10:44:14.999Z</time></trkpt><trkpt lat="43.53541695988627" lon="11.3669750737042"><ele>741.5999999999999</ele><time>2026-04-03T10:44:16.999Z</time></trkpt><trkpt lat="43.53550778903079" lon="11.366986534857395"><ele>743.4000000000001</ele><time>2026-04-03T10:44:18.999Z</time></trkpt><trkpt lat="43.535594422166575" lon="11.367017939511593"><ele>745.2</ele><time>2026-04-03T10:44:20.999Z</time></trkpt><trkpt lat="43.53569698598921" lon="11.367074859140828"><ele>747.0</ele><time>2026-04-03T10:44:22.999Z</time></trkpt><trkpt lat="43.53580200811913" lon="11.367086948483918"><ele>747.0</ele><time>2026-04-03T10:44:24.999Z</time></trkpt><trkpt lat="43.53588156375428" lon="11.367131358643286"><ele>747.0</ele><time>2026-04-03T10:44:26.999Z</time></trkpt><trkpt lat="43.535977720240325" lon="11.367142573073975"><ele>747.0</ele><time>2026-04-03T10:44:28.999Z</time></trkpt><trkpt lat="43.536068018652884" lon="11.367150999353312"><ele>747.0</ele><time>2026-04-03T10:44:30.999Z</time></trkpt><trkpt lat="43.53615672139094" lon="11.367165214133562"><ele>747.0</ele><time>2026-04-03T10:44:32.999Z</time></trkpt><trkpt lat="43.536266064324096" lon="11.367174330005263"><ele>749.0</ele><time>2026-04-03T10:44:34.999Z</time></trkpt><trkpt lat="43.536372808886775" lon="11.36719210666966"><ele>751.0</ele><time>2026-04-03T10:44:36.999Z</time></trkpt><trkpt lat="43.53648086413995" lon="11.367175591012925"><ele>753.0</ele><time>2026-04-03T10:44:38.999Z</time></trkpt><trkpt lat="43.53656409141664" lon="11.367194750394676"><ele>755.0</ele><time>2026-04-03T10:44:40.999Z</time></trkpt><trkpt lat="43.536677039568296" lon="11.367187286235554"><ele>757.0</ele><time>2026-04-03T10:44:42.999Z</time></trkpt><trkpt lat="43.53676180546346" lon="11.367168902490748"><ele>757.0</ele><time>2026-04-03T10:44:44.999Z</time></trkpt><trkpt lat="43.53685143914974" lon="11.367164700079107"><ele>757.0</ele><time>2026-04-03T10:44:50.999Z</time></trkpt><trkpt lat="43.53674845168936" lon="11.367177716980631"><ele>757.0</ele><time>2026-04-03T10:45:03.999Z</time></trkpt><trkpt lat="43.53664348134984" lon="11.367198857717728"><ele>757.0</ele><time>2026-04-03T10:45:05.999Z</time></trkpt><trkpt lat="43.536525592067626" lon="11.367202785093708"><ele>757.0</ele><time>2026-04-03T10:45:07.999Z</time></trkpt><trkpt lat="43.53643089091209" lon="11.367181163014955"><ele>757.0</ele><time>2026-04-03T10:45:09.999Z</time></trkpt><trkpt lat="43.53635726638353" lon="11.367169609675258"><ele>757.0</ele><time>2026-04-03T10:45:11.999Z</time></trkpt><trkpt lat="43.53625068752778" lon="11.367166002751098"><ele>757.0</ele><time>2026-04-03T10:45:13.999Z</time></trkpt><trkpt lat="43.53612953622598" lon="11.367172016769143"><ele>757.0</ele><time>2026-04-03T10:45:15.999Z</time></trkpt><trkpt lat="43.5360432864244" lon="11.367152752247467"><ele>757.0</ele><time>2026-04-03T10:45:17.999Z</time></trkpt><trkpt lat="43.53598108485067" lon="11.367123303973461"><ele>755.0</ele><time>2026-04-03T10:45:20.998Z</time></trkpt><trkpt lat="43.53591074341151" lon="11.367123107797497"><ele>753.0</ele><time>2026-04-03T10:45:25.998Z</time></trkpt><trkpt lat="43.5358459633557" lon="11.367105766395994"><ele>751.0</ele><time>2026-04-03T10:45:26.998Z</time></trkpt><trkpt lat="43.535733875737485" lon="11.367046556463816"><ele>749.0</ele><time>2026-04-03T10:45:29Z</time></trkpt><trkpt lat="43.535615122790155" lon="11.367031495590819"><ele>747.0</ele><time>2026-04-03T10:45:31Z</time></trkpt><trkpt lat="43.53551361185595" lon="11.366999655301594"><ele>747.0</ele><time>2026-04-03T10:45:33Z</time></trkpt><trkpt lat="43.535427739799" lon="11.366957886217017"><ele>747.0</ele><time>2026-04-03T10:45:35Z</time></trkpt><trkpt lat="43.535357879276" lon="11.366992595614072"><ele>747.0</ele><time>2026-04-03T10:45:38Z</time></trkpt><trkpt lat="43.53536865324634" lon="11.367115091115151"><ele>747.0</ele><time>2026-04-03T10:45:41Z</time></trkpt><trkpt lat="43.53542998045537" lon="11.367234517096726"><ele>747.0</ele><time>2026-04-03T10:45:44Z</time></trkpt><trkpt lat="43.53548760408374" lon="11.367315488180358"><ele>747.0</ele><time>2026-04-03T10:45:46Z</time></trkpt><trkpt lat="43.53554857432746" lon="11.367377051329044"><ele>746.1666666666666</ele><time>2026-04-03T10:45:48Z</time></trkpt><trkpt lat="43.53561195129734" lon="11.367445549062854"><ele>745.3333333333334</ele><time>2026-04-03T10:45:50Z</time></trkpt><trkpt lat="43.53564810706462" lon="11.367519083022515"><ele>744.5</ele><time>2026-04-03T10:45:52Z</time></trkpt><trkpt lat="43.53567409291618" lon="11.367627409292917"><ele>743.6666666666667</ele><time>2026-04-03T10:45:54Z</time></trkpt><trkpt lat="43.53571724214232" lon="11.367744661930653"><ele>742.8333333333334</ele><time>2026-04-03T10:45:56Z</time></trkpt><trkpt lat="43.53576211200012" lon="11.367827028151895"><ele>742.0</ele><time>2026-04-03T10:45:58Z</time></trkpt><trkpt lat="43.535833996641415" lon="11.367929504242634"><ele>742.0</ele><time>2026-04-03T10:46:00Z</time></trkpt><trkpt lat="43.53592334956213" lon="11.367964236859539"><ele>742.0</ele><time>2026-04-03T10:46:02Z</time></trkpt><trkpt lat="43.53601519092938" lon="11.367999850607168"><ele>742.0</ele><time>2026-04-03T10:46:04Z</time></trkpt><trkpt lat="43.536061810669054" lon="11.368086062183982"><ele>742.0</ele><time>2026-04-03T10:46:06Z</time></trkpt><trkpt lat="43.53604497962662" lon="11.368237936700947"><ele>742.0</ele><time>2026-04-03T10:46:08Z</time></trkpt><trkpt lat="43.53602578583141" lon="11.36834940074019"><ele>741.0</ele><time>2026-04-03T10:46:10Z</time></trkpt><trkpt lat="43.53603161498485" lon="11.368483641170648"><ele>740.0</ele><time>2026-04-03T10:46:11.999Z</time></trkpt><trkpt lat="43.53604549066381" lon="11.36857333166999"><ele>739.0</ele><time>2026-04-03T10:46:12.999Z</time></trkpt><trkpt lat="43.53606853585515" lon="11.36865762341026"><ele>738.0</ele><time>2026-04-03T10:46:13.999Z</time></trkpt><trkpt lat="43.53612317505589" lon="11.368774390683027"><ele>737.0</ele><time>2026-04-03T10:46:15.999Z</time></trkpt><trkpt lat="43.53618917771571" lon="11.368888510974866"><ele>736.0</ele><time>2026-04-03T10:46:17.999Z</time></trkpt><trkpt lat="43.53626010593095" lon="11.368964738708003"><ele>736.0</ele><time>2026-04-03T10:46:19.999Z</time></trkpt><trkpt lat="43.53634635164316" lon="11.369025656048525"><ele>736.0</ele><time>2026-04-03T10:46:21.999Z</time></trkpt><trkpt lat="43.536416105619395" lon="11.369053482667832"><ele>736.0</ele><time>2026-04-03T10:46:23.999Z</time></trkpt><trkpt lat="43.536465200410966" lon="11.369155148420887"><ele>736.0</ele><time>2026-04-03T10:46:25.999Z</time></trkpt><trkpt lat="43.536478906081086" lon="11.369243408050053"><ele>736.0</ele><time>2026-04-03T10:46:28.999Z</time></trkpt><trkpt lat="43.536494276485065" lon="11.36933417546238"><ele>736.0</ele><time>2026-04-03T10:46:30.999Z</time></trkpt><trkpt lat="43.53652036909848" lon="11.369470264374051"><ele>736.0</ele><time>2026-04-03T10:46:32.999Z</time></trkpt><trkpt lat="43.53656464063936" lon="11.369594439233328"><ele>736.0</ele><time>2026-04-03T10:46:34.999Z</time></trkpt><trkpt lat="43.53659452563624" lon="11.369695130287226"><ele>736.0</ele><time>2026-04-03T10:46:36.999Z</time></trkpt><trkpt lat="43.53663799792279" lon="11.369832173562875"><ele>736.0</ele><time>2026-04-03T10:46:38.999Z</time></trkpt><trkpt lat="43.53669673262177" lon="11.369969640991972"><ele>736.0</ele><time>2026-04-03T10:46:40.999Z</time></trkpt><trkpt lat="43.536740310451876" lon="11.370048493564125"><ele>736.3333333333334</ele><time>2026-04-03T10:46:42.999Z</time></trkpt><trkpt lat="43.53677640206426" lon="11.370130179730364"><ele>736.6666666666667</ele><time>2026-04-03T10:46:44.999Z</time></trkpt><trkpt lat="43.53680177075781" lon="11.370216339917526"><ele>737.0</ele><time>2026-04-03T10:46:46.999Z</time></trkpt><trkpt lat="43.53684359435049" lon="11.37034657032588"><ele>737.3333333333334</ele><time>2026-04-03T10:46:48.999Z</time></trkpt><trkpt lat="43.53690497627222" lon="11.370425238017022"><ele>737.6666666666666</ele><time>2026-04-03T10:46:52.999Z</time></trkpt><trkpt lat="43.536998519485955" lon="11.370475096543005"><ele>738.0</ele><time>2026-04-03T10:46:54.999Z</time></trkpt><trkpt lat="43.53705407839385" lon="11.370581079275807"><ele>738.0</ele><time>2026-04-03T10:46:57.999Z</time></trkpt><trkpt lat="43.53705981403429" lon="11.37070722174028"><ele>738.0</ele><time>2026-04-03T10:46:59.999Z</time></trkpt><trkpt lat="43.53704734097211" lon="11.370804407721208"><ele>738.0</ele><time>2026-04-03T10:47:01.999Z</time></trkpt><trkpt lat="43.53707618708153" lon="11.370902717216936"><ele>738.0</ele><time>2026-04-03T10:47:03.999Z</time></trkpt><trkpt lat="43.53711083681826" lon="11.371036646639759"><ele>738.0</ele><time>2026-04-03T10:47:05.999Z</time></trkpt><trkpt lat="43.53717273372715" lon="11.371190081123737"><ele>738.0</ele><time>2026-04-03T10:47:07.999Z</time></trkpt><trkpt lat="43.537206790305405" lon="11.371294187893902"><ele>738.0</ele><time>2026-04-03T10:47:09.999Z</time></trkpt><trkpt lat="43.5372313249045" lon="11.371391669607418"><ele>738.0</ele><time>2026-04-03T10:47:13.999Z</time></trkpt><trkpt lat="43.53726799929034" lon="11.371503663636043"><ele>738.0</ele><time>2026-04-03T10:47:15.999Z</time></trkpt><trkpt lat="43.53728228700863" lon="11.371601901046594"><ele>738.0</ele><time>2026-04-03T10:47:17.999Z</time></trkpt><trkpt lat="43.53728119391613" lon="11.371705051132743"><ele>738.0</ele><time>2026-04-03T10:47:19.999Z</time></trkpt><trkpt lat="43.53728840969195" lon="11.371795025937542"><ele>737.0</ele><time>2026-04-03T10:47:21.999Z</time></trkpt><trkpt lat="43.537326070844806" lon="11.371881474946061"><ele>736.0</ele><time>2026-04-03T10:47:23.999Z</time></trkpt><trkpt lat="43.53736535786976" lon="11.371969905950115"><ele>735.0</ele><time>2026-04-03T10:47:25.999Z</time></trkpt><trkpt lat="43.5373991711323" lon="11.372052043764446"><ele>734.0</ele><time>2026-04-03T10:47:27.999Z</time></trkpt><trkpt lat="43.5374284361106" lon="11.372156813833477"><ele>733.0</ele><time>2026-04-03T10:47:30.999Z</time></trkpt><trkpt lat="43.53744437991918" lon="11.372244749609221"><ele>732.0</ele><time>2026-04-03T10:47:32.998Z</time></trkpt><trkpt lat="43.5374760795373" lon="11.372382969299752"><ele>731.8333333333334</ele><time>2026-04-03T10:47:33.998Z</time></trkpt><trkpt lat="43.53749264908662" lon="11.372481510690871"><ele>731.6666666666666</ele><time>2026-04-03T10:47:36Z</time></trkpt><trkpt lat="43.537494593746246" lon="11.372585117791239"><ele>731.5</ele><time>2026-04-03T10:47:38Z</time></trkpt><trkpt lat="43.53752839419137" lon="11.372700932075773"><ele>731.3333333333333</ele><time>2026-04-03T10:47:40Z</time></trkpt><trkpt lat="43.53759242679586" lon="11.372766116102822"><ele>731.1666666666666</ele><time>2026-04-03T10:47:42Z</time></trkpt><trkpt lat="43.537668838299275" lon="11.372820391583405"><ele>731.0</ele><time>2026-04-03T10:47:44Z</time></trkpt><trkpt lat="43.53773780269013" lon="11.372916386010822"><ele>731.0</ele><time>2026-04-03T10:47:46Z</time></trkpt><trkpt lat="43.53775425269351" lon="11.373011104948684"><ele>731.0</ele><time>2026-04-03T10:47:48Z</time></trkpt><trkpt lat="43.537808716218606" lon="11.373088793467495"><ele>731.0</ele><time>2026-04-03T10:47:50Z</time></trkpt><trkpt lat="43.53784565375771" lon="11.37317959642401"><ele>731.0</ele><time>2026-04-03T10:47:52Z</time></trkpt><trkpt lat="43.53782641432669" lon="11.373262367076649"><ele>731.0</ele><time>2026-04-03T10:47:54Z</time></trkpt><trkpt lat="43.537840765909756" lon="11.373403598832509"><ele>731.0</ele><time>2026-04-03T10:47:56Z</time></trkpt><trkpt lat="43.53784590082249" lon="11.37353390209603"><ele>732.0</ele><time>2026-04-03T10:47:59Z</time></trkpt><trkpt lat="43.53781579620215" lon="11.373612977178734"><ele>733.0</ele><time>2026-04-03T10:48:01Z</time></trkpt><trkpt lat="43.53777708214901" lon="11.373716331974606"><ele>734.0</ele><time>2026-04-03T10:48:03Z</time></trkpt><trkpt lat="43.53774106657667" lon="11.373875080474118"><ele>735.0</ele><time>2026-04-03T10:48:05Z</time></trkpt><trkpt lat="43.53773158588234" lon="11.37399798759916"><ele>736.0</ele><time>2026-04-03T10:48:07Z</time></trkpt><trkpt lat="43.53773637176319" lon="11.37413948684449"><ele>737.0</ele><time>2026-04-03T10:48:09Z</time></trkpt><trkpt lat="43.537741946527134" lon="11.374286667628695"><ele>738.0</ele><time>2026-04-03T10:48:11Z</time></trkpt><trkpt lat="43.53775312145993" lon="11.374392069831963"><ele>739.0</ele><time>2026-04-03T10:48:13Z</time></trkpt><trkpt lat="43.53776072003311" lon="11.37452960454245"><ele>740.0</ele><time>2026-04-03T10:48:16Z</time></trkpt><trkpt lat="43.53774495982377" lon="11.374640022345735"><ele>741.0</ele><time>2026-04-03T10:48:17.999Z</time></trkpt><trkpt lat="43.537739095572455" lon="11.374773455953337"><ele>741.5</ele><time>2026-04-03T10:48:19.999Z</time></trkpt><trkpt lat="43.537735672297984" lon="11.374881884990463"><ele>742.0</ele><time>2026-04-03T10:48:21.999Z</time></trkpt><trkpt lat="43.537724078995055" lon="11.375012729623917"><ele>742.5</ele><time>2026-04-03T10:48:23.999Z</time></trkpt><trkpt lat="43.5377072734819" lon="11.375108124597197"><ele>743.0</ele><time>2026-04-03T10:48:25.999Z</time></trkpt><trkpt lat="43.537700519636715" lon="11.375214495550596"><ele>743.5</ele><time>2026-04-03T10:48:27.999Z</time></trkpt><trkpt lat="43.5376795783264" lon="11.37536202892514"><ele>744.0</ele><time>2026-04-03T10:48:29.999Z</time></trkpt><trkpt lat="43.53768178242851" lon="11.37548329349734"><ele>744.0000000000001</ele><time>2026-04-03T10:48:31.999Z</time></trkpt><trkpt lat="43.53767521291353" lon="11.375587855397846"><ele>744.0</ele><time>2026-04-03T10:48:33.999Z</time></trkpt><trkpt lat="43.537612981725715" lon="11.37562901090365"><ele>744.0</ele><time>2026-04-03T10:48:38.999Z</time></trkpt><trkpt lat="43.53754272922773" lon="11.375656871522693"><ele>744.0</ele><time>2026-04-03T10:48:41.999Z</time></trkpt><trkpt lat="43.53748150429928" lon="11.375581796494455"><ele>744.0</ele><time>2026-04-03T10:48:44.999Z</time></trkpt><trkpt lat="43.5374526527578" lon="11.375500352464304"><ele>744.0000000000001</ele><time>2026-04-03T10:48:47.999Z</time></trkpt><trkpt lat="43.53742314032913" lon="11.375409833408744"><ele>744.0</ele><time>2026-04-03T10:48:49.999Z</time></trkpt><trkpt lat="43.53740260140236" lon="11.375309731007688"><ele>744.0</ele><time>2026-04-03T10:48:51.999Z</time></trkpt><trkpt lat="43.53735839704792" lon="11.375240324156659"><ele>744.0</ele><time>2026-04-03T10:49:34.999Z</time></trkpt><trkpt lat="43.53735053503996" lon="11.375119330141976"><ele>744.0</ele><time>2026-04-03T10:49:36.999Z</time></trkpt><trkpt lat="43.53735016310061" lon="11.37502671988082"><ele>744.0</ele><time>2026-04-03T10:49:37.999Z</time></trkpt><trkpt lat="43.537332007907274" lon="11.374933017739028"><ele>744.0</ele><time>2026-04-03T10:49:40Z</time></trkpt><trkpt lat="43.537282066853514" lon="11.374803099308581"><ele>744.0</ele><time>2026-04-03T10:49:43Z</time></trkpt><trkpt lat="43.53725113977531" lon="11.374696086494911"><ele>743.4000000000001</ele><time>2026-04-03T10:49:44Z</time></trkpt><trkpt lat="43.53722326934577" lon="11.374588266622775"><ele>742.8</ele><time>2026-04-03T10:49:46Z</time></trkpt><trkpt lat="43.537178022227614" lon="11.374499516335835"><ele>742.2</ele><time>2026-04-03T10:49:48Z</time></trkpt><trkpt lat="43.537082118165756" lon="11.374437052415663"><ele>741.5999999999999</ele><time>2026-04-03T10:49:51Z</time></trkpt><trkpt lat="43.536965810416206" lon="11.37442887536735"><ele>741.0</ele><time>2026-04-03T10:49:53Z</time></trkpt><trkpt lat="43.53690557408647" lon="11.374334219265005"><ele>742.1999999999999</ele><time>2026-04-03T10:49:55Z</time></trkpt><trkpt lat="43.53688958272839" lon="11.374226992106168"><ele>743.4</ele><time>2026-04-03T10:49:57Z</time></trkpt><trkpt lat="43.536870309071304" lon="11.374079315212963"><ele>744.6</ele><time>2026-04-03T10:49:59Z</time></trkpt><trkpt lat="43.536855095923656" lon="11.373939270382488"><ele>745.8</ele><time>2026-04-03T10:50:01Z</time></trkpt><trkpt lat="43.53683334793938" lon="11.37378340746144"><ele>747.0</ele><time>2026-04-03T10:50:03Z</time></trkpt><trkpt lat="43.5368096985971" lon="11.373662634743352"><ele>747.0</ele><time>2026-04-03T10:50:05Z</time></trkpt><trkpt lat="43.536761971039994" lon="11.373578447858945"><ele>747.0</ele><time>2026-04-03T10:50:07Z</time></trkpt><trkpt lat="43.536658671394" lon="11.373492712167614"><ele>747.0</ele><time>2026-04-03T10:50:09Z</time></trkpt><trkpt lat="43.53655219372078" lon="11.373433732541534"><ele>747.0</ele><time>2026-04-03T10:50:11Z</time></trkpt><trkpt lat="43.53645736124627" lon="11.373402232082727"><ele>747.0</ele><time>2026-04-03T10:50:13Z</time></trkpt><trkpt lat="43.536352305956754" lon="11.373405512087547"><ele>747.0</ele><time>2026-04-03T10:50:15Z</time></trkpt><trkpt lat="43.536263896422525" lon="11.373432348585437"><ele>747.0</ele><time>2026-04-03T10:50:17Z</time></trkpt><trkpt lat="43.53619769854423" lon="11.373481809636537"><ele>747.0</ele><time>2026-04-03T10:50:19Z</time></trkpt><trkpt lat="43.536126735385366" lon="11.373525837730933"><ele>747.0</ele><time>2026-04-03T10:50:21.999Z</time></trkpt><trkpt lat="43.53605191709546" lon="11.373505723647648"><ele>747.0</ele><time>2026-04-03T10:50:24.999Z</time></trkpt><trkpt lat="43.53600313174345" lon="11.373388890183021"><ele>747.0</ele><time>2026-04-03T10:50:26.999Z</time></trkpt><trkpt lat="43.536012980348545" lon="11.373282656474128"><ele>747.6</ele><time>2026-04-03T10:50:28.999Z</time></trkpt><trkpt lat="43.536027205808786" lon="11.373127909292172"><ele>748.2</ele><time>2026-04-03T10:50:30.999Z</time></trkpt><trkpt lat="43.536034665312165" lon="11.372971083443057"><ele>748.8</ele><time>2026-04-03T10:50:32.999Z</time></trkpt><trkpt lat="43.53600597705856" lon="11.372863323385559"><ele>749.4</ele><time>2026-04-03T10:50:34.999Z</time></trkpt><trkpt lat="43.53593162670852" lon="11.372751678040439"><ele>750.0</ele><time>2026-04-03T10:50:36.999Z</time></trkpt><trkpt lat="43.535889383098635" lon="11.372666194535375"><ele>750.0</ele><time>2026-04-03T10:50:37.999Z</time></trkpt><trkpt lat="43.53583297852932" lon="11.372609140069676"><ele>750.0</ele><time>2026-04-03T10:50:38.999Z</time></trkpt><trkpt lat="43.535739460647676" lon="11.372505910164506"><ele>750.0</ele><time>2026-04-03T10:50:40.999Z</time></trkpt><trkpt lat="43.53568777398762" lon="11.372442550594979"><ele>750.0</ele><time>2026-04-03T10:50:41.999Z</time></trkpt><trkpt lat="43.53558509269485" lon="11.37234462771706"><ele>750.0</ele><time>2026-04-03T10:50:43.999Z</time></trkpt><trkpt lat="43.5354656033646" lon="11.372280559743569"><ele>750.0</ele><time>2026-04-03T10:50:45.999Z</time></trkpt><trkpt lat="43.53540399490985" lon="11.37225154288269"><ele>750.0</ele><time>2026-04-03T10:50:46.999Z</time></trkpt><trkpt lat="43.53529767240238" lon="11.372184452198452"><ele>750.0</ele><time>2026-04-03T10:50:48.999Z</time></trkpt><trkpt lat="43.535192158826646" lon="11.372150455546196"><ele>750.0</ele><time>2026-04-03T10:50:50.999Z</time></trkpt><trkpt lat="43.535122475447835" lon="11.37215751625918"><ele>750.0</ele><time>2026-04-03T10:50:52.999Z</time></trkpt><trkpt lat="43.535032212647025" lon="11.372216413295376"><ele>750.0</ele><time>2026-04-03T10:50:55.999Z</time></trkpt><trkpt lat="43.53493209812272" lon="11.372261230285147"><ele>750.0</ele><time>2026-04-03T10:50:57.999Z</time></trkpt><trkpt lat="43.53487638492373" lon="11.372331627254953"><ele>750.0</ele><time>2026-04-03T10:50:59.999Z</time></trkpt><trkpt lat="43.53482684827753" lon="11.37239126820254"><ele>750.0</ele><time>2026-04-03T10:51:02.999Z</time></trkpt><trkpt lat="43.53474646334796" lon="11.372400880272956"><ele>750.0</ele><time>2026-04-03T10:51:04.999Z</time></trkpt><trkpt lat="43.53468322829778" lon="11.372303215990708"><ele>750.0</ele><time>2026-04-03T10:51:06.999Z</time></trkpt><trkpt lat="43.534639083302686" lon="11.372237341033683"><ele>750.0</ele><time>2026-04-03T10:51:08.999Z</time></trkpt><trkpt lat="43.53457760186281" lon="11.372203358616314"><ele>750.0</ele><time>2026-04-03T10:51:09.999Z</time></trkpt><trkpt lat="43.534454921345684" lon="11.372174421721468"><ele>750.0</ele><time>2026-04-03T10:51:11.999Z</time></trkpt><trkpt lat="43.53434908962283" lon="11.372154554434548"><ele>750.0</ele><time>2026-04-03T10:51:13.999Z</time></trkpt><trkpt lat="43.53426464581491" lon="11.372060179933058"><ele>750.0</ele><time>2026-04-03T10:51:15.999Z</time></trkpt><trkpt lat="43.53423954880137" lon="11.371926579522663"><ele>748.5</ele><time>2026-04-03T10:51:17.999Z</time></trkpt><trkpt lat="43.534169123182345" lon="11.371800612387437"><ele>747.0</ele><time>2026-04-03T10:51:19.999Z</time></trkpt><trkpt lat="43.534112587576175" lon="11.371726079275325"><ele>745.5</ele><time>2026-04-03T10:51:21.999Z</time></trkpt><trkpt lat="43.53406261960109" lon="11.371672940048054"><ele>744.0</ele><time>2026-04-03T10:51:22.999Z</time></trkpt><trkpt lat="43.534004468437736" lon="11.371610548208764"><ele>742.5</ele><time>2026-04-03T10:51:23.999Z</time></trkpt><trkpt lat="43.533938118479405" lon="11.371545287256003"><ele>741.0</ele><time>2026-04-03T10:51:24.999Z</time></trkpt><trkpt lat="43.533874342106905" lon="11.371488000526726"><ele>741.0</ele><time>2026-04-03T10:51:25.999Z</time></trkpt><trkpt lat="43.53381092883449" lon="11.371445992883263"><ele>741.0</ele><time>2026-04-03T10:51:26.999Z</time></trkpt><trkpt lat="43.53374734887107" lon="11.371406131167602"><ele>741.0</ele><time>2026-04-03T10:51:27.999Z</time></trkpt><trkpt lat="43.53363669186038" lon="11.371373961872711"><ele>741.0</ele><time>2026-04-03T10:51:29.999Z</time></trkpt><trkpt lat="43.53354723218653" lon="11.37137037228472"><ele>741.0</ele><time>2026-04-03T10:51:31.999Z</time></trkpt><trkpt lat="43.533469086618396" lon="11.371288721237104"><ele>741.0</ele><time>2026-04-03T10:51:34.999Z</time></trkpt><trkpt lat="43.533420405558836" lon="11.371232274986342"><ele>740.0</ele><time>2026-04-03T10:51:35.999Z</time></trkpt><trkpt lat="43.53335807122636" lon="11.371183528720737"><ele>739.0</ele><time>2026-04-03T10:51:36.999Z</time></trkpt><trkpt lat="43.53324043450504" lon="11.37111490186765"><ele>738.0</ele><time>2026-04-03T10:51:38.999Z</time></trkpt><trkpt lat="43.533131344881845" lon="11.371067149914728"><ele>737.0</ele><time>2026-04-03T10:51:40.998Z</time></trkpt><trkpt lat="43.533021728752146" lon="11.371015622707832"><ele>736.0</ele><time>2026-04-03T10:51:42.998Z</time></trkpt><trkpt lat="43.5329331348428" lon="11.370947339189533"><ele>738.4</ele><time>2026-04-03T10:51:44.998Z</time></trkpt><trkpt lat="43.532832664797105" lon="11.370876616854211"><ele>740.8</ele><time>2026-04-03T10:51:47Z</time></trkpt><trkpt lat="43.53277798142384" lon="11.370827806504499"><ele>743.1999999999999</ele><time>2026-04-03T10:51:48Z</time></trkpt><trkpt lat="43.53272597449179" lon="11.370776040538209"><ele>745.5999999999999</ele><time>2026-04-03T10:51:49Z</time></trkpt><trkpt lat="43.53262356206257" lon="11.370685936425591"><ele>748.0</ele><time>2026-04-03T10:51:51Z</time></trkpt><trkpt lat="43.532541455763" lon="11.370579405563198"><ele>745.0</ele><time>2026-04-03T10:51:53Z</time></trkpt><trkpt lat="43.53244732108767" lon="11.37045346699355"><ele>742.0</ele><time>2026-04-03T10:51:55Z</time></trkpt><trkpt lat="43.5323772672572" lon="11.370387828021805"><ele>739.0</ele><time>2026-04-03T10:51:56Z</time></trkpt><trkpt lat="43.532315378954465" lon="11.370341314178035"><ele>736.0</ele><time>2026-04-03T10:51:57Z</time></trkpt><trkpt lat="43.532253729741726" lon="11.370294740390005"><ele>733.0</ele><time>2026-04-03T10:51:58Z</time></trkpt><trkpt lat="43.53219368047059" lon="11.370251910027358"><ele>730.0</ele><time>2026-04-03T10:51:59Z</time></trkpt><trkpt lat="43.532133436571044" lon="11.370199064269585"><ele>730.0000000000001</ele><time>2026-04-03T10:52:00Z</time></trkpt><trkpt lat="43.53208545134737" lon="11.370137904839636"><ele>730.0</ele><time>2026-04-03T10:52:01Z</time></trkpt><trkpt lat="43.53203763947442" lon="11.370068344908445"><ele>730.0</ele><time>2026-04-03T10:52:03Z</time></trkpt><trkpt lat="43.53196943373628" lon="11.36999780533145"><ele>730.0</ele><time>2026-04-03T10:52:09Z</time></trkpt><trkpt lat="43.53190412742296" lon="11.369922882073082"><ele>730.0</ele><time>2026-04-03T10:52:11Z</time></trkpt><trkpt lat="43.531873629216676" lon="11.369837753525088"><ele>730.0000000000001</ele><time>2026-04-03T10:52:13Z</time></trkpt><trkpt lat="43.531834813017696" lon="11.369755287232225"><ele>730.0</ele><time>2026-04-03T10:52:16Z</time></trkpt><trkpt lat="43.531768679501724" lon="11.369660028221938"><ele>727.4285714285714</ele><time>2026-04-03T10:52:20Z</time></trkpt><trkpt lat="43.53171141515019" lon="11.369618322202856"><ele>724.8571428571429</ele><time>2026-04-03T10:52:22Z</time></trkpt><trkpt lat="43.53164881638403" lon="11.369597093976598"><ele>722.2857142857142</ele><time>2026-04-03T10:52:24Z</time></trkpt><trkpt lat="43.53157640983367" lon="11.369552122096033"><ele>719.7142857142858</ele><time>2026-04-03T10:52:27Z</time></trkpt><trkpt lat="43.53150422092413" lon="11.369523658442189"><ele>717.1428571428571</ele><time>2026-04-03T10:52:29.999Z</time></trkpt><trkpt lat="43.53143682764062" lon="11.369456792152654"><ele>714.5714285714286</ele><time>2026-04-03T10:52:32.999Z</time></trkpt><trkpt lat="43.53137128268315" lon="11.369415139760434"><ele>712.0</ele><time>2026-04-03T10:52:35.999Z</time></trkpt><trkpt lat="43.53129906349033" lon="11.369352577404717"><ele>712.0</ele><time>2026-04-03T10:52:38.999Z</time></trkpt><trkpt lat="43.53123602578464" lon="11.369364887018273"><ele>712.0</ele><time>2026-04-03T10:52:42.999Z</time></trkpt><trkpt lat="43.53114189447471" lon="11.369484933232254"><ele>712.0</ele><time>2026-04-03T10:52:44.999Z</time></trkpt><trkpt lat="43.53106273194604" lon="11.369617735233794"><ele>712.0</ele><time>2026-04-03T10:52:46.999Z</time></trkpt><trkpt lat="43.53102483789439" lon="11.369757662392544"><ele>712.0</ele><time>2026-04-03T10:52:48.999Z</time></trkpt><trkpt lat="43.530991770943466" lon="11.369897776836753"><ele>712.6666666666667</ele><time>2026-04-03T10:52:50.999Z</time></trkpt><trkpt lat="43.530928885593205" lon="11.369956182130743"><ele>713.3333333333334</ele><time>2026-04-03T10:52:53.999Z</time></trkpt><trkpt lat="43.53084359923424" lon="11.369968796764018"><ele>714.0</ele><time>2026-04-03T10:52:55.999Z</time></trkpt><trkpt lat="43.53073655188881" lon="11.369883431050724"><ele>714.6666666666666</ele><time>2026-04-03T10:52:57.999Z</time></trkpt><trkpt lat="43.53067255030031" lon="11.369824945049073"><ele>715.3333333333333</ele><time>2026-04-03T10:52:58.999Z</time></trkpt><trkpt lat="43.530605392331466" lon="11.369783462055302"><ele>716.0</ele><time>2026-04-03T10:52:59.999Z</time></trkpt><trkpt lat="43.53054397003631" lon="11.369764335828433"><ele>716.0</ele><time>2026-04-03T10:53:00.999Z</time></trkpt><trkpt lat="43.53047755324089" lon="11.369762113498469"><ele>716.0</ele><time>2026-04-03T10:53:01.999Z</time></trkpt><trkpt lat="43.53036713031309" lon="11.369716126671994"><ele>716.0</ele><time>2026-04-03T10:53:03.999Z</time></trkpt><trkpt lat="43.53028358274715" lon="11.3696308231894"><ele>716.0</ele><time>2026-04-03T10:53:05.999Z</time></trkpt><trkpt lat="43.53021617184017" lon="11.369515337245918"><ele>716.0</ele><time>2026-04-03T10:53:07.999Z</time></trkpt><trkpt lat="43.53012957037885" lon="11.369381649734418"><ele>716.1666666666666</ele><time>2026-04-03T10:53:09.999Z</time></trkpt><trkpt lat="43.53006767900219" lon="11.36932231018404"><ele>716.3333333333333</ele><time>2026-04-03T10:53:10.999Z</time></trkpt><trkpt lat="43.529996237432904" lon="11.369277477572385"><ele>716.5</ele><time>2026-04-03T10:53:11.999Z</time></trkpt><trkpt lat="43.52994019921179" lon="11.36922996922839"><ele>716.6666666666666</ele><time>2026-04-03T10:53:12.999Z</time></trkpt><trkpt lat="43.529895343023206" lon="11.369092773344423"><ele>716.8333333333334</ele><time>2026-04-03T10:53:14.999Z</time></trkpt><trkpt lat="43.529877489002736" lon="11.368962432635366"><ele>717.0</ele><time>2026-04-03T10:53:16.999Z</time></trkpt><trkpt lat="43.52984047502411" lon="11.368812362713003"><ele>717.0</ele><time>2026-04-03T10:53:18.999Z</time></trkpt><trkpt lat="43.52981310021524" lon="11.368712267333134"><ele>717.0</ele><time>2026-04-03T10:53:19.999Z</time></trkpt><trkpt lat="43.52977914280154" lon="11.368617188666407"><ele>717.0</ele><time>2026-04-03T10:53:20.999Z</time></trkpt><trkpt lat="43.5297353810462" lon="11.368531182985045"><ele>717.0</ele><time>2026-04-03T10:53:21.999Z</time></trkpt><trkpt lat="43.529687942162255" lon="11.368451090015435"><ele>717.0</ele><time>2026-04-03T10:53:22.999Z</time></trkpt><trkpt lat="43.529638648852774" lon="11.368374194954985"><ele>717.0</ele><time>2026-04-03T10:53:23.999Z</time></trkpt><trkpt lat="43.52958628786429" lon="11.368293032000503"><ele>717.5</ele><time>2026-04-03T10:53:24.999Z</time></trkpt><trkpt lat="43.52952620264847" lon="11.368217628791323"><ele>718.0</ele><time>2026-04-03T10:53:25.999Z</time></trkpt><trkpt lat="43.52945988565711" lon="11.368141652291651"><ele>718.5</ele><time>2026-04-03T10:53:26.999Z</time></trkpt><trkpt lat="43.52939525449673" lon="11.368053986422455"><ele>719.0</ele><time>2026-04-03T10:53:27.999Z</time></trkpt><trkpt lat="43.5293465485008" lon="11.367978589317639"><ele>719.5</ele><time>2026-04-03T10:53:28.999Z</time></trkpt><trkpt lat="43.52930289363219" lon="11.367911442283784"><ele>720.0</ele><time>2026-04-03T10:53:29.999Z</time></trkpt><trkpt lat="43.529253557185484" lon="11.367851537499316"><ele>720.0</ele><time>2026-04-03T10:53:30.999Z</time></trkpt><trkpt lat="43.52920712387505" lon="11.36779166929706"><ele>720.0</ele><time>2026-04-03T10:53:31.999Z</time></trkpt><trkpt lat="43.52915838538284" lon="11.367727973259875"><ele>720.0</ele><time>2026-04-03T10:53:32.999Z</time></trkpt><trkpt lat="43.52909381245902" lon="11.367679595750142"><ele>720.0</ele><time>2026-04-03T10:53:33.999Z</time></trkpt><trkpt lat="43.52902557541771" lon="11.367638368419925"><ele>720.0</ele><time>2026-04-03T10:53:34.999Z</time></trkpt><trkpt lat="43.528956365549845" lon="11.367595629240688"><ele>720.0</ele><time>2026-04-03T10:53:35.999Z</time></trkpt><trkpt lat="43.528887978412556" lon="11.367560178045302"><ele>720.0</ele><time>2026-04-03T10:53:36.999Z</time></trkpt><trkpt lat="43.528790143931836" lon="11.367532277475586"><ele>720.0</ele><time>2026-04-03T10:53:38.999Z</time></trkpt><trkpt lat="43.52869894287817" lon="11.367553722246935"><ele>720.0</ele><time>2026-04-03T10:53:40.999Z</time></trkpt><trkpt lat="43.52864103502795" lon="11.36759234454538"><ele>720.0</ele><time>2026-04-03T10:53:41.999Z</time></trkpt><trkpt lat="43.52858294134745" lon="11.367649612159411"><ele>720.0</ele><time>2026-04-03T10:53:42.999Z</time></trkpt><trkpt lat="43.52852771887126" lon="11.367704329862931"><ele>720.0</ele><time>2026-04-03T10:53:43.999Z</time></trkpt><trkpt lat="43.528472522830604" lon="11.367750397571898"><ele>720.0</ele><time>2026-04-03T10:53:46.999Z</time></trkpt><trkpt lat="43.5283959082564" lon="11.367795634704157"><ele>720.0</ele><time>2026-04-03T10:53:49.998Z</time></trkpt><trkpt lat="43.528308395600625" lon="11.36780218953003"><ele>720.0</ele><time>2026-04-03T10:53:52Z</time></trkpt><trkpt lat="43.528202970782985" lon="11.367773433355264"><ele>720.0</ele><time>2026-04-03T10:53:54Z</time></trkpt><trkpt lat="43.528102021965026" lon="11.367740020014473"><ele>720.0</ele><time>2026-04-03T10:53:56Z</time></trkpt><trkpt lat="43.527990287811896" lon="11.36768829574749"><ele>720.0</ele><time>2026-04-03T10:53:58Z</time></trkpt><trkpt lat="43.527929691543925" lon="11.36765980898594"><ele>720.0</ele><time>2026-04-03T10:53:59Z</time></trkpt><trkpt lat="43.52783358857304" lon="11.367607963738832"><ele>720.0</ele><time>2026-04-03T10:54:01Z</time></trkpt><trkpt lat="43.527800723920656" lon="11.367691623668817"><ele>720.0</ele><time>2026-04-03T10:54:04Z</time></trkpt><trkpt lat="43.52785053443781" lon="11.367780219349417"><ele>720.0</ele><time>2026-04-03T10:54:06Z</time></trkpt><trkpt lat="43.5278887962712" lon="11.367885625988214"><ele>720.0</ele><time>2026-04-03T10:54:08Z</time></trkpt><trkpt lat="43.52793001532465" lon="11.367980793732093"><ele>720.0</ele><time>2026-04-03T10:54:10Z</time></trkpt><trkpt lat="43.52795812450282" lon="11.368077202459324"><ele>720.0</ele><time>2026-04-03T10:54:12Z</time></trkpt><trkpt lat="43.52800860036917" lon="11.368178695431546"><ele>721.6666666666666</ele><time>2026-04-03T10:54:14Z</time></trkpt><trkpt lat="43.52806797103061" lon="11.368266629145998"><ele>723.3333333333334</ele><time>2026-04-03T10:54:16Z</time></trkpt><trkpt lat="43.528134322894346" lon="11.368333630734924"><ele>725.0</ele><time>2026-04-03T10:54:18Z</time></trkpt><trkpt lat="43.52818924418913" lon="11.368403033628326"><ele>726.6666666666667</ele><time>2026-04-03T10:54:20Z</time></trkpt><trkpt lat="43.528255175611505" lon="11.368453940886925"><ele>728.3333333333334</ele><time>2026-04-03T10:54:22Z</time></trkpt><trkpt lat="43.528344433183165" lon="11.36851118410435"><ele>730.0</ele><time>2026-04-03T10:54:24Z</time></trkpt><trkpt lat="43.52841763300184" lon="11.368602033965685"><ele>730.0</ele><time>2026-04-03T10:54:26Z</time></trkpt><trkpt lat="43.52846705282018" lon="11.368704331380318"><ele>730.0</ele><time>2026-04-03T10:54:28Z</time></trkpt><trkpt lat="43.52852815800699" lon="11.368789364893646"><ele>730.0</ele><time>2026-04-03T10:54:30Z</time></trkpt><trkpt lat="43.52858157699694" lon="11.368897514538082"><ele>730.0</ele><time>2026-04-03T10:54:32Z</time></trkpt><trkpt lat="43.52863562234073" lon="11.368983625686916"><ele>730.0</ele><time>2026-04-03T10:54:33.999Z</time></trkpt><trkpt lat="43.528699521651085" lon="11.369054052410592"><ele>730.0</ele><time>2026-04-03T10:54:35.999Z</time></trkpt><trkpt lat="43.52876821297586" lon="11.369171986570636"><ele>732.6</ele><time>2026-04-03T10:54:37.999Z</time></trkpt><trkpt lat="43.5288026146205" lon="11.369338824577186"><ele>735.2</ele><time>2026-04-03T10:54:39.999Z</time></trkpt><trkpt lat="43.528814003758924" lon="11.369434582178956"><ele>737.8</ele><time>2026-04-03T10:54:40.999Z</time></trkpt><trkpt lat="43.52884359648974" lon="11.369526013244847"><ele>740.4</ele><time>2026-04-03T10:54:41.999Z</time></trkpt><trkpt lat="43.5289169764032" lon="11.369661962823166"><ele>743.0</ele><time>2026-04-03T10:54:43.999Z</time></trkpt><trkpt lat="43.52897245222049" lon="11.36978105217979"><ele>744.5</ele><time>2026-04-03T10:54:45.999Z</time></trkpt><trkpt lat="43.5289946261109" lon="11.369901017501528"><ele>746.0</ele><time>2026-04-03T10:54:47.999Z</time></trkpt><trkpt lat="43.52904239012989" lon="11.370028023317476"><ele>747.5</ele><time>2026-04-03T10:54:49.999Z</time></trkpt><trkpt lat="43.52908859243476" lon="11.3700940637115"><ele>749.0</ele><time>2026-04-03T10:54:50.999Z</time></trkpt><trkpt lat="43.52913575582516" lon="11.37015780337785"><ele>750.5</ele><time>2026-04-03T10:54:51.999Z</time></trkpt><trkpt lat="43.52919859407457" lon="11.370292980085706"><ele>752.0</ele><time>2026-04-03T10:54:53.999Z</time></trkpt><trkpt lat="43.529222232652195" lon="11.370395612640577"><ele>752.0</ele><time>2026-04-03T10:54:54.999Z</time></trkpt><trkpt lat="43.52923986303807" lon="11.370493839214483"><ele>752.0</ele><time>2026-04-03T10:54:55.999Z</time></trkpt><trkpt lat="43.5292467660903" lon="11.37065708432269"><ele>752.0</ele><time>2026-04-03T10:54:57.999Z</time></trkpt><trkpt lat="43.52925766674233" lon="11.370769870432316"><ele>752.0</ele><time>2026-04-03T10:54:59.999Z</time></trkpt><trkpt lat="43.52927466883041" lon="11.370872182709794"><ele>752.0</ele><time>2026-04-03T10:55:01.999Z</time></trkpt><trkpt lat="43.529284896823754" lon="11.370980762156416"><ele>752.0</ele><time>2026-04-03T10:55:03.999Z</time></trkpt><trkpt lat="43.52931032165573" lon="11.371147206166315"><ele>753.2</ele><time>2026-04-03T10:55:05.999Z</time></trkpt><trkpt lat="43.5293488309408" lon="11.37126451144091"><ele>754.4000000000001</ele><time>2026-04-03T10:55:06.999Z</time></trkpt><trkpt lat="43.52937818503133" lon="11.371387832977026"><ele>755.5999999999999</ele><time>2026-04-03T10:55:07.999Z</time></trkpt><trkpt lat="43.529396199979075" lon="11.37152474758421"><ele>756.8</ele><time>2026-04-03T10:55:09.999Z</time></trkpt><trkpt lat="43.529408170918956" lon="11.371652777664336"><ele>758.0</ele><time>2026-04-03T10:55:11.999Z</time></trkpt><trkpt lat="43.52941828914169" lon="11.371776272866958"><ele>759.0</ele><time>2026-04-03T10:55:13.999Z</time></trkpt><trkpt lat="43.52946750587776" lon="11.371925372494315"><ele>760.0</ele><time>2026-04-03T10:55:15.999Z</time></trkpt><trkpt lat="43.529484854438465" lon="11.372097427671989"><ele>761.0</ele><time>2026-04-03T10:55:17.999Z</time></trkpt><trkpt lat="43.5294922774944" lon="11.372194697889876"><ele>762.0</ele><time>2026-04-03T10:55:18.999Z</time></trkpt><trkpt lat="43.529509024207755" lon="11.372312505553124"><ele>763.0</ele><time>2026-04-03T10:55:19.999Z</time></trkpt><trkpt lat="43.52954146448782" lon="11.372418211281973"><ele>764.2857142857143</ele><time>2026-04-03T10:55:20.999Z</time></trkpt><trkpt lat="43.52957444283681" lon="11.372510249776548"><ele>765.5714285714286</ele><time>2026-04-03T10:55:21.999Z</time></trkpt><trkpt lat="43.52960785738645" lon="11.372594008642524"><ele>766.8571428571429</ele><time>2026-04-03T10:55:22.999Z</time></trkpt><trkpt lat="43.52964540752304" lon="11.372683170615622"><ele>768.1428571428571</ele><time>2026-04-03T10:55:23.999Z</time></trkpt><trkpt lat="43.5296876408344" lon="11.372754404291685"><ele>769.4285714285714</ele><time>2026-04-03T10:55:24.999Z</time></trkpt><trkpt lat="43.52973718269937" lon="11.372833921190395"><ele>770.7142857142858</ele><time>2026-04-03T10:55:25.999Z</time></trkpt><trkpt lat="43.52978473302007" lon="11.372910001431368"><ele>772.0</ele><time>2026-04-03T10:55:26.999Z</time></trkpt><trkpt lat="43.5298302807069" lon="11.373004512797404"><ele>772.9999999999999</ele><time>2026-04-03T10:55:28.999Z</time></trkpt><trkpt lat="43.52989487839433" lon="11.373052696870062"><ele>774.0</ele><time>2026-04-03T10:55:30.999Z</time></trkpt><trkpt lat="43.52995229547749" lon="11.373101543251686"><ele>775.0</ele><time>2026-04-03T10:55:32.999Z</time></trkpt><trkpt lat="43.53005935442975" lon="11.37318211398894"><ele>776.0</ele><time>2026-04-03T10:55:34.999Z</time></trkpt><trkpt lat="43.53012311503814" lon="11.373229635275871"><ele>776.9999999999999</ele><time>2026-04-03T10:55:35.999Z</time></trkpt><trkpt lat="43.53018997902163" lon="11.373276487356522"><ele>778.0</ele><time>2026-04-03T10:55:36.999Z</time></trkpt><trkpt lat="43.53024915398539" lon="11.373317534783048"><ele>778.0</ele><time>2026-04-03T10:55:37.999Z</time></trkpt><trkpt lat="43.53034528026944" lon="11.37336145779221"><ele>778.0</ele><time>2026-04-03T10:55:39.999Z</time></trkpt><trkpt lat="43.530428598582475" lon="11.373453961071597"><ele>778.0</ele><time>2026-04-03T10:55:41.999Z</time></trkpt><trkpt lat="43.530469230975775" lon="11.373535704972591"><ele>778.0</ele><time>2026-04-03T10:55:42.999Z</time></trkpt><trkpt lat="43.530505948130674" lon="11.373626872267835"><ele>778.0</ele><time>2026-04-03T10:55:43.999Z</time></trkpt><trkpt lat="43.53055419384737" lon="11.373765208981295"><ele>780.0</ele><time>2026-04-03T10:55:45.999Z</time></trkpt><trkpt lat="43.53057192005193" lon="11.373871550840727"><ele>782.0</ele><time>2026-04-03T10:55:47.999Z</time></trkpt><trkpt lat="43.53062546689653" lon="11.374020388405535"><ele>784.0</ele><time>2026-04-03T10:55:49.999Z</time></trkpt><trkpt lat="43.5306614788267" lon="11.374161498150972"><ele>786.0</ele><time>2026-04-03T10:55:51.999Z</time></trkpt><trkpt lat="43.5307370078335" lon="11.374273431364598"><ele>788.0</ele><time>2026-04-03T10:55:53.998Z</time></trkpt><trkpt lat="43.53073888145108" lon="11.374419549165468"><ele>788.0</ele><time>2026-04-03T10:55:55.998Z</time></trkpt><trkpt lat="43.53076826005197" lon="11.374586424796954"><ele>788.0</ele><time>2026-04-03T10:55:58Z</time></trkpt><trkpt lat="43.53077966381236" lon="11.374762077768711"><ele>788.0</ele><time>2026-04-03T10:56:00Z</time></trkpt><trkpt lat="43.530792934704834" lon="11.374891549549567"><ele>788.0</ele><time>2026-04-03T10:56:02Z</time></trkpt><trkpt lat="43.53081153966807" lon="11.375003184378523"><ele>788.0</ele><time>2026-04-03T10:56:04Z</time></trkpt><trkpt lat="43.53082406056612" lon="11.375162079474558"><ele>789.5000000000001</ele><time>2026-04-03T10:56:06Z</time></trkpt><trkpt lat="43.53083540055673" lon="11.375249646948902"><ele>791.0</ele><time>2026-04-03T10:56:07Z</time></trkpt><trkpt lat="43.53083561450352" lon="11.375386393601646"><ele>792.5</ele><time>2026-04-03T10:56:09Z</time></trkpt><trkpt lat="43.53080578760705" lon="11.375509844401925"><ele>794.0</ele><time>2026-04-03T10:56:11Z</time></trkpt><trkpt lat="43.530802237615944" lon="11.375654901938296"><ele>795.5000000000001</ele><time>2026-04-03T10:56:13Z</time></trkpt><trkpt lat="43.53079442101977" lon="11.375752824134711"><ele>797.0</ele><time>2026-04-03T10:56:14Z</time></trkpt><trkpt lat="43.53079072027858" lon="11.375846489615745"><ele>798.3333333333334</ele><time>2026-04-03T10:56:15Z</time></trkpt><trkpt lat="43.53081050714059" lon="11.375944686477292"><ele>799.6666666666667</ele><time>2026-04-03T10:56:17Z</time></trkpt><trkpt lat="43.53082489230813" lon="11.376127065626916"><ele>801.0</ele><time>2026-04-03T10:56:19Z</time></trkpt><trkpt lat="43.53084211387939" lon="11.376240674998803"><ele>802.3333333333333</ele><time>2026-04-03T10:56:20Z</time></trkpt><trkpt lat="43.53087688331515" lon="11.376343781709762"><ele>803.6666666666666</ele><time>2026-04-03T10:56:21Z</time></trkpt><trkpt lat="43.53090918551887" lon="11.376425197965547"><ele>805.0</ele><time>2026-04-03T10:56:22Z</time></trkpt><trkpt lat="43.53094151136131" lon="11.376520442106477"><ele>806.3333333333333</ele><time>2026-04-03T10:56:23Z</time></trkpt><trkpt lat="43.53097502357822" lon="11.376605789611338"><ele>807.6666666666666</ele><time>2026-04-03T10:56:24Z</time></trkpt><trkpt lat="43.53103051148871" lon="11.37676005312076"><ele>809.0</ele><time>2026-04-03T10:56:26Z</time></trkpt><trkpt lat="43.53106092717417" lon="11.376839987201478"><ele>810.3333333333333</ele><time>2026-04-03T10:56:27Z</time></trkpt><trkpt lat="43.5310939147044" lon="11.376929310292283"><ele>811.6666666666666</ele><time>2026-04-03T10:56:28Z</time></trkpt><trkpt lat="43.53113320072894" lon="11.377021117821814"><ele>813.0</ele><time>2026-04-03T10:56:29Z</time></trkpt><trkpt lat="43.5311800869976" lon="11.377111622586947"><ele>813.1428571428572</ele><time>2026-04-03T10:56:30Z</time></trkpt><trkpt lat="43.53122758312666" lon="11.377199531633902"><ele>813.2857142857142</ele><time>2026-04-03T10:56:31Z</time></trkpt><trkpt lat="43.53127290184941" lon="11.377285450892055"><ele>813.4285714285714</ele><time>2026-04-03T10:56:32Z</time></trkpt><trkpt lat="43.53131518336327" lon="11.37736628049179"><ele>813.5714285714287</ele><time>2026-04-03T10:56:32.999Z</time></trkpt><trkpt lat="43.53135652159213" lon="11.377444307109592"><ele>813.7142857142858</ele><time>2026-04-03T10:56:33.999Z</time></trkpt><trkpt lat="43.53140415738401" lon="11.377522075548432"><ele>813.8571428571429</ele><time>2026-04-03T10:56:34.999Z</time></trkpt><trkpt lat="43.53144959718384" lon="11.377587923075408"><ele>814.0</ele><time>2026-04-03T10:56:35.999Z</time></trkpt><trkpt lat="43.53149108730265" lon="11.377653677210354"><ele>814.0</ele><time>2026-04-03T10:56:36.999Z</time></trkpt><trkpt lat="43.53156258046038" lon="11.377747760567734"><ele>814.0</ele><time>2026-04-03T10:56:38.999Z</time></trkpt><trkpt lat="43.531654097280224" lon="11.377855894936276"><ele>814.0</ele><time>2026-04-03T10:56:40.999Z</time></trkpt><trkpt lat="43.5317505665499" lon="11.377952382211644"><ele>814.0</ele><time>2026-04-03T10:56:42.999Z</time></trkpt><trkpt lat="43.53180695698145" lon="11.378042552984684"><ele>814.0</ele><time>2026-04-03T10:56:44.999Z</time></trkpt><trkpt lat="43.531849288427736" lon="11.378166620927658"><ele>815.3333333333333</ele><time>2026-04-03T10:56:46.999Z</time></trkpt><trkpt lat="43.53188709890872" lon="11.37824969791252"><ele>816.6666666666666</ele><time>2026-04-03T10:56:48.999Z</time></trkpt><trkpt lat="43.53194480044292" lon="11.378352173543455"><ele>818.0</ele><time>2026-04-03T10:56:50.999Z</time></trkpt><trkpt lat="43.531981650137745" lon="11.378426157975259"><ele>819.3333333333333</ele><time>2026-04-03T10:56:52.999Z</time></trkpt><trkpt lat="43.53202907370865" lon="11.378507652161277"><ele>820.6666666666666</ele><time>2026-04-03T10:56:54.999Z</time></trkpt><trkpt lat="43.53207618119987" lon="11.378608390861963"><ele>822.0</ele><time>2026-04-03T10:56:56.999Z</time></trkpt><trkpt lat="43.532111977433445" lon="11.378689303047476"><ele>822.3333333333334</ele><time>2026-04-03T10:56:58.999Z</time></trkpt><trkpt lat="43.53216085762396" lon="11.378751028999673"><ele>822.6666666666667</ele><time>2026-04-03T10:57:00.999Z</time></trkpt><trkpt lat="43.5322115366386" lon="11.378810764382692"><ele>823.0</ele><time>2026-04-03T10:57:02.999Z</time></trkpt><trkpt lat="43.5323093689298" lon="11.378787588146501"><ele>823.3333333333334</ele><time>2026-04-03T10:57:12.999Z</time></trkpt><trkpt lat="43.53240899365593" lon="11.378800256039966"><ele>823.6666666666667</ele><time>2026-04-03T10:57:14.999Z</time></trkpt><trkpt lat="43.53251175986871" lon="11.378855591616347"><ele>824.0</ele><time>2026-04-03T10:57:16.999Z</time></trkpt><trkpt lat="43.532614095477186" lon="11.378885450334282"><ele>825.2</ele><time>2026-04-03T10:57:18.999Z</time></trkpt><trkpt lat="43.532714801691725" lon="11.378901002975232"><ele>826.4000000000001</ele><time>2026-04-03T10:57:20.999Z</time></trkpt><trkpt lat="43.53284053722569" lon="11.378898662632166"><ele>827.6</ele><time>2026-04-03T10:57:22.999Z</time></trkpt><trkpt lat="43.532957339161015" lon="11.37888878184703"><ele>828.8</ele><time>2026-04-03T10:57:24.999Z</time></trkpt><trkpt lat="43.53305609330806" lon="11.37888180552955"><ele>830.0</ele><time>2026-04-03T10:57:26.999Z</time></trkpt><trkpt lat="43.53316360851216" lon="11.378842158494228"><ele>830.0000000000001</ele><time>2026-04-03T10:57:28.999Z</time></trkpt><trkpt lat="43.53323264405988" lon="11.378802341469154"><ele>830.0</ele><time>2026-04-03T10:57:29.999Z</time></trkpt><trkpt lat="43.533305248055036" lon="11.378758074971932"><ele>830.0</ele><time>2026-04-03T10:57:30.999Z</time></trkpt><trkpt lat="43.533411878776164" lon="11.378674218655584"><ele>830.0</ele><time>2026-04-03T10:57:32.999Z</time></trkpt><trkpt lat="43.53346551251434" lon="11.3786227094505"><ele>830.0000000000001</ele><time>2026-04-03T10:57:33.999Z</time></trkpt><trkpt lat="43.53351752850202" lon="11.378573033760416"><ele>830.0</ele><time>2026-04-03T10:57:34.999Z</time></trkpt><trkpt lat="43.53359365322618" lon="11.37848747305384"><ele>830.0000000000001</ele><time>2026-04-03T10:57:36.999Z</time></trkpt><trkpt lat="43.533653225506306" lon="11.378429991579281"><ele>830.0</ele><time>2026-04-03T10:57:37.999Z</time></trkpt><trkpt lat="43.53371275926949" lon="11.378364353170484"><ele>830.0</ele><time>2026-04-03T10:57:38.999Z</time></trkpt><trkpt lat="43.533762697445724" lon="11.378293465824282"><ele>830.0</ele><time>2026-04-03T10:57:39.999Z</time></trkpt><trkpt lat="43.53381112666076" lon="11.37822711703155"><ele>830.0000000000001</ele><time>2026-04-03T10:57:40.999Z</time></trkpt><trkpt lat="43.53387239764428" lon="11.37819598053351"><ele>830.0</ele><time>2026-04-03T10:57:41.999Z</time></trkpt><trkpt lat="43.53396975594776" lon="11.378192018472225"><ele>831.5</ele><time>2026-04-03T10:57:43.999Z</time></trkpt><trkpt lat="43.53408122017617" lon="11.378227954901202"><ele>833.0</ele><time>2026-04-03T10:57:45.999Z</time></trkpt><trkpt lat="43.53419103615202" lon="11.378221247590995"><ele>834.5</ele><time>2026-04-03T10:57:47.999Z</time></trkpt><trkpt lat="43.53430000514175" lon="11.378214763271606"><ele>836.0</ele><time>2026-04-03T10:57:49.999Z</time></trkpt><trkpt lat="43.534416238587625" lon="11.378179087423408"><ele>836.0000000000001</ele><time>2026-04-03T10:57:51.999Z</time></trkpt><trkpt lat="43.53447767194406" lon="11.378147729746336"><ele>836.0</ele><time>2026-04-03T10:57:53.999Z</time></trkpt><trkpt lat="43.53453347496308" lon="11.378205458816458"><ele>836.0</ele><time>2026-04-03T10:57:59.998Z</time></trkpt><trkpt lat="43.534583303261044" lon="11.378339019777686"><ele>836.0</ele><time>2026-04-03T10:58:01.998Z</time></trkpt><trkpt lat="43.53463056799396" lon="11.378472154081557"><ele>836.0000000000001</ele><time>2026-04-03T10:58:04Z</time></trkpt><trkpt lat="43.5346783193678" lon="11.378575658585138"><ele>836.0</ele><time>2026-04-03T10:58:06Z</time></trkpt><trkpt lat="43.53473811466015" lon="11.378688374321406"><ele>835.6666666666667</ele><time>2026-04-03T10:58:08Z</time></trkpt><trkpt lat="43.534782724304144" lon="11.378762584458247"><ele>835.3333333333334</ele><time>2026-04-03T10:58:10Z</time></trkpt><trkpt lat="43.53482746298457" lon="11.378857863018348"><ele>835.0</ele><time>2026-04-03T10:58:12Z</time></trkpt><trkpt lat="43.534870506361216" lon="11.378958904639727"><ele>834.6666666666667</ele><time>2026-04-03T10:58:14Z</time></trkpt><trkpt lat="43.534895190982674" lon="11.379045178384494"><ele>834.3333333333334</ele><time>2026-04-03T10:58:17Z</time></trkpt><trkpt lat="43.534946057404724" lon="11.379181271708289"><ele>834.0</ele><time>2026-04-03T10:58:19Z</time></trkpt><trkpt lat="43.534987377179924" lon="11.37929738690853"><ele>832.6666666666666</ele><time>2026-04-03T10:58:21Z</time></trkpt><trkpt lat="43.53503014966662" lon="11.379401813027263"><ele>831.3333333333333</ele><time>2026-04-03T10:58:23Z</time></trkpt><trkpt lat="43.53506697833582" lon="11.379498256411589"><ele>830.0</ele><time>2026-04-03T10:58:25Z</time></trkpt><trkpt lat="43.53512421753043" lon="11.379631763978923"><ele>828.6666666666666</ele><time>2026-04-03T10:58:27Z</time></trkpt><trkpt lat="43.535183830923465" lon="11.3797130000805"><ele>827.3333333333333</ele><time>2026-04-03T10:58:29Z</time></trkpt><trkpt lat="43.53526548389702" lon="11.379714446755953"><ele>826.0</ele><time>2026-04-03T10:58:31Z</time></trkpt><trkpt lat="43.53533017297594" lon="11.379710341004014"><ele>824.4285714285714</ele><time>2026-04-03T10:58:33Z</time></trkpt><trkpt lat="43.53539546028215" lon="11.379733533724659"><ele>822.8571428571429</ele><time>2026-04-03T10:58:35Z</time></trkpt><trkpt lat="43.53547632840171" lon="11.3797545596662"><ele>821.2857142857142</ele><time>2026-04-03T10:58:38Z</time></trkpt><trkpt lat="43.535553097014045" lon="11.379742850137063"><ele>819.7142857142858</ele><time>2026-04-03T10:58:42Z</time></trkpt><trkpt lat="43.53561251625663" lon="11.379693968472422"><ele>818.1428571428571</ele><time>2026-04-03T10:58:46Z</time></trkpt><trkpt lat="43.535669006409876" lon="11.379644871333035"><ele>816.5714285714286</ele><time>2026-04-03T10:58:49.999Z</time></trkpt><trkpt lat="43.53572508821568" lon="11.379595123203204"><ele>815.0</ele><time>2026-04-03T10:58:54.999Z</time></trkpt><trkpt lat="43.535785061100846" lon="11.379564896611237"><ele>815.0</ele><time>2026-04-03T10:59:00.999Z</time></trkpt><trkpt lat="43.53583123499956" lon="11.379505655324659"><ele>815.0</ele><time>2026-04-03T10:59:06.999Z</time></trkpt><trkpt lat="43.53586363461663" lon="11.379421943988316"><ele>815.0</ele><time>2026-04-03T10:59:13.999Z</time></trkpt><trkpt lat="43.535937219489355" lon="11.379407260250579"><ele>815.0</ele><time>2026-04-03T10:59:17.999Z</time></trkpt><trkpt lat="43.535993334300066" lon="11.379353071069664"><ele>815.0</ele><time>2026-04-03T10:59:23.999Z</time></trkpt><trkpt lat="43.53602911962937" lon="11.379267328594123"><ele>815.0</ele><time>2026-04-03T10:59:33.999Z</time></trkpt><trkpt lat="43.53608453762032" lon="11.37922012240869"><ele>815.0</ele><time>2026-04-03T10:59:37.999Z</time></trkpt><trkpt lat="43.53613416022639" lon="11.379146499231503"><ele>815.0000000000001</ele><time>2026-04-03T10:59:41.999Z</time></trkpt><trkpt lat="43.53620703583481" lon="11.379144537457472"><ele>815.0</ele><time>2026-04-03T10:59:46.999Z</time></trkpt><trkpt lat="43.5361707794308" lon="11.379233544199888"><ele>815.0</ele><time>2026-04-03T10:59:50.999Z</time></trkpt><trkpt lat="43.53612112017433" lon="11.379301890160722"><ele>815.0</ele><time>2026-04-03T10:59:52.999Z</time></trkpt><trkpt lat="43.53607695757452" lon="11.379421618213312"><ele>815.0000000000001</ele><time>2026-04-03T10:59:55.999Z</time></trkpt><trkpt lat="43.53600326288187" lon="11.379451099364598"><ele>815.0</ele><time>2026-04-03T10:59:57.999Z</time></trkpt><trkpt lat="43.53593479902316" lon="11.379530574681642"><ele>815.0</ele><time>2026-04-03T10:59:59.999Z</time></trkpt><trkpt lat="43.53584498366178" lon="11.379638397620742"><ele>815.0</ele><time>2026-04-03T11:00:01.999Z</time></trkpt><trkpt lat="43.535761781770894" lon="11.379702354838283"><ele>815.0</ele><time>2026-04-03T11:00:03.999Z</time></trkpt><trkpt lat="43.53564574736369" lon="11.379754328786074"><ele>815.0</ele><time>2026-04-03T11:00:05.999Z</time></trkpt><trkpt lat="43.53554935365557" lon="11.379758555046612"><ele>815.0</ele><time>2026-04-03T11:00:07.998Z</time></trkpt><trkpt lat="43.53542318262886" lon="11.379745918139825"><ele>815.3333333333334</ele><time>2026-04-03T11:00:10Z</time></trkpt><trkpt lat="43.53534849113611" lon="11.3797259426319"><ele>815.6666666666667</ele><time>2026-04-03T11:00:11Z</time></trkpt><trkpt lat="43.53527919819032" lon="11.379720945889241"><ele>816.0</ele><time>2026-04-03T11:00:12Z</time></trkpt><trkpt lat="43.53518129912716" lon="11.379699809110038"><ele>816.3333333333333</ele><time>2026-04-03T11:00:14Z</time></trkpt><trkpt lat="43.535110375167974" lon="11.379581263014124"><ele>816.6666666666666</ele><time>2026-04-03T11:00:16Z</time></trkpt><trkpt lat="43.53507774562521" lon="11.379493411650703"><ele>817.0</ele><time>2026-04-03T11:00:17Z</time></trkpt><trkpt lat="43.53504786165156" lon="11.379408832359259"><ele>818.4999999999999</ele><time>2026-04-03T11:00:18Z</time></trkpt><trkpt lat="43.53500924005307" lon="11.379309391147354"><ele>820.0</ele><time>2026-04-03T11:00:19Z</time></trkpt><trkpt lat="43.53496706222977" lon="11.379188621063655"><ele>821.5</ele><time>2026-04-03T11:00:20Z</time></trkpt><trkpt lat="43.534921973801715" lon="11.379063809216898"><ele>823.0</ele><time>2026-04-03T11:00:21Z</time></trkpt><trkpt lat="43.53488217022593" lon="11.37897165497048"><ele>824.4999999999999</ele><time>2026-04-03T11:00:22Z</time></trkpt><trkpt lat="43.534843793319524" lon="11.3788759259654"><ele>826.0</ele><time>2026-04-03T11:00:23Z</time></trkpt><trkpt lat="43.534796373583596" lon="11.378776421884378"><ele>827.5999999999999</ele><time>2026-04-03T11:00:24Z</time></trkpt><trkpt lat="43.53474578206635" lon="11.378685476388847"><ele>829.2</ele><time>2026-04-03T11:00:25Z</time></trkpt><trkpt lat="43.53466328363035" lon="11.37852089440902"><ele>830.8</ele><time>2026-04-03T11:00:27Z</time></trkpt><trkpt lat="43.53461753506895" lon="11.378413418329506"><ele>832.4000000000001</ele><time>2026-04-03T11:00:28Z</time></trkpt><trkpt lat="43.53457562803148" lon="11.378299608648183"><ele>834.0</ele><time>2026-04-03T11:00:29Z</time></trkpt><trkpt lat="43.53452692744207" lon="11.37820727496298"><ele>834.3333333333334</ele><time>2026-04-03T11:00:30Z</time></trkpt><trkpt lat="43.53440408611345" lon="11.378217034395865"><ele>834.6666666666667</ele><time>2026-04-03T11:00:36Z</time></trkpt><trkpt lat="43.53430695252746" lon="11.378278704830764"><ele>835.0</ele><time>2026-04-03T11:00:37Z</time></trkpt><trkpt lat="43.53422790654944" lon="11.378284280202752"><ele>835.3333333333334</ele><time>2026-04-03T11:00:38Z</time></trkpt><trkpt lat="43.53415743064247" lon="11.378269349009695"><ele>835.6666666666667</ele><time>2026-04-03T11:00:39Z</time></trkpt><trkpt lat="43.53408949394839" lon="11.378267238233745"><ele>836.0</ele><time>2026-04-03T11:00:40Z</time></trkpt><trkpt lat="43.53399851500982" lon="11.378260517254777"><ele>836.0</ele><time>2026-04-03T11:00:41Z</time></trkpt><trkpt lat="43.53392253191588" lon="11.378239211165008"><ele>836.0</ele><time>2026-04-03T11:00:42Z</time></trkpt><trkpt lat="43.533811793365395" lon="11.378253739404146"><ele>836.0</ele><time>2026-04-03T11:00:44Z</time></trkpt><trkpt lat="43.53373633471965" lon="11.378339944084795"><ele>836.0</ele><time>2026-04-03T11:00:45Z</time></trkpt><trkpt lat="43.53365268642488" lon="11.378452436230917"><ele>836.0</ele><time>2026-04-03T11:00:46Z</time></trkpt><trkpt lat="43.53356456813298" lon="11.378550175644692"><ele>834.8</ele><time>2026-04-03T11:00:47Z</time></trkpt><trkpt lat="43.53348387859034" lon="11.378629778390602"><ele>833.5999999999999</ele><time>2026-04-03T11:00:48Z</time></trkpt><trkpt lat="43.53341645897232" lon="11.378692765726413"><ele>832.4</ele><time>2026-04-03T11:00:49Z</time></trkpt><trkpt lat="43.533345500217955" lon="11.378751802576616"><ele>831.2</ele><time>2026-04-03T11:00:50Z</time></trkpt><trkpt lat="43.53325878485924" lon="11.378795640041329"><ele>830.0</ele><time>2026-04-03T11:00:51Z</time></trkpt><trkpt lat="43.53316021586926" lon="11.378841160983205"><ele>831.0000000000001</ele><time>2026-04-03T11:00:52Z</time></trkpt><trkpt lat="43.53308383078638" lon="11.378872900146302"><ele>832.0</ele><time>2026-04-03T11:00:52.999Z</time></trkpt><trkpt lat="43.533019358035205" lon="11.378897933044554"><ele>833.0</ele><time>2026-04-03T11:00:53.999Z</time></trkpt><trkpt lat="43.532950217359094" lon="11.37890520628229"><ele>834.0</ele><time>2026-04-03T11:00:54.999Z</time></trkpt><trkpt lat="43.53286665067422" lon="11.378903194671826"><ele>835.0000000000001</ele><time>2026-04-03T11:00:55.999Z</time></trkpt><trkpt lat="43.53278395117864" lon="11.378900704823739"><ele>836.0</ele><time>2026-04-03T11:00:56.999Z</time></trkpt><trkpt lat="43.53268082074673" lon="11.378905229632577"><ele>836.0000000000001</ele><time>2026-04-03T11:00:58.999Z</time></trkpt><trkpt lat="43.53261536083455" lon="11.378899374597028"><ele>836.0</ele><time>2026-04-03T11:00:59.999Z</time></trkpt><trkpt lat="43.53252965552658" lon="11.378882261989835"><ele>836.0</ele><time>2026-04-03T11:01:00.999Z</time></trkpt><trkpt lat="43.53243999958586" lon="11.378834330510355"><ele>836.0</ele><time>2026-04-03T11:01:01.999Z</time></trkpt><trkpt lat="43.53236254208931" lon="11.378791685783032"><ele>836.0000000000001</ele><time>2026-04-03T11:01:02.999Z</time></trkpt><trkpt lat="43.532294292115274" lon="11.378777316966472"><ele>836.0</ele><time>2026-04-03T11:01:03.999Z</time></trkpt><trkpt lat="43.53222034027752" lon="11.3788089777746"><ele>836.0</ele><time>2026-04-03T11:01:05.999Z</time></trkpt><trkpt lat="43.532224516663646" lon="11.378925215424172"><ele>836.0</ele><time>2026-04-03T11:01:08.999Z</time></trkpt><trkpt lat="43.532279930971455" lon="11.3790617531574"><ele>836.0</ele><time>2026-04-03T11:01:10.999Z</time></trkpt><trkpt lat="43.53231254403381" lon="11.379155491348136"><ele>836.0</ele><time>2026-04-03T11:01:12.999Z</time></trkpt><trkpt lat="43.53235469511209" lon="11.379294847515132"><ele>836.0</ele><time>2026-04-03T11:01:18.999Z</time></trkpt><trkpt lat="43.53241849999617" lon="11.379394068937488"><ele>836.0</ele><time>2026-04-03T11:01:20.999Z</time></trkpt><trkpt lat="43.53245582927762" lon="11.379575716284442"><ele>836.0</ele><time>2026-04-03T11:01:22.999Z</time></trkpt><trkpt lat="43.532452246304956" lon="11.379695121152645"><ele>836.0</ele><time>2026-04-03T11:01:23.999Z</time></trkpt><trkpt lat="43.53245181892761" lon="11.379811960447853"><ele>836.0</ele><time>2026-04-03T11:01:24.999Z</time></trkpt><trkpt lat="43.5324642062371" lon="11.379897454719039"><ele>836.0</ele><time>2026-04-03T11:01:25.999Z</time></trkpt><trkpt lat="43.53247962961551" lon="11.380032305802157"><ele>836.1999999999999</ele><time>2026-04-03T11:01:27.999Z</time></trkpt><trkpt lat="43.532490933943286" lon="11.380186142366972"><ele>836.4</ele><time>2026-04-03T11:01:29.999Z</time></trkpt><trkpt lat="43.53247558785547" lon="11.380314379345915"><ele>836.6</ele><time>2026-04-03T11:01:30.999Z</time></trkpt><trkpt lat="43.532483185794995" lon="11.380430108313986"><ele>836.8</ele><time>2026-04-03T11:01:31.999Z</time></trkpt><trkpt lat="43.53249240815318" lon="11.380538067924574"><ele>837.0</ele><time>2026-04-03T11:01:32.999Z</time></trkpt><trkpt lat="43.532506310047665" lon="11.380666517159332"><ele>837.0</ele><time>2026-04-03T11:01:34.999Z</time></trkpt><trkpt lat="43.532532652329756" lon="11.380772524402603"><ele>837.0</ele><time>2026-04-03T11:01:36.999Z</time></trkpt><trkpt lat="43.53251796399895" lon="11.380932520660505"><ele>837.0</ele><time>2026-04-03T11:01:38.999Z</time></trkpt><trkpt lat="43.53244409521587" lon="11.381082032502842"><ele>837.0</ele><time>2026-04-03T11:01:40.999Z</time></trkpt><trkpt lat="43.5324202108988" lon="11.3811835426705"><ele>837.0</ele><time>2026-04-03T11:01:42.999Z</time></trkpt><trkpt lat="43.53240707962892" lon="11.381321480644747"><ele>837.2</ele><time>2026-04-03T11:01:44.999Z</time></trkpt><trkpt lat="43.532390754156516" lon="11.381459630782158"><ele>837.4000000000001</ele><time>2026-04-03T11:01:46.999Z</time></trkpt><trkpt lat="43.5324382555946" lon="11.381586448330077"><ele>837.5999999999999</ele><time>2026-04-03T11:01:48.999Z</time></trkpt><trkpt lat="43.53248402155891" lon="11.381684038709086"><ele>837.8</ele><time>2026-04-03T11:01:50.999Z</time></trkpt><trkpt lat="43.53252724726552" lon="11.381790226950363"><ele>838.0</ele><time>2026-04-03T11:01:52.999Z</time></trkpt><trkpt lat="43.53255246565413" lon="11.381909355886554"><ele>837.9999999999999</ele><time>2026-04-03T11:01:54.999Z</time></trkpt><trkpt lat="43.53256708574937" lon="11.38199393701975"><ele>838.0</ele><time>2026-04-03T11:01:56.999Z</time></trkpt><trkpt lat="43.53261873928646" lon="11.382092881471422"><ele>838.0</ele><time>2026-04-03T11:01:58.999Z</time></trkpt><trkpt lat="43.53272402030183" lon="11.382145751157177"><ele>838.0</ele><time>2026-04-03T11:02:00.999Z</time></trkpt><trkpt lat="43.53280360125615" lon="11.382176370433022"><ele>837.9999999999999</ele><time>2026-04-03T11:02:02.999Z</time></trkpt><trkpt lat="43.53288974051134" lon="11.382237059426245"><ele>838.0</ele><time>2026-04-03T11:02:04.999Z</time></trkpt><trkpt lat="43.5329511178619" lon="11.382275025791614"><ele>837.3333333333333</ele><time>2026-04-03T11:02:05.999Z</time></trkpt><trkpt lat="43.53302954109172" lon="11.382339773533673"><ele>836.6666666666666</ele><time>2026-04-03T11:02:07.999Z</time></trkpt><trkpt lat="43.53312554537192" lon="11.382409938432522"><ele>836.0</ele><time>2026-04-03T11:02:09.999Z</time></trkpt><trkpt lat="43.53318295866625" lon="11.382452960651747"><ele>835.3333333333333</ele><time>2026-04-03T11:02:10.999Z</time></trkpt><trkpt lat="43.53324299820578" lon="11.382504780422265"><ele>834.6666666666666</ele><time>2026-04-03T11:02:11.999Z</time></trkpt><trkpt lat="43.53332298491771" lon="11.382571155221793"><ele>834.0</ele><time>2026-04-03T11:02:14Z</time></trkpt><trkpt lat="43.53345807698891" lon="11.38259784444771"><ele>834.0</ele><time>2026-04-03T11:02:16Z</time></trkpt><trkpt lat="43.53354469191465" lon="11.382611925525465"><ele>834.0</ele><time>2026-04-03T11:02:17Z</time></trkpt><trkpt lat="43.53363669444596" lon="11.38263174679071"><ele>834.0</ele><time>2026-04-03T11:02:18Z</time></trkpt><trkpt lat="43.533717481233595" lon="11.382634609575298"><ele>834.0</ele><time>2026-04-03T11:02:19Z</time></trkpt><trkpt lat="43.53379192401242" lon="11.382634924443867"><ele>834.0</ele><time>2026-04-03T11:02:20Z</time></trkpt><trkpt lat="43.53386501802199" lon="11.38262984322218"><ele>834.0</ele><time>2026-04-03T11:02:21Z</time></trkpt><trkpt lat="43.53394138555677" lon="11.382645739985428"><ele>831.5</ele><time>2026-04-03T11:02:22Z</time></trkpt><trkpt lat="43.53403589532115" lon="11.382666030108703"><ele>829.0</ele><time>2026-04-03T11:02:23Z</time></trkpt><trkpt lat="43.53413103960804" lon="11.382677353569349"><ele>826.5</ele><time>2026-04-03T11:02:24Z</time></trkpt><trkpt lat="43.534228748347914" lon="11.382693992426386"><ele>824.0</ele><time>2026-04-03T11:02:25Z</time></trkpt><trkpt lat="43.53431302176299" lon="11.382719571955713"><ele>821.5</ele><time>2026-04-03T11:02:26Z</time></trkpt><trkpt lat="43.53437367331276" lon="11.382756333305355"><ele>819.0</ele><time>2026-04-03T11:02:27Z</time></trkpt><trkpt lat="43.534451061017116" lon="11.382763000106495"><ele>819.0</ele><time>2026-04-03T11:02:29Z</time></trkpt><trkpt lat="43.53453366343164" lon="11.382800298457989"><ele>819.0</ele><time>2026-04-03T11:02:31Z</time></trkpt><trkpt lat="43.534610341204754" lon="11.382897805255789"><ele>819.0</ele><time>2026-04-03T11:02:33Z</time></trkpt><trkpt lat="43.534667602084006" lon="11.382942853832814"><ele>819.0</ele><time>2026-04-03T11:02:34Z</time></trkpt><trkpt lat="43.53473064695203" lon="11.382990709010087"><ele>819.0</ele><time>2026-04-03T11:02:34.999Z</time></trkpt><trkpt lat="43.53484336591725" lon="11.383078667785634"><ele>818.8333333333334</ele><time>2026-04-03T11:02:36.999Z</time></trkpt><trkpt lat="43.5349161441726" lon="11.383085686616901"><ele>818.6666666666667</ele><time>2026-04-03T11:02:37.999Z</time></trkpt><trkpt lat="43.53502082642441" lon="11.38303542194182"><ele>818.5</ele><time>2026-04-03T11:02:39.999Z</time></trkpt><trkpt lat="43.53507960923708" lon="11.382985539766329"><ele>818.3333333333334</ele><time>2026-04-03T11:02:40.999Z</time></trkpt><trkpt lat="43.53514266536881" lon="11.382934652262769"><ele>818.1666666666667</ele><time>2026-04-03T11:02:41.999Z</time></trkpt><trkpt lat="43.53521275835542" lon="11.382887962801428"><ele>818.0</ele><time>2026-04-03T11:02:42.999Z</time></trkpt><trkpt lat="43.53527645981021" lon="11.382847463400601"><ele>818.0</ele><time>2026-04-03T11:02:43.999Z</time></trkpt><trkpt lat="43.535358299136064" lon="11.382783725125556"><ele>818.0</ele><time>2026-04-03T11:02:45.999Z</time></trkpt><trkpt lat="43.535404997625314" lon="11.382722763768367"><ele>818.0</ele><time>2026-04-03T11:02:47.999Z</time></trkpt><trkpt lat="43.53547674656243" lon="11.382690468673001"><ele>818.0</ele><time>2026-04-03T11:02:49.999Z</time></trkpt><trkpt lat="43.53556576817191" lon="11.382627126038331"><ele>818.0</ele><time>2026-04-03T11:02:51.999Z</time></trkpt><trkpt lat="43.535681691219" lon="11.382681300792404"><ele>818.0000000000001</ele><time>2026-04-03T11:02:53.999Z</time></trkpt><trkpt lat="43.535760123000706" lon="11.382657735120024"><ele>818.0</ele><time>2026-04-03T11:02:55.999Z</time></trkpt><trkpt lat="43.53582558052044" lon="11.382661419958648"><ele>818.0</ele><time>2026-04-03T11:02:57.999Z</time></trkpt><trkpt lat="43.53589916318257" lon="11.382667103312023"><ele>818.0</ele><time>2026-04-03T11:02:59.999Z</time></trkpt><trkpt lat="43.53598069938437" lon="11.38266732027571"><ele>818.0000000000001</ele><time>2026-04-03T11:03:02.999Z</time></trkpt><trkpt lat="43.536099887483495" lon="11.38271073178112"><ele>818.0</ele><time>2026-04-03T11:03:04.999Z</time></trkpt><trkpt lat="43.53615945652662" lon="11.382750573221081"><ele>817.6666666666667</ele><time>2026-04-03T11:03:05.999Z</time></trkpt><trkpt lat="43.53622563490453" lon="11.382796700071614"><ele>817.3333333333334</ele><time>2026-04-03T11:03:06.999Z</time></trkpt><trkpt lat="43.536306676217166" lon="11.382842571589913"><ele>817.0</ele><time>2026-04-03T11:03:07.999Z</time></trkpt><trkpt lat="43.536388408450605" lon="11.382889052813814"><ele>816.6666666666667</ele><time>2026-04-03T11:03:08.999Z</time></trkpt><trkpt lat="43.53647792408656" lon="11.382927412493865"><ele>816.3333333333334</ele><time>2026-04-03T11:03:09.999Z</time></trkpt><trkpt lat="43.53656553840796" lon="11.382954877995557"><ele>816.0</ele><time>2026-04-03T11:03:10.999Z</time></trkpt><trkpt lat="43.53664758380553" lon="11.382986020638802"><ele>817.0</ele><time>2026-04-03T11:03:11.999Z</time></trkpt><trkpt lat="43.53671769576475" lon="11.383039475428014"><ele>818.0</ele><time>2026-04-03T11:03:12.999Z</time></trkpt><trkpt lat="43.536792330719756" lon="11.383097058557711"><ele>819.0</ele><time>2026-04-03T11:03:13.999Z</time></trkpt><trkpt lat="43.53686226346969" lon="11.383160348180148"><ele>820.0</ele><time>2026-04-03T11:03:14.999Z</time></trkpt><trkpt lat="43.53692320092663" lon="11.383242652047647"><ele>821.0</ele><time>2026-04-03T11:03:15.999Z</time></trkpt><trkpt lat="43.53697975537471" lon="11.383312487709127"><ele>822.0</ele><time>2026-04-03T11:03:16.998Z</time></trkpt><trkpt lat="43.537040946501385" lon="11.383358019212979"><ele>822.0</ele><time>2026-04-03T11:03:17.998Z</time></trkpt><trkpt lat="43.53713803549582" lon="11.383415336934553"><ele>822.0</ele><time>2026-04-03T11:03:19.998Z</time></trkpt><trkpt lat="43.537252992992094" lon="11.383356247053023"><ele>822.0</ele><time>2026-04-03T11:03:21.998Z</time></trkpt><trkpt lat="43.53732161368809" lon="11.383311766254009"><ele>822.0</ele><time>2026-04-03T11:03:22.998Z</time></trkpt><trkpt lat="43.53739265790441" lon="11.383281230320383"><ele>822.0</ele><time>2026-04-03T11:03:23.998Z</time></trkpt><trkpt lat="43.53750124081389" lon="11.383248963176213"><ele>822.0</ele><time>2026-04-03T11:03:25.998Z</time></trkpt><trkpt lat="43.53757427298065" lon="11.383247601536839"><ele>822.0</ele><time>2026-04-03T11:03:26.998Z</time></trkpt><trkpt lat="43.53764563146561" lon="11.383198172560425"><ele>822.0</ele><time>2026-04-03T11:03:27.998Z</time></trkpt><trkpt lat="43.53771455437471" lon="11.383114241861755"><ele>822.0</ele><time>2026-04-03T11:03:28.998Z</time></trkpt><trkpt lat="43.53778639353389" lon="11.383064432502561"><ele>822.0</ele><time>2026-04-03T11:03:29.998Z</time></trkpt><trkpt lat="43.53786295230538" lon="11.383020010732748"><ele>822.0</ele><time>2026-04-03T11:03:30.998Z</time></trkpt><trkpt lat="43.53793414001793" lon="11.382919661105706"><ele>822.6</ele><time>2026-04-03T11:03:32.998Z</time></trkpt><trkpt lat="43.53794953049315" lon="11.382780397535823"><ele>823.2</ele><time>2026-04-03T11:03:35.998Z</time></trkpt><trkpt lat="43.537962910023246" lon="11.382685732065072"><ele>823.8</ele><time>2026-04-03T11:03:36.998Z</time></trkpt><trkpt lat="43.538015870021624" lon="11.382546111246862"><ele>824.4</ele><time>2026-04-03T11:03:38.998Z</time></trkpt><trkpt lat="43.538100383999165" lon="11.38250075771334"><ele>825.0</ele><time>2026-04-03T11:03:40.998Z</time></trkpt><trkpt lat="43.53819524584158" lon="11.38244765507841"><ele>825.0</ele><time>2026-04-03T11:03:42.998Z</time></trkpt><trkpt lat="43.5382633648069" lon="11.38243823341467"><ele>825.0</ele><time>2026-04-03T11:03:43.998Z</time></trkpt><trkpt lat="43.53833568792887" lon="11.38240671725267"><ele>825.0</ele><time>2026-04-03T11:03:44.998Z</time></trkpt><trkpt lat="43.53840620370355" lon="11.382348747620542"><ele>825.0</ele><time>2026-04-03T11:03:45.998Z</time></trkpt><trkpt lat="43.53848846585604" lon="11.382285827929875"><ele>825.0</ele><time>2026-04-03T11:03:46.998Z</time></trkpt><trkpt lat="43.5385832002488" lon="11.38223777455888"><ele>825.0</ele><time>2026-04-03T11:03:47.998Z</time></trkpt><trkpt lat="43.53867787654384" lon="11.38220579392785"><ele>824.5</ele><time>2026-04-03T11:03:48.998Z</time></trkpt><trkpt lat="43.53874922879459" lon="11.382201398433425"><ele>824.0</ele><time>2026-04-03T11:03:49.998Z</time></trkpt><trkpt lat="43.53882083731022" lon="11.382173638958127"><ele>823.5</ele><time>2026-04-03T11:03:50.998Z</time></trkpt><trkpt lat="43.5388800010859" lon="11.382118600207022"><ele>823.0</ele><time>2026-04-03T11:03:51.998Z</time></trkpt><trkpt lat="43.53896745887354" lon="11.382048425834736"><ele>822.5</ele><time>2026-04-03T11:03:52.998Z</time></trkpt><trkpt lat="43.53904138220564" lon="11.38197569129705"><ele>822.0</ele><time>2026-04-03T11:03:53.998Z</time></trkpt><trkpt lat="43.53910021743298" lon="11.381925780216134"><ele>821.4000000000001</ele><time>2026-04-03T11:03:54.998Z</time></trkpt><trkpt lat="43.539173589139835" lon="11.381887259530181"><ele>820.8000000000001</ele><time>2026-04-03T11:03:55.998Z</time></trkpt><trkpt lat="43.53927362811833" lon="11.38183586234199"><ele>820.2</ele><time>2026-04-03T11:03:56.998Z</time></trkpt><trkpt lat="43.53938205648383" lon="11.381793179348746"><ele>819.6</ele><time>2026-04-03T11:03:57.998Z</time></trkpt><trkpt lat="43.53946601443573" lon="11.3817480383011"><ele>819.0</ele><time>2026-04-03T11:03:58.998Z</time></trkpt><trkpt lat="43.539539816827165" lon="11.381720347158762"><ele>818.8000000000001</ele><time>2026-04-03T11:03:59.998Z</time></trkpt><trkpt lat="43.53962661207742" lon="11.381701005929695"><ele>818.6</ele><time>2026-04-03T11:04:00.998Z</time></trkpt><trkpt lat="43.539737711643" lon="11.381662704732408"><ele>818.4</ele><time>2026-04-03T11:04:01.998Z</time></trkpt><trkpt lat="43.53985606405444" lon="11.381612594910647"><ele>818.2</ele><time>2026-04-03T11:04:02.998Z</time></trkpt><trkpt lat="43.53996679557499" lon="11.381568761088195"><ele>818.0</ele><time>2026-04-03T11:04:03.998Z</time></trkpt><trkpt lat="43.5400611652406" lon="11.381544017891366"><ele>818.0000000000001</ele><time>2026-04-03T11:04:04.998Z</time></trkpt><trkpt lat="43.54013257872992" lon="11.381519909218198"><ele>818.0</ele><time>2026-04-03T11:04:05.998Z</time></trkpt><trkpt lat="43.54020356278573" lon="11.381493394335887"><ele>818.0</ele><time>2026-04-03T11:04:06.998Z</time></trkpt><trkpt lat="43.54027770291125" lon="11.381439711939612"><ele>818.0</ele><time>2026-04-03T11:04:07.998Z</time></trkpt><trkpt lat="43.540355723199106" lon="11.381366947990433"><ele>818.0000000000001</ele><time>2026-04-03T11:04:08.998Z</time></trkpt><trkpt lat="43.5404477229051" lon="11.38131783195893"><ele>818.0</ele><time>2026-04-03T11:04:09.998Z</time></trkpt><trkpt lat="43.540507872937965" lon="11.38128752930876"><ele>818.0</ele><time>2026-04-03T11:04:10.998Z</time></trkpt><trkpt lat="43.540589502817184" lon="11.381283796176294"><ele>818.0</ele><time>2026-04-03T11:04:12.998Z</time></trkpt><trkpt lat="43.54066232817826" lon="11.381244730942457"><ele>818.0</ele><time>2026-04-03T11:04:14.998Z</time></trkpt><trkpt lat="43.540762982379064" lon="11.38124427555638"><ele>818.0</ele><time>2026-04-03T11:04:16.998Z</time></trkpt><trkpt lat="43.540850567161804" lon="11.381196778835672"><ele>818.0</ele><time>2026-04-03T11:04:18.999Z</time></trkpt><trkpt lat="43.54090424194004" lon="11.381076831106204"><ele>818.0000000000001</ele><time>2026-04-03T11:04:20.999Z</time></trkpt><trkpt lat="43.54093723215518" lon="11.380992509696553"><ele>818.0</ele><time>2026-04-03T11:04:21.999Z</time></trkpt><trkpt lat="43.540974030473585" lon="11.380903572301445"><ele>818.0</ele><time>2026-04-03T11:04:22.999Z</time></trkpt><trkpt lat="43.54102173283835" lon="11.38081339594314"><ele>818.0</ele><time>2026-04-03T11:04:23.999Z</time></trkpt><trkpt lat="43.54108407915553" lon="11.38074002846235"><ele>818.0000000000001</ele><time>2026-04-03T11:04:24.999Z</time></trkpt><trkpt lat="43.54116455283661" lon="11.380672167697778"><ele>818.0</ele><time>2026-04-03T11:04:25.999Z</time></trkpt><trkpt lat="43.541233195011635" lon="11.380620986189825"><ele>819.5999999999999</ele><time>2026-04-03T11:04:26.999Z</time></trkpt><trkpt lat="43.541284647313184" lon="11.380549682648317"><ele>821.1999999999999</ele><time>2026-04-03T11:04:27.999Z</time></trkpt><trkpt lat="43.54134747480187" lon="11.380466029985495"><ele>822.8</ele><time>2026-04-03T11:04:28.999Z</time></trkpt><trkpt lat="43.541401625653286" lon="11.380399093951212"><ele>824.4</ele><time>2026-04-03T11:04:29.999Z</time></trkpt><trkpt lat="43.54150543265988" lon="11.38030833097621"><ele>826.0</ele><time>2026-04-03T11:04:31.999Z</time></trkpt><trkpt lat="43.54158793981588" lon="11.380233998644822"><ele>826.0</ele><time>2026-04-03T11:04:33.999Z</time></trkpt><trkpt lat="43.54163967001256" lon="11.380153097877091"><ele>826.0</ele><time>2026-04-03T11:04:35Z</time></trkpt><trkpt lat="43.54171482020302" lon="11.380068780326688"><ele>826.0</ele><time>2026-04-03T11:04:36Z</time></trkpt><trkpt lat="43.54180344635109" lon="11.380008270280609"><ele>826.0</ele><time>2026-04-03T11:04:37Z</time></trkpt><trkpt lat="43.54190517879286" lon="11.37996236688283"><ele>826.0</ele><time>2026-04-03T11:04:38Z</time></trkpt><trkpt lat="43.542017375088314" lon="11.379935251455484"><ele>827.8</ele><time>2026-04-03T11:04:39Z</time></trkpt><trkpt lat="43.54211766160136" lon="11.379903391758075"><ele>829.5999999999999</ele><time>2026-04-03T11:04:40Z</time></trkpt><trkpt lat="43.54220250575254" lon="11.37985285954021"><ele>831.4</ele><time>2026-04-03T11:04:41Z</time></trkpt><trkpt lat="43.54227983875432" lon="11.379788230942149"><ele>833.2</ele><time>2026-04-03T11:04:42Z</time></trkpt><trkpt lat="43.54236972793696" lon="11.379716629049117"><ele>835.0</ele><time>2026-04-03T11:04:43Z</time></trkpt><trkpt lat="43.542462446183876" lon="11.37965312915654"><ele>835.4</ele><time>2026-04-03T11:04:44Z</time></trkpt><trkpt lat="43.542559752729346" lon="11.37959949131095"><ele>835.8</ele><time>2026-04-03T11:04:45Z</time></trkpt><trkpt lat="43.54266773942089" lon="11.379550244285156"><ele>836.2</ele><time>2026-04-03T11:04:46Z</time></trkpt><trkpt lat="43.542764927933796" lon="11.379510163336045"><ele>836.6</ele><time>2026-04-03T11:04:47Z</time></trkpt><trkpt lat="43.54286277500558" lon="11.37946020299337"><ele>837.0</ele><time>2026-04-03T11:04:48Z</time></trkpt><trkpt lat="43.542950739687754" lon="11.379414837300176"><ele>837.0</ele><time>2026-04-03T11:04:49Z</time></trkpt><trkpt lat="43.54301510210622" lon="11.379377485427492"><ele>837.0</ele><time>2026-04-03T11:04:50Z</time></trkpt><trkpt lat="43.54313386090308" lon="11.379341542552082"><ele>837.0</ele><time>2026-04-03T11:04:52Z</time></trkpt><trkpt lat="43.543205658256404" lon="11.379330967657982"><ele>837.0</ele><time>2026-04-03T11:04:53Z</time></trkpt><trkpt lat="43.54328649532454" lon="11.379311069637664"><ele>837.0</ele><time>2026-04-03T11:04:54Z</time></trkpt><trkpt lat="43.5433606566215" lon="11.37927271247383"><ele>837.0</ele><time>2026-04-03T11:04:55Z</time></trkpt><trkpt lat="43.54347191090466" lon="11.379182004771447"><ele>837.0</ele><time>2026-04-03T11:04:57Z</time></trkpt><trkpt lat="43.543549424104036" lon="11.379120817112423"><ele>837.0</ele><time>2026-04-03T11:04:58Z</time></trkpt><trkpt lat="43.54362058299107" lon="11.379074988841115"><ele>837.0</ele><time>2026-04-03T11:04:59Z</time></trkpt><trkpt lat="43.54368329537675" lon="11.379029278356567"><ele>837.0</ele><time>2026-04-03T11:04:59.999Z</time></trkpt><trkpt lat="43.543747646392994" lon="11.37898822110946"><ele>837.0</ele><time>2026-04-03T11:05:00.999Z</time></trkpt><trkpt lat="43.54383815413287" lon="11.3789280620812"><ele>837.0</ele><time>2026-04-03T11:05:05.999Z</time></trkpt><trkpt lat="43.54396816610193" lon="11.378901444548696"><ele>837.3333333333334</ele><time>2026-04-03T11:05:07.999Z</time></trkpt><trkpt lat="43.54404534893766" lon="11.378891937933108"><ele>837.6666666666667</ele><time>2026-04-03T11:05:08.999Z</time></trkpt><trkpt lat="43.54413057160282" lon="11.378893840571168"><ele>838.0</ele><time>2026-04-03T11:05:09.999Z</time></trkpt><trkpt lat="43.54423128100368" lon="11.37890122706641"><ele>838.3333333333334</ele><time>2026-04-03T11:05:10.999Z</time></trkpt><trkpt lat="43.54432375416975" lon="11.378903658946237"><ele>838.6666666666667</ele><time>2026-04-03T11:05:11.999Z</time></trkpt><trkpt lat="43.54439336671842" lon="11.378910300941945"><ele>839.0</ele><time>2026-04-03T11:05:12.999Z</time></trkpt><trkpt lat="43.54446985451044" lon="11.378884149431393"><ele>838.0</ele><time>2026-04-03T11:05:14.999Z</time></trkpt><trkpt lat="43.544546519338255" lon="11.378881075127305"><ele>837.0</ele><time>2026-04-03T11:05:16.999Z</time></trkpt><trkpt lat="43.54462175304609" lon="11.378962066498595"><ele>836.0</ele><time>2026-04-03T11:05:19.999Z</time></trkpt><trkpt lat="43.54468870971719" lon="11.37908125304142"><ele>835.0</ele><time>2026-04-03T11:05:21.999Z</time></trkpt><trkpt lat="43.54475379085726" lon="11.379144362844675"><ele>834.0</ele><time>2026-04-03T11:05:23.999Z</time></trkpt><trkpt lat="43.5448041472757" lon="11.379247260095537"><ele>834.0</ele><time>2026-04-03T11:05:25.999Z</time></trkpt><trkpt lat="43.54486492177733" lon="11.379420373580478"><ele>834.0</ele><time>2026-04-03T11:05:27.999Z</time></trkpt><trkpt lat="43.54491694841898" lon="11.379495070322584"><ele>834.0</ele><time>2026-04-03T11:05:28.999Z</time></trkpt><trkpt lat="43.54497052357323" lon="11.379547931593956"><ele>834.0</ele><time>2026-04-03T11:05:29.999Z</time></trkpt><trkpt lat="43.54504884295159" lon="11.379687764201755"><ele>834.0</ele><time>2026-04-03T11:05:31.999Z</time></trkpt><trkpt lat="43.54511341961255" lon="11.379825330028671"><ele>834.6666666666666</ele><time>2026-04-03T11:05:33.999Z</time></trkpt><trkpt lat="43.54514107458393" lon="11.379908231457243"><ele>835.3333333333333</ele><time>2026-04-03T11:05:34.999Z</time></trkpt><trkpt lat="43.54518050879024" lon="11.3799820514983"><ele>836.0</ele><time>2026-04-03T11:05:35.999Z</time></trkpt><trkpt lat="43.545249365732744" lon="11.380055564165689"><ele>836.6666666666666</ele><time>2026-04-03T11:05:37.999Z</time></trkpt><trkpt lat="43.545337029696526" lon="11.379985043175022"><ele>837.3333333333333</ele><time>2026-04-03T11:05:41.999Z</time></trkpt><trkpt lat="43.545405524672546" lon="11.37997321493037"><ele>838.0</ele><time>2026-04-03T11:05:42.999Z</time></trkpt><trkpt lat="43.5455117544022" lon="11.380045482596456"><ele>837.9999999999999</ele><time>2026-04-03T11:05:44.999Z</time></trkpt><trkpt lat="43.5455719820431" lon="11.380122262608946"><ele>838.0</ele><time>2026-04-03T11:05:46.999Z</time></trkpt><trkpt lat="43.54561765992028" lon="11.380209311463382"><ele>838.0</ele><time>2026-04-03T11:05:49.999Z</time></trkpt><trkpt lat="43.54566157708565" lon="11.380272085251075"><ele>838.0</ele><time>2026-04-03T11:05:50.999Z</time></trkpt><trkpt lat="43.54571513344206" lon="11.380348914218189"><ele>837.9999999999999</ele><time>2026-04-03T11:05:51.999Z</time></trkpt><trkpt lat="43.54579183247984" lon="11.380451741781888"><ele>838.0</ele><time>2026-04-03T11:05:52.999Z</time></trkpt><trkpt lat="43.545867569688546" lon="11.380558025305422"><ele>839.9999999999999</ele><time>2026-04-03T11:05:53.999Z</time></trkpt><trkpt lat="43.54592183947208" lon="11.380639887504836"><ele>842.0</ele><time>2026-04-03T11:05:54.999Z</time></trkpt><trkpt lat="43.54598610713935" lon="11.38070013596239"><ele>844.0</ele><time>2026-04-03T11:05:56.999Z</time></trkpt><trkpt lat="43.54604917992357" lon="11.380756453754753"><ele>846.0</ele><time>2026-04-03T11:06:00.999Z</time></trkpt><trkpt lat="43.546105376845894" lon="11.380848342891735"><ele>847.9999999999999</ele><time>2026-04-03T11:06:03.999Z</time></trkpt><trkpt lat="43.546150150242426" lon="11.380934935287568"><ele>850.0</ele><time>2026-04-03T11:06:04.999Z</time></trkpt><trkpt lat="43.546263663688215" lon="11.380991993393957"><ele>850.2</ele><time>2026-04-03T11:06:06.999Z</time></trkpt><trkpt lat="43.54635080079688" lon="11.381018422584026"><ele>850.4</ele><time>2026-04-03T11:06:07.999Z</time></trkpt><trkpt lat="43.54642984505706" lon="11.381038938144922"><ele>850.5999999999999</ele><time>2026-04-03T11:06:08.999Z</time></trkpt><trkpt lat="43.54654123673579" lon="11.381081976417478"><ele>850.8</ele><time>2026-04-03T11:06:10.999Z</time></trkpt><trkpt lat="43.54662094391821" lon="11.381112917491476"><ele>851.0</ele><time>2026-04-03T11:06:12.999Z</time></trkpt><trkpt lat="43.546708350214026" lon="11.381151377974982"><ele>851.0</ele><time>2026-04-03T11:06:15.999Z</time></trkpt><trkpt lat="43.54678906291256" lon="11.381211543346941"><ele>851.0</ele><time>2026-04-03T11:06:17.999Z</time></trkpt><trkpt lat="43.54689788983863" lon="11.381287104722485"><ele>851.0</ele><time>2026-04-03T11:06:19.999Z</time></trkpt><trkpt lat="43.54695369117892" lon="11.381330150133165"><ele>851.0</ele><time>2026-04-03T11:06:20.999Z</time></trkpt><trkpt lat="43.54704750963819" lon="11.381435118860848"><ele>851.0</ele><time>2026-04-03T11:06:22.999Z</time></trkpt><trkpt lat="43.54709021201593" lon="11.381509724440654"><ele>851.5000000000001</ele><time>2026-04-03T11:06:25Z</time></trkpt><trkpt lat="43.547106712255996" lon="11.38164652998521"><ele>852.0</ele><time>2026-04-03T11:06:27Z</time></trkpt><trkpt lat="43.547148296481886" lon="11.381721940009273"><ele>852.5</ele><time>2026-04-03T11:06:28Z</time></trkpt><trkpt lat="43.54722126932002" lon="11.381783614085863"><ele>853.0</ele><time>2026-04-03T11:06:29Z</time></trkpt><trkpt lat="43.547298428002165" lon="11.381808552232165"><ele>853.5000000000001</ele><time>2026-04-03T11:06:30Z</time></trkpt><trkpt lat="43.54739247929446" lon="11.381850988251756"><ele>854.0</ele><time>2026-04-03T11:06:32Z</time></trkpt><trkpt lat="43.54745706099783" lon="11.381931473237689"><ele>854.0000000000001</ele><time>2026-04-03T11:06:34Z</time></trkpt><trkpt lat="43.547548561303756" lon="11.381952175705926"><ele>854.0</ele><time>2026-04-03T11:06:36Z</time></trkpt><trkpt lat="43.54767843784568" lon="11.38199341629962"><ele>854.0</ele><time>2026-04-03T11:06:38Z</time></trkpt><trkpt lat="43.54774614530569" lon="11.382031496908267"><ele>854.0</ele><time>2026-04-03T11:06:39Z</time></trkpt><trkpt lat="43.54781644318912" lon="11.382066216174472"><ele>854.0000000000001</ele><time>2026-04-03T11:06:40Z</time></trkpt><trkpt lat="43.54787101435288" lon="11.382126031998165"><ele>854.0</ele><time>2026-04-03T11:06:41Z</time></trkpt><trkpt lat="43.54793159241748" lon="11.382202503148031"><ele>854.0000000000001</ele><time>2026-04-03T11:06:42Z</time></trkpt><trkpt lat="43.54798356817681" lon="11.382281842797765"><ele>854.0</ele><time>2026-04-03T11:06:43Z</time></trkpt><trkpt lat="43.54802384321297" lon="11.382355315226034"><ele>854.0</ele><time>2026-04-03T11:06:44Z</time></trkpt><trkpt lat="43.548057634027174" lon="11.382460653590348"><ele>854.0</ele><time>2026-04-03T11:06:45Z</time></trkpt><trkpt lat="43.54809085124158" lon="11.382558268581581"><ele>854.0000000000001</ele><time>2026-04-03T11:06:46Z</time></trkpt><trkpt lat="43.54813540516184" lon="11.382637579677507"><ele>854.0</ele><time>2026-04-03T11:06:47Z</time></trkpt><trkpt lat="43.548163179552866" lon="11.382765145663576"><ele>854.0</ele><time>2026-04-03T11:06:49Z</time></trkpt><trkpt lat="43.548148880038816" lon="11.38285420867119"><ele>854.0000000000001</ele><time>2026-04-03T11:06:50Z</time></trkpt><trkpt lat="43.54813183082893" lon="11.383004138360752"><ele>854.0000000000001</ele><time>2026-04-03T11:06:52Z</time></trkpt><trkpt lat="43.54817304355083" lon="11.383140715450061"><ele>854.0</ele><time>2026-04-03T11:06:54Z</time></trkpt><trkpt lat="43.54822910889383" lon="11.38329466618659"><ele>854.0</ele><time>2026-04-03T11:06:56Z</time></trkpt><trkpt lat="43.54827547495072" lon="11.383415381423251"><ele>853.6666666666667</ele><time>2026-04-03T11:06:58Z</time></trkpt><trkpt lat="43.5483245724889" lon="11.383530581914382"><ele>853.3333333333334</ele><time>2026-04-03T11:07:01Z</time></trkpt><trkpt lat="43.54836736984118" lon="11.383603327198196"><ele>853.0</ele><time>2026-04-03T11:07:02.999Z</time></trkpt><trkpt lat="43.548425933672746" lon="11.383656160858083"><ele>852.6666666666667</ele><time>2026-04-03T11:07:05.999Z</time></trkpt><trkpt lat="43.54847862275789" lon="11.38376081420828"><ele>852.3333333333334</ele><time>2026-04-03T11:07:07.999Z</time></trkpt><trkpt lat="43.54856042872595" lon="11.383870457483466"><ele>852.0</ele><time>2026-04-03T11:07:09.999Z</time></trkpt><trkpt lat="43.54861165814931" lon="11.383932064461872"><ele>850.6666666666666</ele><time>2026-04-03T11:07:10.999Z</time></trkpt><trkpt lat="43.54868875097737" lon="11.384027650810781"><ele>849.3333333333333</ele><time>2026-04-03T11:07:12.999Z</time></trkpt><trkpt lat="43.54876141782599" lon="11.384139205613991"><ele>848.0</ele><time>2026-04-03T11:07:14.999Z</time></trkpt><trkpt lat="43.548804974147096" lon="11.384229169568425"><ele>846.6666666666666</ele><time>2026-04-03T11:07:16.999Z</time></trkpt><trkpt lat="43.548869816030916" lon="11.384287589154653"><ele>845.3333333333333</ele><time>2026-04-03T11:07:21.999Z</time></trkpt><trkpt lat="43.54893564872458" lon="11.384335820560793"><ele>844.0</ele><time>2026-04-03T11:07:23.999Z</time></trkpt><trkpt lat="43.548981659933254" lon="11.384430870530398"><ele>843.6666666666666</ele><time>2026-04-03T11:07:25.999Z</time></trkpt><trkpt lat="43.549043748810035" lon="11.384542524863013"><ele>843.3333333333333</ele><time>2026-04-03T11:07:27.999Z</time></trkpt><trkpt lat="43.54908891172138" lon="11.384626009692228"><ele>843.0</ele><time>2026-04-03T11:07:28.999Z</time></trkpt><trkpt lat="43.54914161818854" lon="11.384717485752425"><ele>842.6666666666667</ele><time>2026-04-03T11:07:29.999Z</time></trkpt><trkpt lat="43.54919624872507" lon="11.384802328955372"><ele>842.3333333333334</ele><time>2026-04-03T11:07:30.999Z</time></trkpt><trkpt lat="43.549241787864084" lon="11.384886415482574"><ele>842.0</ele><time>2026-04-03T11:07:31.999Z</time></trkpt><trkpt lat="43.54927647307013" lon="11.38496346754882"><ele>842.0000000000001</ele><time>2026-04-03T11:07:32.999Z</time></trkpt><trkpt lat="43.54932398051984" lon="11.385049414823962"><ele>842.0</ele><time>2026-04-03T11:07:33.999Z</time></trkpt><trkpt lat="43.549367824453974" lon="11.385126859541952"><ele>842.0</ele><time>2026-04-03T11:07:34.999Z</time></trkpt><trkpt lat="43.54941212912246" lon="11.385199625703024"><ele>842.0</ele><time>2026-04-03T11:07:35.999Z</time></trkpt><trkpt lat="43.54946507382327" lon="11.385281709438456"><ele>842.0</ele><time>2026-04-03T11:07:36.999Z</time></trkpt><trkpt lat="43.54950687100172" lon="11.385358548383937"><ele>842.0000000000001</ele><time>2026-04-03T11:07:37.999Z</time></trkpt><trkpt lat="43.549559209453136" lon="11.385438231400794"><ele>842.0</ele><time>2026-04-03T11:07:39.999Z</time></trkpt><trkpt lat="43.5496600324841" lon="11.38551394632022"><ele>845.3333333333334</ele><time>2026-04-03T11:07:41.999Z</time></trkpt><trkpt lat="43.54973718781085" lon="11.385523237343737"><ele>848.6666666666667</ele><time>2026-04-03T11:07:42.999Z</time></trkpt><trkpt lat="43.54981953423152" lon="11.385530212366596"><ele>852.0</ele><time>2026-04-03T11:07:43.999Z</time></trkpt><trkpt lat="43.54988392571625" lon="11.385561808064795"><ele>855.3333333333333</ele><time>2026-04-03T11:07:44.999Z</time></trkpt><trkpt lat="43.54994592467606" lon="11.385628862583717"><ele>858.6666666666666</ele><time>2026-04-03T11:07:45.999Z</time></trkpt><trkpt lat="43.55000924145837" lon="11.385712326534177"><ele>862.0</ele><time>2026-04-03T11:07:46.999Z</time></trkpt><trkpt lat="43.55005975501251" lon="11.38578972993266"><ele>861.9999999999999</ele><time>2026-04-03T11:07:47.999Z</time></trkpt><trkpt lat="43.550122631099946" lon="11.385880022465827"><ele>862.0</ele><time>2026-04-03T11:07:48.999Z</time></trkpt><trkpt lat="43.55017279294072" lon="11.385946525978056"><ele>862.0</ele><time>2026-04-03T11:07:49.999Z</time></trkpt><trkpt lat="43.550222461032575" lon="11.386046252917696"><ele>862.0</ele><time>2026-04-03T11:07:51.999Z</time></trkpt><trkpt lat="43.5502791385187" lon="11.386146639172669"><ele>861.9999999999999</ele><time>2026-04-03T11:08:00.999Z</time></trkpt><trkpt lat="43.55031761424641" lon="11.386225664136274"><ele>862.0</ele><time>2026-04-03T11:08:01.999Z</time></trkpt><trkpt lat="43.5503547312457" lon="11.386299119972273"><ele>863.6666666666666</ele><time>2026-04-03T11:08:02.999Z</time></trkpt><trkpt lat="43.55040058017525" lon="11.386389807489621"><ele>865.3333333333333</ele><time>2026-04-03T11:08:03.999Z</time></trkpt><trkpt lat="43.55044254738185" lon="11.386493788362479"><ele>867.0</ele><time>2026-04-03T11:08:04.999Z</time></trkpt><trkpt lat="43.55047092618432" lon="11.386586949628207"><ele>868.6666666666667</ele><time>2026-04-03T11:08:05.999Z</time></trkpt><trkpt lat="43.55049258293509" lon="11.386700001359443"><ele>870.3333333333334</ele><time>2026-04-03T11:08:06.999Z</time></trkpt><trkpt lat="43.55049886275878" lon="11.386800727478159"><ele>872.0</ele><time>2026-04-03T11:08:07.999Z</time></trkpt><trkpt lat="43.55056159560771" lon="11.386916413465103"><ele>872.0</ele><time>2026-04-03T11:08:09.999Z</time></trkpt><trkpt lat="43.55069069428235" lon="11.386902834197313"><ele>872.0</ele><time>2026-04-03T11:08:11.999Z</time></trkpt><trkpt lat="43.5507668231605" lon="11.386849254298532"><ele>872.0</ele><time>2026-04-03T11:08:12.999Z</time></trkpt><trkpt lat="43.55082068622483" lon="11.386780051438421"><ele>872.0</ele><time>2026-04-03T11:08:13.999Z</time></trkpt><trkpt lat="43.55092719288282" lon="11.386690314196866"><ele>872.0</ele><time>2026-04-03T11:08:15.999Z</time></trkpt><trkpt lat="43.55102390706735" lon="11.386672950377863"><ele>872.0</ele><time>2026-04-03T11:08:16.999Z</time></trkpt><trkpt lat="43.55112805592139" lon="11.386651865100124"><ele>872.0</ele><time>2026-04-03T11:08:17.999Z</time></trkpt><trkpt lat="43.55122354974681" lon="11.38662518475669"><ele>872.0</ele><time>2026-04-03T11:08:18.999Z</time></trkpt><trkpt lat="43.55129307228768" lon="11.386606501469545"><ele>872.0</ele><time>2026-04-03T11:08:19.999Z</time></trkpt><trkpt lat="43.55140204479317" lon="11.386593877796104"><ele>872.0</ele><time>2026-04-03T11:08:21.999Z</time></trkpt><trkpt lat="43.5514698961012" lon="11.386588074770525"><ele>871.6666666666667</ele><time>2026-04-03T11:08:22.999Z</time></trkpt><trkpt lat="43.551554395861444" lon="11.386647122317873"><ele>871.3333333333334</ele><time>2026-04-03T11:08:23.999Z</time></trkpt><trkpt lat="43.55163785405905" lon="11.386692254474923"><ele>871.0</ele><time>2026-04-03T11:08:24.999Z</time></trkpt><trkpt lat="43.55169539068741" lon="11.386743923909398"><ele>870.6666666666667</ele><time>2026-04-03T11:08:25.999Z</time></trkpt><trkpt lat="43.55175214101325" lon="11.38682492124974"><ele>870.3333333333334</ele><time>2026-04-03T11:08:26.999Z</time></trkpt><trkpt lat="43.55180330012846" lon="11.386899996236"><ele>870.0</ele><time>2026-04-03T11:08:27.999Z</time></trkpt><trkpt lat="43.5518476695917" lon="11.386991662720872"><ele>870.0</ele><time>2026-04-03T11:08:28.998Z</time></trkpt><trkpt lat="43.551892970964985" lon="11.387060725372672"><ele>870.0</ele><time>2026-04-03T11:08:29.998Z</time></trkpt><trkpt lat="43.551949743217435" lon="11.387104494780768"><ele>870.0</ele><time>2026-04-03T11:08:31Z</time></trkpt><trkpt lat="43.552083341758845" lon="11.387074533835245"><ele>870.0</ele><time>2026-04-03T11:08:33Z</time></trkpt><trkpt lat="43.5521797620766" lon="11.387042525368122"><ele>870.0</ele><time>2026-04-03T11:08:34Z</time></trkpt><trkpt lat="43.552249240836225" lon="11.387028070769743"><ele>870.0</ele><time>2026-04-03T11:08:35Z</time></trkpt><trkpt lat="43.552338306949935" lon="11.387058600456259"><ele>870.8333333333334</ele><time>2026-04-03T11:08:38Z</time></trkpt><trkpt lat="43.55240321062629" lon="11.387102301306768"><ele>871.6666666666667</ele><time>2026-04-03T11:08:41Z</time></trkpt><trkpt lat="43.55247887157193" lon="11.387130513748804"><ele>872.5</ele><time>2026-04-03T11:08:43Z</time></trkpt><trkpt lat="43.55253887773867" lon="11.387097169141585"><ele>873.3333333333334</ele><time>2026-04-03T11:08:45Z</time></trkpt><trkpt lat="43.55261296610261" lon="11.387049333631298"><ele>874.1666666666667</ele><time>2026-04-03T11:08:49Z</time></trkpt><trkpt lat="43.55268286658955" lon="11.38699587486376"><ele>875.0</ele><time>2026-04-03T11:08:51Z</time></trkpt><trkpt lat="43.55277599547965" lon="11.386961870478556"><ele>875.8</ele><time>2026-04-03T11:08:53Z</time></trkpt><trkpt lat="43.55287322555609" lon="11.386908670475712"><ele>876.6</ele><time>2026-04-03T11:08:55Z</time></trkpt><trkpt lat="43.55293808375136" lon="11.386868280483924"><ele>877.4000000000001</ele><time>2026-04-03T11:08:56Z</time></trkpt><trkpt lat="43.5530528089962" lon="11.386857650583389"><ele>878.2</ele><time>2026-04-03T11:08:58Z</time></trkpt><trkpt lat="43.55313304202675" lon="11.386849810057852"><ele>879.0</ele><time>2026-04-03T11:10:02.999Z</time></trkpt><trkpt lat="43.55321435313093" lon="11.3868630751902"><ele>879.0</ele><time>2026-04-03T11:10:05.999Z</time></trkpt><trkpt lat="43.55331038408957" lon="11.38687309040334"><ele>879.0</ele><time>2026-04-03T11:10:06.999Z</time></trkpt><trkpt lat="43.55339522758588" lon="11.38686963921754"><ele>879.0</ele><time>2026-04-03T11:10:07.999Z</time></trkpt><trkpt lat="43.55347048475566" lon="11.386848546022879"><ele>879.0</ele><time>2026-04-03T11:10:08.999Z</time></trkpt><trkpt lat="43.55354552364726" lon="11.386800916266857"><ele>879.0</ele><time>2026-04-03T11:10:09.999Z</time></trkpt><trkpt lat="43.55362184897399" lon="11.38672996772345"><ele>879.0</ele><time>2026-04-03T11:10:10.999Z</time></trkpt><trkpt lat="43.55369447550627" lon="11.38667968956453"><ele>879.3333333333334</ele><time>2026-04-03T11:10:11.999Z</time></trkpt><trkpt lat="43.553770993580486" lon="11.386653985938207"><ele>879.6666666666667</ele><time>2026-04-03T11:10:12.999Z</time></trkpt><trkpt lat="43.553838180094345" lon="11.386634469979612"><ele>880.0</ele><time>2026-04-03T11:10:13.999Z</time></trkpt><trkpt lat="43.55391265402662" lon="11.386618371877063"><ele>880.3333333333334</ele><time>2026-04-03T11:10:14.999Z</time></trkpt><trkpt lat="43.55399475400872" lon="11.386593733504613"><ele>880.6666666666667</ele><time>2026-04-03T11:10:15.999Z</time></trkpt><trkpt lat="43.55409008126683" lon="11.386553561458912"><ele>881.0</ele><time>2026-04-03T11:10:16.999Z</time></trkpt><trkpt lat="43.55416561378339" lon="11.386506450764392"><ele>881.0</ele><time>2026-04-03T11:10:17.999Z</time></trkpt><trkpt lat="43.5542257253258" lon="11.386455885941833"><ele>880.9999999999999</ele><time>2026-04-03T11:10:18.999Z</time></trkpt><trkpt lat="43.554274080398045" lon="11.386366675707709"><ele>880.9999999999999</ele><time>2026-04-03T11:10:20.999Z</time></trkpt><trkpt lat="43.55430098996442" lon="11.386221178131136"><ele>881.0</ele><time>2026-04-03T11:10:26.999Z</time></trkpt><trkpt lat="43.554331798131734" lon="11.386091176827403"><ele>881.0</ele><time>2026-04-03T11:10:28.999Z</time></trkpt><trkpt lat="43.554377371042406" lon="11.385980332877176"><ele>881.5000000000001</ele><time>2026-04-03T11:10:30.999Z</time></trkpt><trkpt lat="43.55443276093517" lon="11.385877395416152"><ele>882.0</ele><time>2026-04-03T11:10:32.999Z</time></trkpt><trkpt lat="43.55447403960382" lon="11.385801831204468"><ele>882.5</ele><time>2026-04-03T11:10:34.999Z</time></trkpt><trkpt lat="43.5545169305557" lon="11.385684719101492"><ele>883.0</ele><time>2026-04-03T11:10:37Z</time></trkpt><trkpt lat="43.55457430996596" lon="11.385541279989164"><ele>883.5000000000001</ele><time>2026-04-03T11:10:39Z</time></trkpt><trkpt lat="43.55460979153848" lon="11.385456717063246"><ele>884.0</ele><time>2026-04-03T11:10:40Z</time></trkpt><trkpt lat="43.55466674618955" lon="11.385396858588678"><ele>880.8000000000001</ele><time>2026-04-03T11:10:41Z</time></trkpt><trkpt lat="43.55472309273887" lon="11.385238859092997"><ele>877.6000000000001</ele><time>2026-04-03T11:10:43Z</time></trkpt><trkpt lat="43.554748250655564" lon="11.385150165494021"><ele>874.4</ele><time>2026-04-03T11:10:44Z</time></trkpt><trkpt lat="43.55479673040049" lon="11.38505904507818"><ele>871.2</ele><time>2026-04-03T11:10:45Z</time></trkpt><trkpt lat="43.55484840753046" lon="11.384926444543654"><ele>868.0</ele><time>2026-04-03T11:10:46Z</time></trkpt><trkpt lat="43.55490010009879" lon="11.38479700673034"><ele>868.0</ele><time>2026-04-03T11:10:47Z</time></trkpt><trkpt lat="43.554940492218975" lon="11.384698211813214"><ele>868.0</ele><time>2026-04-03T11:10:48Z</time></trkpt><trkpt lat="43.55497539495493" lon="11.38461462133392"><ele>868.0</ele><time>2026-04-03T11:10:49Z</time></trkpt><trkpt lat="43.555000627610426" lon="11.384532462490514"><ele>868.0</ele><time>2026-04-03T11:10:50Z</time></trkpt><trkpt lat="43.55505326375038" lon="11.384470496563363"><ele>868.0</ele><time>2026-04-03T11:10:51Z</time></trkpt><trkpt lat="43.55511774253662" lon="11.384441743802402"><ele>868.0</ele><time>2026-04-03T11:10:52Z</time></trkpt><trkpt lat="43.55519620264674" lon="11.38442674033471"><ele>868.0</ele><time>2026-04-03T11:10:53Z</time></trkpt><trkpt lat="43.55527742969433" lon="11.384413186464956"><ele>866.9999999999999</ele><time>2026-04-03T11:10:54Z</time></trkpt><trkpt lat="43.555358744785984" lon="11.384421670452651"><ele>866.0</ele><time>2026-04-03T11:10:55Z</time></trkpt><trkpt lat="43.55544078806512" lon="11.3844249888135"><ele>865.0</ele><time>2026-04-03T11:10:56Z</time></trkpt><trkpt lat="43.55552317367882" lon="11.38441673739264"><ele>864.0</ele><time>2026-04-03T11:10:57Z</time></trkpt><trkpt lat="43.55561135589686" lon="11.384391391818175"><ele>862.9999999999999</ele><time>2026-04-03T11:10:58Z</time></trkpt><trkpt lat="43.555701733779586" lon="11.3843750733154"><ele>862.0</ele><time>2026-04-03T11:10:59Z</time></trkpt><trkpt lat="43.55579112005587" lon="11.384302996175999"><ele>862.0</ele><time>2026-04-03T11:11:00Z</time></trkpt><trkpt lat="43.555873234865764" lon="11.384205014247543"><ele>862.0</ele><time>2026-04-03T11:11:01Z</time></trkpt><trkpt lat="43.555945789627145" lon="11.38412416261358"><ele>862.0</ele><time>2026-04-03T11:11:02Z</time></trkpt><trkpt lat="43.55602172925009" lon="11.384056823853642"><ele>862.0</ele><time>2026-04-03T11:11:03Z</time></trkpt><trkpt lat="43.55610298813446" lon="11.38400135911174"><ele>862.0</ele><time>2026-04-03T11:11:04Z</time></trkpt><trkpt lat="43.55618853792457" lon="11.383950882190776"><ele>860.4000000000001</ele><time>2026-04-03T11:11:05Z</time></trkpt><trkpt lat="43.55627712999542" lon="11.383900683474481"><ele>858.8000000000001</ele><time>2026-04-03T11:11:06Z</time></trkpt><trkpt lat="43.55636520428849" lon="11.383851794960256"><ele>857.2</ele><time>2026-04-03T11:11:07Z</time></trkpt><trkpt lat="43.556451406580486" lon="11.383806673449707"><ele>855.6</ele><time>2026-04-03T11:11:08Z</time></trkpt><trkpt lat="43.55653341791735" lon="11.383739976256924"><ele>854.0</ele><time>2026-04-03T11:11:09Z</time></trkpt><trkpt lat="43.55661630333322" lon="11.383703850456381"><ele>854.0000000000001</ele><time>2026-04-03T11:11:10Z</time></trkpt><trkpt lat="43.5566900605158" lon="11.383671904775621"><ele>854.0</ele><time>2026-04-03T11:11:11Z</time></trkpt><trkpt lat="43.5567719262967" lon="11.383644961362547"><ele>854.0</ele><time>2026-04-03T11:11:12Z</time></trkpt><trkpt lat="43.556847494472166" lon="11.383665491384352"><ele>854.0</ele><time>2026-04-03T11:11:13Z</time></trkpt><trkpt lat="43.55692613833101" lon="11.383708652779776"><ele>854.0000000000001</ele><time>2026-04-03T11:11:14Z</time></trkpt><trkpt lat="43.55701976099072" lon="11.383738707372945"><ele>854.0</ele><time>2026-04-03T11:11:15Z</time></trkpt><trkpt lat="43.55712254415882" lon="11.383769679517744"><ele>854.0</ele><time>2026-04-03T11:11:16Z</time></trkpt><trkpt lat="43.557219077452096" lon="11.383773380299765"><ele>854.0000000000001</ele><time>2026-04-03T11:11:17Z</time></trkpt><trkpt lat="43.55730161916174" lon="11.383775528903413"><ele>854.0000000000001</ele><time>2026-04-03T11:11:18Z</time></trkpt><trkpt lat="43.55739095504318" lon="11.38374408493056"><ele>854.0</ele><time>2026-04-03T11:11:19Z</time></trkpt><trkpt lat="43.55748975294555" lon="11.38372216945536"><ele>854.0</ele><time>2026-04-03T11:11:20Z</time></trkpt><trkpt lat="43.55757886416464" lon="11.383674206803889"><ele>854.0</ele><time>2026-04-03T11:11:21Z</time></trkpt><trkpt lat="43.55767138906948" lon="11.38362145339021"><ele>854.0000000000001</ele><time>2026-04-03T11:11:22Z</time></trkpt><trkpt lat="43.55776650396069" lon="11.38354101412662"><ele>854.0000000000001</ele><time>2026-04-03T11:11:23Z</time></trkpt><trkpt lat="43.55786378309192" lon="11.383491213107062"><ele>854.0</ele><time>2026-04-03T11:11:24Z</time></trkpt><trkpt lat="43.55795233248244" lon="11.383427089344423"><ele>854.0</ele><time>2026-04-03T11:11:25Z</time></trkpt><trkpt lat="43.558051674420796" lon="11.383391329787996"><ele>854.4000000000001</ele><time>2026-04-03T11:11:26Z</time></trkpt><trkpt lat="43.55814779572312" lon="11.38332835633532"><ele>854.8000000000001</ele><time>2026-04-03T11:11:27Z</time></trkpt><trkpt lat="43.55824296228251" lon="11.383254423014474"><ele>855.1999999999999</ele><time>2026-04-03T11:11:28Z</time></trkpt><trkpt lat="43.558326677404004" lon="11.38317622399347"><ele>855.5999999999999</ele><time>2026-04-03T11:11:29Z</time></trkpt><trkpt lat="43.55840635255882" lon="11.383096874010146"><ele>856.0</ele><time>2026-04-03T11:11:30Z</time></trkpt><trkpt lat="43.5584723968425" lon="11.383022734804852"><ele>854.0</ele><time>2026-04-03T11:11:31Z</time></trkpt><trkpt lat="43.55854094692041" lon="11.382950661470836"><ele>851.9999999999999</ele><time>2026-04-03T11:11:32Z</time></trkpt><trkpt lat="43.558624196170705" lon="11.38288701809491"><ele>850.0</ele><time>2026-04-03T11:11:33Z</time></trkpt><trkpt lat="43.55874700509783" lon="11.382845535114113"><ele>848.0</ele><time>2026-04-03T11:11:33.999Z</time></trkpt><trkpt lat="43.55888597485401" lon="11.382828133841821"><ele>846.0</ele><time>2026-04-03T11:11:34.999Z</time></trkpt><trkpt lat="43.558991721878606" lon="11.382794410844262"><ele>845.5</ele><time>2026-04-03T11:11:35.999Z</time></trkpt><trkpt lat="43.559087230130594" lon="11.382720702842864"><ele>845.0</ele><time>2026-04-03T11:11:36.999Z</time></trkpt><trkpt lat="43.559172900598895" lon="11.382641996612312"><ele>844.5</ele><time>2026-04-03T11:11:37.999Z</time></trkpt><trkpt lat="43.559275421089644" lon="11.382526188199625"><ele>844.0</ele><time>2026-04-03T11:11:38.999Z</time></trkpt><trkpt lat="43.55938134724262" lon="11.382381609729066"><ele>844.0</ele><time>2026-04-03T11:11:39.999Z</time></trkpt><trkpt lat="43.55948921993917" lon="11.382218967205521"><ele>844.0</ele><time>2026-04-03T11:11:40.999Z</time></trkpt><trkpt lat="43.55959304081513" lon="11.382056983916396"><ele>844.0</ele><time>2026-04-03T11:11:41.999Z</time></trkpt><trkpt lat="43.559708292027395" lon="11.381858074873715"><ele>845.0</ele><time>2026-04-03T11:11:42.999Z</time></trkpt><trkpt lat="43.55981733769075" lon="11.381666559793281"><ele>846.0</ele><time>2026-04-03T11:11:43.999Z</time></trkpt><trkpt lat="43.559921878518836" lon="11.381482856138794"><ele>847.0</ele><time>2026-04-03T11:11:44.999Z</time></trkpt><trkpt lat="43.5600686929256" lon="11.381259245578251"><ele>847.0</ele><time>2026-04-03T11:11:45.999Z</time></trkpt><trkpt lat="43.56018257864563" lon="11.381055579745949"><ele>847.0</ele><time>2026-04-03T11:11:46.999Z</time></trkpt><trkpt lat="43.56027610634476" lon="11.380887243635673"><ele>847.0</ele><time>2026-04-03T11:11:47.999Z</time></trkpt><trkpt lat="43.560352350855965" lon="11.380776509914819"><ele>846.8</ele><time>2026-04-03T11:11:48.999Z</time></trkpt><trkpt lat="43.560407000199284" lon="11.38069624112849"><ele>846.6</ele><time>2026-04-03T11:11:49.999Z</time></trkpt><trkpt lat="43.560485641429196" lon="11.380640861659987"><ele>846.4</ele><time>2026-04-03T11:11:50.999Z</time></trkpt><trkpt lat="43.560595256760706" lon="11.38063236516836"><ele>846.1999999999999</ele><time>2026-04-03T11:11:51.999Z</time></trkpt><trkpt lat="43.56071922329048" lon="11.380591441955401"><ele>846.0</ele><time>2026-04-03T11:11:52.999Z</time></trkpt><trkpt lat="43.56086488200079" lon="11.380545148300458"><ele>847.75</ele><time>2026-04-03T11:11:53.999Z</time></trkpt><trkpt lat="43.56101910518152" lon="11.380469951841766"><ele>849.5</ele><time>2026-04-03T11:11:54.999Z</time></trkpt><trkpt lat="43.56114432450585" lon="11.380392283171929"><ele>851.25</ele><time>2026-04-03T11:11:55.999Z</time></trkpt><trkpt lat="43.56124406465295" lon="11.380335230065501"><ele>853.0</ele><time>2026-04-03T11:11:56.999Z</time></trkpt><trkpt lat="43.56132782452886" lon="11.380295673573809"><ele>852.9999999999999</ele><time>2026-04-03T11:11:57.999Z</time></trkpt><trkpt lat="43.56141110739357" lon="11.380218427308435"><ele>853.0</ele><time>2026-04-03T11:11:59.999Z</time></trkpt><trkpt lat="43.5614613035156" lon="11.380148159708655"><ele>853.0</ele><time>2026-04-03T11:12:01.999Z</time></trkpt><trkpt lat="43.56153228053646" lon="11.379994939567478"><ele>853.0</ele><time>2026-04-03T11:12:03.999Z</time></trkpt><trkpt lat="43.56157408281441" lon="11.37991202218363"><ele>852.9999999999999</ele><time>2026-04-03T11:12:04.999Z</time></trkpt><trkpt lat="43.56161410395542" lon="11.379842796150813"><ele>853.0</ele><time>2026-04-03T11:12:05.999Z</time></trkpt><trkpt lat="43.56166666252714" lon="11.37977915067452"><ele>853.0</ele><time>2026-04-03T11:12:07.999Z</time></trkpt><trkpt lat="43.56174292792472" lon="11.37968589297263"><ele>853.0</ele><time>2026-04-03T11:14:17.999Z</time></trkpt><trkpt lat="43.561796496811596" lon="11.379579718710989"><ele>853.0</ele><time>2026-04-03T11:14:18.999Z</time></trkpt><trkpt lat="43.56187623208201" lon="11.379449482726617"><ele>853.0</ele><time>2026-04-03T11:14:19.999Z</time></trkpt><trkpt lat="43.56196467324537" lon="11.379302804569237"><ele>850.5</ele><time>2026-04-03T11:14:20.999Z</time></trkpt><trkpt lat="43.56205021538001" lon="11.379157723827296"><ele>848.0</ele><time>2026-04-03T11:14:21.999Z</time></trkpt><trkpt lat="43.562119163796396" lon="11.379017528713076"><ele>845.5</ele><time>2026-04-03T11:14:22.999Z</time></trkpt><trkpt lat="43.562179713617375" lon="11.378872401792993"><ele>843.0</ele><time>2026-04-03T11:14:23.999Z</time></trkpt><trkpt lat="43.562234241832215" lon="11.378743217148656"><ele>843.0</ele><time>2026-04-03T11:14:24.999Z</time></trkpt><trkpt lat="43.56229888125415" lon="11.37862131202961"><ele>843.0</ele><time>2026-04-03T11:14:25.999Z</time></trkpt><trkpt lat="43.562384677072444" lon="11.3785006643894"><ele>843.0</ele><time>2026-04-03T11:14:26.999Z</time></trkpt><trkpt lat="43.56247705586936" lon="11.378388809456789"><ele>843.0</ele><time>2026-04-03T11:14:27.999Z</time></trkpt><trkpt lat="43.56256844253454" lon="11.378304484003417"><ele>843.0</ele><time>2026-04-03T11:14:28.999Z</time></trkpt><trkpt lat="43.5626703097661" lon="11.37823933053604"><ele>843.0</ele><time>2026-04-03T11:14:29.999Z</time></trkpt><trkpt lat="43.562794453847545" lon="11.378189143173321"><ele>843.0</ele><time>2026-04-03T11:14:30.999Z</time></trkpt><trkpt lat="43.56292363515644" lon="11.37814415520793"><ele>843.0</ele><time>2026-04-03T11:14:31.999Z</time></trkpt><trkpt lat="43.56304169185268" lon="11.37809314787199"><ele>841.0</ele><time>2026-04-03T11:14:32.999Z</time></trkpt><trkpt lat="43.563148193885894" lon="11.378032735777454"><ele>839.0</ele><time>2026-04-03T11:14:33.999Z</time></trkpt><trkpt lat="43.56324685090895" lon="11.37798472834794"><ele>837.0</ele><time>2026-04-03T11:14:34.999Z</time></trkpt><trkpt lat="43.563338648414565" lon="11.377937213304758"><ele>835.0</ele><time>2026-04-03T11:14:35.999Z</time></trkpt><trkpt lat="43.56342274682881" lon="11.377892814442458"><ele>833.0</ele><time>2026-04-03T11:14:36.999Z</time></trkpt><trkpt lat="43.56350642421479" lon="11.377864361103248"><ele>832.3333333333334</ele><time>2026-04-03T11:14:37.999Z</time></trkpt><trkpt lat="43.56358578351657" lon="11.377835452525133"><ele>831.6666666666667</ele><time>2026-04-03T11:14:38.999Z</time></trkpt><trkpt lat="43.56366872550629" lon="11.377812506499506"><ele>831.0</ele><time>2026-04-03T11:14:39.999Z</time></trkpt><trkpt lat="43.56375142289157" lon="11.377817626620367"><ele>830.3333333333333</ele><time>2026-04-03T11:14:40.999Z</time></trkpt><trkpt lat="43.56382843781837" lon="11.37785564842184"><ele>829.6666666666666</ele><time>2026-04-03T11:14:41.999Z</time></trkpt><trkpt lat="43.563892971273056" lon="11.377926499359969"><ele>829.0</ele><time>2026-04-03T11:14:42.999Z</time></trkpt><trkpt lat="43.56393515210126" lon="11.37801531144985"><ele>827.8333333333333</ele><time>2026-04-03T11:14:43.999Z</time></trkpt><trkpt lat="43.56394175427641" lon="11.378128658035632"><ele>826.6666666666666</ele><time>2026-04-03T11:14:44.999Z</time></trkpt><trkpt lat="43.56388730430503" lon="11.37823026805759"><ele>825.5</ele><time>2026-04-03T11:14:45.999Z</time></trkpt><trkpt lat="43.563837384961126" lon="11.378331701233446"><ele>824.3333333333333</ele><time>2026-04-03T11:14:46.999Z</time></trkpt><trkpt lat="43.563815031635066" lon="11.378441631984117"><ele>823.1666666666666</ele><time>2026-04-03T11:14:47.999Z</time></trkpt><trkpt lat="43.56380345087689" lon="11.378542381190773"><ele>822.0</ele><time>2026-04-03T11:14:49Z</time></trkpt><trkpt lat="43.56381627137841" lon="11.378648038573223"><ele>822.0</ele><time>2026-04-03T11:14:50Z</time></trkpt><trkpt lat="43.56385754202269" lon="11.37874778099061"><ele>822.0</ele><time>2026-04-03T11:14:51Z</time></trkpt><trkpt lat="43.563921522509744" lon="11.378814896451203"><ele>822.0</ele><time>2026-04-03T11:14:52Z</time></trkpt><trkpt lat="43.56400791640685" lon="11.378850972291271"><ele>822.0</ele><time>2026-04-03T11:14:53Z</time></trkpt><trkpt lat="43.56411793187542" lon="11.378851771298818"><ele>822.0</ele><time>2026-04-03T11:14:54Z</time></trkpt><trkpt lat="43.56423630915915" lon="11.378831492438335"><ele>822.0</ele><time>2026-04-03T11:14:55Z</time></trkpt><trkpt lat="43.56435411040491" lon="11.378799811735918"><ele>822.0</ele><time>2026-04-03T11:14:56Z</time></trkpt><trkpt lat="43.56447684010476" lon="11.378768378870976"><ele>822.0</ele><time>2026-04-03T11:14:57Z</time></trkpt><trkpt lat="43.56461583985615" lon="11.37872540336032"><ele>822.0</ele><time>2026-04-03T11:14:58Z</time></trkpt><trkpt lat="43.56475116273251" lon="11.378668905792962"><ele>818.25</ele><time>2026-04-03T11:14:59Z</time></trkpt><trkpt lat="43.56488003654259" lon="11.378598370656153"><ele>814.5</ele><time>2026-04-03T11:15:00Z</time></trkpt><trkpt lat="43.56500071040676" lon="11.378520976712375"><ele>810.75</ele><time>2026-04-03T11:15:01Z</time></trkpt><trkpt lat="43.565108296332546" lon="11.378429227117948"><ele>807.0</ele><time>2026-04-03T11:15:02Z</time></trkpt><trkpt lat="43.56520423131761" lon="11.378321282235126"><ele>807.0</ele><time>2026-04-03T11:15:03Z</time></trkpt><trkpt lat="43.565296738889145" lon="11.378195064261735"><ele>807.0</ele><time>2026-04-03T11:15:04Z</time></trkpt><trkpt lat="43.565387956228484" lon="11.37807518310086"><ele>807.0</ele><time>2026-04-03T11:15:05Z</time></trkpt><trkpt lat="43.565472875948785" lon="11.377977814349547"><ele>807.0</ele><time>2026-04-03T11:15:06Z</time></trkpt><trkpt lat="43.5655539736744" lon="11.377886988377027"><ele>804.4000000000001</ele><time>2026-04-03T11:15:07Z</time></trkpt><trkpt lat="43.56563532088253" lon="11.377795634537078"><ele>801.8000000000001</ele><time>2026-04-03T11:15:08Z</time></trkpt><trkpt lat="43.56572584156141" lon="11.37771502325895"><ele>799.2</ele><time>2026-04-03T11:15:09Z</time></trkpt><trkpt lat="43.56582876180585" lon="11.377670360432102"><ele>796.6</ele><time>2026-04-03T11:15:10Z</time></trkpt><trkpt lat="43.565934744649454" lon="11.377664247073287"><ele>794.0</ele><time>2026-04-03T11:15:11Z</time></trkpt><trkpt lat="43.566042637541486" lon="11.37768312546234"><ele>794.0</ele><time>2026-04-03T11:15:12Z</time></trkpt><trkpt lat="43.56614695455147" lon="11.37773483703243"><ele>794.0</ele><time>2026-04-03T11:15:13Z</time></trkpt><trkpt lat="43.56624032181323" lon="11.377802064508124"><ele>794.0</ele><time>2026-04-03T11:15:14Z</time></trkpt><trkpt lat="43.566340945855735" lon="11.37786822575106"><ele>794.0</ele><time>2026-04-03T11:15:15Z</time></trkpt><trkpt lat="43.56644804389323" lon="11.377934142434025"><ele>794.0</ele><time>2026-04-03T11:15:16Z</time></trkpt><trkpt lat="43.56656153980296" lon="11.37798986552513"><ele>792.0</ele><time>2026-04-03T11:15:17Z</time></trkpt><trkpt lat="43.56668512656465" lon="11.378032866569303"><ele>790.0</ele><time>2026-04-03T11:15:18Z</time></trkpt><trkpt lat="43.56680671708751" lon="11.378066827557259"><ele>788.0</ele><time>2026-04-03T11:15:19Z</time></trkpt><trkpt lat="43.56692812060024" lon="11.378101204490664"><ele>786.0</ele><time>2026-04-03T11:15:20Z</time></trkpt><trkpt lat="43.567047435086" lon="11.378130629097601"><ele>784.0</ele><time>2026-04-03T11:15:21Z</time></trkpt><trkpt lat="43.56715339969335" lon="11.378159537409784"><ele>782.0</ele><time>2026-04-03T11:15:22Z</time></trkpt><trkpt lat="43.567250690864796" lon="11.378188754749788"><ele>780.0</ele><time>2026-04-03T11:15:23Z</time></trkpt><trkpt lat="43.56733711206593" lon="11.378209484684279"><ele>778.0</ele><time>2026-04-03T11:15:24Z</time></trkpt><trkpt lat="43.5674193259357" lon="11.378227144643446"><ele>776.0</ele><time>2026-04-03T11:15:25Z</time></trkpt><trkpt lat="43.567501332693425" lon="11.378224367099996"><ele>776.0</ele><time>2026-04-03T11:15:26Z</time></trkpt><trkpt lat="43.56759382142771" lon="11.378203565538993"><ele>776.0</ele><time>2026-04-03T11:15:27Z</time></trkpt><trkpt lat="43.56769587824743" lon="11.378157223262805"><ele>776.0</ele><time>2026-04-03T11:15:28Z</time></trkpt><trkpt lat="43.567795455037995" lon="11.378072989118472"><ele>776.0</ele><time>2026-04-03T11:15:29Z</time></trkpt><trkpt lat="43.56788717522341" lon="11.377965658779832"><ele>776.0</ele><time>2026-04-03T11:15:30Z</time></trkpt><trkpt lat="43.567963507366684" lon="11.377870123070478"><ele>774.1666666666667</ele><time>2026-04-03T11:15:31Z</time></trkpt><trkpt lat="43.56802558112724" lon="11.377785619403408"><ele>772.3333333333334</ele><time>2026-04-03T11:15:32Z</time></trkpt><trkpt lat="43.56807617646445" lon="11.37769445027989"><ele>770.5</ele><time>2026-04-03T11:15:33Z</time></trkpt><trkpt lat="43.5681095881193" lon="11.377585230697425"><ele>768.6666666666667</ele><time>2026-04-03T11:15:34Z</time></trkpt><trkpt lat="43.56812061174627" lon="11.377468997670181"><ele>766.8333333333334</ele><time>2026-04-03T11:15:35Z</time></trkpt><trkpt lat="43.56811586590843" lon="11.377341533486744"><ele>765.0</ele><time>2026-04-03T11:15:36Z</time></trkpt><trkpt lat="43.56811774408359" lon="11.377233958325437"><ele>765.0</ele><time>2026-04-03T11:15:37Z</time></trkpt><trkpt lat="43.56814977838469" lon="11.377152833559512"><ele>765.0</ele><time>2026-04-03T11:15:38Z</time></trkpt><trkpt lat="43.56826385045795" lon="11.37709133581219"><ele>765.0</ele><time>2026-04-03T11:15:40Z</time></trkpt><trkpt lat="43.56837465624582" lon="11.377170604950726"><ele>765.0</ele><time>2026-04-03T11:15:42Z</time></trkpt><trkpt lat="43.568414494887655" lon="11.377266046872423"><ele>765.0</ele><time>2026-04-03T11:15:43Z</time></trkpt><trkpt lat="43.56845149244811" lon="11.377387509978929"><ele>765.0</ele><time>2026-04-03T11:15:44Z</time></trkpt><trkpt lat="43.56849107590265" lon="11.377529847580673"><ele>765.0</ele><time>2026-04-03T11:15:44.999Z</time></trkpt><trkpt lat="43.56853907851952" lon="11.37769056799399"><ele>765.0</ele><time>2026-04-03T11:15:45.999Z</time></trkpt><trkpt lat="43.56858406882689" lon="11.377845159553873"><ele>765.0</ele><time>2026-04-03T11:15:46.999Z</time></trkpt><trkpt lat="43.56862065285116" lon="11.377972266892373"><ele>764.5</ele><time>2026-04-03T11:15:47.999Z</time></trkpt><trkpt lat="43.56864662850821" lon="11.378074740837397"><ele>764.0</ele><time>2026-04-03T11:15:48.999Z</time></trkpt><trkpt lat="43.5686684070492" lon="11.378156518986767"><ele>763.5</ele><time>2026-04-03T11:15:49.999Z</time></trkpt><trkpt lat="43.56871740793571" lon="11.378297702276992"><ele>763.0</ele><time>2026-04-03T11:15:51.999Z</time></trkpt><trkpt lat="43.56877204891995" lon="11.37834366336046"><ele>762.5</ele><time>2026-04-03T11:15:52.999Z</time></trkpt><trkpt lat="43.568851478269416" lon="11.378354306321011"><ele>762.0</ele><time>2026-04-03T11:15:53.999Z</time></trkpt><trkpt lat="43.56893233856745" lon="11.378320182472239"><ele>759.4000000000001</ele><time>2026-04-03T11:15:54.999Z</time></trkpt><trkpt lat="43.569008810081534" lon="11.378252718661324"><ele>756.8000000000001</ele><time>2026-04-03T11:15:55.999Z</time></trkpt><trkpt lat="43.56908293254899" lon="11.378164458892186"><ele>754.2</ele><time>2026-04-03T11:15:56.999Z</time></trkpt><trkpt lat="43.56915920644815" lon="11.378078123426278"><ele>751.6</ele><time>2026-04-03T11:15:57.999Z</time></trkpt><trkpt lat="43.56923769264779" lon="11.378002113913842"><ele>749.0</ele><time>2026-04-03T11:15:58.999Z</time></trkpt><trkpt lat="43.569320944945204" lon="11.377941204067008"><ele>749.0</ele><time>2026-04-03T11:15:59.999Z</time></trkpt><trkpt lat="43.569409601136506" lon="11.377905094171119"><ele>749.0</ele><time>2026-04-03T11:16:00.999Z</time></trkpt><trkpt lat="43.569512463748254" lon="11.377859852514256"><ele>749.0</ele><time>2026-04-03T11:16:01.999Z</time></trkpt><trkpt lat="43.5696163082172" lon="11.377785946925265"><ele>749.0</ele><time>2026-04-03T11:16:02.999Z</time></trkpt><trkpt lat="43.56972520348718" lon="11.377694608727221"><ele>749.0</ele><time>2026-04-03T11:16:03.999Z</time></trkpt><trkpt lat="43.56984128762324" lon="11.377607165995032"><ele>749.0</ele><time>2026-04-03T11:16:04.999Z</time></trkpt><trkpt lat="43.569965124526455" lon="11.37753162237393"><ele>749.0</ele><time>2026-04-03T11:16:05.999Z</time></trkpt><trkpt lat="43.570106456010734" lon="11.377446586778989"><ele>749.0</ele><time>2026-04-03T11:16:06.999Z</time></trkpt><trkpt lat="43.57024404597334" lon="11.37736175511065"><ele>749.0</ele><time>2026-04-03T11:16:07.999Z</time></trkpt><trkpt lat="43.57038590785775" lon="11.377267085552312"><ele>749.0</ele><time>2026-04-03T11:16:08.999Z</time></trkpt><trkpt lat="43.57052736687075" lon="11.377166461466935"><ele>749.0</ele><time>2026-04-03T11:16:09.999Z</time></trkpt><trkpt lat="43.57066717386705" lon="11.377081413946776"><ele>749.0</ele><time>2026-04-03T11:16:10.999Z</time></trkpt><trkpt lat="43.57079555202168" lon="11.37700922365504"><ele>749.0</ele><time>2026-04-03T11:16:11.999Z</time></trkpt><trkpt lat="43.570927500125215" lon="11.376958637042023"><ele>749.0</ele><time>2026-04-03T11:16:12.999Z</time></trkpt><trkpt lat="43.5710681678889" lon="11.37693261879985"><ele>749.0</ele><time>2026-04-03T11:16:13.999Z</time></trkpt><trkpt lat="43.57121087527217" lon="11.376925036317768"><ele>749.0</ele><time>2026-04-03T11:16:14.999Z</time></trkpt><trkpt lat="43.57135954324019" lon="11.3769033090653"><ele>749.5</ele><time>2026-04-03T11:16:15.999Z</time></trkpt><trkpt lat="43.57149523531477" lon="11.37685728729353"><ele>750.0</ele><time>2026-04-03T11:16:16.999Z</time></trkpt><trkpt lat="43.5716354480398" lon="11.37679767378242"><ele>750.5</ele><time>2026-04-03T11:16:17.999Z</time></trkpt><trkpt lat="43.5717804874817" lon="11.376720556668062"><ele>751.0</ele><time>2026-04-03T11:16:18.999Z</time></trkpt><trkpt lat="43.57192417313093" lon="11.37664081392339"><ele>750.0</ele><time>2026-04-03T11:16:19.999Z</time></trkpt><trkpt lat="43.57207243402801" lon="11.376561311289116"><ele>749.0</ele><time>2026-04-03T11:16:20.999Z</time></trkpt><trkpt lat="43.57221733249028" lon="11.37650901079224"><ele>748.0</ele><time>2026-04-03T11:16:21.999Z</time></trkpt><trkpt lat="43.57236895695742" lon="11.376457512950855"><ele>748.0</ele><time>2026-04-03T11:16:22.999Z</time></trkpt><trkpt lat="43.572499110337446" lon="11.376398573623312"><ele>748.0</ele><time>2026-04-03T11:16:23.999Z</time></trkpt><trkpt lat="43.572637614425574" lon="11.376332742372833"><ele>748.0</ele><time>2026-04-03T11:16:24.999Z</time></trkpt><trkpt lat="43.57276489660103" lon="11.37627878643773"><ele>748.0</ele><time>2026-04-03T11:16:25.999Z</time></trkpt><trkpt lat="43.572881485960934" lon="11.37624889969122"><ele>746.5999999999999</ele><time>2026-04-03T11:16:26.999Z</time></trkpt><trkpt lat="43.572999596959896" lon="11.376229636245792"><ele>745.1999999999999</ele><time>2026-04-03T11:16:27.999Z</time></trkpt><trkpt lat="43.573106633075504" lon="11.376199273236507"><ele>743.8</ele><time>2026-04-03T11:16:28.999Z</time></trkpt><trkpt lat="43.573209474961445" lon="11.376151390678462"><ele>742.4</ele><time>2026-04-03T11:16:29.999Z</time></trkpt><trkpt lat="43.57329918840917" lon="11.376089411661491"><ele>741.0</ele><time>2026-04-03T11:16:30.999Z</time></trkpt><trkpt lat="43.57338369945511" lon="11.376022526442927"><ele>741.0</ele><time>2026-04-03T11:16:31.999Z</time></trkpt><trkpt lat="43.57346756492515" lon="11.375948720238592"><ele>741.0</ele><time>2026-04-03T11:16:32.999Z</time></trkpt><trkpt lat="43.573564328646796" lon="11.375877133237397"><ele>741.0</ele><time>2026-04-03T11:16:33.999Z</time></trkpt><trkpt lat="43.57366475526289" lon="11.37582247605975"><ele>741.0</ele><time>2026-04-03T11:16:34.999Z</time></trkpt><trkpt lat="43.57376453861565" lon="11.375766329742937"><ele>741.0</ele><time>2026-04-03T11:16:35.999Z</time></trkpt><trkpt lat="43.57385705457086" lon="11.375714094638912"><ele>741.8333333333334</ele><time>2026-04-03T11:16:36.999Z</time></trkpt><trkpt lat="43.573944396371026" lon="11.375662501951085"><ele>742.6666666666666</ele><time>2026-04-03T11:16:37.999Z</time></trkpt><trkpt lat="43.57403469712157" lon="11.375635719258577"><ele>743.5</ele><time>2026-04-03T11:16:38.999Z</time></trkpt><trkpt lat="43.574111673637574" lon="11.375565596663737"><ele>744.3333333333333</ele><time>2026-04-03T11:16:39.999Z</time></trkpt><trkpt lat="43.57419027609246" lon="11.37552447934337"><ele>745.1666666666666</ele><time>2026-04-03T11:16:40.999Z</time></trkpt><trkpt lat="43.57426447429944" lon="11.375474219867057"><ele>746.0</ele><time>2026-04-03T11:16:41.999Z</time></trkpt><trkpt lat="43.57434515377507" lon="11.375420863372995"><ele>743.5999999999999</ele><time>2026-04-03T11:16:42.999Z</time></trkpt><trkpt lat="43.57441580906085" lon="11.375370717118791"><ele>741.2</ele><time>2026-04-03T11:16:43.999Z</time></trkpt><trkpt lat="43.57448914624421" lon="11.375300394671772"><ele>738.8</ele><time>2026-04-03T11:16:44.999Z</time></trkpt><trkpt lat="43.57457157612612" lon="11.375234361269193"><ele>736.4000000000001</ele><time>2026-04-03T11:16:45.999Z</time></trkpt><trkpt lat="43.57464508775856" lon="11.375133452928404"><ele>734.0</ele><time>2026-04-03T11:16:46.999Z</time></trkpt><trkpt lat="43.57470884163805" lon="11.375006428146698"><ele>734.0</ele><time>2026-04-03T11:16:47.999Z</time></trkpt><trkpt lat="43.5747889159388" lon="11.374899808054764"><ele>734.0</ele><time>2026-04-03T11:16:48.999Z</time></trkpt><trkpt lat="43.574868462843746" lon="11.374771248025343"><ele>734.0</ele><time>2026-04-03T11:16:49.999Z</time></trkpt><trkpt lat="43.574956436528915" lon="11.374651730381636"><ele>734.0</ele><time>2026-04-03T11:16:50.999Z</time></trkpt><trkpt lat="43.57503746762871" lon="11.374536327815132"><ele>732.2</ele><time>2026-04-03T11:16:51.999Z</time></trkpt><trkpt lat="43.57511082168636" lon="11.374429841459404"><ele>730.4000000000001</ele><time>2026-04-03T11:16:52.999Z</time></trkpt><trkpt lat="43.57518321433694" lon="11.374330244958132"><ele>728.6</ele><time>2026-04-03T11:16:53.999Z</time></trkpt><trkpt lat="43.57526072019501" lon="11.374229201994723"><ele>726.8</ele><time>2026-04-03T11:16:55Z</time></trkpt><trkpt lat="43.57532801997647" lon="11.374130462278055"><ele>725.0</ele><time>2026-04-03T11:16:56Z</time></trkpt><trkpt lat="43.57538049780603" lon="11.374051765983104"><ele>724.8</ele><time>2026-04-03T11:16:57Z</time></trkpt><trkpt lat="43.57543901121777" lon="11.374007038676739"><ele>724.6</ele><time>2026-04-03T11:16:58Z</time></trkpt><trkpt lat="43.5755246423627" lon="11.373897584042764"><ele>724.4000000000001</ele><time>2026-04-03T11:17:00Z</time></trkpt><trkpt lat="43.5756044601089" lon="11.373795559091084"><ele>724.2</ele><time>2026-04-03T11:17:02Z</time></trkpt><trkpt lat="43.57565940508902" lon="11.373743579289759"><ele>724.0</ele><time>2026-04-03T11:17:03Z</time></trkpt><trkpt lat="43.57576873448518" lon="11.373630385203493"><ele>723.5</ele><time>2026-04-03T11:17:05Z</time></trkpt><trkpt lat="43.57586435022684" lon="11.3735862513137"><ele>723.0</ele><time>2026-04-03T11:17:07Z</time></trkpt><trkpt lat="43.575932791956916" lon="11.373002924248144"><ele>723.5</ele><time>2026-04-03T11:17:13Z</time></trkpt><trkpt lat="43.575917617717174" lon="11.372911932602943"><ele>724.0</ele><time>2026-04-03T11:17:15Z</time></trkpt><trkpt lat="43.575856893206726" lon="11.372857375057041"><ele>724.5</ele><time>2026-04-03T11:17:18Z</time></trkpt><trkpt lat="43.575833482712895" lon="11.372732094947628"><ele>725.0</ele><time>2026-04-03T11:17:21Z</time></trkpt><trkpt lat="43.57583374801641" lon="11.372641568610632"><ele>725.5</ele><time>2026-04-03T11:17:22Z</time></trkpt><trkpt lat="43.57581529852466" lon="11.372498134266326"><ele>726.0</ele><time>2026-04-03T11:17:24Z</time></trkpt><trkpt lat="43.575814356771225" lon="11.372371479086741"><ele>726.0</ele><time>2026-04-03T11:17:26Z</time></trkpt><trkpt lat="43.57581756722229" lon="11.372243185492954"><ele>726.0</ele><time>2026-04-03T11:17:29Z</time></trkpt><trkpt lat="43.57583087208578" lon="11.372131407314674"><ele>726.0</ele><time>2026-04-03T11:17:31Z</time></trkpt><trkpt lat="43.57586224117122" lon="11.371991307251129"><ele>726.0</ele><time>2026-04-03T11:17:33Z</time></trkpt><trkpt lat="43.57587067862356" lon="11.371875908884613"><ele>726.0</ele><time>2026-04-03T11:17:35Z</time></trkpt><trkpt lat="43.57587539916569" lon="11.371788165157025"><ele>726.0</ele><time>2026-04-03T11:17:36Z</time></trkpt><trkpt lat="43.5758806715109" lon="11.37169569371182"><ele>726.4</ele><time>2026-04-03T11:17:37Z</time></trkpt><trkpt lat="43.575920249520884" lon="11.371552583088912"><ele>726.8</ele><time>2026-04-03T11:17:39Z</time></trkpt><trkpt lat="43.575963107036216" lon="11.371418122385135"><ele>727.1999999999999</ele><time>2026-04-03T11:17:41Z</time></trkpt><trkpt lat="43.57596818617639" lon="11.371288758267577"><ele>727.5999999999999</ele><time>2026-04-03T11:17:43Z</time></trkpt><trkpt lat="43.57598378468789" lon="11.371144447221495"><ele>728.0</ele><time>2026-04-03T11:17:45Z</time></trkpt><trkpt lat="43.57603223603433" lon="11.370979677947094"><ele>728.4</ele><time>2026-04-03T11:17:47Z</time></trkpt><trkpt lat="43.57606916204133" lon="11.370816899210133"><ele>728.8</ele><time>2026-04-03T11:17:49Z</time></trkpt><trkpt lat="43.57607972431324" lon="11.370728671657893"><ele>729.2</ele><time>2026-04-03T11:17:50Z</time></trkpt><trkpt lat="43.576046643056806" lon="11.370601043559464"><ele>729.6</ele><time>2026-04-03T11:17:52Z</time></trkpt><trkpt lat="43.575990996413495" lon="11.370477941661742"><ele>730.0</ele><time>2026-04-03T11:17:54Z</time></trkpt><trkpt lat="43.57596797508438" lon="11.37037853379888"><ele>730.8333333333334</ele><time>2026-04-03T11:17:55.999Z</time></trkpt><trkpt lat="43.57598404509069" lon="11.370243904286923"><ele>731.6666666666667</ele><time>2026-04-03T11:17:57.999Z</time></trkpt><trkpt lat="43.575977990760485" lon="11.370148991848469"><ele>732.5</ele><time>2026-04-03T11:17:59.999Z</time></trkpt><trkpt lat="43.575966276766124" lon="11.370034708629085"><ele>733.3333333333334</ele><time>2026-04-03T11:18:01.999Z</time></trkpt><trkpt lat="43.57596305035314" lon="11.369930409145336"><ele>734.1666666666666</ele><time>2026-04-03T11:18:03.999Z</time></trkpt><trkpt lat="43.575948163167716" lon="11.369812528749716"><ele>735.0</ele><time>2026-04-03T11:18:05.999Z</time></trkpt><trkpt lat="43.57593287188803" lon="11.369647302122964"><ele>735.0</ele><time>2026-04-03T11:18:07.999Z</time></trkpt><trkpt lat="43.57594335460687" lon="11.36947966882203"><ele>735.0</ele><time>2026-04-03T11:18:09.999Z</time></trkpt><trkpt lat="43.57596823761878" lon="11.36930908372592"><ele>735.0</ele><time>2026-04-03T11:18:11.999Z</time></trkpt><trkpt lat="43.57599117650624" lon="11.369172085373716"><ele>735.0</ele><time>2026-04-03T11:18:13.999Z</time></trkpt><trkpt lat="43.576019049150375" lon="11.369022731616502"><ele>735.0</ele><time>2026-04-03T11:18:15.999Z</time></trkpt><trkpt lat="43.576051299279165" lon="11.36889420519856"><ele>735.0</ele><time>2026-04-03T11:18:17.999Z</time></trkpt><trkpt lat="43.57600224803486" lon="11.368757665686443"><ele>735.0</ele><time>2026-04-03T11:18:19.999Z</time></trkpt><trkpt lat="43.57599521206302" lon="11.368625878103073"><ele>735.0</ele><time>2026-04-03T11:18:21.999Z</time></trkpt><trkpt lat="43.57601710352358" lon="11.368532604926163"><ele>735.0</ele><time>2026-04-03T11:18:22.999Z</time></trkpt><trkpt lat="43.576024955766485" lon="11.368431403895904"><ele>735.0</ele><time>2026-04-03T11:18:23.999Z</time></trkpt><trkpt lat="43.57601822847414" lon="11.368316649082935"><ele>734.3333333333334</ele><time>2026-04-03T11:18:24.999Z</time></trkpt><trkpt lat="43.57599972154924" lon="11.368205886278819"><ele>733.6666666666666</ele><time>2026-04-03T11:18:25.999Z</time></trkpt><trkpt lat="43.57598410584922" lon="11.368111186403471"><ele>733.0</ele><time>2026-04-03T11:18:26.999Z</time></trkpt><trkpt lat="43.575966812195276" lon="11.367961382628556"><ele>732.3333333333333</ele><time>2026-04-03T11:18:28.999Z</time></trkpt><trkpt lat="43.57592178825953" lon="11.36787929610584"><ele>731.6666666666666</ele><time>2026-04-03T11:18:29.999Z</time></trkpt><trkpt lat="43.575870546061125" lon="11.367791251590699"><ele>731.0</ele><time>2026-04-03T11:18:30.999Z</time></trkpt><trkpt lat="43.57580984995058" lon="11.367696125516336"><ele>730.8571428571429</ele><time>2026-04-03T11:18:31.999Z</time></trkpt><trkpt lat="43.57575561004129" lon="11.367616614887158"><ele>730.7142857142857</ele><time>2026-04-03T11:18:32.999Z</time></trkpt><trkpt lat="43.57570955664316" lon="11.367537552627015"><ele>730.5714285714287</ele><time>2026-04-03T11:18:33.999Z</time></trkpt><trkpt lat="43.57566994895332" lon="11.367469112402071"><ele>730.4285714285714</ele><time>2026-04-03T11:18:34.999Z</time></trkpt><trkpt lat="43.57563158195815" lon="11.367399529413186"><ele>730.2857142857143</ele><time>2026-04-03T11:18:36.999Z</time></trkpt><trkpt lat="43.57558548186047" lon="11.367335834554439"><ele>730.1428571428572</ele><time>2026-04-03T11:18:37.999Z</time></trkpt><trkpt lat="43.57553311997184" lon="11.3672586806256"><ele>730.0</ele><time>2026-04-03T11:18:38.999Z</time></trkpt><trkpt lat="43.575463683935325" lon="11.36716615109098"><ele>729.0</ele><time>2026-04-03T11:18:40.999Z</time></trkpt><trkpt lat="43.57539926209795" lon="11.367013486631453"><ele>728.0</ele><time>2026-04-03T11:18:42.999Z</time></trkpt><trkpt lat="43.57534535735665" lon="11.366876783827442"><ele>727.0</ele><time>2026-04-03T11:18:44.999Z</time></trkpt><trkpt lat="43.57530133853801" lon="11.366775619442087"><ele>726.0</ele><time>2026-04-03T11:18:46.999Z</time></trkpt><trkpt lat="43.57524595342491" lon="11.366700661851226"><ele>725.0</ele><time>2026-04-03T11:18:48.999Z</time></trkpt><trkpt lat="43.57521696556367" lon="11.366561272339958"><ele>725.0</ele><time>2026-04-03T11:18:50.999Z</time></trkpt><trkpt lat="43.575186765238264" lon="11.366463908027558"><ele>725.0</ele><time>2026-04-03T11:18:52.999Z</time></trkpt><trkpt lat="43.57514232161825" lon="11.36635401667021"><ele>725.0</ele><time>2026-04-03T11:18:54.999Z</time></trkpt><trkpt lat="43.57508947133365" lon="11.366272141123304"><ele>725.0</ele><time>2026-04-03T11:18:56.999Z</time></trkpt><trkpt lat="43.57503556206907" lon="11.36616454050985"><ele>725.0</ele><time>2026-04-03T11:18:59.999Z</time></trkpt><trkpt lat="43.57500435594283" lon="11.366049945879029"><ele>725.0</ele><time>2026-04-03T11:19:02Z</time></trkpt><trkpt lat="43.5749385096536" lon="11.365981463613796"><ele>723.3333333333333</ele><time>2026-04-03T11:19:04Z</time></trkpt><trkpt lat="43.57493664650798" lon="11.365874827620674"><ele>721.6666666666666</ele><time>2026-04-03T11:19:06Z</time></trkpt><trkpt lat="43.574924867228816" lon="11.365787423084836"><ele>720.0</ele><time>2026-04-03T11:19:08Z</time></trkpt><trkpt lat="43.57483888025051" lon="11.365792293057162"><ele>718.3333333333334</ele><time>2026-04-03T11:19:10Z</time></trkpt><trkpt lat="43.57474217640638" lon="11.365844790178674"><ele>716.6666666666667</ele><time>2026-04-03T11:19:12Z</time></trkpt><trkpt lat="43.57465382304948" lon="11.36591378941515"><ele>715.0</ele><time>2026-04-03T11:19:14Z</time></trkpt><trkpt lat="43.57458870517596" lon="11.365938400603042"><ele>712.5</ele><time>2026-04-03T11:19:16Z</time></trkpt><trkpt lat="43.57451295520346" lon="11.366008737137452"><ele>710.0</ele><time>2026-04-03T11:19:18Z</time></trkpt><trkpt lat="43.57445809387418" lon="11.366088724659829"><ele>707.5</ele><time>2026-04-03T11:19:20Z</time></trkpt><trkpt lat="43.574417291385025" lon="11.366175034246103"><ele>705.0</ele><time>2026-04-03T11:19:22Z</time></trkpt><trkpt lat="43.57437094986571" lon="11.36628421379441"><ele>702.5</ele><time>2026-04-03T11:19:24Z</time></trkpt><trkpt lat="43.57431711571455" lon="11.366410804809487"><ele>700.0</ele><time>2026-04-03T11:19:26Z</time></trkpt><trkpt lat="43.57425636296676" lon="11.366500337089837"><ele>700.0</ele><time>2026-04-03T11:19:28Z</time></trkpt><trkpt lat="43.57420130523844" lon="11.366586515793147"><ele>700.0</ele><time>2026-04-03T11:19:31Z</time></trkpt><trkpt lat="43.574133707909375" lon="11.366692263336919"><ele>700.0</ele><time>2026-04-03T11:19:34Z</time></trkpt><trkpt lat="43.57409405289123" lon="11.366775013477232"><ele>700.0</ele><time>2026-04-03T11:19:36Z</time></trkpt><trkpt lat="43.57406229744307" lon="11.36688847674334"><ele>700.0</ele><time>2026-04-03T11:19:38Z</time></trkpt><trkpt lat="43.57403995224373" lon="11.367019206855641"><ele>700.0</ele><time>2026-04-03T11:19:40Z</time></trkpt><trkpt lat="43.574009983675545" lon="11.367137430599994"><ele>700.0</ele><time>2026-04-03T11:19:43Z</time></trkpt><trkpt lat="43.57391896360611" lon="11.367082204537104"><ele>700.0</ele><time>2026-04-03T11:19:45Z</time></trkpt><trkpt lat="43.57389867867267" lon="11.366998153686621"><ele>700.0</ele><time>2026-04-03T11:19:46Z</time></trkpt><trkpt lat="43.57391303939909" lon="11.366818162587615"><ele>700.0</ele><time>2026-04-03T11:19:48Z</time></trkpt><trkpt lat="43.57391954227733" lon="11.366716058816703"><ele>700.0</ele><time>2026-04-03T11:19:49Z</time></trkpt><trkpt lat="43.573921459264575" lon="11.36662616887522"><ele>700.0</ele><time>2026-04-03T11:19:50Z</time></trkpt><trkpt lat="43.5739231995176" lon="11.366536796675074"><ele>700.0</ele><time>2026-04-03T11:19:51Z</time></trkpt><trkpt lat="43.57391333522801" lon="11.366376607558065"><ele>700.0</ele><time>2026-04-03T11:19:53Z</time></trkpt><trkpt lat="43.57391333132537" lon="11.366215247599994"><ele>700.0</ele><time>2026-04-03T11:19:55Z</time></trkpt><trkpt lat="43.57389001399534" lon="11.36603352493386"><ele>700.0</ele><time>2026-04-03T11:19:57Z</time></trkpt><trkpt lat="43.57387755036873" lon="11.36594005141898"><ele>700.0</ele><time>2026-04-03T11:19:58Z</time></trkpt><trkpt lat="43.57387936926603" lon="11.365842229007194"><ele>699.8333333333334</ele><time>2026-04-03T11:19:59Z</time></trkpt><trkpt lat="43.57388041258698" lon="11.365750298312655"><ele>699.6666666666667</ele><time>2026-04-03T11:20:00Z</time></trkpt><trkpt lat="43.57388743899889" lon="11.365643642486676"><ele>699.5</ele><time>2026-04-03T11:20:01Z</time></trkpt><trkpt lat="43.57388576394266" lon="11.365541747078817"><ele>699.3333333333334</ele><time>2026-04-03T11:20:02Z</time></trkpt><trkpt lat="43.57388393517267" lon="11.36545045644507"><ele>699.1666666666666</ele><time>2026-04-03T11:20:03Z</time></trkpt><trkpt lat="43.573893820606884" lon="11.365330887917418"><ele>699.0</ele><time>2026-04-03T11:20:04.999Z</time></trkpt><trkpt lat="43.573897531418595" lon="11.365179889967486"><ele>697.6</ele><time>2026-04-03T11:20:06.999Z</time></trkpt><trkpt lat="43.573911855984115" lon="11.365044086913146"><ele>696.2</ele><time>2026-04-03T11:20:08.999Z</time></trkpt><trkpt lat="43.57392562235499" lon="11.364907274705045"><ele>694.8000000000001</ele><time>2026-04-03T11:20:10.999Z</time></trkpt><trkpt lat="43.573975183038456" lon="11.36478471645319"><ele>693.4000000000001</ele><time>2026-04-03T11:20:12.999Z</time></trkpt><trkpt lat="43.57402626764648" lon="11.364695297757661"><ele>692.0</ele><time>2026-04-03T11:20:15.999Z</time></trkpt><trkpt lat="43.57406965187993" lon="11.364606170010292"><ele>688.8</ele><time>2026-04-03T11:20:17.999Z</time></trkpt><trkpt lat="43.57410669758377" lon="11.364494030253939"><ele>685.6</ele><time>2026-04-03T11:20:19.999Z</time></trkpt><trkpt lat="43.57414711639747" lon="11.364349379771102"><ele>682.4</ele><time>2026-04-03T11:20:21.999Z</time></trkpt><trkpt lat="43.57420296916264" lon="11.364220829934899"><ele>679.1999999999999</ele><time>2026-04-03T11:20:23.999Z</time></trkpt><trkpt lat="43.57424808233401" lon="11.3640906985321"><ele>676.0</ele><time>2026-04-03T11:20:25.999Z</time></trkpt><trkpt lat="43.574282229260106" lon="11.363981538830545"><ele>676.0</ele><time>2026-04-03T11:20:27.999Z</time></trkpt><trkpt lat="43.574295819196685" lon="11.363882149824509"><ele>676.0</ele><time>2026-04-03T11:20:45.999Z</time></trkpt><trkpt lat="43.574345635674305" lon="11.363778732499956"><ele>676.0</ele><time>2026-04-03T11:20:48.999Z</time></trkpt><trkpt lat="43.574396976053215" lon="11.363679413216397"><ele>676.0</ele><time>2026-04-03T11:20:51.999Z</time></trkpt><trkpt lat="43.57446643193731" lon="11.363616945431614"><ele>676.0</ele><time>2026-04-03T11:20:53.999Z</time></trkpt><trkpt lat="43.57451976942903" lon="11.363563727603763"><ele>676.0</ele><time>2026-04-03T11:20:55.999Z</time></trkpt><trkpt lat="43.574577750101994" lon="11.36349108391195"><ele>672.1999999999999</ele><time>2026-04-03T11:20:57.999Z</time></trkpt><trkpt lat="43.57465180560454" lon="11.363439887056911"><ele>668.4</ele><time>2026-04-03T11:20:59.999Z</time></trkpt><trkpt lat="43.57471656455639" lon="11.363403885648564"><ele>664.6</ele><time>2026-04-03T11:21:01.999Z</time></trkpt><trkpt lat="43.57481403309159" lon="11.363413404594567"><ele>660.8</ele><time>2026-04-03T11:21:03.999Z</time></trkpt><trkpt lat="43.5749116339376" lon="11.363489185838564"><ele>657.0</ele><time>2026-04-03T11:21:05.999Z</time></trkpt><trkpt lat="43.57499806493629" lon="11.363590207215083"><ele>657.0</ele><time>2026-04-03T11:21:08Z</time></trkpt><trkpt lat="43.57506290054275" lon="11.363657006905672"><ele>657.0</ele><time>2026-04-03T11:21:10Z</time></trkpt><trkpt lat="43.57514215131426" lon="11.363706805806977"><ele>657.0</ele><time>2026-04-03T11:21:12Z</time></trkpt><trkpt lat="43.575234503830224" lon="11.363759219275446"><ele>657.0</ele><time>2026-04-03T11:21:14Z</time></trkpt><trkpt lat="43.5752971148772" lon="11.363810510537212"><ele>657.0</ele><time>2026-04-03T11:21:16Z</time></trkpt><trkpt lat="43.57536198230581" lon="11.363857706345792"><ele>657.0</ele><time>2026-04-03T11:21:19Z</time></trkpt><trkpt lat="43.57545308052267" lon="11.363916119595205"><ele>658.3333333333334</ele><time>2026-04-03T11:21:21Z</time></trkpt><trkpt lat="43.57553396469852" lon="11.363897499831712"><ele>659.6666666666666</ele><time>2026-04-03T11:21:23Z</time></trkpt><trkpt lat="43.575590663165" lon="11.363855292451152"><ele>661.0</ele><time>2026-04-03T11:21:24Z</time></trkpt><trkpt lat="43.575718367345885" lon="11.363796878536018"><ele>662.3333333333333</ele><time>2026-04-03T11:21:26Z</time></trkpt><trkpt lat="43.575791911432994" lon="11.363759782912764"><ele>663.6666666666666</ele><time>2026-04-03T11:21:27Z</time></trkpt><trkpt lat="43.575865316511674" lon="11.363715294328061"><ele>665.0</ele><time>2026-04-03T11:21:28Z</time></trkpt><trkpt lat="43.57593496843501" lon="11.363698795569064"><ele>659.6666666666666</ele><time>2026-04-03T11:21:29Z</time></trkpt><trkpt lat="43.576002187300254" lon="11.363692034111923"><ele>654.3333333333333</ele><time>2026-04-03T11:21:30Z</time></trkpt><trkpt lat="43.576081566361985" lon="11.363710165320306"><ele>649.0</ele><time>2026-04-03T11:21:31Z</time></trkpt><trkpt lat="43.576158203476226" lon="11.36374428514176"><ele>643.6666666666666</ele><time>2026-04-03T11:21:32Z</time></trkpt><trkpt lat="43.57623101067394" lon="11.363787042101366"><ele>638.3333333333334</ele><time>2026-04-03T11:21:33Z</time></trkpt><trkpt lat="43.57630189294048" lon="11.36381253404805"><ele>633.0</ele><time>2026-04-03T11:21:34Z</time></trkpt><trkpt lat="43.576377169608634" lon="11.363811223897745"><ele>632.6666666666666</ele><time>2026-04-03T11:21:35Z</time></trkpt><trkpt lat="43.57644739970891" lon="11.363823665887274"><ele>632.3333333333334</ele><time>2026-04-03T11:21:36Z</time></trkpt><trkpt lat="43.576537183155764" lon="11.363846010919838"><ele>632.0</ele><time>2026-04-03T11:21:37Z</time></trkpt><trkpt lat="43.576609293521635" lon="11.363861180800633"><ele>631.6666666666667</ele><time>2026-04-03T11:21:38Z</time></trkpt><trkpt lat="43.5766724434841" lon="11.363885907313055"><ele>631.3333333333334</ele><time>2026-04-03T11:21:39Z</time></trkpt><trkpt lat="43.57675042594547" lon="11.363903899327472"><ele>631.0</ele><time>2026-04-03T11:21:40Z</time></trkpt><trkpt lat="43.57682487162318" lon="11.363927235177538"><ele>630.6666666666667</ele><time>2026-04-03T11:21:41Z</time></trkpt><trkpt lat="43.57695254969866" lon="11.363918971450289"><ele>630.3333333333334</ele><time>2026-04-03T11:21:43Z</time></trkpt><trkpt lat="43.57704183237472" lon="11.36390346278048"><ele>630.0</ele><time>2026-04-03T11:21:45Z</time></trkpt><trkpt lat="43.5771056049599" lon="11.363881051022785"><ele>629.6666666666666</ele><time>2026-04-03T11:21:47Z</time></trkpt><trkpt lat="43.57717503954082" lon="11.363810643246534"><ele>629.3333333333333</ele><time>2026-04-03T11:21:49Z</time></trkpt><trkpt lat="43.57722399214487" lon="11.363725552837082"><ele>629.0</ele><time>2026-04-03T11:21:51Z</time></trkpt><trkpt lat="43.5773326972647" lon="11.36368792358561"><ele>629.0</ele><time>2026-04-03T11:21:53Z</time></trkpt><trkpt lat="43.577399526435535" lon="11.363648133806604"><ele>629.0</ele><time>2026-04-03T11:21:54Z</time></trkpt><trkpt lat="43.57745141810234" lon="11.363580863030785"><ele>629.0</ele><time>2026-04-03T11:21:55Z</time></trkpt><trkpt lat="43.577495662378304" lon="11.363505868604896"><ele>629.0</ele><time>2026-04-03T11:21:56Z</time></trkpt><trkpt lat="43.57754984581845" lon="11.363450729695565"><ele>629.0</ele><time>2026-04-03T11:21:57Z</time></trkpt><trkpt lat="43.5776137384195" lon="11.363395685095027"><ele>629.0</ele><time>2026-04-03T11:21:58Z</time></trkpt><trkpt lat="43.577670805536854" lon="11.363350005738296"><ele>629.0</ele><time>2026-04-03T11:21:59Z</time></trkpt><trkpt lat="43.57772010284685" lon="11.363294571528572"><ele>629.0</ele><time>2026-04-03T11:22:00Z</time></trkpt><trkpt lat="43.577775942416814" lon="11.36320188427067"><ele>629.0</ele><time>2026-04-03T11:22:02Z</time></trkpt><trkpt lat="43.57778837789237" lon="11.363109224781345"><ele>629.0</ele><time>2026-04-03T11:22:05Z</time></trkpt><trkpt lat="43.57784615383256" lon="11.36301210786734"><ele>629.0</ele><time>2026-04-03T11:22:07Z</time></trkpt><trkpt lat="43.5779177337737" lon="11.362987457598988"><ele>629.0</ele><time>2026-04-03T11:22:09Z</time></trkpt><trkpt lat="43.577964987213" lon="11.362843651404216"><ele>629.0</ele><time>2026-04-03T11:22:10.999Z</time></trkpt><trkpt lat="43.578028828621676" lon="11.362804106454961"><ele>629.1666666666666</ele><time>2026-04-03T11:22:12.999Z</time></trkpt><trkpt lat="43.57811853888442" lon="11.362716746570134"><ele>629.3333333333333</ele><time>2026-04-03T11:22:26.999Z</time></trkpt><trkpt lat="43.578181636983565" lon="11.362650654261872"><ele>629.5</ele><time>2026-04-03T11:22:27.999Z</time></trkpt><trkpt lat="43.57821980911861" lon="11.362560831891694"><ele>629.6666666666666</ele><time>2026-04-03T11:22:28.999Z</time></trkpt><trkpt lat="43.57824196068509" lon="11.36244699376779"><ele>629.8333333333334</ele><time>2026-04-03T11:22:29.999Z</time></trkpt><trkpt lat="43.57824267325017" lon="11.362312625367084"><ele>630.0</ele><time>2026-04-03T11:22:30.999Z</time></trkpt><trkpt lat="43.578246633784154" lon="11.362164973543363"><ele>631.0</ele><time>2026-04-03T11:22:31.999Z</time></trkpt><trkpt lat="43.57824812041414" lon="11.362034467681465"><ele>632.0</ele><time>2026-04-03T11:22:32.999Z</time></trkpt><trkpt lat="43.57824928181538" lon="11.36193407001474"><ele>633.0</ele><time>2026-04-03T11:22:33.999Z</time></trkpt><trkpt lat="43.57824822751817" lon="11.361839057391162"><ele>634.0</ele><time>2026-04-03T11:22:34.999Z</time></trkpt><trkpt lat="43.57823728406685" lon="11.36174422776491"><ele>635.0</ele><time>2026-04-03T11:22:35.999Z</time></trkpt><trkpt lat="43.57821344499559" lon="11.361653784174907"><ele>636.0</ele><time>2026-04-03T11:22:36.999Z</time></trkpt><trkpt lat="43.57818468048616" lon="11.36155791694006"><ele>636.0</ele><time>2026-04-03T11:22:37.999Z</time></trkpt><trkpt lat="43.57814741234327" lon="11.361455342293722"><ele>636.0</ele><time>2026-04-03T11:22:38.999Z</time></trkpt><trkpt lat="43.57811566418898" lon="11.361354846603382"><ele>636.0</ele><time>2026-04-03T11:22:39.999Z</time></trkpt><trkpt lat="43.578106649398634" lon="11.361193241177343"><ele>636.0</ele><time>2026-04-03T11:22:41.999Z</time></trkpt><trkpt lat="43.57813386238638" lon="11.361008923327534"><ele>636.0</ele><time>2026-04-03T11:22:43.999Z</time></trkpt><trkpt lat="43.57813874834759" lon="11.360904932507417"><ele>636.3333333333334</ele><time>2026-04-03T11:22:44.999Z</time></trkpt><trkpt lat="43.578145357352355" lon="11.360783560162188"><ele>636.6666666666666</ele><time>2026-04-03T11:22:45.999Z</time></trkpt><trkpt lat="43.5781530340034" lon="11.360656651914395"><ele>637.0</ele><time>2026-04-03T11:22:46.999Z</time></trkpt><trkpt lat="43.578142317218614" lon="11.360539180386004"><ele>637.3333333333333</ele><time>2026-04-03T11:22:47.999Z</time></trkpt><trkpt lat="43.57811132436752" lon="11.36043446525068"><ele>637.6666666666666</ele><time>2026-04-03T11:22:48.999Z</time></trkpt><trkpt lat="43.57806390887514" lon="11.360334926613008"><ele>638.0</ele><time>2026-04-03T11:22:49.999Z</time></trkpt><trkpt lat="43.57802221862619" lon="11.360246394414519"><ele>638.3333333333333</ele><time>2026-04-03T11:22:50.999Z</time></trkpt><trkpt lat="43.577973144599746" lon="11.360144796513397"><ele>638.6666666666666</ele><time>2026-04-03T11:22:51.999Z</time></trkpt><trkpt lat="43.57793562927675" lon="11.360067230531355"><ele>639.0</ele><time>2026-04-03T11:22:52.999Z</time></trkpt><trkpt lat="43.577898333791765" lon="11.359990118962857"><ele>639.3333333333334</ele><time>2026-04-03T11:22:53.999Z</time></trkpt><trkpt lat="43.57782275706974" lon="11.359831667756355"><ele>639.6666666666667</ele><time>2026-04-03T11:22:55.999Z</time></trkpt><trkpt lat="43.57778253835317" lon="11.35973169323024"><ele>640.0</ele><time>2026-04-03T11:22:56.999Z</time></trkpt><trkpt lat="43.577741267358526" lon="11.359632662751308"><ele>642.0</ele><time>2026-04-03T11:22:57.999Z</time></trkpt><trkpt lat="43.57769836982999" lon="11.359534836021798"><ele>644.0</ele><time>2026-04-03T11:22:58.999Z</time></trkpt><trkpt lat="43.57764411476568" lon="11.359412396946443"><ele>646.0</ele><time>2026-04-03T11:22:59.999Z</time></trkpt><trkpt lat="43.57758558059434" lon="11.359286070052718"><ele>648.0</ele><time>2026-04-03T11:23:00.999Z</time></trkpt><trkpt lat="43.57753427231032" lon="11.359179107558637"><ele>650.0</ele><time>2026-04-03T11:23:01.999Z</time></trkpt><trkpt lat="43.577480713017124" lon="11.359069773695552"><ele>650.0</ele><time>2026-04-03T11:23:02.999Z</time></trkpt><trkpt lat="43.577432305249836" lon="11.358966412858118"><ele>650.0</ele><time>2026-04-03T11:23:03.999Z</time></trkpt><trkpt lat="43.577385400411366" lon="11.358864943075208"><ele>650.0</ele><time>2026-04-03T11:23:04.999Z</time></trkpt><trkpt lat="43.57734694210733" lon="11.35877810995295"><ele>650.0</ele><time>2026-04-03T11:23:05.999Z</time></trkpt><trkpt lat="43.57731729188377" lon="11.358694021758089"><ele>650.0</ele><time>2026-04-03T11:23:06.999Z</time></trkpt><trkpt lat="43.577291310077975" lon="11.358606877298337"><ele>650.0</ele><time>2026-04-03T11:23:07.999Z</time></trkpt><trkpt lat="43.5772670610298" lon="11.358507912025557"><ele>650.3333333333333</ele><time>2026-04-03T11:23:08.999Z</time></trkpt><trkpt lat="43.57724288201796" lon="11.358399782683833"><ele>650.6666666666666</ele><time>2026-04-03T11:23:09.999Z</time></trkpt><trkpt lat="43.577213057161345" lon="11.358283365774653"><ele>651.0</ele><time>2026-04-03T11:23:10.999Z</time></trkpt><trkpt lat="43.57718402661946" lon="11.358185416191462"><ele>651.3333333333334</ele><time>2026-04-03T11:23:11.999Z</time></trkpt><trkpt lat="43.57714189791658" lon="11.35809350982659"><ele>651.6666666666667</ele><time>2026-04-03T11:23:13Z</time></trkpt><trkpt lat="43.57708834369315" lon="11.358019295694474"><ele>652.0</ele><time>2026-04-03T11:23:14Z</time></trkpt><trkpt lat="43.57704431928246" lon="11.35795509700573"><ele>651.0</ele><time>2026-04-03T11:23:15Z</time></trkpt><trkpt lat="43.57699963427202" lon="11.357889934926831"><ele>650.0</ele><time>2026-04-03T11:23:16Z</time></trkpt><trkpt lat="43.57694957356123" lon="11.357814868036389"><ele>649.0</ele><time>2026-04-03T11:23:17Z</time></trkpt><trkpt lat="43.57689767359078" lon="11.357735766542753"><ele>648.0</ele><time>2026-04-03T11:23:18Z</time></trkpt><trkpt lat="43.57684576191101" lon="11.357659570566147"><ele>647.0</ele><time>2026-04-03T11:23:19Z</time></trkpt><trkpt lat="43.5767267850783" lon="11.357557615637372"><ele>646.0</ele><time>2026-04-03T11:23:21Z</time></trkpt><trkpt lat="43.57661939780022" lon="11.357461106946456"><ele>646.0</ele><time>2026-04-03T11:23:23Z</time></trkpt><trkpt lat="43.5765566093549" lon="11.35741048950458"><ele>646.0</ele><time>2026-04-03T11:23:24Z</time></trkpt><trkpt lat="43.57649499742283" lon="11.357368011984262"><ele>646.0</ele><time>2026-04-03T11:23:25Z</time></trkpt><trkpt lat="43.57643149425597" lon="11.357327217084604"><ele>646.0</ele><time>2026-04-03T11:23:26Z</time></trkpt><trkpt lat="43.576364547222866" lon="11.35728208204179"><ele>646.0</ele><time>2026-04-03T11:23:27Z</time></trkpt><trkpt lat="43.576265709632544" lon="11.357211521850672"><ele>646.0</ele><time>2026-04-03T11:23:29Z</time></trkpt><trkpt lat="43.57617446136048" lon="11.357158611733531"><ele>642.5999999999999</ele><time>2026-04-03T11:23:31Z</time></trkpt><trkpt lat="43.576114625076976" lon="11.35706840145658"><ele>639.1999999999999</ele><time>2026-04-03T11:23:33Z</time></trkpt><trkpt lat="43.57607401219481" lon="11.356956931841216"><ele>635.8</ele><time>2026-04-03T11:23:35Z</time></trkpt><trkpt lat="43.57610145364198" lon="11.35686712650061"><ele>632.4</ele><time>2026-04-03T11:23:38Z</time></trkpt><trkpt lat="43.57607414487587" lon="11.356775310657433"><ele>629.0</ele><time>2026-04-03T11:23:45Z</time></trkpt><trkpt lat="43.57594520203721" lon="11.356564640000006"><ele>629.0</ele><time>2026-04-03T11:23:50Z</time></trkpt><trkpt lat="43.575780968529074" lon="11.356621686211382"><ele>629.0</ele><time>2026-04-03T11:23:51Z</time></trkpt><trkpt lat="43.575709437709506" lon="11.356547646220138"><ele>629.0</ele><time>2026-04-03T11:23:53Z</time></trkpt><trkpt lat="43.57559274281241" lon="11.35654033029659"><ele>629.0</ele><time>2026-04-03T11:23:55Z</time></trkpt><trkpt lat="43.575529839229105" lon="11.356552572023284"><ele>629.0</ele><time>2026-04-03T11:23:56Z</time></trkpt><trkpt lat="43.57541364059304" lon="11.35651510458689"><ele>629.0</ele><time>2026-04-03T11:23:58Z</time></trkpt><trkpt lat="43.57530291752096" lon="11.356428020760259"><ele>629.0</ele><time>2026-04-03T11:24:00Z</time></trkpt><trkpt lat="43.57524351158282" lon="11.35639849388903"><ele>629.0</ele><time>2026-04-03T11:24:03Z</time></trkpt><trkpt lat="43.57518760782159" lon="11.356328305794595"><ele>629.0</ele><time>2026-04-03T11:24:08Z</time></trkpt><trkpt lat="43.575236367750776" lon="11.356414174565012"><ele>629.0</ele><time>2026-04-03T11:24:12.999Z</time></trkpt><trkpt lat="43.575367679410235" lon="11.356482331301043"><ele>629.0</ele><time>2026-04-03T11:24:14.999Z</time></trkpt><trkpt lat="43.57546721899985" lon="11.35654029991442"><ele>629.0</ele><time>2026-04-03T11:24:15.999Z</time></trkpt><trkpt lat="43.57556157867282" lon="11.356569131950959"><ele>629.0</ele><time>2026-04-03T11:24:16.999Z</time></trkpt><trkpt lat="43.575652470088784" lon="11.356552672834587"><ele>629.0</ele><time>2026-04-03T11:24:17.999Z</time></trkpt><trkpt lat="43.57572092432426" lon="11.356546069329305"><ele>629.0</ele><time>2026-04-03T11:24:18.999Z</time></trkpt><trkpt lat="43.575776112934435" lon="11.35659467264892"><ele>629.0</ele><time>2026-04-03T11:24:19.999Z</time></trkpt><trkpt lat="43.57584834717011" lon="11.356674611902218"><ele>629.0</ele><time>2026-04-03T11:24:20.999Z</time></trkpt><trkpt lat="43.5759367463638" lon="11.356744160975877"><ele>629.0</ele><time>2026-04-03T11:24:21.999Z</time></trkpt><trkpt lat="43.57602644163384" lon="11.356802217130102"><ele>629.0</ele><time>2026-04-03T11:24:22.999Z</time></trkpt><trkpt lat="43.57616496728999" lon="11.356849698299552"><ele>629.0</ele><time>2026-04-03T11:24:24.999Z</time></trkpt><trkpt lat="43.57626825224827" lon="11.356874378041216"><ele>629.0</ele><time>2026-04-03T11:24:26.999Z</time></trkpt><trkpt lat="43.576381407502396" lon="11.356899037610727"><ele>629.8333333333333</ele><time>2026-04-03T11:24:28.999Z</time></trkpt><trkpt lat="43.576450053138636" lon="11.356873886949034"><ele>630.6666666666666</ele><time>2026-04-03T11:24:29.999Z</time></trkpt><trkpt lat="43.576507778179135" lon="11.356829463286319"><ele>631.5</ele><time>2026-04-03T11:24:30.999Z</time></trkpt><trkpt lat="43.576591110950226" lon="11.356758374918392"><ele>632.3333333333334</ele><time>2026-04-03T11:24:32.999Z</time></trkpt><trkpt lat="43.57670049557002" lon="11.356696237992114"><ele>633.1666666666667</ele><time>2026-04-03T11:24:34.999Z</time></trkpt><trkpt lat="43.576756413256845" lon="11.356636473362554"><ele>634.0</ele><time>2026-04-03T11:24:35.999Z</time></trkpt><trkpt lat="43.57680725750521" lon="11.356574862145159"><ele>634.0</ele><time>2026-04-03T11:24:36.999Z</time></trkpt><trkpt lat="43.57684590839972" lon="11.356502912194928"><ele>634.0</ele><time>2026-04-03T11:24:37.999Z</time></trkpt><trkpt lat="43.57690218211654" lon="11.35644485591317"><ele>634.0</ele><time>2026-04-03T11:24:38.999Z</time></trkpt><trkpt lat="43.57696548732579" lon="11.356379868416205"><ele>634.0</ele><time>2026-04-03T11:24:39.999Z</time></trkpt><trkpt lat="43.5770175571252" lon="11.356306007464164"><ele>634.0</ele><time>2026-04-03T11:24:40.999Z</time></trkpt><trkpt lat="43.57708701893946" lon="11.35625140518326"><ele>634.0</ele><time>2026-04-03T11:24:41.999Z</time></trkpt><trkpt lat="43.57716324762198" lon="11.356216346343427"><ele>634.0</ele><time>2026-04-03T11:24:42.999Z</time></trkpt><trkpt lat="43.57722793648468" lon="11.35615767905564"><ele>632.5</ele><time>2026-04-03T11:24:43.999Z</time></trkpt><trkpt lat="43.577305237637084" lon="11.356123349482663"><ele>631.0</ele><time>2026-04-03T11:24:44.999Z</time></trkpt><trkpt lat="43.577377654370814" lon="11.356080425751228"><ele>629.5</ele><time>2026-04-03T11:24:45.999Z</time></trkpt><trkpt lat="43.57744821615849" lon="11.356026558183782"><ele>628.0</ele><time>2026-04-03T11:24:46.999Z</time></trkpt><trkpt lat="43.57750413759475" lon="11.355952425553452"><ele>626.5</ele><time>2026-04-03T11:24:47.999Z</time></trkpt><trkpt lat="43.577557446615835" lon="11.35588725588827"><ele>625.0</ele><time>2026-04-03T11:24:48.999Z</time></trkpt><trkpt lat="43.577619581207834" lon="11.355853654007316"><ele>625.0</ele><time>2026-04-03T11:24:49.999Z</time></trkpt><trkpt lat="43.57768582430738" lon="11.355801055135101"><ele>625.0</ele><time>2026-04-03T11:24:50.999Z</time></trkpt><trkpt lat="43.57773402193067" lon="11.355694935992533"><ele>625.0</ele><time>2026-04-03T11:24:51.999Z</time></trkpt><trkpt lat="43.57779232644006" lon="11.35560689443039"><ele>625.0</ele><time>2026-04-03T11:24:52.999Z</time></trkpt><trkpt lat="43.57781350299941" lon="11.355514163741418"><ele>625.0</ele><time>2026-04-03T11:24:53.999Z</time></trkpt><trkpt lat="43.57789914809463" lon="11.355387310306314"><ele>623.1666666666667</ele><time>2026-04-03T11:24:55.999Z</time></trkpt><trkpt lat="43.57794304328383" lon="11.355316328405832"><ele>621.3333333333334</ele><time>2026-04-03T11:24:56.999Z</time></trkpt><trkpt lat="43.57797915478995" lon="11.355229830759688"><ele>619.5</ele><time>2026-04-03T11:24:57.999Z</time></trkpt><trkpt lat="43.57803701374614" lon="11.355167887249824"><ele>617.6666666666666</ele><time>2026-04-03T11:24:58.999Z</time></trkpt><trkpt lat="43.57811983006873" lon="11.35512548994647"><ele>615.8333333333333</ele><time>2026-04-03T11:24:59.999Z</time></trkpt><trkpt lat="43.57819130172815" lon="11.355081047460873"><ele>614.0</ele><time>2026-04-03T11:25:00.999Z</time></trkpt><trkpt lat="43.57824480171979" lon="11.355014615950168"><ele>614.0</ele><time>2026-04-03T11:25:01.999Z</time></trkpt><trkpt lat="43.578298862696954" lon="11.354907636764146"><ele>614.0</ele><time>2026-04-03T11:25:02.999Z</time></trkpt><trkpt lat="43.57834737046953" lon="11.354816224856867"><ele>614.0</ele><time>2026-04-03T11:25:03.999Z</time></trkpt><trkpt lat="43.57838661578583" lon="11.354744086186862"><ele>614.0</ele><time>2026-04-03T11:25:04.999Z</time></trkpt><trkpt lat="43.578437016230154" lon="11.354601592621048"><ele>614.0</ele><time>2026-04-03T11:25:07.999Z</time></trkpt><trkpt lat="43.57844463678585" lon="11.354515252165756"><ele>614.0</ele><time>2026-04-03T11:25:08.999Z</time></trkpt><trkpt lat="43.578452822008764" lon="11.354419548055589"><ele>613.5714285714286</ele><time>2026-04-03T11:25:09.999Z</time></trkpt><trkpt lat="43.578469305043114" lon="11.354327416303398"><ele>613.1428571428571</ele><time>2026-04-03T11:25:10.999Z</time></trkpt><trkpt lat="43.578504993312166" lon="11.354247791548245"><ele>612.7142857142858</ele><time>2026-04-03T11:25:11.999Z</time></trkpt><trkpt lat="43.578540996534244" lon="11.354139572676925"><ele>612.2857142857142</ele><time>2026-04-03T11:25:12.999Z</time></trkpt><trkpt lat="43.57856809469833" lon="11.354046404517792"><ele>611.8571428571429</ele><time>2026-04-03T11:25:13.999Z</time></trkpt><trkpt lat="43.57859248953437" lon="11.35395813234773"><ele>611.4285714285714</ele><time>2026-04-03T11:25:14.999Z</time></trkpt><trkpt lat="43.578615866844174" lon="11.353873542068609"><ele>611.0</ele><time>2026-04-03T11:25:15.999Z</time></trkpt><trkpt lat="43.57864308125116" lon="11.35377898503701"><ele>610.1666666666666</ele><time>2026-04-03T11:25:16.999Z</time></trkpt><trkpt lat="43.57869453315685" lon="11.353671005865097"><ele>609.3333333333333</ele><time>2026-04-03T11:25:19Z</time></trkpt><trkpt lat="43.578722738214694" lon="11.353592315534405"><ele>608.5</ele><time>2026-04-03T11:25:20Z</time></trkpt><trkpt lat="43.578726549492345" lon="11.35349555085169"><ele>607.6666666666666</ele><time>2026-04-03T11:25:21Z</time></trkpt><trkpt lat="43.578686229262146" lon="11.353392804968138"><ele>606.8333333333334</ele><time>2026-04-03T11:25:22Z</time></trkpt><trkpt lat="43.5786361147782" lon="11.353301273461888"><ele>606.0</ele><time>2026-04-03T11:25:23Z</time></trkpt><trkpt lat="43.57857577231455" lon="11.35322003011042"><ele>606.0</ele><time>2026-04-03T11:25:24Z</time></trkpt><trkpt lat="43.57851680463529" lon="11.35312029132021"><ele>606.0</ele><time>2026-04-03T11:25:25Z</time></trkpt><trkpt lat="43.57845355449143" lon="11.353007719719757"><ele>606.0</ele><time>2026-04-03T11:25:26Z</time></trkpt><trkpt lat="43.57839903509006" lon="11.352908062347302"><ele>606.0</ele><time>2026-04-03T11:25:27Z</time></trkpt><trkpt lat="43.5783524430583" lon="11.35282041233614"><ele>606.0</ele><time>2026-04-03T11:25:28Z</time></trkpt><trkpt lat="43.57830234417641" lon="11.352725159595563"><ele>604.6666666666666</ele><time>2026-04-03T11:25:29Z</time></trkpt><trkpt lat="43.578253110720105" lon="11.352631098327425"><ele>603.3333333333334</ele><time>2026-04-03T11:25:30Z</time></trkpt><trkpt lat="43.578208164572764" lon="11.352545228072612"><ele>602.0</ele><time>2026-04-03T11:25:31Z</time></trkpt><trkpt lat="43.578159021600186" lon="11.352447275307895"><ele>600.6666666666667</ele><time>2026-04-03T11:25:32Z</time></trkpt><trkpt lat="43.57810395404193" lon="11.35233694607657"><ele>599.3333333333334</ele><time>2026-04-03T11:25:33Z</time></trkpt><trkpt lat="43.57805325882974" lon="11.352235376822243"><ele>598.0</ele><time>2026-04-03T11:25:34Z</time></trkpt><trkpt lat="43.57799411079805" lon="11.352130734902488"><ele>597.1666666666667</ele><time>2026-04-03T11:25:35Z</time></trkpt><trkpt lat="43.57792623887054" lon="11.352031972095567"><ele>596.3333333333334</ele><time>2026-04-03T11:25:36Z</time></trkpt><trkpt lat="43.57786468663405" lon="11.35196567732576"><ele>595.5</ele><time>2026-04-03T11:25:37Z</time></trkpt><trkpt lat="43.577805793766395" lon="11.351897926940692"><ele>594.6666666666666</ele><time>2026-04-03T11:25:38Z</time></trkpt><trkpt lat="43.57774803263077" lon="11.351825073900223"><ele>593.8333333333333</ele><time>2026-04-03T11:25:39Z</time></trkpt><trkpt lat="43.57769656076658" lon="11.351747434966482"><ele>593.0</ele><time>2026-04-03T11:25:40Z</time></trkpt><trkpt lat="43.57764578314312" lon="11.35165707819882"><ele>593.0</ele><time>2026-04-03T11:25:41Z</time></trkpt><trkpt lat="43.577598494685255" lon="11.351566765111931"><ele>593.0</ele><time>2026-04-03T11:25:42Z</time></trkpt><trkpt lat="43.57755158764393" lon="11.351481750443334"><ele>593.0</ele><time>2026-04-03T11:25:43Z</time></trkpt><trkpt lat="43.5774712924461" lon="11.351355752312436"><ele>593.0</ele><time>2026-04-03T11:25:45Z</time></trkpt><trkpt lat="43.57739875915272" lon="11.35125842154465"><ele>593.0</ele><time>2026-04-03T11:25:47Z</time></trkpt><trkpt lat="43.57735662463444" lon="11.351133522909018"><ele>591.8333333333333</ele><time>2026-04-03T11:25:49Z</time></trkpt><trkpt lat="43.57728884441063" lon="11.35103377597392"><ele>590.6666666666666</ele><time>2026-04-03T11:25:51Z</time></trkpt><trkpt lat="43.577161769616815" lon="11.351086192395389"><ele>589.5</ele><time>2026-04-03T11:25:53Z</time></trkpt><trkpt lat="43.5770975782752" lon="11.351124365532177"><ele>588.3333333333334</ele><time>2026-04-03T11:25:54Z</time></trkpt><trkpt lat="43.57703360918645" lon="11.351162228680426"><ele>587.1666666666667</ele><time>2026-04-03T11:25:55Z</time></trkpt><trkpt lat="43.57696711558619" lon="11.351195475626449"><ele>586.0</ele><time>2026-04-03T11:25:56Z</time></trkpt><trkpt lat="43.57689978714222" lon="11.351215006066658"><ele>585.2</ele><time>2026-04-03T11:25:57Z</time></trkpt><trkpt lat="43.57680602843324" lon="11.3511956328895"><ele>584.4000000000001</ele><time>2026-04-03T11:25:59Z</time></trkpt><trkpt lat="43.576713177176174" lon="11.351130294220317"><ele>583.6</ele><time>2026-04-03T11:26:01Z</time></trkpt><trkpt lat="43.576607848306814" lon="11.351080230799647"><ele>582.8000000000001</ele><time>2026-04-03T11:26:03Z</time></trkpt><trkpt lat="43.57655078855151" lon="11.351036136509"><ele>582.0</ele><time>2026-04-03T11:26:04Z</time></trkpt><trkpt lat="43.576474940971146" lon="11.350979702637272"><ele>582.0</ele><time>2026-04-03T11:26:05Z</time></trkpt><trkpt lat="43.57641011646851" lon="11.350951431597036"><ele>582.0</ele><time>2026-04-03T11:26:06Z</time></trkpt><trkpt lat="43.57633601942621" lon="11.350923751506475"><ele>582.0</ele><time>2026-04-03T11:26:07Z</time></trkpt><trkpt lat="43.57621295661556" lon="11.350876419475696"><ele>582.0</ele><time>2026-04-03T11:26:09Z</time></trkpt><trkpt lat="43.57608315300756" lon="11.350775731101388"><ele>582.0</ele><time>2026-04-03T11:26:11Z</time></trkpt><trkpt lat="43.576020632504076" lon="11.35071543877621"><ele>579.0</ele><time>2026-04-03T11:26:12Z</time></trkpt><trkpt lat="43.57595446605171" lon="11.350649769498348"><ele>576.0</ele><time>2026-04-03T11:26:13Z</time></trkpt><trkpt lat="43.57585693627021" lon="11.350554763052704"><ele>573.0</ele><time>2026-04-03T11:26:15Z</time></trkpt><trkpt lat="43.57576400342001" lon="11.350473026780431"><ele>570.0</ele><time>2026-04-03T11:26:16.999Z</time></trkpt><trkpt lat="43.575660711298625" lon="11.350430809695071"><ele>567.0</ele><time>2026-04-03T11:26:18.999Z</time></trkpt><trkpt lat="43.57559448230243" lon="11.350326441775529"><ele>566.8000000000001</ele><time>2026-04-03T11:26:20.999Z</time></trkpt><trkpt lat="43.57554467841297" lon="11.350220110056995"><ele>566.6</ele><time>2026-04-03T11:26:21.999Z</time></trkpt><trkpt lat="43.57547657507406" lon="11.350136596984887"><ele>566.4000000000001</ele><time>2026-04-03T11:26:22.999Z</time></trkpt><trkpt lat="43.575421822741966" lon="11.350051362019665"><ele>566.2</ele><time>2026-04-03T11:26:23.999Z</time></trkpt><trkpt lat="43.575384408508874" lon="11.349978190196572"><ele>566.0</ele><time>2026-04-03T11:26:24.999Z</time></trkpt><trkpt lat="43.57532509530617" lon="11.349830209359348"><ele>564.0</ele><time>2026-04-03T11:26:26.999Z</time></trkpt><trkpt lat="43.57528839524792" lon="11.349751565656081"><ele>562.0</ele><time>2026-04-03T11:26:27.999Z</time></trkpt><trkpt lat="43.5752114656556" lon="11.349671041517045"><ele>560.0</ele><time>2026-04-03T11:26:28.999Z</time></trkpt><trkpt lat="43.575130106122835" lon="11.349608525100516"><ele>558.0</ele><time>2026-04-03T11:26:29.999Z</time></trkpt><trkpt lat="43.575056777784724" lon="11.349550420665016"><ele>556.0</ele><time>2026-04-03T11:26:30.999Z</time></trkpt><trkpt lat="43.57499553842856" lon="11.349505983356561"><ele>554.0</ele><time>2026-04-03T11:26:31.999Z</time></trkpt><trkpt lat="43.574928678458186" lon="11.349436523488407"><ele>554.0</ele><time>2026-04-03T11:26:32.999Z</time></trkpt><trkpt lat="43.57482216194256" lon="11.349418625362276"><ele>554.0</ele><time>2026-04-03T11:26:33.999Z</time></trkpt><trkpt lat="43.574742191729946" lon="11.34940721724861"><ele>554.0</ele><time>2026-04-03T11:26:34.999Z</time></trkpt><trkpt lat="43.574673054605036" lon="11.349398385105996"><ele>554.0</ele><time>2026-04-03T11:26:35.999Z</time></trkpt><trkpt lat="43.57462285588197" lon="11.349224459887438"><ele>554.0</ele><time>2026-04-03T11:26:38.999Z</time></trkpt><trkpt lat="43.574577424209735" lon="11.349092508490799"><ele>549.8</ele><time>2026-04-03T11:26:39.999Z</time></trkpt><trkpt lat="43.57451958257339" lon="11.348959196542996"><ele>545.5999999999999</ele><time>2026-04-03T11:26:40.999Z</time></trkpt><trkpt lat="43.57447320121725" lon="11.348836295770907"><ele>541.4</ele><time>2026-04-03T11:26:41.999Z</time></trkpt><trkpt lat="43.574432222603726" lon="11.348713912701633"><ele>537.1999999999999</ele><time>2026-04-03T11:26:42.999Z</time></trkpt><trkpt lat="43.57439436268376" lon="11.348585668617662"><ele>533.0</ele><time>2026-04-03T11:26:43.999Z</time></trkpt><trkpt lat="43.57436439100225" lon="11.348461172012282"><ele>532.1999999999999</ele><time>2026-04-03T11:26:44.999Z</time></trkpt><trkpt lat="43.57433975686074" lon="11.348335693263005"><ele>531.4</ele><time>2026-04-03T11:26:45.999Z</time></trkpt><trkpt lat="43.574324988989815" lon="11.348208942126764"><ele>530.5999999999999</ele><time>2026-04-03T11:26:46.999Z</time></trkpt><trkpt lat="43.57431322023876" lon="11.34807399371575"><ele>529.8</ele><time>2026-04-03T11:26:47.999Z</time></trkpt><trkpt lat="43.57430388566138" lon="11.347936175256404"><ele>529.0</ele><time>2026-04-03T11:26:48.999Z</time></trkpt><trkpt lat="43.57429621191114" lon="11.34781057377815"><ele>527.6666666666667</ele><time>2026-04-03T11:26:49.999Z</time></trkpt><trkpt lat="43.574291387087655" lon="11.347703822396284"><ele>526.3333333333334</ele><time>2026-04-03T11:26:50.999Z</time></trkpt><trkpt lat="43.57428854896875" lon="11.34759928398852"><ele>525.0</ele><time>2026-04-03T11:26:51.999Z</time></trkpt><trkpt lat="43.57428620252638" lon="11.347499095041908"><ele>523.6666666666666</ele><time>2026-04-03T11:26:52.999Z</time></trkpt><trkpt lat="43.57427747560236" lon="11.347386409351879"><ele>522.3333333333333</ele><time>2026-04-03T11:26:53.999Z</time></trkpt><trkpt lat="43.57426664083858" lon="11.347284475468642"><ele>521.0</ele><time>2026-04-03T11:26:54.999Z</time></trkpt><trkpt lat="43.57425377833992" lon="11.347181906744217"><ele>518.8333333333333</ele><time>2026-04-03T11:26:55.999Z</time></trkpt><trkpt lat="43.574239712747534" lon="11.347086212963053"><ele>516.6666666666666</ele><time>2026-04-03T11:26:56.999Z</time></trkpt><trkpt lat="43.57421439693953" lon="11.346976292816459"><ele>514.5</ele><time>2026-04-03T11:26:58.999Z</time></trkpt><trkpt lat="43.57413058565926" lon="11.34689321389139"><ele>512.3333333333334</ele><time>2026-04-03T11:27:00.999Z</time></trkpt><trkpt lat="43.57403017328377" lon="11.346931019672853"><ele>510.1666666666667</ele><time>2026-04-03T11:27:01.999Z</time></trkpt><trkpt lat="43.57396096952556" lon="11.346938643282455"><ele>508.0</ele><time>2026-04-03T11:27:02.999Z</time></trkpt><trkpt lat="43.57389667027088" lon="11.346942276298698"><ele>508.00000000000006</ele><time>2026-04-03T11:27:03.999Z</time></trkpt><trkpt lat="43.573830094402474" lon="11.346935667759256"><ele>508.0</ele><time>2026-04-03T11:27:04.999Z</time></trkpt><trkpt lat="43.57375999393928" lon="11.346903869886715"><ele>508.0</ele><time>2026-04-03T11:27:05.999Z</time></trkpt><trkpt lat="43.57368546158817" lon="11.346888525984614"><ele>508.0</ele><time>2026-04-03T11:27:06.999Z</time></trkpt><trkpt lat="43.57361172705257" lon="11.346882257674595"><ele>508.00000000000006</ele><time>2026-04-03T11:27:07.999Z</time></trkpt><trkpt lat="43.57353130766254" lon="11.346879191142879"><ele>508.0</ele><time>2026-04-03T11:27:08.999Z</time></trkpt><trkpt lat="43.573443719027956" lon="11.346884142252284"><ele>506.79999999999995</ele><time>2026-04-03T11:27:09.999Z</time></trkpt><trkpt lat="43.57336594529896" lon="11.346872437139455"><ele>505.59999999999997</ele><time>2026-04-03T11:27:10.999Z</time></trkpt><trkpt lat="43.57328520444623" lon="11.34682854390634"><ele>504.40000000000003</ele><time>2026-04-03T11:27:11.999Z</time></trkpt><trkpt lat="43.57319286794901" lon="11.346788783829554"><ele>503.20000000000005</ele><time>2026-04-03T11:27:12.999Z</time></trkpt><trkpt lat="43.57310169742685" lon="11.346739042437584"><ele>502.0</ele><time>2026-04-03T11:27:13.999Z</time></trkpt><trkpt lat="43.573008541454676" lon="11.346689819301897"><ele>502.0</ele><time>2026-04-03T11:27:14.999Z</time></trkpt><trkpt lat="43.57290806616107" lon="11.346635829838064"><ele>502.00000000000006</ele><time>2026-04-03T11:27:15.999Z</time></trkpt><trkpt lat="43.572805066045106" lon="11.346579534529688"><ele>502.00000000000006</ele><time>2026-04-03T11:27:16.999Z</time></trkpt><trkpt lat="43.572703434609465" lon="11.34651027048046"><ele>502.0</ele><time>2026-04-03T11:27:17.999Z</time></trkpt><trkpt lat="43.57261556751254" lon="11.346424824624153"><ele>502.0</ele><time>2026-04-03T11:27:18.999Z</time></trkpt><trkpt lat="43.57253380393696" lon="11.346323009193284"><ele>499.6</ele><time>2026-04-03T11:27:19.999Z</time></trkpt><trkpt lat="43.57245456686129" lon="11.346223957251807"><ele>497.20000000000005</ele><time>2026-04-03T11:27:20.999Z</time></trkpt><trkpt lat="43.57237645162496" lon="11.346126415348003"><ele>494.8</ele><time>2026-04-03T11:27:21.999Z</time></trkpt><trkpt lat="43.57230374530729" lon="11.34602614874682"><ele>492.4</ele><time>2026-04-03T11:27:22.999Z</time></trkpt><trkpt lat="43.572244144784925" lon="11.345924144163913"><ele>490.0</ele><time>2026-04-03T11:27:24Z</time></trkpt><trkpt lat="43.57219741019366" lon="11.345803592100692"><ele>490.0</ele><time>2026-04-03T11:27:25Z</time></trkpt><trkpt lat="43.57217089804644" lon="11.345660887607284"><ele>490.0</ele><time>2026-04-03T11:27:26Z</time></trkpt><trkpt lat="43.57214962686621" lon="11.345509881918574"><ele>490.0</ele><time>2026-04-03T11:27:27Z</time></trkpt><trkpt lat="43.5721293656945" lon="11.345345825994901"><ele>490.0</ele><time>2026-04-03T11:27:28Z</time></trkpt><trkpt lat="43.57209792116972" lon="11.345188838774794"><ele>488.6</ele><time>2026-04-03T11:27:29Z</time></trkpt><trkpt lat="43.57207924159242" lon="11.345032853836493"><ele>487.2</ele><time>2026-04-03T11:27:30Z</time></trkpt><trkpt lat="43.57204532319213" lon="11.344893606264272"><ele>485.79999999999995</ele><time>2026-04-03T11:27:31Z</time></trkpt><trkpt lat="43.571997498415215" lon="11.344766630249556"><ele>484.4</ele><time>2026-04-03T11:27:32Z</time></trkpt><trkpt lat="43.57193230781231" lon="11.344654366651756"><ele>483.0</ele><time>2026-04-03T11:27:33Z</time></trkpt><trkpt lat="43.57184905576589" lon="11.344571097908394"><ele>480.0</ele><time>2026-04-03T11:27:34Z</time></trkpt><trkpt lat="43.57179805258103" lon="11.344458054213858"><ele>476.99999999999994</ele><time>2026-04-03T11:27:35Z</time></trkpt><trkpt lat="43.5717316612403" lon="11.344353829916908"><ele>473.99999999999994</ele><time>2026-04-03T11:27:36Z</time></trkpt><trkpt lat="43.571663757768725" lon="11.344240577062587"><ele>471.0</ele><time>2026-04-03T11:27:37Z</time></trkpt><trkpt lat="43.57160922575635" lon="11.34412001521298"><ele>468.0</ele><time>2026-04-03T11:27:38Z</time></trkpt><trkpt lat="43.57156015993756" lon="11.343983319209672"><ele>464.75</ele><time>2026-04-03T11:27:39Z</time></trkpt><trkpt lat="43.57149691582844" lon="11.343847476423823"><ele>461.5</ele><time>2026-04-03T11:27:40Z</time></trkpt><trkpt lat="43.57139216927145" lon="11.34374691581602"><ele>458.25</ele><time>2026-04-03T11:27:41Z</time></trkpt><trkpt lat="43.57130182027175" lon="11.343620081196216"><ele>455.0</ele><time>2026-04-03T11:27:42Z</time></trkpt><trkpt lat="43.571207417821604" lon="11.343528570163372"><ele>453.8</ele><time>2026-04-03T11:27:43Z</time></trkpt><trkpt lat="43.5711316408998" lon="11.343437129400074"><ele>452.6</ele><time>2026-04-03T11:27:44Z</time></trkpt><trkpt lat="43.57106529706771" lon="11.343340406813875"><ele>451.4</ele><time>2026-04-03T11:27:45Z</time></trkpt><trkpt lat="43.57099407644194" lon="11.34323434119826"><ele>450.2</ele><time>2026-04-03T11:27:46Z</time></trkpt><trkpt lat="43.570914562039185" lon="11.3431159241301"><ele>449.0</ele><time>2026-04-03T11:27:47Z</time></trkpt><trkpt lat="43.57083116346308" lon="11.34299779773077"><ele>447.4</ele><time>2026-04-03T11:27:48Z</time></trkpt><trkpt lat="43.5707472984819" lon="11.3428905216808"><ele>445.79999999999995</ele><time>2026-04-03T11:27:49Z</time></trkpt><trkpt lat="43.57066887241254" lon="11.342806043272834"><ele>444.20000000000005</ele><time>2026-04-03T11:27:50Z</time></trkpt><trkpt lat="43.57059520027878" lon="11.342749636144957"><ele>442.6</ele><time>2026-04-03T11:27:51Z</time></trkpt><trkpt lat="43.570505938588035" lon="11.342655983538412"><ele>441.0</ele><time>2026-04-03T11:27:53Z</time></trkpt><trkpt lat="43.57058254714096" lon="11.342496794870899"><ele>441.0</ele><time>2026-04-03T11:27:55Z</time></trkpt><trkpt lat="43.57067016253457" lon="11.342427550087873"><ele>441.0</ele><time>2026-04-03T11:27:56Z</time></trkpt><trkpt lat="43.570771262781484" lon="11.342377690111622"><ele>441.0</ele><time>2026-04-03T11:27:57Z</time></trkpt><trkpt lat="43.57088032213489" lon="11.34229981220927"><ele>441.0</ele><time>2026-04-03T11:27:58Z</time></trkpt><trkpt lat="43.5709728772818" lon="11.342211403535083"><ele>441.0</ele><time>2026-04-03T11:27:59Z</time></trkpt><trkpt lat="43.57104619058886" lon="11.342140922933842"><ele>437.8</ele><time>2026-04-03T11:28:00Z</time></trkpt><trkpt lat="43.57110328493932" lon="11.342069856763853"><ele>434.6</ele><time>2026-04-03T11:28:01Z</time></trkpt><trkpt lat="43.5711418447975" lon="11.341952072577193"><ele>431.4</ele><time>2026-04-03T11:28:02Z</time></trkpt><trkpt lat="43.571151102560734" lon="11.34179888989702"><ele>428.2</ele><time>2026-04-03T11:28:03Z</time></trkpt><trkpt lat="43.57116706454654" lon="11.34162694896233"><ele>425.0</ele><time>2026-04-03T11:28:04Z</time></trkpt><trkpt lat="43.571233762482244" lon="11.341483942805782"><ele>423.0</ele><time>2026-04-03T11:28:05Z</time></trkpt><trkpt lat="43.57124810609629" lon="11.341331798777297"><ele>421.0</ele><time>2026-04-03T11:28:06Z</time></trkpt><trkpt lat="43.571273867039224" lon="11.341188413450777"><ele>419.0</ele><time>2026-04-03T11:28:07Z</time></trkpt><trkpt lat="43.57127716710234" lon="11.341047178488154"><ele>417.0</ele><time>2026-04-03T11:28:08Z</time></trkpt><trkpt lat="43.57128683123029" lon="11.340902099979518"><ele>415.0</ele><time>2026-04-03T11:28:09Z</time></trkpt><trkpt lat="43.57127561368283" lon="11.340746122909582"><ele>415.0</ele><time>2026-04-03T11:28:10Z</time></trkpt><trkpt lat="43.57125074194436" lon="11.340591178642297"><ele>415.0</ele><time>2026-04-03T11:28:11Z</time></trkpt><trkpt lat="43.57122610809191" lon="11.340435280516783"><ele>415.0</ele><time>2026-04-03T11:28:12Z</time></trkpt><trkpt lat="43.57119897757272" lon="11.340275943379112"><ele>415.0</ele><time>2026-04-03T11:28:13Z</time></trkpt><trkpt lat="43.57117005308902" lon="11.340121032724658"><ele>413.8</ele><time>2026-04-03T11:28:14Z</time></trkpt><trkpt lat="43.571128649636236" lon="11.339977553785785"><ele>412.6</ele><time>2026-04-03T11:28:15Z</time></trkpt><trkpt lat="43.57110444017758" lon="11.339833810750806"><ele>411.4</ele><time>2026-04-03T11:28:16Z</time></trkpt><trkpt lat="43.571086037738965" lon="11.339688734837441"><ele>410.2</ele><time>2026-04-03T11:28:17Z</time></trkpt><trkpt lat="43.571075395051245" lon="11.339556700209526"><ele>409.0</ele><time>2026-04-03T11:28:18Z</time></trkpt><trkpt lat="43.57106908272721" lon="11.339448233264276"><ele>408.2857142857143</ele><time>2026-04-03T11:28:18.999Z</time></trkpt><trkpt lat="43.57106564882752" lon="11.339341606645531"><ele>407.5714285714286</ele><time>2026-04-03T11:28:19.999Z</time></trkpt><trkpt lat="43.57106366859202" lon="11.339247904988396"><ele>406.8571428571429</ele><time>2026-04-03T11:28:20.999Z</time></trkpt><trkpt lat="43.57106517377032" lon="11.339137297320608"><ele>406.1428571428571</ele><time>2026-04-03T11:28:21.999Z</time></trkpt><trkpt lat="43.571048347846" lon="11.339044795373235"><ele>405.42857142857144</ele><time>2026-04-03T11:28:22.999Z</time></trkpt><trkpt lat="43.571019141810794" lon="11.338957674172796"><ele>404.7142857142857</ele><time>2026-04-03T11:28:23.999Z</time></trkpt><trkpt lat="43.570973921036796" lon="11.338883020344104"><ele>404.0</ele><time>2026-04-03T11:28:24.999Z</time></trkpt><trkpt lat="43.570913057462825" lon="11.338824569085622"><ele>401.79999999999995</ele><time>2026-04-03T11:28:25.999Z</time></trkpt><trkpt lat="43.5708354784343" lon="11.33879364327342"><ele>399.59999999999997</ele><time>2026-04-03T11:28:26.999Z</time></trkpt><trkpt lat="43.57075926725442" lon="11.33878290923805"><ele>397.4</ele><time>2026-04-03T11:28:27.999Z</time></trkpt><trkpt lat="43.57065245002902" lon="11.338783792401676"><ele>395.2</ele><time>2026-04-03T11:28:29.999Z</time></trkpt><trkpt lat="43.5705783396898" lon="11.338693919134558"><ele>393.0</ele><time>2026-04-03T11:28:31.999Z</time></trkpt><trkpt lat="43.570573549009715" lon="11.338500992562016"><ele>393.0</ele><time>2026-04-03T11:28:33.999Z</time></trkpt><trkpt lat="43.57059704270867" lon="11.338368977664004"><ele>393.0</ele><time>2026-04-03T11:28:34.999Z</time></trkpt><trkpt lat="43.570625876106966" lon="11.338229244004475"><ele>393.0</ele><time>2026-04-03T11:28:35.999Z</time></trkpt><trkpt lat="43.570648510776" lon="11.338101019428464"><ele>393.0</ele><time>2026-04-03T11:28:36.999Z</time></trkpt><trkpt lat="43.57068759364955" lon="11.337991340799974"><ele>393.0</ele><time>2026-04-03T11:28:37.999Z</time></trkpt><trkpt lat="43.570712052461566" lon="11.337888863443608"><ele>390.7142857142857</ele><time>2026-04-03T11:28:38.999Z</time></trkpt><trkpt lat="43.57073315094219" lon="11.337796651625972"><ele>388.42857142857144</ele><time>2026-04-03T11:28:39.999Z</time></trkpt><trkpt lat="43.570755038950445" lon="11.337692476993315"><ele>386.1428571428571</ele><time>2026-04-03T11:28:40.999Z</time></trkpt><trkpt lat="43.570772137380395" lon="11.337598316505423"><ele>383.8571428571429</ele><time>2026-04-03T11:28:41.999Z</time></trkpt><trkpt lat="43.57077834240234" lon="11.337494562584807"><ele>381.57142857142856</ele><time>2026-04-03T11:28:42.999Z</time></trkpt><trkpt lat="43.57075675353428" lon="11.337392589052794"><ele>379.2857142857143</ele><time>2026-04-03T11:28:43.999Z</time></trkpt><trkpt lat="43.57075574640899" lon="11.337288592993364"><ele>377.0</ele><time>2026-04-03T11:28:44.999Z</time></trkpt><trkpt lat="43.57072042582599" lon="11.337193916198416"><ele>375.5</ele><time>2026-04-03T11:28:45.999Z</time></trkpt><trkpt lat="43.57070272796508" lon="11.337104210055667"><ele>374.0</ele><time>2026-04-03T11:28:46.999Z</time></trkpt><trkpt lat="43.570686971690556" lon="11.337015471583069"><ele>372.5</ele><time>2026-04-03T11:28:47.999Z</time></trkpt><trkpt lat="43.5707168296465" lon="11.336929477504086"><ele>371.0</ele><time>2026-04-03T11:28:48.999Z</time></trkpt><trkpt lat="43.570772752438195" lon="11.336841449778982"><ele>369.5</ele><time>2026-04-03T11:28:49.999Z</time></trkpt><trkpt lat="43.57079312695427" lon="11.336739220744038"><ele>368.0</ele><time>2026-04-03T11:28:50.999Z</time></trkpt><trkpt lat="43.57076931051395" lon="11.33662033242919"><ele>368.0</ele><time>2026-04-03T11:28:51.999Z</time></trkpt><trkpt lat="43.570770288426324" lon="11.33649830964354"><ele>368.0</ele><time>2026-04-03T11:28:52.999Z</time></trkpt><trkpt lat="43.570754531182104" lon="11.336371773205814"><ele>368.0</ele><time>2026-04-03T11:28:53.999Z</time></trkpt><trkpt lat="43.5707372973578" lon="11.336232965507804"><ele>368.0</ele><time>2026-04-03T11:28:54.999Z</time></trkpt><trkpt lat="43.570721036356936" lon="11.33610199326197"><ele>368.0</ele><time>2026-04-03T11:28:55.999Z</time></trkpt><trkpt lat="43.5707039888693" lon="11.33596468643573"><ele>366.2</ele><time>2026-04-03T11:28:56.999Z</time></trkpt><trkpt lat="43.57068735127025" lon="11.335830680960067"><ele>364.4</ele><time>2026-04-03T11:28:57.999Z</time></trkpt><trkpt lat="43.5706703199234" lon="11.335689437400026"><ele>362.59999999999997</ele><time>2026-04-03T11:28:58.999Z</time></trkpt><trkpt lat="43.570656047732896" lon="11.335568178194567"><ele>360.79999999999995</ele><time>2026-04-03T11:28:59.999Z</time></trkpt><trkpt lat="43.57064379510085" lon="11.335451662199322"><ele>359.0</ele><time>2026-04-03T11:29:00.999Z</time></trkpt><trkpt lat="43.5706344449147" lon="11.335340202403193"><ele>357.2</ele><time>2026-04-03T11:29:01.999Z</time></trkpt><trkpt lat="43.570624475285" lon="11.335211496665853"><ele>355.4</ele><time>2026-04-03T11:29:02.999Z</time></trkpt><trkpt lat="43.57061422160923" lon="11.335079123950637"><ele>353.6</ele><time>2026-04-03T11:29:03.999Z</time></trkpt><trkpt lat="43.570589374718935" lon="11.334934424733898"><ele>351.8</ele><time>2026-04-03T11:29:04.999Z</time></trkpt><trkpt lat="43.57057688125638" lon="11.334792855707772"><ele>350.0</ele><time>2026-04-03T11:29:05.999Z</time></trkpt><trkpt lat="43.57056482808023" lon="11.334660745937308"><ele>348.2</ele><time>2026-04-03T11:29:06.999Z</time></trkpt><trkpt lat="43.57055466044323" lon="11.33451342273972"><ele>346.4</ele><time>2026-04-03T11:29:07.999Z</time></trkpt><trkpt lat="43.570541648603665" lon="11.334372288353054"><ele>344.6</ele><time>2026-04-03T11:29:08.999Z</time></trkpt><trkpt lat="43.57053034122546" lon="11.33422693194635"><ele>342.8</ele><time>2026-04-03T11:29:09.999Z</time></trkpt><trkpt lat="43.570522178094826" lon="11.334072434629542"><ele>341.0</ele><time>2026-04-03T11:29:10.999Z</time></trkpt><trkpt lat="43.57050533473129" lon="11.333915712209908"><ele>338.75</ele><time>2026-04-03T11:29:11.999Z</time></trkpt><trkpt lat="43.57047238511323" lon="11.333764181401317"><ele>336.5</ele><time>2026-04-03T11:29:12.999Z</time></trkpt><trkpt lat="43.57044635439096" lon="11.333611386155162"><ele>334.25</ele><time>2026-04-03T11:29:13.999Z</time></trkpt><trkpt lat="43.570399552358694" lon="11.333469375121895"><ele>332.0</ele><time>2026-04-03T11:29:14.999Z</time></trkpt><trkpt lat="43.5703469164881" lon="11.33332995878497"><ele>332.0</ele><time>2026-04-03T11:29:15.999Z</time></trkpt><trkpt lat="43.570277016833224" lon="11.33319162382869"><ele>332.0</ele><time>2026-04-03T11:29:16.999Z</time></trkpt><trkpt lat="43.57020599106907" lon="11.33306367280747"><ele>332.0</ele><time>2026-04-03T11:29:17.999Z</time></trkpt><trkpt lat="43.570134666653665" lon="11.332935547020668"><ele>332.0</ele><time>2026-04-03T11:29:18.999Z</time></trkpt><trkpt lat="43.570064483886505" lon="11.332800297710229"><ele>330.25</ele><time>2026-04-03T11:29:19.999Z</time></trkpt><trkpt lat="43.56998790696275" lon="11.332669878249991"><ele>328.5</ele><time>2026-04-03T11:29:20.999Z</time></trkpt><trkpt lat="43.569904875011055" lon="11.332556586177024"><ele>326.75</ele><time>2026-04-03T11:29:21.999Z</time></trkpt><trkpt lat="43.569831820480516" lon="11.33243026622771"><ele>325.0</ele><time>2026-04-03T11:29:22.999Z</time></trkpt><trkpt lat="43.56976724443121" lon="11.33229304700071"><ele>323.66666666666663</ele><time>2026-04-03T11:29:23.999Z</time></trkpt><trkpt lat="43.56969461397999" lon="11.332192878937382"><ele>322.3333333333333</ele><time>2026-04-03T11:29:24.999Z</time></trkpt><trkpt lat="43.569632726440275" lon="11.33210913361373"><ele>321.0</ele><time>2026-04-03T11:29:25.999Z</time></trkpt><trkpt lat="43.56957948184221" lon="11.33203202825445"><ele>319.6666666666667</ele><time>2026-04-03T11:29:26.999Z</time></trkpt><trkpt lat="43.56953148389107" lon="11.331951743687464"><ele>318.33333333333337</ele><time>2026-04-03T11:29:27.999Z</time></trkpt><trkpt lat="43.56949523149284" lon="11.331853850130662"><ele>317.0</ele><time>2026-04-03T11:29:28.999Z</time></trkpt><trkpt lat="43.56947039751919" lon="11.331726386104393"><ele>314.75</ele><time>2026-04-03T11:29:30Z</time></trkpt><trkpt lat="43.569422002647244" lon="11.33156868561427"><ele>312.5</ele><time>2026-04-03T11:29:31Z</time></trkpt><trkpt lat="43.56938644964023" lon="11.331405763598376"><ele>310.25</ele><time>2026-04-03T11:29:32Z</time></trkpt><trkpt lat="43.56934472171509" lon="11.331228409116138"><ele>308.0</ele><time>2026-04-03T11:29:33Z</time></trkpt><trkpt lat="43.569268848182" lon="11.33104452367003"><ele>307.5</ele><time>2026-04-03T11:29:34Z</time></trkpt><trkpt lat="43.569219024150584" lon="11.330856651322854"><ele>307.0</ele><time>2026-04-03T11:29:35Z</time></trkpt><trkpt lat="43.569182006798876" lon="11.330699770777494"><ele>306.5</ele><time>2026-04-03T11:29:36Z</time></trkpt><trkpt lat="43.569131715116704" lon="11.330553373669776"><ele>306.0</ele><time>2026-04-03T11:29:37Z</time></trkpt><trkpt lat="43.56906571062495" lon="11.330435015355441"><ele>305.2</ele><time>2026-04-03T11:29:38Z</time></trkpt><trkpt lat="43.56902175083706" lon="11.330315379941526"><ele>304.40000000000003</ele><time>2026-04-03T11:29:39Z</time></trkpt><trkpt lat="43.56900293921769" lon="11.330208224477204"><ele>303.6</ele><time>2026-04-03T11:29:40Z</time></trkpt><trkpt lat="43.56899954467349" lon="11.330065579183946"><ele>302.8</ele><time>2026-04-03T11:29:41Z</time></trkpt><trkpt lat="43.56903797425039" lon="11.32993234013696"><ele>302.0</ele><time>2026-04-03T11:29:42Z</time></trkpt><trkpt lat="43.56902309837525" lon="11.329801057658687"><ele>300.5</ele><time>2026-04-03T11:29:43Z</time></trkpt><trkpt lat="43.56898211097665" lon="11.329654298787576"><ele>299.0</ele><time>2026-04-03T11:29:44Z</time></trkpt><trkpt lat="43.56891339062926" lon="11.329477654389194"><ele>297.5</ele><time>2026-04-03T11:29:45Z</time></trkpt><trkpt lat="43.56886001655244" lon="11.329276581094824"><ele>296.0</ele><time>2026-04-03T11:29:46Z</time></trkpt><trkpt lat="43.56881344314089" lon="11.329124102805837"><ele>296.0</ele><time>2026-04-03T11:29:47Z</time></trkpt><trkpt lat="43.56876018191197" lon="11.329001489989013"><ele>296.0</ele><time>2026-04-03T11:29:48Z</time></trkpt><trkpt lat="43.56871638157744" lon="11.32888382493018"><ele>296.0</ele><time>2026-04-03T11:29:49Z</time></trkpt><trkpt lat="43.568693337060694" lon="11.328772410754555"><ele>296.0</ele><time>2026-04-03T11:29:50Z</time></trkpt><trkpt lat="43.56866023565637" lon="11.328672796805686"><ele>296.0</ele><time>2026-04-03T11:29:51Z</time></trkpt><trkpt lat="43.56862045579153" lon="11.328566521868986"><ele>296.0</ele><time>2026-04-03T11:29:52Z</time></trkpt><trkpt lat="43.56862018414335" lon="11.328426510822524"><ele>293.8</ele><time>2026-04-03T11:29:53Z</time></trkpt><trkpt lat="43.56863303662649" lon="11.32826739682512"><ele>291.6</ele><time>2026-04-03T11:29:54Z</time></trkpt><trkpt lat="43.568662660653246" lon="11.328125075156738"><ele>289.4</ele><time>2026-04-03T11:29:55Z</time></trkpt><trkpt lat="43.56869191574407" lon="11.327987366475849"><ele>287.2</ele><time>2026-04-03T11:29:56Z</time></trkpt><trkpt lat="43.56870331878804" lon="11.327866619169525"><ele>285.0</ele><time>2026-04-03T11:29:57Z</time></trkpt><trkpt lat="43.568721723556145" lon="11.327743329866955"><ele>285.0</ele><time>2026-04-03T11:29:58Z</time></trkpt><trkpt lat="43.56871720804715" lon="11.3276221675511"><ele>285.0</ele><time>2026-04-03T11:29:59Z</time></trkpt><trkpt lat="43.5687002518842" lon="11.327504082174524"><ele>285.0</ele><time>2026-04-03T11:30:00Z</time></trkpt><trkpt lat="43.568676156548285" lon="11.327389238763342"><ele>285.0</ele><time>2026-04-03T11:30:01Z</time></trkpt><trkpt lat="43.5686418358306" lon="11.327254878316396"><ele>285.0</ele><time>2026-04-03T11:30:02Z</time></trkpt><trkpt lat="43.56860380452786" lon="11.32711582574194"><ele>282.8</ele><time>2026-04-03T11:30:03Z</time></trkpt><trkpt lat="43.56856407077911" lon="11.326982926178399"><ele>280.6</ele><time>2026-04-03T11:30:04Z</time></trkpt><trkpt lat="43.56852262088838" lon="11.326859362428882"><ele>278.4</ele><time>2026-04-03T11:30:05Z</time></trkpt><trkpt lat="43.56847289752716" lon="11.326730635617203"><ele>276.2</ele><time>2026-04-03T11:30:06Z</time></trkpt><trkpt lat="43.568406902304865" lon="11.326606983305915"><ele>274.0</ele><time>2026-04-03T11:30:07Z</time></trkpt><trkpt lat="43.56832623407972" lon="11.32648486427441"><ele>274.59999999999997</ele><time>2026-04-03T11:30:08Z</time></trkpt><trkpt lat="43.568236955307995" lon="11.326372802239577"><ele>275.2</ele><time>2026-04-03T11:30:09Z</time></trkpt><trkpt lat="43.568146639255644" lon="11.32627808063057"><ele>275.79999999999995</ele><time>2026-04-03T11:30:10Z</time></trkpt><trkpt lat="43.56806788713316" lon="11.326196398266834"><ele>276.4</ele><time>2026-04-03T11:30:11Z</time></trkpt><trkpt lat="43.5680049417959" lon="11.326122465273865"><ele>277.0</ele><time>2026-04-03T11:30:12Z</time></trkpt><trkpt lat="43.56795107182614" lon="11.326045736385986"><ele>277.0</ele><time>2026-04-03T11:30:13Z</time></trkpt><trkpt lat="43.56790898255755" lon="11.325950606140559"><ele>277.0</ele><time>2026-04-03T11:30:14Z</time></trkpt><trkpt lat="43.56789560892256" lon="11.325833017854425"><ele>277.0</ele><time>2026-04-03T11:30:15Z</time></trkpt><trkpt lat="43.567875058215634" lon="11.325682975767123"><ele>277.0</ele><time>2026-04-03T11:30:16Z</time></trkpt><trkpt lat="43.56784988358636" lon="11.325531950534108"><ele>277.0</ele><time>2026-04-03T11:30:17Z</time></trkpt><trkpt lat="43.567846744347555" lon="11.325386101749945"><ele>273.6</ele><time>2026-04-03T11:30:18Z</time></trkpt><trkpt lat="43.56785263101954" lon="11.325255232745565"><ele>270.2</ele><time>2026-04-03T11:30:19Z</time></trkpt><trkpt lat="43.567869623896414" lon="11.32512278694543"><ele>266.8</ele><time>2026-04-03T11:30:20Z</time></trkpt><trkpt lat="43.56790394339803" lon="11.324974906017177"><ele>263.4</ele><time>2026-04-03T11:30:21Z</time></trkpt><trkpt lat="43.56794762634696" lon="11.324845780603052"><ele>260.0</ele><time>2026-04-03T11:30:22Z</time></trkpt><trkpt lat="43.56797857935124" lon="11.324746809871568"><ele>258.4</ele><time>2026-04-03T11:30:23Z</time></trkpt><trkpt lat="43.5680014888219" lon="11.324638614467286"><ele>256.8</ele><time>2026-04-03T11:30:25Z</time></trkpt><trkpt lat="43.56803424078525" lon="11.324500251881842"><ele>255.2</ele><time>2026-04-03T11:30:27Z</time></trkpt><trkpt lat="43.56805897896264" lon="11.324409366553548"><ele>253.6</ele><time>2026-04-03T11:30:27.999Z</time></trkpt><trkpt lat="43.56808930736632" lon="11.32428646113108"><ele>252.0</ele><time>2026-04-03T11:30:28.999Z</time></trkpt><trkpt lat="43.56812583837616" lon="11.324137179000969"><ele>252.0</ele><time>2026-04-03T11:30:29.999Z</time></trkpt><trkpt lat="43.568172043284505" lon="11.32395433399313"><ele>252.0</ele><time>2026-04-03T11:30:30.999Z</time></trkpt><trkpt lat="43.56822208148461" lon="11.323767170704821"><ele>252.0</ele><time>2026-04-03T11:30:31.999Z</time></trkpt><trkpt lat="43.568262896278036" lon="11.323606399254029"><ele>252.0</ele><time>2026-04-03T11:30:32.999Z</time></trkpt><trkpt lat="43.56831200722763" lon="11.323439720829693"><ele>253.33333333333331</ele><time>2026-04-03T11:30:33.999Z</time></trkpt><trkpt lat="43.56839801833744" lon="11.323260919507325"><ele>254.66666666666666</ele><time>2026-04-03T11:30:34.999Z</time></trkpt><trkpt lat="43.568528987929604" lon="11.32307017332157"><ele>256.0</ele><time>2026-04-03T11:30:35.999Z</time></trkpt><trkpt lat="43.568665834298066" lon="11.322875063806265"><ele>255.66666666666666</ele><time>2026-04-03T11:30:36.999Z</time></trkpt><trkpt lat="43.568805885253404" lon="11.32268112225591"><ele>255.33333333333331</ele><time>2026-04-03T11:30:37.999Z</time></trkpt><trkpt lat="43.568938808508534" lon="11.322497672405225"><ele>255.0</ele><time>2026-04-03T11:30:38.999Z</time></trkpt><trkpt lat="43.569050230175456" lon="11.322335722246791"><ele>257.0</ele><time>2026-04-03T11:30:39.999Z</time></trkpt><trkpt lat="43.569147084838626" lon="11.32218426659453"><ele>259.0</ele><time>2026-04-03T11:30:40.999Z</time></trkpt><trkpt lat="43.569232125915306" lon="11.322046421868489"><ele>261.0</ele><time>2026-04-03T11:30:41.999Z</time></trkpt><trkpt lat="43.56928991489723" lon="11.321919913451183"><ele>263.0</ele><time>2026-04-03T11:30:42.999Z</time></trkpt><trkpt lat="43.56933229776362" lon="11.321772105974178"><ele>263.0</ele><time>2026-04-03T11:30:43.999Z</time></trkpt><trkpt lat="43.569350169700606" lon="11.32159322654629"><ele>263.0</ele><time>2026-04-03T11:30:44.999Z</time></trkpt><trkpt lat="43.569353619679596" lon="11.321387839858545"><ele>263.0</ele><time>2026-04-03T11:30:45.999Z</time></trkpt><trkpt lat="43.56934115406456" lon="11.321198961946424"><ele>263.0</ele><time>2026-04-03T11:30:46.999Z</time></trkpt><trkpt lat="43.569319936815354" lon="11.32108393141148"><ele>263.8</ele><time>2026-04-03T11:30:47.999Z</time></trkpt><trkpt lat="43.569293860420686" lon="11.320973410851094"><ele>264.6</ele><time>2026-04-03T11:30:49.999Z</time></trkpt><trkpt lat="43.56927140926325" lon="11.32085819003186"><ele>265.4</ele><time>2026-04-03T11:30:55.999Z</time></trkpt><trkpt lat="43.569339809730614" lon="11.320743206437472"><ele>266.2</ele><time>2026-04-03T11:30:56.999Z</time></trkpt><trkpt lat="43.56942805105511" lon="11.320656998576535"><ele>267.0</ele><time>2026-04-03T11:30:57.999Z</time></trkpt><trkpt lat="43.56955410078597" lon="11.32058916498895"><ele>265.3333333333333</ele><time>2026-04-03T11:30:58.999Z</time></trkpt><trkpt lat="43.56971728314021" lon="11.320543320314284"><ele>263.66666666666663</ele><time>2026-04-03T11:30:59.999Z</time></trkpt><trkpt lat="43.569899785147385" lon="11.32051070458026"><ele>262.0</ele><time>2026-04-03T11:31:00.999Z</time></trkpt><trkpt lat="43.570084319106684" lon="11.320473925630052"><ele>262.0</ele><time>2026-04-03T11:31:01.999Z</time></trkpt><trkpt lat="43.57028132663271" lon="11.320420784525158"><ele>262.0</ele><time>2026-04-03T11:31:02.999Z</time></trkpt><trkpt lat="43.57047048086331" lon="11.320358289654862"><ele>262.0</ele><time>2026-04-03T11:31:03.999Z</time></trkpt><trkpt lat="43.57066213347612" lon="11.320283732513916"><ele>261.0</ele><time>2026-04-03T11:31:04.999Z</time></trkpt><trkpt lat="43.57085397392901" lon="11.320195209030171"><ele>260.0</ele><time>2026-04-03T11:31:05.999Z</time></trkpt><trkpt lat="43.57102951422778" lon="11.320098946165857"><ele>259.0</ele><time>2026-04-03T11:31:06.999Z</time></trkpt><trkpt lat="43.57120582504264" lon="11.320007367467573"><ele>261.66666666666663</ele><time>2026-04-03T11:31:07.999Z</time></trkpt><trkpt lat="43.57138707691609" lon="11.31991704292913"><ele>264.3333333333333</ele><time>2026-04-03T11:31:08.999Z</time></trkpt><trkpt lat="43.57157368232585" lon="11.319827450690559"><ele>267.0</ele><time>2026-04-03T11:31:09.999Z</time></trkpt><trkpt lat="43.571761428806354" lon="11.319732646164425"><ele>267.0</ele><time>2026-04-03T11:31:10.999Z</time></trkpt><trkpt lat="43.57195254497124" lon="11.319637266198413"><ele>267.0</ele><time>2026-04-03T11:31:11.999Z</time></trkpt><trkpt lat="43.57214340990981" lon="11.319539653636063"><ele>267.0</ele><time>2026-04-03T11:31:12.999Z</time></trkpt><trkpt lat="43.57232674163415" lon="11.319446260193395"><ele>264.0</ele><time>2026-04-03T11:31:13.999Z</time></trkpt><trkpt lat="43.57250740602234" lon="11.319357093381743"><ele>261.0</ele><time>2026-04-03T11:31:14.999Z</time></trkpt><trkpt lat="43.572678649641865" lon="11.319273477136958"><ele>258.0</ele><time>2026-04-03T11:31:15.999Z</time></trkpt><trkpt lat="43.57285364722833" lon="11.319187980822702"><ele>255.0</ele><time>2026-04-03T11:31:16.999Z</time></trkpt><trkpt lat="43.5730218808268" lon="11.319105160824598"><ele>252.0</ele><time>2026-04-03T11:31:17.999Z</time></trkpt><trkpt lat="43.57318381874974" lon="11.319026526771992"><ele>249.0</ele><time>2026-04-03T11:31:18.999Z</time></trkpt><trkpt lat="43.57335427801236" lon="11.318943825086125"><ele>252.0</ele><time>2026-04-03T11:31:19.999Z</time></trkpt><trkpt lat="43.573523339536905" lon="11.3188614785969"><ele>255.0</ele><time>2026-04-03T11:31:20.999Z</time></trkpt><trkpt lat="43.57369341250457" lon="11.318776671021103"><ele>258.0</ele><time>2026-04-03T11:31:21.999Z</time></trkpt><trkpt lat="43.57386656143954" lon="11.318687137806203"><ele>258.0</ele><time>2026-04-03T11:31:22.999Z</time></trkpt><trkpt lat="43.574042147951694" lon="11.318595388991257"><ele>258.0</ele><time>2026-04-03T11:31:23.999Z</time></trkpt><trkpt lat="43.57421745361558" lon="11.318505620834804"><ele>258.0</ele><time>2026-04-03T11:31:24.999Z</time></trkpt><trkpt lat="43.57440115200202" lon="11.318410875282483"><ele>253.0</ele><time>2026-04-03T11:31:25.999Z</time></trkpt><trkpt lat="43.5745879334731" lon="11.31831419992819"><ele>248.0</ele><time>2026-04-03T11:31:26.999Z</time></trkpt><trkpt lat="43.57476981932107" lon="11.318222290985679"><ele>243.0</ele><time>2026-04-03T11:31:27.999Z</time></trkpt><trkpt lat="43.57494230894981" lon="11.318137744472947"><ele>243.33333333333331</ele><time>2026-04-03T11:31:28.999Z</time></trkpt><trkpt lat="43.57511727904985" lon="11.31804698526031"><ele>243.66666666666666</ele><time>2026-04-03T11:31:29.999Z</time></trkpt><trkpt lat="43.57530703067053" lon="11.317957334909094"><ele>244.0</ele><time>2026-04-03T11:31:30.999Z</time></trkpt><trkpt lat="43.57549527272344" lon="11.317869579721794"><ele>244.0</ele><time>2026-04-03T11:31:31.999Z</time></trkpt><trkpt lat="43.57566083301692" lon="11.317787153066423"><ele>244.0</ele><time>2026-04-03T11:31:32.999Z</time></trkpt><trkpt lat="43.575811679610815" lon="11.31770637631767"><ele>244.0</ele><time>2026-04-03T11:31:33.999Z</time></trkpt><trkpt lat="43.57596670640276" lon="11.317625938042141"><ele>244.0</ele><time>2026-04-03T11:31:35Z</time></trkpt><trkpt lat="43.57614111073606" lon="11.317547589577186"><ele>244.0</ele><time>2026-04-03T11:31:36Z</time></trkpt><trkpt lat="43.57631016465135" lon="11.317449246714819"><ele>244.0</ele><time>2026-04-03T11:31:37Z</time></trkpt><trkpt lat="43.57648020799792" lon="11.31736417892687"><ele>242.66666666666666</ele><time>2026-04-03T11:31:38Z</time></trkpt><trkpt lat="43.57665066186049" lon="11.317281468729094"><ele>241.33333333333331</ele><time>2026-04-03T11:31:39Z</time></trkpt><trkpt lat="43.57681836589495" lon="11.317194225473916"><ele>240.0</ele><time>2026-04-03T11:31:40Z</time></trkpt><trkpt lat="43.576985968999075" lon="11.317109396878742"><ele>241.33333333333331</ele><time>2026-04-03T11:31:41Z</time></trkpt><trkpt lat="43.5771572354654" lon="11.317030298753394"><ele>242.66666666666666</ele><time>2026-04-03T11:31:42Z</time></trkpt><trkpt lat="43.577330460391465" lon="11.316958323247999"><ele>244.0</ele><time>2026-04-03T11:31:43Z</time></trkpt><trkpt lat="43.57750939595236" lon="11.316893964332692"><ele>244.0</ele><time>2026-04-03T11:31:44Z</time></trkpt><trkpt lat="43.577674163432825" lon="11.316838932432269"><ele>244.0</ele><time>2026-04-03T11:31:45Z</time></trkpt><trkpt lat="43.577820005646274" lon="11.31678768842346"><ele>244.0</ele><time>2026-04-03T11:31:46Z</time></trkpt><trkpt lat="43.577976498890514" lon="11.316736301290181"><ele>242.66666666666666</ele><time>2026-04-03T11:31:47Z</time></trkpt><trkpt lat="43.578141916087056" lon="11.316680794303801"><ele>241.33333333333331</ele><time>2026-04-03T11:31:48Z</time></trkpt><trkpt lat="43.57830639315054" lon="11.316637730178153"><ele>240.0</ele><time>2026-04-03T11:31:49Z</time></trkpt><trkpt lat="43.57848232288003" lon="11.316603157120444"><ele>240.0</ele><time>2026-04-03T11:31:50Z</time></trkpt><trkpt lat="43.578653785334396" lon="11.316595904973381"><ele>240.0</ele><time>2026-04-03T11:31:51Z</time></trkpt><trkpt lat="43.578825829759815" lon="11.316624135353416"><ele>240.0</ele><time>2026-04-03T11:31:52Z</time></trkpt><trkpt lat="43.57899817472646" lon="11.316694523165372"><ele>239.66666666666669</ele><time>2026-04-03T11:31:53Z</time></trkpt><trkpt lat="43.57917533512841" lon="11.316774116180856"><ele>239.33333333333334</ele><time>2026-04-03T11:31:54Z</time></trkpt><trkpt lat="43.579341672922624" lon="11.316840754571123"><ele>239.0</ele><time>2026-04-03T11:31:55Z</time></trkpt><trkpt lat="43.579497786793894" lon="11.316897422196343"><ele>240.33333333333334</ele><time>2026-04-03T11:31:56Z</time></trkpt><trkpt lat="43.57966368905392" lon="11.316949056627577"><ele>241.66666666666669</ele><time>2026-04-03T11:31:57Z</time></trkpt><trkpt lat="43.5798110645145" lon="11.31700257977803"><ele>243.0</ele><time>2026-04-03T11:31:58Z</time></trkpt><trkpt lat="43.579938009303895" lon="11.317044180990255"><ele>243.0</ele><time>2026-04-03T11:31:59Z</time></trkpt><trkpt lat="43.58005357078641" lon="11.317096557719529"><ele>243.0</ele><time>2026-04-03T11:32:00Z</time></trkpt><trkpt lat="43.58016593314965" lon="11.31718628524221"><ele>243.0</ele><time>2026-04-03T11:32:01Z</time></trkpt><trkpt lat="43.58027696818984" lon="11.317324847327242"><ele>243.0</ele><time>2026-04-03T11:32:02Z</time></trkpt><trkpt lat="43.580372814703836" lon="11.317462400634335"><ele>241.5</ele><time>2026-04-03T11:32:03Z</time></trkpt><trkpt lat="43.58047892336166" lon="11.317566023698156"><ele>240.0</ele><time>2026-04-03T11:32:04Z</time></trkpt><trkpt lat="43.58058637384979" lon="11.317640936507352"><ele>238.5</ele><time>2026-04-03T11:32:05Z</time></trkpt><trkpt lat="43.58069452805739" lon="11.317709404914643"><ele>237.0</ele><time>2026-04-03T11:32:06Z</time></trkpt><trkpt lat="43.58079459356005" lon="11.317783472746529"><ele>237.0</ele><time>2026-04-03T11:32:07Z</time></trkpt><trkpt lat="43.58086966558252" lon="11.317854098032033"><ele>237.0</ele><time>2026-04-03T11:32:08Z</time></trkpt><trkpt lat="43.58095513409075" lon="11.317910872140095"><ele>237.0</ele><time>2026-04-03T11:32:09Z</time></trkpt><trkpt lat="43.58104259927922" lon="11.317953060338333"><ele>237.0</ele><time>2026-04-03T11:32:10Z</time></trkpt><trkpt lat="43.58113523177614" lon="11.317955715757142"><ele>237.0</ele><time>2026-04-03T11:32:11Z</time></trkpt><trkpt lat="43.58123351280083" lon="11.317944939674625"><ele>237.39999999999998</ele><time>2026-04-03T11:32:12Z</time></trkpt><trkpt lat="43.58132665741434" lon="11.317930798827671"><ele>237.79999999999998</ele><time>2026-04-03T11:32:13Z</time></trkpt><trkpt lat="43.58142330284818" lon="11.317919723524817"><ele>238.2</ele><time>2026-04-03T11:32:14Z</time></trkpt><trkpt lat="43.58151923294458" lon="11.317916325539548"><ele>238.6</ele><time>2026-04-03T11:32:15Z</time></trkpt><trkpt lat="43.5816131911635" lon="11.317921222506877"><ele>239.0</ele><time>2026-04-03T11:32:16Z</time></trkpt><trkpt lat="43.581706740406545" lon="11.31792488076482"><ele>239.0</ele><time>2026-04-03T11:32:17Z</time></trkpt><trkpt lat="43.58180078426576" lon="11.317957330956729"><ele>238.99999999999997</ele><time>2026-04-03T11:32:18Z</time></trkpt><trkpt lat="43.581898299744864" lon="11.317991939638803"><ele>238.99999999999997</ele><time>2026-04-03T11:32:19Z</time></trkpt><trkpt lat="43.581999664777506" lon="11.318014643004462"><ele>239.0</ele><time>2026-04-03T11:32:20Z</time></trkpt><trkpt lat="43.58210632732042" lon="11.318017225998322"><ele>239.0</ele><time>2026-04-03T11:32:21Z</time></trkpt><trkpt lat="43.58221418329406" lon="11.31799771206762"><ele>238.50000000000003</ele><time>2026-04-03T11:32:22Z</time></trkpt><trkpt lat="43.582305760220066" lon="11.317977884898951"><ele>238.0</ele><time>2026-04-03T11:32:23Z</time></trkpt><trkpt lat="43.58238710842303" lon="11.317944426629868"><ele>237.5</ele><time>2026-04-03T11:32:24Z</time></trkpt><trkpt lat="43.58247154169498" lon="11.317910865498627"><ele>237.0</ele><time>2026-04-03T11:32:25Z</time></trkpt><trkpt lat="43.58255411122014" lon="11.317877395092747"><ele>236.50000000000003</ele><time>2026-04-03T11:32:26Z</time></trkpt><trkpt lat="43.582634620233286" lon="11.317842781572164"><ele>236.0</ele><time>2026-04-03T11:32:27Z</time></trkpt><trkpt lat="43.582743923065834" lon="11.317793553174358"><ele>236.00000000000003</ele><time>2026-04-03T11:32:29Z</time></trkpt><trkpt lat="43.58280526578711" lon="11.317769854407002"><ele>236.0</ele><time>2026-04-03T11:32:31Z</time></trkpt><trkpt lat="43.58287046956569" lon="11.317766677278362"><ele>236.0</ele><time>2026-04-03T11:32:57.999Z</time></trkpt><trkpt lat="43.58295320082611" lon="11.317735597737839"><ele>236.0</ele><time>2026-04-03T11:32:58.999Z</time></trkpt><trkpt lat="43.58303622889991" lon="11.317663339579433"><ele>236.00000000000003</ele><time>2026-04-03T11:32:59.999Z</time></trkpt><trkpt lat="43.583118211849616" lon="11.317628385631807"><ele>236.0</ele><time>2026-04-03T11:33:00.999Z</time></trkpt><trkpt lat="43.58319817993864" lon="11.317563098274901"><ele>235.5</ele><time>2026-04-03T11:33:01.999Z</time></trkpt><trkpt lat="43.583289312227755" lon="11.317479958127933"><ele>235.0</ele><time>2026-04-03T11:33:02.999Z</time></trkpt><trkpt lat="43.583419629493136" lon="11.317324048087976"><ele>234.5</ele><time>2026-04-03T11:33:03.999Z</time></trkpt><trkpt lat="43.583535254910544" lon="11.317163234513156"><ele>234.0</ele><time>2026-04-03T11:33:04.999Z</time></trkpt><trkpt lat="43.58361778862285" lon="11.316989157651369"><ele>232.66666666666669</ele><time>2026-04-03T11:33:05.999Z</time></trkpt><trkpt lat="43.583700424585146" lon="11.316796836519005"><ele>231.33333333333334</ele><time>2026-04-03T11:33:06.999Z</time></trkpt><trkpt lat="43.583778635684766" lon="11.316602168531485"><ele>230.0</ele><time>2026-04-03T11:33:07.999Z</time></trkpt><trkpt lat="43.58386271510936" lon="11.316434495991352"><ele>230.25</ele><time>2026-04-03T11:33:08.999Z</time></trkpt><trkpt lat="43.583930873343206" lon="11.316265014483935"><ele>230.5</ele><time>2026-04-03T11:33:09.999Z</time></trkpt><trkpt lat="43.583998680524175" lon="11.316104844753214"><ele>230.75</ele><time>2026-04-03T11:33:10.999Z</time></trkpt><trkpt lat="43.584070057667894" lon="11.315951522667824"><ele>231.0</ele><time>2026-04-03T11:33:11.999Z</time></trkpt><trkpt lat="43.58414403997793" lon="11.315816214987699"><ele>231.0</ele><time>2026-04-03T11:33:12.999Z</time></trkpt><trkpt lat="43.58424224898183" lon="11.315715684009655"><ele>231.0</ele><time>2026-04-03T11:33:13.999Z</time></trkpt><trkpt lat="43.584367997930116" lon="11.315651120469665"><ele>231.0</ele><time>2026-04-03T11:33:14.999Z</time></trkpt><trkpt lat="43.58450840283023" lon="11.31556596896626"><ele>231.0</ele><time>2026-04-03T11:33:15.999Z</time></trkpt><trkpt lat="43.58465206598871" lon="11.315520470715136"><ele>230.8</ele><time>2026-04-03T11:33:16.999Z</time></trkpt><trkpt lat="43.584776387814905" lon="11.315480725850819"><ele>230.60000000000002</ele><time>2026-04-03T11:33:17.999Z</time></trkpt><trkpt lat="43.58488566115282" lon="11.315441886957522"><ele>230.4</ele><time>2026-04-03T11:33:18.999Z</time></trkpt><trkpt lat="43.584986826120875" lon="11.315409620352357"><ele>230.2</ele><time>2026-04-03T11:33:19.999Z</time></trkpt><trkpt lat="43.585090186909696" lon="11.315392500439197"><ele>230.0</ele><time>2026-04-03T11:33:20.999Z</time></trkpt><trkpt lat="43.58519975218776" lon="11.315380220900353"><ele>230.0</ele><time>2026-04-03T11:33:21.999Z</time></trkpt><trkpt lat="43.585305794417955" lon="11.31536328737016"><ele>230.0</ele><time>2026-04-03T11:33:22.999Z</time></trkpt><trkpt lat="43.58540625354914" lon="11.315333206257495"><ele>230.0</ele><time>2026-04-03T11:33:23.999Z</time></trkpt><trkpt lat="43.585501291375486" lon="11.315315273564273"><ele>230.0</ele><time>2026-04-03T11:33:24.999Z</time></trkpt><trkpt lat="43.58561239186344" lon="11.315283806868035"><ele>230.0</ele><time>2026-04-03T11:33:25.999Z</time></trkpt><trkpt lat="43.58576795696836" lon="11.315247475686078"><ele>229.33333333333334</ele><time>2026-04-03T11:33:26.999Z</time></trkpt><trkpt lat="43.58595582543593" lon="11.315227496723224"><ele>228.66666666666669</ele><time>2026-04-03T11:33:27.999Z</time></trkpt><trkpt lat="43.586126187603085" lon="11.315191725752193"><ele>228.0</ele><time>2026-04-03T11:33:28.999Z</time></trkpt><trkpt lat="43.58625870509757" lon="11.31518117268511"><ele>228.0</ele><time>2026-04-03T11:33:29.999Z</time></trkpt><trkpt lat="43.58634783636261" lon="11.315165636592257"><ele>228.0</ele><time>2026-04-03T11:33:30.999Z</time></trkpt><trkpt lat="43.58643287589664" lon="11.315137410366328"><ele>228.0</ele><time>2026-04-03T11:33:31.999Z</time></trkpt><trkpt lat="43.58652583399983" lon="11.315112964358155"><ele>228.0</ele><time>2026-04-03T11:33:32.999Z</time></trkpt><trkpt lat="43.58663570516586" lon="11.315098289934317"><ele>228.0</ele><time>2026-04-03T11:33:33.999Z</time></trkpt><trkpt lat="43.58673917350733" lon="11.315082259446253"><ele>228.0</ele><time>2026-04-03T11:33:34.999Z</time></trkpt><trkpt lat="43.586812403866475" lon="11.315062920162887"><ele>228.0</ele><time>2026-04-03T11:33:35.999Z</time></trkpt><trkpt lat="43.58687711251408" lon="11.315055288479083"><ele>228.0</ele><time>2026-04-03T11:33:36.999Z</time></trkpt><trkpt lat="43.58696430045219" lon="11.31503988920205"><ele>228.0</ele><time>2026-04-03T11:33:37.999Z</time></trkpt><trkpt lat="43.58705753497134" lon="11.315029045923385"><ele>228.0</ele><time>2026-04-03T11:33:38.999Z</time></trkpt><trkpt lat="43.58716291644835" lon="11.315016642067679"><ele>228.0</ele><time>2026-04-03T11:33:39.999Z</time></trkpt><trkpt lat="43.587288789600755" lon="11.314999364563088"><ele>227.75</ele><time>2026-04-03T11:33:41Z</time></trkpt><trkpt lat="43.58738741986166" lon="11.314980495058446"><ele>227.5</ele><time>2026-04-03T11:33:42Z</time></trkpt><trkpt lat="43.58749310346464" lon="11.31495851993822"><ele>227.25</ele><time>2026-04-03T11:33:43Z</time></trkpt><trkpt lat="43.587614494735526" lon="11.314935142942208"><ele>227.0</ele><time>2026-04-03T11:33:44Z</time></trkpt><trkpt lat="43.587750021754005" lon="11.314906785586807"><ele>227.0</ele><time>2026-04-03T11:33:45Z</time></trkpt><trkpt lat="43.58789508759511" lon="11.314875987019464"><ele>227.0</ele><time>2026-04-03T11:33:46Z</time></trkpt><trkpt lat="43.58807179672847" lon="11.314844413894965"><ele>227.0</ele><time>2026-04-03T11:33:47Z</time></trkpt><trkpt lat="43.58826267773097" lon="11.314806659615419"><ele>227.0</ele><time>2026-04-03T11:33:48Z</time></trkpt><trkpt lat="43.58849696727173" lon="11.314755702449899"><ele>227.0</ele><time>2026-04-03T11:33:49Z</time></trkpt><trkpt lat="43.58872260953296" lon="11.314711835115425"><ele>226.33333333333334</ele><time>2026-04-03T11:33:50Z</time></trkpt><trkpt lat="43.58889306217193" lon="11.314683192477972"><ele>225.66666666666669</ele><time>2026-04-03T11:33:51Z</time></trkpt><trkpt lat="43.58907163354868" lon="11.314649446976052"><ele>225.0</ele><time>2026-04-03T11:33:52Z</time></trkpt><trkpt lat="43.58920410102836" lon="11.314627409638538"><ele>225.0</ele><time>2026-04-03T11:33:53Z</time></trkpt><trkpt lat="43.58931537848644" lon="11.314612268701897"><ele>225.0</ele><time>2026-04-03T11:33:54Z</time></trkpt><trkpt lat="43.58938929165775" lon="11.314599740979144"><ele>225.0</ele><time>2026-04-03T11:33:55Z</time></trkpt><trkpt lat="43.58945199700913" lon="11.314578701129415"><ele>225.0</ele><time>2026-04-03T11:34:07Z</time></trkpt><trkpt lat="43.58953938167666" lon="11.314565507529403"><ele>225.0</ele><time>2026-04-03T11:34:08Z</time></trkpt><trkpt lat="43.58964971805096" lon="11.314547345493779"><ele>224.33333333333331</ele><time>2026-04-03T11:34:09Z</time></trkpt><trkpt lat="43.58977810752239" lon="11.314517575778599"><ele>223.66666666666666</ele><time>2026-04-03T11:34:10Z</time></trkpt><trkpt lat="43.589937526342176" lon="11.314487451568661"><ele>223.0</ele><time>2026-04-03T11:34:11Z</time></trkpt><trkpt lat="43.590110662865065" lon="11.314452587718915"><ele>223.0</ele><time>2026-04-03T11:34:12Z</time></trkpt><trkpt lat="43.590295762675595" lon="11.31442555074371"><ele>223.0</ele><time>2026-04-03T11:34:13Z</time></trkpt><trkpt lat="43.5904904831797" lon="11.314414905752459"><ele>223.0</ele><time>2026-04-03T11:34:14Z</time></trkpt><trkpt lat="43.59068025469804" lon="11.314427496034174"><ele>222.66666666666666</ele><time>2026-04-03T11:34:15Z</time></trkpt><trkpt lat="43.590853099636035" lon="11.314467086719644"><ele>222.33333333333331</ele><time>2026-04-03T11:34:16Z</time></trkpt><trkpt lat="43.5910240847357" lon="11.314531160738554"><ele>222.0</ele><time>2026-04-03T11:34:17Z</time></trkpt><trkpt lat="43.59119764076981" lon="11.314612631084588"><ele>222.0</ele><time>2026-04-03T11:34:18Z</time></trkpt><trkpt lat="43.5913633041675" lon="11.31469888750503"><ele>222.0</ele><time>2026-04-03T11:34:19Z</time></trkpt><trkpt lat="43.5915040489729" lon="11.314781868005172"><ele>222.0</ele><time>2026-04-03T11:34:20Z</time></trkpt><trkpt lat="43.591625047096464" lon="11.314865359778636"><ele>222.0</ele><time>2026-04-03T11:34:21Z</time></trkpt><trkpt lat="43.591728854952095" lon="11.314936404703712"><ele>222.0</ele><time>2026-04-03T11:34:22Z</time></trkpt><trkpt lat="43.59181083263987" lon="11.314994274779274"><ele>222.0</ele><time>2026-04-03T11:34:23Z</time></trkpt><trkpt lat="43.59188350567732" lon="11.315074968748151"><ele>222.0</ele><time>2026-04-03T11:34:24Z</time></trkpt><trkpt lat="43.591948554605594" lon="11.315185864601695"><ele>222.0</ele><time>2026-04-03T11:34:25Z</time></trkpt><trkpt lat="43.592031368081834" lon="11.315232421279392"><ele>221.75</ele><time>2026-04-03T11:34:26Z</time></trkpt><trkpt lat="43.592126381589736" lon="11.31527666051965"><ele>221.5</ele><time>2026-04-03T11:34:27Z</time></trkpt><trkpt lat="43.5922529021906" lon="11.31529760166842"><ele>221.25</ele><time>2026-04-03T11:34:28Z</time></trkpt><trkpt lat="43.59237150247092" lon="11.315387114045194"><ele>221.0</ele><time>2026-04-03T11:34:29Z</time></trkpt><trkpt lat="43.592507002038055" lon="11.315502352332425"><ele>222.0</ele><time>2026-04-03T11:34:30Z</time></trkpt><trkpt lat="43.59265955545685" lon="11.315581499214243"><ele>223.0</ele><time>2026-04-03T11:34:31Z</time></trkpt><trkpt lat="43.59280874304249" lon="11.3156468184883"><ele>224.0</ele><time>2026-04-03T11:34:32Z</time></trkpt><trkpt lat="43.59295795879075" lon="11.315698254075711"><ele>224.0</ele><time>2026-04-03T11:34:33Z</time></trkpt><trkpt lat="43.593118228956826" lon="11.31574750528236"><ele>224.0</ele><time>2026-04-03T11:34:34Z</time></trkpt><trkpt lat="43.59326725927083" lon="11.315811873589501"><ele>224.0</ele><time>2026-04-03T11:34:35Z</time></trkpt><trkpt lat="43.59341216633978" lon="11.31590469663255"><ele>224.0</ele><time>2026-04-03T11:34:36Z</time></trkpt><trkpt lat="43.593557928334675" lon="11.31601576547362"><ele>224.0</ele><time>2026-04-03T11:34:37Z</time></trkpt><trkpt lat="43.593708498977804" lon="11.31612898264301"><ele>224.0</ele><time>2026-04-03T11:34:38Z</time></trkpt><trkpt lat="43.59387181666533" lon="11.316246470250368"><ele>222.66666666666669</ele><time>2026-04-03T11:34:39Z</time></trkpt><trkpt lat="43.59404583254819" lon="11.316367031354696"><ele>221.33333333333331</ele><time>2026-04-03T11:34:40Z</time></trkpt><trkpt lat="43.59421327786713" lon="11.316473583765836"><ele>220.0</ele><time>2026-04-03T11:34:41Z</time></trkpt><trkpt lat="43.59437289265462" lon="11.316566361143535"><ele>220.66666666666666</ele><time>2026-04-03T11:34:42Z</time></trkpt><trkpt lat="43.59453049647435" lon="11.316663048659683"><ele>221.33333333333331</ele><time>2026-04-03T11:34:42.999Z</time></trkpt><trkpt lat="43.59468792692831" lon="11.316737894342833"><ele>222.0</ele><time>2026-04-03T11:34:43.999Z</time></trkpt><trkpt lat="43.59486372943743" lon="11.316744345241505"><ele>222.0</ele><time>2026-04-03T11:34:44.999Z</time></trkpt><trkpt lat="43.595055060736826" lon="11.316701891375155"><ele>222.0</ele><time>2026-04-03T11:34:45.999Z</time></trkpt><trkpt lat="43.59524208774913" lon="11.316662563900353"><ele>222.0</ele><time>2026-04-03T11:34:46.999Z</time></trkpt><trkpt lat="43.59543482303298" lon="11.316681321244339"><ele>220.66666666666669</ele><time>2026-04-03T11:34:47.999Z</time></trkpt><trkpt lat="43.59562349355825" lon="11.316735193758465"><ele>219.33333333333334</ele><time>2026-04-03T11:34:48.999Z</time></trkpt><trkpt lat="43.595806485921905" lon="11.316805773147609"><ele>218.0</ele><time>2026-04-03T11:34:49.999Z</time></trkpt><trkpt lat="43.59598490123654" lon="11.316868543741808"><ele>218.0</ele><time>2026-04-03T11:34:50.999Z</time></trkpt><trkpt lat="43.59617038670595" lon="11.316931877692948"><ele>218.0</ele><time>2026-04-03T11:34:51.999Z</time></trkpt><trkpt lat="43.59635495210523" lon="11.316978651175507"><ele>218.0</ele><time>2026-04-03T11:34:52.999Z</time></trkpt><trkpt lat="43.596540886924075" lon="11.316994444652268"><ele>218.0</ele><time>2026-04-03T11:34:53.999Z</time></trkpt><trkpt lat="43.59673285305327" lon="11.316969733092632"><ele>218.0</ele><time>2026-04-03T11:34:54.999Z</time></trkpt><trkpt lat="43.596930062929324" lon="11.316904010029159"><ele>218.0</ele><time>2026-04-03T11:34:55.999Z</time></trkpt><trkpt lat="43.59712697810217" lon="11.316806418627507"><ele>218.66666666666669</ele><time>2026-04-03T11:34:56.999Z</time></trkpt><trkpt lat="43.59731274655695" lon="11.316676189992847"><ele>219.33333333333331</ele><time>2026-04-03T11:34:57.999Z</time></trkpt><trkpt lat="43.59749798135782" lon="11.316539564131155"><ele>220.0</ele><time>2026-04-03T11:34:58.999Z</time></trkpt><trkpt lat="43.59767655468173" lon="11.316416679337168"><ele>220.0</ele><time>2026-04-03T11:34:59.999Z</time></trkpt><trkpt lat="43.59784781585204" lon="11.316289007354976"><ele>220.0</ele><time>2026-04-03T11:35:00.999Z</time></trkpt><trkpt lat="43.59800297295517" lon="11.31612789336947"><ele>220.0</ele><time>2026-04-03T11:35:01.999Z</time></trkpt><trkpt lat="43.59814156048203" lon="11.315918901429212"><ele>220.0</ele><time>2026-04-03T11:35:02.999Z</time></trkpt><trkpt lat="43.598271958773715" lon="11.315677783615305"><ele>220.0</ele><time>2026-04-03T11:35:03.999Z</time></trkpt><trkpt lat="43.59838646893223" lon="11.315433513457764"><ele>220.0</ele><time>2026-04-03T11:35:04.999Z</time></trkpt><trkpt lat="43.59851356396089" lon="11.31519587345173"><ele>219.0</ele><time>2026-04-03T11:35:05.999Z</time></trkpt><trkpt lat="43.59865370225271" lon="11.314966461297846"><ele>218.0</ele><time>2026-04-03T11:35:06.999Z</time></trkpt><trkpt lat="43.598787773606354" lon="11.314726095779253"><ele>217.0</ele><time>2026-04-03T11:35:07.999Z</time></trkpt><trkpt lat="43.598913636996684" lon="11.314483347068258"><ele>217.0</ele><time>2026-04-03T11:35:08.999Z</time></trkpt><trkpt lat="43.59904200445824" lon="11.314243153998353"><ele>217.0</ele><time>2026-04-03T11:35:09.999Z</time></trkpt><trkpt lat="43.59917708277364" lon="11.314004009746412"><ele>217.0</ele><time>2026-04-03T11:35:10.999Z</time></trkpt><trkpt lat="43.59930595033925" lon="11.313771973705748"><ele>216.66666666666666</ele><time>2026-04-03T11:35:11.999Z</time></trkpt><trkpt lat="43.599428437826134" lon="11.313546401543952"><ele>216.33333333333331</ele><time>2026-04-03T11:35:12.999Z</time></trkpt><trkpt lat="43.59953395574621" lon="11.313349193164427"><ele>216.0</ele><time>2026-04-03T11:35:13.999Z</time></trkpt><trkpt lat="43.599629601325894" lon="11.313174601385706"><ele>215.4</ele><time>2026-04-03T11:35:14.999Z</time></trkpt><trkpt lat="43.59971176354614" lon="11.313036992932975"><ele>214.8</ele><time>2026-04-03T11:35:15.999Z</time></trkpt><trkpt lat="43.59977862053763" lon="11.312916173453884"><ele>214.20000000000002</ele><time>2026-04-03T11:35:16.999Z</time></trkpt><trkpt lat="43.59983342667142" lon="11.31282145545066"><ele>213.60000000000002</ele><time>2026-04-03T11:35:17.999Z</time></trkpt><trkpt lat="43.59989755036819" lon="11.31276244396877"><ele>213.0</ele><time>2026-04-03T11:35:18.999Z</time></trkpt><trkpt lat="43.59995752939951" lon="11.312702187012029"><ele>213.0</ele><time>2026-04-03T11:35:19.999Z</time></trkpt><trkpt lat="43.600094784227444" lon="11.312752217151278"><ele>213.0</ele><time>2026-04-03T11:35:20.999Z</time></trkpt><trkpt lat="43.60016773997138" lon="11.312759201504312"><ele>213.0</ele><time>2026-04-03T11:35:21.999Z</time></trkpt><trkpt lat="43.6002023099807" lon="11.312671957797315"><ele>213.0</ele><time>2026-04-03T11:38:17Z</time></trkpt><trkpt lat="43.600154995801496" lon="11.31240195059843"><ele>213.0</ele><time>2026-04-03T11:38:41Z</time></trkpt><trkpt lat="43.60015278509753" lon="11.312304893028665"><ele>213.0</ele><time>2026-04-03T11:38:43Z</time></trkpt><trkpt lat="43.600178588695854" lon="11.312162618855329"><ele>213.0</ele><time>2026-04-03T11:38:52Z</time></trkpt><trkpt lat="43.600236556711906" lon="11.312062351984551"><ele>213.0</ele><time>2026-04-03T11:38:53Z</time></trkpt><trkpt lat="43.60031641199528" lon="11.311928984429587"><ele>213.0</ele><time>2026-04-03T11:38:54Z</time></trkpt><trkpt lat="43.60041788749894" lon="11.311752727657453"><ele>213.66666666666669</ele><time>2026-04-03T11:38:55Z</time></trkpt><trkpt lat="43.60052861736794" lon="11.31152024731274"><ele>214.33333333333334</ele><time>2026-04-03T11:38:56Z</time></trkpt><trkpt lat="43.600661748009266" lon="11.3112863199036"><ele>215.0</ele><time>2026-04-03T11:38:57Z</time></trkpt><trkpt lat="43.60080150171227" lon="11.311075230994453"><ele>215.0</ele><time>2026-04-03T11:38:58Z</time></trkpt><trkpt lat="43.60094843626657" lon="11.310909226110557"><ele>215.0</ele><time>2026-04-03T11:38:59Z</time></trkpt><trkpt lat="43.601114737126224" lon="11.310758326231177"><ele>215.0</ele><time>2026-04-03T11:39:00Z</time></trkpt><trkpt lat="43.601302090839" lon="11.310641486459547"><ele>214.0</ele><time>2026-04-03T11:39:01Z</time></trkpt><trkpt lat="43.60149245059445" lon="11.310545268754908"><ele>213.0</ele><time>2026-04-03T11:39:02Z</time></trkpt><trkpt lat="43.60167910891172" lon="11.310447875484083"><ele>212.0</ele><time>2026-04-03T11:39:03Z</time></trkpt><trkpt lat="43.601866554533174" lon="11.310336101116912"><ele>213.0</ele><time>2026-04-03T11:39:03.999Z</time></trkpt><trkpt lat="43.60207666583542" lon="11.310200766386322"><ele>214.0</ele><time>2026-04-03T11:39:04.999Z</time></trkpt><trkpt lat="43.60230765634098" lon="11.31006710584295"><ele>214.0</ele><time>2026-04-03T11:39:05.999Z</time></trkpt><trkpt lat="43.60255649832461" lon="11.309944620582353"><ele>214.0</ele><time>2026-04-03T11:39:06.999Z</time></trkpt><trkpt lat="43.6028073012755" lon="11.3098252662875"><ele>213.66666666666666</ele><time>2026-04-03T11:39:07.999Z</time></trkpt><trkpt lat="43.603016782665605" lon="11.309708379709196"><ele>213.33333333333331</ele><time>2026-04-03T11:39:08.999Z</time></trkpt><trkpt lat="43.60320617906288" lon="11.309597104730592"><ele>213.0</ele><time>2026-04-03T11:39:09.999Z</time></trkpt><trkpt lat="43.60338132541535" lon="11.309499982715295"><ele>213.0</ele><time>2026-04-03T11:39:10.999Z</time></trkpt><trkpt lat="43.60355008130071" lon="11.309403303903206"><ele>213.0</ele><time>2026-04-03T11:39:11.999Z</time></trkpt><trkpt lat="43.60371413123613" lon="11.309294455609662"><ele>213.0</ele><time>2026-04-03T11:39:12.999Z</time></trkpt><trkpt lat="43.603861966650044" lon="11.309157613110143"><ele>214.0</ele><time>2026-04-03T11:39:13.999Z</time></trkpt><trkpt lat="43.60398682934696" lon="11.30897629194929"><ele>215.0</ele><time>2026-04-03T11:39:14.999Z</time></trkpt><trkpt lat="43.60407237583901" lon="11.308755408668333"><ele>216.0</ele><time>2026-04-03T11:39:15.999Z</time></trkpt><trkpt lat="43.604129010894525" lon="11.308545574091283"><ele>216.0</ele><time>2026-04-03T11:39:16.999Z</time></trkpt><trkpt lat="43.60417132365497" lon="11.308359634026516"><ele>216.0</ele><time>2026-04-03T11:39:17.999Z</time></trkpt><trkpt lat="43.60418740229612" lon="11.308187318093077"><ele>216.0</ele><time>2026-04-03T11:39:18.999Z</time></trkpt><trkpt lat="43.604185322936445" lon="11.308004688269246"><ele>216.0</ele><time>2026-04-03T11:39:19.999Z</time></trkpt><trkpt lat="43.60417726562028" lon="11.307824688671209"><ele>215.5</ele><time>2026-04-03T11:39:20.999Z</time></trkpt><trkpt lat="43.60417851145536" lon="11.307651242609662"><ele>215.0</ele><time>2026-04-03T11:39:21.999Z</time></trkpt><trkpt lat="43.60419180030344" lon="11.3074560172302"><ele>214.5</ele><time>2026-04-03T11:39:22.999Z</time></trkpt><trkpt lat="43.60420406271361" lon="11.30723276940033"><ele>214.0</ele><time>2026-04-03T11:39:23.999Z</time></trkpt><trkpt lat="43.6042128922629" lon="11.307039815022426"><ele>212.33333333333331</ele><time>2026-04-03T11:39:24.999Z</time></trkpt><trkpt lat="43.604255276603496" lon="11.306854992767496"><ele>210.66666666666669</ele><time>2026-04-03T11:39:25.999Z</time></trkpt><trkpt lat="43.60434087815416" lon="11.306672531208596"><ele>209.0</ele><time>2026-04-03T11:39:26.999Z</time></trkpt><trkpt lat="43.60448698551472" lon="11.306539942798874"><ele>208.66666666666669</ele><time>2026-04-03T11:39:27.999Z</time></trkpt><trkpt lat="43.604642968293405" lon="11.306383777205431"><ele>208.33333333333331</ele><time>2026-04-03T11:39:28.999Z</time></trkpt><trkpt lat="43.604808345617286" lon="11.306270822454715"><ele>208.0</ele><time>2026-04-03T11:39:29.999Z</time></trkpt><trkpt lat="43.604928025026986" lon="11.306169839238084"><ele>208.0</ele><time>2026-04-03T11:39:30.999Z</time></trkpt><trkpt lat="43.60501468072953" lon="11.306087541562967"><ele>208.0</ele><time>2026-04-03T11:39:31.999Z</time></trkpt><trkpt lat="43.605106183194955" lon="11.306017314753833"><ele>208.0</ele><time>2026-04-03T11:39:32.999Z</time></trkpt><trkpt lat="43.605206639437014" lon="11.305936796148398"><ele>208.0</ele><time>2026-04-03T11:39:33.999Z</time></trkpt><trkpt lat="43.60531143439999" lon="11.30584771629791"><ele>208.0</ele><time>2026-04-03T11:39:34.999Z</time></trkpt><trkpt lat="43.60541432874355" lon="11.305762187183001"><ele>208.0</ele><time>2026-04-03T11:39:35.999Z</time></trkpt><trkpt lat="43.60549444284634" lon="11.305692740595964"><ele>208.0</ele><time>2026-04-03T11:39:36.999Z</time></trkpt><trkpt lat="43.60556948940508" lon="11.30561931922979"><ele>208.0</ele><time>2026-04-03T11:39:37.999Z</time></trkpt><trkpt lat="43.605651584325145" lon="11.305541744450316"><ele>208.0</ele><time>2026-04-03T11:39:38.999Z</time></trkpt><trkpt lat="43.60574980292948" lon="11.305463041714619"><ele>208.0</ele><time>2026-04-03T11:39:39.999Z</time></trkpt><trkpt lat="43.605865900316665" lon="11.305383153088789"><ele>208.0</ele><time>2026-04-03T11:39:40.999Z</time></trkpt><trkpt lat="43.60598897437347" lon="11.305284051146339"><ele>208.0</ele><time>2026-04-03T11:39:41.999Z</time></trkpt><trkpt lat="43.606120028927194" lon="11.305171211558065"><ele>208.0</ele><time>2026-04-03T11:39:42.999Z</time></trkpt><trkpt lat="43.606271806484614" lon="11.30503778160705"><ele>208.33333333333331</ele><time>2026-04-03T11:39:43.999Z</time></trkpt><trkpt lat="43.60641137870648" lon="11.304922626845272"><ele>208.66666666666669</ele><time>2026-04-03T11:39:44.999Z</time></trkpt><trkpt lat="43.60656231925846" lon="11.30478603811879"><ele>209.0</ele><time>2026-04-03T11:39:45.999Z</time></trkpt><trkpt lat="43.606702788143096" lon="11.304650850543968"><ele>209.0</ele><time>2026-04-03T11:39:46.999Z</time></trkpt><trkpt lat="43.606822345261364" lon="11.304502488471577"><ele>209.0</ele><time>2026-04-03T11:39:47.999Z</time></trkpt><trkpt lat="43.606917450022046" lon="11.30429160039172"><ele>209.0</ele><time>2026-04-03T11:39:48.999Z</time></trkpt><trkpt lat="43.60702587253147" lon="11.304080982928664"><ele>209.0</ele><time>2026-04-03T11:39:49.999Z</time></trkpt><trkpt lat="43.607137969881926" lon="11.303900106871673"><ele>209.0</ele><time>2026-04-03T11:39:50.999Z</time></trkpt><trkpt lat="43.60727244680086" lon="11.303655707133085"><ele>209.0</ele><time>2026-04-03T11:39:51.999Z</time></trkpt><trkpt lat="43.6073832978212" lon="11.3034501066573"><ele>209.0</ele><time>2026-04-03T11:39:52.999Z</time></trkpt><trkpt lat="43.60748738427669" lon="11.303244759737074"><ele>209.0</ele><time>2026-04-03T11:39:53.999Z</time></trkpt><trkpt lat="43.60759407689127" lon="11.30303321982137"><ele>209.0</ele><time>2026-04-03T11:39:54.999Z</time></trkpt><trkpt lat="43.60770927894347" lon="11.302811831783442"><ele>208.0</ele><time>2026-04-03T11:39:55.999Z</time></trkpt><trkpt lat="43.60781926940621" lon="11.302598190856008"><ele>207.0</ele><time>2026-04-03T11:39:56.999Z</time></trkpt><trkpt lat="43.607914099923484" lon="11.302381374238683"><ele>206.0</ele><time>2026-04-03T11:39:57.999Z</time></trkpt><trkpt lat="43.60796431545654" lon="11.302143239145039"><ele>206.66666666666669</ele><time>2026-04-03T11:39:59Z</time></trkpt><trkpt lat="43.607975460014785" lon="11.301878738456987"><ele>207.33333333333331</ele><time>2026-04-03T11:40:00Z</time></trkpt><trkpt lat="43.60797952137446" lon="11.301609225437304"><ele>208.0</ele><time>2026-04-03T11:40:01Z</time></trkpt><trkpt lat="43.60803321813202" lon="11.301359216577053"><ele>208.0</ele><time>2026-04-03T11:40:02Z</time></trkpt><trkpt lat="43.60810548252994" lon="11.301105720485216"><ele>208.0</ele><time>2026-04-03T11:40:03Z</time></trkpt><trkpt lat="43.60817931579311" lon="11.30085032767717"><ele>208.0</ele><time>2026-04-03T11:40:04Z</time></trkpt><trkpt lat="43.60828245357219" lon="11.300622637580178"><ele>206.0</ele><time>2026-04-03T11:40:05Z</time></trkpt><trkpt lat="43.60839162459823" lon="11.300413030455521"><ele>204.0</ele><time>2026-04-03T11:40:06Z</time></trkpt><trkpt lat="43.60850346270373" lon="11.300214416578878"><ele>202.0</ele><time>2026-04-03T11:40:07Z</time></trkpt><trkpt lat="43.60861336575978" lon="11.300039992651298"><ele>203.0</ele><time>2026-04-03T11:40:08Z</time></trkpt><trkpt lat="43.60870228328331" lon="11.299882460783772"><ele>204.0</ele><time>2026-04-03T11:40:09Z</time></trkpt><trkpt lat="43.608787258108514" lon="11.29976560569742"><ele>205.0</ele><time>2026-04-03T11:40:10Z</time></trkpt><trkpt lat="43.60888083654562" lon="11.299684051163961"><ele>206.0</ele><time>2026-04-03T11:40:11Z</time></trkpt><trkpt lat="43.608987521159854" lon="11.299677207152872"><ele>206.0</ele><time>2026-04-03T11:40:12Z</time></trkpt><trkpt lat="43.609079803887994" lon="11.29974975387918"><ele>206.0</ele><time>2026-04-03T11:40:13Z</time></trkpt><trkpt lat="43.60920786203203" lon="11.299802682822172"><ele>206.0</ele><time>2026-04-03T11:40:14Z</time></trkpt><trkpt lat="43.60934961420544" lon="11.299865180454457"><ele>206.0</ele><time>2026-04-03T11:40:15Z</time></trkpt><trkpt lat="43.60950892162587" lon="11.299937034561014"><ele>207.66666666666669</ele><time>2026-04-03T11:40:16Z</time></trkpt><trkpt lat="43.6096865605774" lon="11.299986952317282"><ele>209.33333333333331</ele><time>2026-04-03T11:40:17Z</time></trkpt><trkpt lat="43.609865538903314" lon="11.300003702259534"><ele>211.0</ele><time>2026-04-03T11:40:18Z</time></trkpt><trkpt lat="43.61004136325227" lon="11.29996665464759"><ele>211.0</ele><time>2026-04-03T11:40:19Z</time></trkpt><trkpt lat="43.61021576231059" lon="11.299878633596027"><ele>211.0</ele><time>2026-04-03T11:40:20Z</time></trkpt><trkpt lat="43.610393537719084" lon="11.299748059924285"><ele>211.0</ele><time>2026-04-03T11:40:21Z</time></trkpt><trkpt lat="43.61058507611436" lon="11.299588781054855"><ele>214.66666666666666</ele><time>2026-04-03T11:40:22Z</time></trkpt><trkpt lat="43.61075573213423" lon="11.299484904040208"><ele>218.33333333333331</ele><time>2026-04-03T11:40:23Z</time></trkpt><trkpt lat="43.61090235408641" lon="11.299426879041155"><ele>222.0</ele><time>2026-04-03T11:40:24Z</time></trkpt><trkpt lat="43.611052175775555" lon="11.299428480299161"><ele>223.25</ele><time>2026-04-03T11:40:25Z</time></trkpt><trkpt lat="43.61120104884769" lon="11.299524223028973"><ele>224.5</ele><time>2026-04-03T11:40:26Z</time></trkpt><trkpt lat="43.611350055353974" lon="11.299591515043103"><ele>225.75</ele><time>2026-04-03T11:40:27Z</time></trkpt><trkpt lat="43.61147583641242" lon="11.299621035226577"><ele>227.0</ele><time>2026-04-03T11:40:28Z</time></trkpt><trkpt lat="43.61160926062912" lon="11.299557864474211"><ele>227.0</ele><time>2026-04-03T11:40:29Z</time></trkpt><trkpt lat="43.611759184045006" lon="11.299429251971079"><ele>227.0</ele><time>2026-04-03T11:40:30Z</time></trkpt><trkpt lat="43.61190820312758" lon="11.29931423129559"><ele>227.0</ele><time>2026-04-03T11:40:31Z</time></trkpt><trkpt lat="43.6120446152751" lon="11.299261820844869"><ele>227.66666666666669</ele><time>2026-04-03T11:40:32Z</time></trkpt><trkpt lat="43.61218595661334" lon="11.299297004172018"><ele>228.33333333333331</ele><time>2026-04-03T11:40:33Z</time></trkpt><trkpt lat="43.61234870177104" lon="11.299381193831689"><ele>229.0</ele><time>2026-04-03T11:40:34Z</time></trkpt><trkpt lat="43.61252310217593" lon="11.299489323840218"><ele>229.0</ele><time>2026-04-03T11:40:35Z</time></trkpt><trkpt lat="43.61271382930111" lon="11.299590535419432"><ele>229.0</ele><time>2026-04-03T11:40:36Z</time></trkpt><trkpt lat="43.612907782857455" lon="11.299695084846306"><ele>229.0</ele><time>2026-04-03T11:40:37Z</time></trkpt><trkpt lat="43.61310431016587" lon="11.299796834114316"><ele>228.5</ele><time>2026-04-03T11:40:38Z</time></trkpt><trkpt lat="43.61330310202124" lon="11.299900277091794"><ele>228.0</ele><time>2026-04-03T11:40:39Z</time></trkpt><trkpt lat="43.61353259715048" lon="11.300033921169828"><ele>231.33333333333331</ele><time>2026-04-03T11:40:40Z</time></trkpt><trkpt lat="43.61377207443796" lon="11.300174092101253"><ele>234.66666666666666</ele><time>2026-04-03T11:40:41Z</time></trkpt><trkpt lat="43.6138623683229" lon="11.300208914499951"><ele>238.0</ele><time>2026-04-03T11:40:42Z</time></trkpt><trkpt lat="43.6139925304208" lon="11.300280711017717"><ele>237.99999999999997</ele><time>2026-04-03T11:40:43Z</time></trkpt><trkpt lat="43.61409087533765" lon="11.300334586111205"><ele>238.0</ele><time>2026-04-03T11:40:44Z</time></trkpt><trkpt lat="43.61418078166857" lon="11.300382657071601"><ele>238.0</ele><time>2026-04-03T11:40:45Z</time></trkpt><trkpt lat="43.61426321001689" lon="11.30039818469061"><ele>238.0</ele><time>2026-04-03T11:40:46Z</time></trkpt><trkpt lat="43.61433247888225" lon="11.300352665208315"><ele>237.99999999999997</ele><time>2026-04-03T11:40:47Z</time></trkpt><trkpt lat="43.61438152391984" lon="11.300256916233659"><ele>238.0</ele><time>2026-04-03T11:40:48Z</time></trkpt><trkpt lat="43.614398277042376" lon="11.300151619930812"><ele>238.0</ele><time>2026-04-03T11:40:49Z</time></trkpt><trkpt lat="43.61437760197082" lon="11.300027470327837"><ele>238.0</ele><time>2026-04-03T11:40:50Z</time></trkpt><trkpt lat="43.614313884830544" lon="11.299915095996061"><ele>238.0</ele><time>2026-04-03T11:40:51Z</time></trkpt><trkpt lat="43.61419911924436" lon="11.299834648782854"><ele>238.0</ele><time>2026-04-03T11:40:52Z</time></trkpt><trkpt lat="43.614050161706764" lon="11.29972826788741"><ele>238.5</ele><time>2026-04-03T11:40:53Z</time></trkpt><trkpt lat="43.61389203935328" lon="11.299617314945056"><ele>239.0</ele><time>2026-04-03T11:40:54Z</time></trkpt><trkpt lat="43.61376609106565" lon="11.299527146156437"><ele>239.5</ele><time>2026-04-03T11:40:55Z</time></trkpt><trkpt lat="43.613663984086436" lon="11.299449063752364"><ele>240.0</ele><time>2026-04-03T11:40:56Z</time></trkpt><trkpt lat="43.6135993952513" lon="11.299360366670147"><ele>240.0</ele><time>2026-04-03T11:40:57Z</time></trkpt><trkpt lat="43.613539110472985" lon="11.299256168840577"><ele>240.0</ele><time>2026-04-03T11:40:58Z</time></trkpt><trkpt lat="43.61347459636044" lon="11.299134563661328"><ele>240.0</ele><time>2026-04-03T11:40:59Z</time></trkpt><trkpt lat="43.61340142787736" lon="11.29899576815292"><ele>240.0</ele><time>2026-04-03T11:41:00Z</time></trkpt><trkpt lat="43.613332180309065" lon="11.298860912931854"><ele>241.0</ele><time>2026-04-03T11:41:01Z</time></trkpt><trkpt lat="43.61327188973419" lon="11.298744870877787"><ele>242.0</ele><time>2026-04-03T11:41:02Z</time></trkpt><trkpt lat="43.61321167614523" lon="11.298628977547141"><ele>243.0</ele><time>2026-04-03T11:41:03Z</time></trkpt><trkpt lat="43.61315339031513" lon="11.298508254348762"><ele>244.0</ele><time>2026-04-03T11:41:04Z</time></trkpt><trkpt lat="43.613106492377604" lon="11.298404678479985"><ele>245.0</ele><time>2026-04-03T11:41:05Z</time></trkpt><trkpt lat="43.61307435589418" lon="11.298313065608385"><ele>245.0</ele><time>2026-04-03T11:41:06Z</time></trkpt><trkpt lat="43.61306056409728" lon="11.298177498477514"><ele>245.0</ele><time>2026-04-03T11:41:07Z</time></trkpt><trkpt lat="43.61306536203154" lon="11.29803454537733"><ele>245.0</ele><time>2026-04-03T11:41:08Z</time></trkpt><trkpt lat="43.61313001124975" lon="11.297916218447623"><ele>245.0</ele><time>2026-04-03T11:41:08.999Z</time></trkpt><trkpt lat="43.61321982394619" lon="11.297820840497396"><ele>245.0</ele><time>2026-04-03T11:41:09.999Z</time></trkpt><trkpt lat="43.61332565986322" lon="11.29778055669637"><ele>244.25</ele><time>2026-04-03T11:41:10.999Z</time></trkpt><trkpt lat="43.613442574488644" lon="11.297789626553786"><ele>243.5</ele><time>2026-04-03T11:41:11.999Z</time></trkpt><trkpt lat="43.61355121127568" lon="11.297860869158585"><ele>242.75</ele><time>2026-04-03T11:41:12.999Z</time></trkpt><trkpt lat="43.61363198764507" lon="11.297998705073422"><ele>242.0</ele><time>2026-04-03T11:41:13.999Z</time></trkpt><trkpt lat="43.61373811479645" lon="11.298176395932925"><ele>244.0</ele><time>2026-04-03T11:41:14.999Z</time></trkpt><trkpt lat="43.613883854235375" lon="11.298393539871679"><ele>246.0</ele><time>2026-04-03T11:41:15.999Z</time></trkpt><trkpt lat="43.613999563373106" lon="11.298635698688898"><ele>248.0</ele><time>2026-04-03T11:41:16.999Z</time></trkpt><trkpt lat="43.61412359781169" lon="11.298811655421765"><ele>248.0</ele><time>2026-04-03T11:41:17.999Z</time></trkpt><trkpt lat="43.614289410431134" lon="11.298950654122677"><ele>248.0</ele><time>2026-04-03T11:41:18.999Z</time></trkpt><trkpt lat="43.61449243951002" lon="11.299029796921975"><ele>248.0</ele><time>2026-04-03T11:41:19.999Z</time></trkpt><trkpt lat="43.61472574874857" lon="11.299116686990542"><ele>250.0</ele><time>2026-04-03T11:41:20.999Z</time></trkpt><trkpt lat="43.61496719723378" lon="11.299219015285468"><ele>252.0</ele><time>2026-04-03T11:41:21.999Z</time></trkpt><trkpt lat="43.615207455459796" lon="11.299326911834978"><ele>255.0</ele><time>2026-04-03T11:41:22.999Z</time></trkpt><trkpt lat="43.61545764452038" lon="11.299445682902741"><ele>258.0</ele><time>2026-04-03T11:41:23.999Z</time></trkpt><trkpt lat="43.61568621006565" lon="11.299545102889496"><ele>258.0</ele><time>2026-04-03T11:41:24.999Z</time></trkpt><trkpt lat="43.61592372560975" lon="11.29960833107432"><ele>258.0</ele><time>2026-04-03T11:41:25.999Z</time></trkpt><trkpt lat="43.61617319718176" lon="11.299666106950731"><ele>258.5</ele><time>2026-04-03T11:41:26.999Z</time></trkpt><trkpt lat="43.61642334241854" lon="11.29973874432572"><ele>259.0</ele><time>2026-04-03T11:41:27.999Z</time></trkpt><trkpt lat="43.616623209099075" lon="11.299809191652479"><ele>259.3333333333333</ele><time>2026-04-03T11:41:28.999Z</time></trkpt><trkpt lat="43.61678044324433" lon="11.2998749555032"><ele>259.6666666666667</ele><time>2026-04-03T11:41:29.999Z</time></trkpt><trkpt lat="43.61691509582346" lon="11.29998726099633"><ele>260.0</ele><time>2026-04-03T11:41:30.999Z</time></trkpt><trkpt lat="43.617068185433226" lon="11.300154715861678"><ele>260.0</ele><time>2026-04-03T11:41:31.999Z</time></trkpt><trkpt lat="43.617240410885465" lon="11.300347687011968"><ele>260.0</ele><time>2026-04-03T11:41:32.999Z</time></trkpt><trkpt lat="43.617430398025476" lon="11.300557655817112"><ele>263.5</ele><time>2026-04-03T11:41:33.999Z</time></trkpt><trkpt lat="43.617623765424085" lon="11.30076753961479"><ele>267.0</ele><time>2026-04-03T11:41:34.999Z</time></trkpt><trkpt lat="43.61779027998547" lon="11.300943150239425"><ele>266.3333333333333</ele><time>2026-04-03T11:41:35.999Z</time></trkpt><trkpt lat="43.61794409748387" lon="11.301118453540077"><ele>265.66666666666663</ele><time>2026-04-03T11:41:36.999Z</time></trkpt><trkpt lat="43.61809572547575" lon="11.301326331901993"><ele>265.0</ele><time>2026-04-03T11:41:37.999Z</time></trkpt><trkpt lat="43.61825804223006" lon="11.30156395660047"><ele>265.0</ele><time>2026-04-03T11:41:38.999Z</time></trkpt><trkpt lat="43.61842616745502" lon="11.301831488919282"><ele>265.0</ele><time>2026-04-03T11:41:39.999Z</time></trkpt><trkpt lat="43.618597537456395" lon="11.302097817566535"><ele>266.0</ele><time>2026-04-03T11:41:40.999Z</time></trkpt><trkpt lat="43.61876643546547" lon="11.302351680060141"><ele>267.0</ele><time>2026-04-03T11:41:41.999Z</time></trkpt><trkpt lat="43.61893729242282" lon="11.302591473177738"><ele>267.0</ele><time>2026-04-03T11:41:42.999Z</time></trkpt><trkpt lat="43.619135817654616" lon="11.302783381449734"><ele>267.0</ele><time>2026-04-03T11:41:43.999Z</time></trkpt><trkpt lat="43.61937114201802" lon="11.302900694097367"><ele>267.5</ele><time>2026-04-03T11:41:44.999Z</time></trkpt><trkpt lat="43.619631622338375" lon="11.303002990643394"><ele>268.0</ele><time>2026-04-03T11:41:45.999Z</time></trkpt><trkpt lat="43.61986584003987" lon="11.303099752344748"><ele>271.5</ele><time>2026-04-03T11:41:46.999Z</time></trkpt><trkpt lat="43.62007395510933" lon="11.303222261462295"><ele>275.0</ele><time>2026-04-03T11:41:47.999Z</time></trkpt><trkpt lat="43.62026936077614" lon="11.303433016206203"><ele>275.5</ele><time>2026-04-03T11:41:48.999Z</time></trkpt><trkpt lat="43.62048775305127" lon="11.303644487907238"><ele>276.0</ele><time>2026-04-03T11:41:49.999Z</time></trkpt><trkpt lat="43.62070451087599" lon="11.30386566461847"><ele>279.5</ele><time>2026-04-03T11:41:50.999Z</time></trkpt><trkpt lat="43.62092486521349" lon="11.304037364813597"><ele>283.0</ele><time>2026-04-03T11:41:51.999Z</time></trkpt><trkpt lat="43.62115455588669" lon="11.30421977900266"><ele>284.66666666666663</ele><time>2026-04-03T11:41:52.999Z</time></trkpt><trkpt lat="43.62135650626173" lon="11.304387531542305"><ele>286.3333333333333</ele><time>2026-04-03T11:41:53.999Z</time></trkpt><trkpt lat="43.62152316064733" lon="11.304516952115863"><ele>288.0</ele><time>2026-04-03T11:41:54.999Z</time></trkpt><trkpt lat="43.62166114776641" lon="11.30463693189297"><ele>288.25</ele><time>2026-04-03T11:41:55.999Z</time></trkpt><trkpt lat="43.6217642021368" lon="11.304765666064121"><ele>288.5</ele><time>2026-04-03T11:41:56.999Z</time></trkpt><trkpt lat="43.62184553540185" lon="11.304920969921323"><ele>288.75</ele><time>2026-04-03T11:41:57.999Z</time></trkpt><trkpt lat="43.62190857213157" lon="11.305135200728344"><ele>289.0</ele><time>2026-04-03T11:41:58.999Z</time></trkpt><trkpt lat="43.621977533102644" lon="11.305411833961658"><ele>288.0</ele><time>2026-04-03T11:41:59.999Z</time></trkpt><trkpt lat="43.62206092564249" lon="11.305713652491521"><ele>287.0</ele><time>2026-04-03T11:42:00.999Z</time></trkpt><trkpt lat="43.62214857900589" lon="11.305996001397526"><ele>287.0</ele><time>2026-04-03T11:42:01.999Z</time></trkpt><trkpt lat="43.62223572031611" lon="11.3062742309362"><ele>287.0</ele><time>2026-04-03T11:42:02.999Z</time></trkpt><trkpt lat="43.62233248266214" lon="11.306550548598512"><ele>287.0</ele><time>2026-04-03T11:42:03.999Z</time></trkpt><trkpt lat="43.622439482259765" lon="11.306816157774945"><ele>287.33333333333337</ele><time>2026-04-03T11:42:05Z</time></trkpt><trkpt lat="43.62255403834262" lon="11.307074788276298"><ele>287.6666666666667</ele><time>2026-04-03T11:42:06Z</time></trkpt><trkpt lat="43.62266598695017" lon="11.307328732327662"><ele>288.0</ele><time>2026-04-03T11:42:07Z</time></trkpt><trkpt lat="43.62277707372402" lon="11.307578664790435"><ele>287.3333333333333</ele><time>2026-04-03T11:42:08Z</time></trkpt><trkpt lat="43.62290155896479" lon="11.307806258210213"><ele>286.66666666666663</ele><time>2026-04-03T11:42:09Z</time></trkpt><trkpt lat="43.6230462182976" lon="11.307993256254825"><ele>286.0</ele><time>2026-04-03T11:42:10Z</time></trkpt><trkpt lat="43.623198254708264" lon="11.308138428779953"><ele>287.3333333333333</ele><time>2026-04-03T11:42:11Z</time></trkpt><trkpt lat="43.62335346235345" lon="11.308319113979561"><ele>288.6666666666667</ele><time>2026-04-03T11:42:12Z</time></trkpt><trkpt lat="43.623493568713855" lon="11.30847463058616"><ele>290.0</ele><time>2026-04-03T11:42:13Z</time></trkpt><trkpt lat="43.62363252326226" lon="11.308612518675181"><ele>291.33333333333337</ele><time>2026-04-03T11:42:14Z</time></trkpt><trkpt lat="43.623785118658844" lon="11.308726448778332"><ele>292.6666666666667</ele><time>2026-04-03T11:42:15Z</time></trkpt><trkpt lat="43.62395983009629" lon="11.308810511085042"><ele>294.0</ele><time>2026-04-03T11:42:16Z</time></trkpt><trkpt lat="43.624162584258414" lon="11.308873516966823"><ele>295.5</ele><time>2026-04-03T11:42:17Z</time></trkpt><trkpt lat="43.62438381367736" lon="11.308951709872963"><ele>297.0</ele><time>2026-04-03T11:42:18Z</time></trkpt><trkpt lat="43.624613584999494" lon="11.30905726344653"><ele>302.0</ele><time>2026-04-03T11:42:19Z</time></trkpt><trkpt lat="43.62485536709299" lon="11.309166103326891"><ele>307.0</ele><time>2026-04-03T11:42:20Z</time></trkpt><trkpt lat="43.625106759919206" lon="11.309259529885242"><ele>311.5</ele><time>2026-04-03T11:42:21Z</time></trkpt><trkpt lat="43.62535562969593" lon="11.309338870691382"><ele>316.0</ele><time>2026-04-03T11:42:22Z</time></trkpt><trkpt lat="43.625593826389384" lon="11.309406899938358"><ele>316.0</ele><time>2026-04-03T11:42:23Z</time></trkpt><trkpt lat="43.62581531377331" lon="11.309468447912431"><ele>316.0</ele><time>2026-04-03T11:42:24Z</time></trkpt><trkpt lat="43.62603098021053" lon="11.309536466415354"><ele>316.0</ele><time>2026-04-03T11:42:25Z</time></trkpt><trkpt lat="43.626255685095835" lon="11.309641021913514"><ele>317.5</ele><time>2026-04-03T11:42:26Z</time></trkpt><trkpt lat="43.62648418049527" lon="11.309769897786905"><ele>319.0</ele><time>2026-04-03T11:42:27Z</time></trkpt><trkpt lat="43.62670458118091" lon="11.309864893749225"><ele>319.0</ele><time>2026-04-03T11:42:28Z</time></trkpt><trkpt lat="43.626909639231584" lon="11.309930594828046"><ele>319.0</ele><time>2026-04-03T11:42:29Z</time></trkpt><trkpt lat="43.627075793685265" lon="11.309999878131112"><ele>319.0</ele><time>2026-04-03T11:42:30Z</time></trkpt><trkpt lat="43.62721633912962" lon="11.310125444888959"><ele>322.66666666666663</ele><time>2026-04-03T11:42:31Z</time></trkpt><trkpt lat="43.62734049885335" lon="11.310326274482309"><ele>326.3333333333333</ele><time>2026-04-03T11:42:32Z</time></trkpt><trkpt lat="43.6275108419097" lon="11.310441863833052"><ele>330.0</ele><time>2026-04-03T11:42:33Z</time></trkpt><trkpt lat="43.627575399112644" lon="11.310845588860776"><ele>330.0</ele><time>2026-04-03T11:42:34Z</time></trkpt><trkpt lat="43.62773747830154" lon="11.311071248468885"><ele>330.0</ele><time>2026-04-03T11:42:35Z</time></trkpt><trkpt lat="43.627908076634355" lon="11.311246144081741"><ele>330.0</ele><time>2026-04-03T11:42:36Z</time></trkpt><trkpt lat="43.62808402548331" lon="11.311372078896252"><ele>334.6666666666667</ele><time>2026-04-03T11:42:37Z</time></trkpt><trkpt lat="43.628238384699344" lon="11.31146412895979"><ele>339.33333333333337</ele><time>2026-04-03T11:42:38Z</time></trkpt><trkpt lat="43.62839506599203" lon="11.311515647702196"><ele>344.0</ele><time>2026-04-03T11:42:39Z</time></trkpt><trkpt lat="43.62858353832444" lon="11.311527562541036"><ele>342.33333333333337</ele><time>2026-04-03T11:42:40Z</time></trkpt><trkpt lat="43.62877105168357" lon="11.31153560484344"><ele>340.6666666666667</ele><time>2026-04-03T11:42:41Z</time></trkpt><trkpt lat="43.62895673461996" lon="11.311564009784934"><ele>339.0</ele><time>2026-04-03T11:42:42Z</time></trkpt><trkpt lat="43.629142662422154" lon="11.311602423414856"><ele>339.0</ele><time>2026-04-03T11:42:43Z</time></trkpt><trkpt lat="43.62929718867389" lon="11.311644480741911"><ele>339.0</ele><time>2026-04-03T11:42:44Z</time></trkpt><trkpt lat="43.62945060127476" lon="11.31174635109315"><ele>339.0</ele><time>2026-04-03T11:42:45Z</time></trkpt><trkpt lat="43.62962850313168" lon="11.311916239539139"><ele>331.0</ele><time>2026-04-03T11:42:46Z</time></trkpt><trkpt lat="43.62983458586211" lon="11.312091880814735"><ele>323.0</ele><time>2026-04-03T11:42:47Z</time></trkpt><trkpt lat="43.63006292305987" lon="11.312227474387699"><ele>322.0</ele><time>2026-04-03T11:42:48Z</time></trkpt><trkpt lat="43.63031312894794" lon="11.312339661362591"><ele>321.0</ele><time>2026-04-03T11:42:49Z</time></trkpt><trkpt lat="43.630541952409644" lon="11.312442761986613"><ele>321.0</ele><time>2026-04-03T11:42:50Z</time></trkpt><trkpt lat="43.63074691049005" lon="11.3125403416462"><ele>321.0</ele><time>2026-04-03T11:42:51Z</time></trkpt><trkpt lat="43.6309471024668" lon="11.312640261878208"><ele>321.0</ele><time>2026-04-03T11:42:52Z</time></trkpt><trkpt lat="43.631131413085505" lon="11.312765170338226"><ele>319.6666666666667</ele><time>2026-04-03T11:42:53Z</time></trkpt><trkpt lat="43.63129886004509" lon="11.312942123833517"><ele>318.33333333333337</ele><time>2026-04-03T11:42:54Z</time></trkpt><trkpt lat="43.63147912933136" lon="11.31312296945026"><ele>317.0</ele><time>2026-04-03T11:42:55Z</time></trkpt><trkpt lat="43.63169752336948" lon="11.313255197833499"><ele>317.0</ele><time>2026-04-03T11:42:56Z</time></trkpt><trkpt lat="43.63193884125429" lon="11.313345757393781"><ele>317.0</ele><time>2026-04-03T11:42:57Z</time></trkpt><trkpt lat="43.63216812653144" lon="11.313444007627012"><ele>313.6666666666667</ele><time>2026-04-03T11:42:58Z</time></trkpt><trkpt lat="43.63237633910843" lon="11.31357209402724"><ele>310.3333333333333</ele><time>2026-04-03T11:42:59Z</time></trkpt><trkpt lat="43.63256129090478" lon="11.31371461711126"><ele>307.0</ele><time>2026-04-03T11:43:00Z</time></trkpt><trkpt lat="43.632725787191475" lon="11.313844753790558"><ele>308.3333333333333</ele><time>2026-04-03T11:43:01Z</time></trkpt><trkpt lat="43.632891821274804" lon="11.313923220365009"><ele>309.6666666666667</ele><time>2026-04-03T11:43:02Z</time></trkpt><trkpt lat="43.63308554449897" lon="11.313926865599608"><ele>311.0</ele><time>2026-04-03T11:43:03Z</time></trkpt><trkpt lat="43.63329302107703" lon="11.313867997645437"><ele>308.33333333333337</ele><time>2026-04-03T11:43:04Z</time></trkpt><trkpt lat="43.63348520005911" lon="11.313809434637779"><ele>305.6666666666667</ele><time>2026-04-03T11:43:05Z</time></trkpt><trkpt lat="43.6336654227978" lon="11.313797775092302"><ele>303.0</ele><time>2026-04-03T11:43:06Z</time></trkpt><trkpt lat="43.633859186576544" lon="11.313863465065277"><ele>303.6666666666667</ele><time>2026-04-03T11:43:07Z</time></trkpt><trkpt lat="43.634034786331185" lon="11.313981585122832"><ele>304.33333333333337</ele><time>2026-04-03T11:43:08Z</time></trkpt><trkpt lat="43.634171890641205" lon="11.314085046044978"><ele>305.0</ele><time>2026-04-03T11:43:09Z</time></trkpt><trkpt lat="43.63430729058116" lon="11.314102661042584"><ele>305.0</ele><time>2026-04-03T11:43:09.999Z</time></trkpt><trkpt lat="43.63446859367606" lon="11.314013739623423"><ele>305.0</ele><time>2026-04-03T11:43:10.999Z</time></trkpt><trkpt lat="43.634640460970836" lon="11.313876923406335"><ele>305.0</ele><time>2026-04-03T11:43:11.999Z</time></trkpt><trkpt lat="43.634825644258854" lon="11.313727215450578"><ele>303.33333333333337</ele><time>2026-04-03T11:43:12.999Z</time></trkpt><trkpt lat="43.63501003044019" lon="11.313588943492464"><ele>301.6666666666667</ele><time>2026-04-03T11:43:13.999Z</time></trkpt><trkpt lat="43.635180384806375" lon="11.31349448662297"><ele>300.0</ele><time>2026-04-03T11:43:14.999Z</time></trkpt><trkpt lat="43.635352520861034" lon="11.313456809551639"><ele>300.0</ele><time>2026-04-03T11:43:15.999Z</time></trkpt><trkpt lat="43.63555264574337" lon="11.313462634353975"><ele>300.0</ele><time>2026-04-03T11:43:16.999Z</time></trkpt><trkpt lat="43.63576485809761" lon="11.31350473948435"><ele>300.0</ele><time>2026-04-03T11:43:17.999Z</time></trkpt><trkpt lat="43.63598506324678" lon="11.313565036787764"><ele>296.6666666666667</ele><time>2026-04-03T11:43:18.999Z</time></trkpt><trkpt lat="43.6361928701801" lon="11.313629382929763"><ele>293.33333333333337</ele><time>2026-04-03T11:43:19.999Z</time></trkpt><trkpt lat="43.63638006487039" lon="11.313706717696965"><ele>290.0</ele><time>2026-04-03T11:43:20.999Z</time></trkpt><trkpt lat="43.63654295368678" lon="11.313807916473998"><ele>290.0</ele><time>2026-04-03T11:43:21.999Z</time></trkpt><trkpt lat="43.63668468452516" lon="11.313904500665842"><ele>290.0</ele><time>2026-04-03T11:43:22.999Z</time></trkpt><trkpt lat="43.63679771943249" lon="11.313979292860504"><ele>290.0</ele><time>2026-04-03T11:43:23.999Z</time></trkpt><trkpt lat="43.63690174830404" lon="11.314039497877218"><ele>290.0</ele><time>2026-04-03T11:43:24.999Z</time></trkpt><trkpt lat="43.636983563703204" lon="11.314063152413489"><ele>290.0</ele><time>2026-04-03T11:43:25.999Z</time></trkpt><trkpt lat="43.63705062470471" lon="11.31397947581661"><ele>290.0</ele><time>2026-04-03T11:43:27.999Z</time></trkpt><trkpt lat="43.63700814937888" lon="11.313877918679456"><ele>290.0</ele><time>2026-04-03T11:43:29.999Z</time></trkpt><trkpt lat="43.63694199340489" lon="11.313776159952132"><ele>290.0</ele><time>2026-04-03T11:43:31.999Z</time></trkpt><trkpt lat="43.636970726391006" lon="11.313592835722016"><ele>290.0</ele><time>2026-04-03T11:43:33.999Z</time></trkpt><trkpt lat="43.63701566582534" lon="11.313497371025115"><ele>288.33333333333337</ele><time>2026-04-03T11:43:34.999Z</time></trkpt><trkpt lat="43.63706883978778" lon="11.313415475942934"><ele>286.6666666666667</ele><time>2026-04-03T11:43:36.999Z</time></trkpt><trkpt lat="43.63710608415792" lon="11.313334502980718"><ele>285.0</ele><time>2026-04-03T11:47:31.999Z</time></trkpt><trkpt lat="43.637180120834216" lon="11.31328468027085"><ele>283.3333333333333</ele><time>2026-04-03T11:47:34.999Z</time></trkpt><trkpt lat="43.63725018985044" lon="11.313291532524119"><ele>281.66666666666663</ele><time>2026-04-03T11:47:35.999Z</time></trkpt><trkpt lat="43.63733692619602" lon="11.313337320467252"><ele>280.0</ele><time>2026-04-03T11:47:36.999Z</time></trkpt><trkpt lat="43.63738639289433" lon="11.313397185261156"><ele>280.0</ele><time>2026-04-03T11:47:37.999Z</time></trkpt><trkpt lat="43.63742297848511" lon="11.313473227364636"><ele>280.0</ele><time>2026-04-03T11:47:38.999Z</time></trkpt><trkpt lat="43.63747822948908" lon="11.313553861208927"><ele>280.0</ele><time>2026-04-03T11:47:40.999Z</time></trkpt><trkpt lat="43.6375399088503" lon="11.313486492457626"><ele>280.0</ele><time>2026-04-03T11:47:42.999Z</time></trkpt><trkpt lat="43.63759017253685" lon="11.313426875359804"><ele>280.0</ele><time>2026-04-03T11:47:43.999Z</time></trkpt><trkpt lat="43.637673165837775" lon="11.31339763837166"><ele>280.0</ele><time>2026-04-03T11:47:44.999Z</time></trkpt><trkpt lat="43.63777034353387" lon="11.313371524163394"><ele>278.4</ele><time>2026-04-03T11:47:45.999Z</time></trkpt><trkpt lat="43.637878696463126" lon="11.313330638168898"><ele>276.8</ele><time>2026-04-03T11:47:46.999Z</time></trkpt><trkpt lat="43.63796889976586" lon="11.313298307297481"><ele>275.2</ele><time>2026-04-03T11:47:47.999Z</time></trkpt><trkpt lat="43.63805492871927" lon="11.31326979395264"><ele>273.6</ele><time>2026-04-03T11:47:48.999Z</time></trkpt><trkpt lat="43.63814589678748" lon="11.313239611800089"><ele>272.0</ele><time>2026-04-03T11:47:49.999Z</time></trkpt><trkpt lat="43.638242162151556" lon="11.313197944826648"><ele>272.0</ele><time>2026-04-03T11:47:50.999Z</time></trkpt><trkpt lat="43.638336861240866" lon="11.313179454621833"><ele>272.0</ele><time>2026-04-03T11:47:51.999Z</time></trkpt><trkpt lat="43.63844209380332" lon="11.313176835148688"><ele>272.0</ele><time>2026-04-03T11:47:52.999Z</time></trkpt><trkpt lat="43.638554422738736" lon="11.313178702189088"><ele>272.0</ele><time>2026-04-03T11:47:53.999Z</time></trkpt><trkpt lat="43.63866864444064" lon="11.313155292753365"><ele>272.0</ele><time>2026-04-03T11:47:54.999Z</time></trkpt><trkpt lat="43.63878702722641" lon="11.31311192459226"><ele>273.25</ele><time>2026-04-03T11:47:55.999Z</time></trkpt><trkpt lat="43.638898915124855" lon="11.313092000673587"><ele>274.5</ele><time>2026-04-03T11:47:56.999Z</time></trkpt><trkpt lat="43.63901063373902" lon="11.313093881040102"><ele>275.75</ele><time>2026-04-03T11:47:57.999Z</time></trkpt><trkpt lat="43.63912599820526" lon="11.313080732562746"><ele>277.0</ele><time>2026-04-03T11:47:58.999Z</time></trkpt><trkpt lat="43.63923926036025" lon="11.31305529292322"><ele>277.2</ele><time>2026-04-03T11:47:59.999Z</time></trkpt><trkpt lat="43.639343526406705" lon="11.313038304291261"><ele>277.4</ele><time>2026-04-03T11:48:00.999Z</time></trkpt><trkpt lat="43.63942188910173" lon="11.313011141548781"><ele>277.6</ele><time>2026-04-03T11:48:01.999Z</time></trkpt><trkpt lat="43.63949383503073" lon="11.31295401266725"><ele>277.8</ele><time>2026-04-03T11:48:02.999Z</time></trkpt><trkpt lat="43.63958238177704" lon="11.312889578541535"><ele>278.0</ele><time>2026-04-03T11:48:03.999Z</time></trkpt><trkpt lat="43.63968704110864" lon="11.31282744676835"><ele>278.0</ele><time>2026-04-03T11:48:04.999Z</time></trkpt><trkpt lat="43.63980308042088" lon="11.312769545975497"><ele>278.0</ele><time>2026-04-03T11:48:05.999Z</time></trkpt><trkpt lat="43.63991882862968" lon="11.31270531976551"><ele>278.0</ele><time>2026-04-03T11:48:06.999Z</time></trkpt><trkpt lat="43.64001494496623" lon="11.312650315181237"><ele>278.0</ele><time>2026-04-03T11:48:07.999Z</time></trkpt><trkpt lat="43.64007769815717" lon="11.31261699422508"><ele>278.0</ele><time>2026-04-03T11:48:08.999Z</time></trkpt><trkpt lat="43.64014155141645" lon="11.31262320458912"><ele>278.0</ele><time>2026-04-03T11:48:10.999Z</time></trkpt><trkpt lat="43.64015485882345" lon="11.312748610338499"><ele>278.0</ele><time>2026-04-03T11:48:12.999Z</time></trkpt><trkpt lat="43.6401598418573" lon="11.312845571306998"><ele>278.0</ele><time>2026-04-03T11:48:13.999Z</time></trkpt><trkpt lat="43.64026399649801" lon="11.312910480554928"><ele>278.0</ele><time>2026-04-03T11:48:15.999Z</time></trkpt><trkpt lat="43.640354682367814" lon="11.312860407921901"><ele>278.0</ele><time>2026-04-03T11:48:16.999Z</time></trkpt><trkpt lat="43.64046204143857" lon="11.312805027950143"><ele>277.25</ele><time>2026-04-03T11:48:17.999Z</time></trkpt><trkpt lat="43.64059133381379" lon="11.312748156728437"><ele>276.5</ele><time>2026-04-03T11:48:18.999Z</time></trkpt><trkpt lat="43.64073296383386" lon="11.312691679146118"><ele>275.75</ele><time>2026-04-03T11:48:19.999Z</time></trkpt><trkpt lat="43.64088483648263" lon="11.312630721267467"><ele>275.0</ele><time>2026-04-03T11:48:20.999Z</time></trkpt><trkpt lat="43.641043853178545" lon="11.312566726208852"><ele>270.5</ele><time>2026-04-03T11:48:21.999Z</time></trkpt><trkpt lat="43.64127059970081" lon="11.312875747790129"><ele>266.0</ele><time>2026-04-03T11:48:23Z</time></trkpt><trkpt lat="43.64140805123691" lon="11.312834149853122"><ele>266.0</ele><time>2026-04-03T11:48:24Z</time></trkpt><trkpt lat="43.64153287616069" lon="11.312809468863922"><ele>266.0</ele><time>2026-04-03T11:48:25Z</time></trkpt><trkpt lat="43.6416498357054" lon="11.31278943074704"><ele>266.0</ele><time>2026-04-03T11:48:26Z</time></trkpt><trkpt lat="43.641761920488065" lon="11.312770572007645"><ele>266.0</ele><time>2026-04-03T11:48:27Z</time></trkpt><trkpt lat="43.64187098657734" lon="11.31273588159635"><ele>266.0</ele><time>2026-04-03T11:48:28Z</time></trkpt><trkpt lat="43.641963089138315" lon="11.312700105395127"><ele>266.0</ele><time>2026-04-03T11:48:29Z</time></trkpt><trkpt lat="43.642032908850155" lon="11.31266632642888"><ele>266.0</ele><time>2026-04-03T11:48:30Z</time></trkpt><trkpt lat="43.64213469089854" lon="11.312601073051333"><ele>266.0</ele><time>2026-04-03T11:48:32Z</time></trkpt><trkpt lat="43.6422125530571" lon="11.312555325474742"><ele>266.0</ele><time>2026-04-03T11:48:33Z</time></trkpt><trkpt lat="43.64230393221775" lon="11.312501279846863"><ele>260.0</ele><time>2026-04-03T11:48:34Z</time></trkpt><trkpt lat="43.64233890973298" lon="11.311560454804171"><ele>260.0</ele><time>2026-04-03T11:48:35Z</time></trkpt><trkpt lat="43.64246810859652" lon="11.311424249916305"><ele>260.0</ele><time>2026-04-03T11:48:36Z</time></trkpt><trkpt lat="43.642595368513234" lon="11.31127798825017"><ele>260.0</ele><time>2026-04-03T11:48:37Z</time></trkpt><trkpt lat="43.642709652748444" lon="11.31112542517912"><ele>259.0</ele><time>2026-04-03T11:48:38Z</time></trkpt><trkpt lat="43.64282469992246" lon="11.310958884648892"><ele>258.0</ele><time>2026-04-03T11:48:39Z</time></trkpt><trkpt lat="43.64294731433973" lon="11.31078445251253"><ele>257.0</ele><time>2026-04-03T11:48:40Z</time></trkpt><trkpt lat="43.64306370600987" lon="11.31061368142878"><ele>255.33333333333334</ele><time>2026-04-03T11:48:41Z</time></trkpt><trkpt lat="43.64318073655707" lon="11.31046272221471"><ele>253.66666666666669</ele><time>2026-04-03T11:48:42Z</time></trkpt><trkpt lat="43.64330421552777" lon="11.310281926036325"><ele>252.0</ele><time>2026-04-03T11:48:43Z</time></trkpt><trkpt lat="43.64341632220806" lon="11.310117781007497"><ele>252.0</ele><time>2026-04-03T11:48:44Z</time></trkpt><trkpt lat="43.64352296616623" lon="11.309929277131102"><ele>252.0</ele><time>2026-04-03T11:48:45Z</time></trkpt><trkpt lat="43.64364981182792" lon="11.309753769998483"><ele>252.0</ele><time>2026-04-03T11:48:46Z</time></trkpt><trkpt lat="43.64377641075668" lon="11.30959792031529"><ele>251.0</ele><time>2026-04-03T11:48:47Z</time></trkpt><trkpt lat="43.643913770748206" lon="11.309403965696626"><ele>250.0</ele><time>2026-04-03T11:48:48Z</time></trkpt><trkpt lat="43.64403265956498" lon="11.309204510158466"><ele>249.0</ele><time>2026-04-03T11:48:49Z</time></trkpt><trkpt lat="43.64416488031431" lon="11.309019044117353"><ele>248.33333333333331</ele><time>2026-04-03T11:48:50Z</time></trkpt><trkpt lat="43.64429528599674" lon="11.308836095124352"><ele>247.66666666666666</ele><time>2026-04-03T11:48:51Z</time></trkpt><trkpt lat="43.644430685881055" lon="11.308646663960882"><ele>247.0</ele><time>2026-04-03T11:48:52Z</time></trkpt><trkpt lat="43.64455597013354" lon="11.30846389965382"><ele>249.66666666666666</ele><time>2026-04-03T11:48:53Z</time></trkpt><trkpt lat="43.6447004073415" lon="11.308291481598236"><ele>252.33333333333331</ele><time>2026-04-03T11:48:54Z</time></trkpt><trkpt lat="43.64481604730679" lon="11.308096083758356"><ele>255.0</ele><time>2026-04-03T11:48:55Z</time></trkpt><trkpt lat="43.64495082064409" lon="11.307913157693793"><ele>255.66666666666669</ele><time>2026-04-03T11:48:56Z</time></trkpt><trkpt lat="43.64507505656147" lon="11.307737804129532"><ele>256.33333333333337</ele><time>2026-04-03T11:48:57Z</time></trkpt><trkpt lat="43.64518671750905" lon="11.307572720338436"><ele>257.0</ele><time>2026-04-03T11:48:58Z</time></trkpt><trkpt lat="43.64529823066995" lon="11.307446850093957"><ele>258.75</ele><time>2026-04-03T11:48:59Z</time></trkpt><trkpt lat="43.645385493163424" lon="11.307323627444672"><ele>260.5</ele><time>2026-04-03T11:49:00Z</time></trkpt><trkpt lat="43.64547467397697" lon="11.307200956376105"><ele>262.25</ele><time>2026-04-03T11:49:01Z</time></trkpt><trkpt lat="43.64554257660083" lon="11.307076128260666"><ele>264.0</ele><time>2026-04-03T11:49:02Z</time></trkpt><trkpt lat="43.64561580696428" lon="11.30697363717716"><ele>264.0</ele><time>2026-04-03T11:49:03Z</time></trkpt><trkpt lat="43.64569973558868" lon="11.306886959529066"><ele>264.0</ele><time>2026-04-03T11:49:04Z</time></trkpt><trkpt lat="43.645764407222806" lon="11.306789164995658"><ele>264.0</ele><time>2026-04-03T11:49:05Z</time></trkpt><trkpt lat="43.64582088333717" lon="11.306693398151905"><ele>264.0</ele><time>2026-04-03T11:49:06Z</time></trkpt><trkpt lat="43.64586152781182" lon="11.30661099828267"><ele>264.0</ele><time>2026-04-03T11:49:07Z</time></trkpt><trkpt lat="43.64588718190731" lon="11.306508686947941"><ele>264.0</ele><time>2026-04-03T11:49:09Z</time></trkpt></trkseg></trk></gpx>